<?xml version="1.0" encoding="UTF-8" standalone="no" ?>
<gpx xmlns="http://www.topografix.com/GPX/1/1" xmlns:xsi="http://www.w3.org/2001/XMLSchema-instance" xsi:schemaLocation="http://www.topografix.com/GPX/1/1 http://www.topografix.com/GPX/1/1/gpx.xsd" version="1.1" creator="VisuGPX - https://www.visugpx.com">
  <metadata>
    <name>2017-06-18 Bike ride-Amberieux-Rance O 35</name>
    <desc><![CDATA[2017-06-18 Bike ride-Amberieux-Rance O 35]]></desc>
  </metadata>
  <wpt lat="45.9245" lon="4.73726">
    <ele>174</ele>
    <name><![CDATA[2017-06-18 10:11 (Start)]]></name>
  </wpt>
  <wpt lat="45.92463" lon="4.73706">
    <ele>174</ele>
    <name><![CDATA[2017-06-18 10:11 (End)]]></name>
    <desc><![CDATA[Created by Google My Tracks on Android  Name: 2017-06-18 10:11 Activity type: biking Description: - Total distance: 34.87 km (21.7 mi) Total time: 1:55:14 Moving time: 1:54:16 Average speed: 18.15 km/h (11.3 mi/h) Average moving speed: 18.31 km/h (11.4 mi/h) Max speed: 48.10 km/h (29.9 mi/h) Average pace: 3:18 min/km (5:19 min/mi) Average moving pace: 3:17 min/km (5:16 min/mi) Fastest pace: 1:15 min/km (2:00 min/mi) Max elevation: 294 m (964 ft) Min elevation: 162 m (531 ft) Elevation gain: 561 m (1840 ft) Max grade: 16 % Min grade: -11 % Recorded: 18/06/2017 10:11]]></desc>
  </wpt>
  <trk>
    <name><![CDATA[2017-06-18 10:11]]></name>
    <trkseg>
      <trkpt lat="45.9245" lon="4.73726">
        <ele>174</ele>
        <time>2017-06-18T08:11:02.499Z</time>
      </trkpt>
      <trkpt lat="45.92458" lon="4.73711">
        <ele>174</ele>
        <time>2017-06-18T08:11:58Z</time>
      </trkpt>
      <trkpt lat="45.9246" lon="4.73708">
        <ele>174</ele>
        <time>2017-06-18T08:12:04Z</time>
      </trkpt>
      <trkpt lat="45.92489" lon="4.73655">
        <ele>174</ele>
        <time>2017-06-18T08:12:25Z</time>
      </trkpt>
      <trkpt lat="45.92494" lon="4.73652">
        <ele>174</ele>
        <time>2017-06-18T08:12:26Z</time>
      </trkpt>
      <trkpt lat="45.92499" lon="4.7365">
        <ele>174</ele>
        <time>2017-06-18T08:12:27Z</time>
      </trkpt>
      <trkpt lat="45.92504" lon="4.73649">
        <ele>174</ele>
        <time>2017-06-18T08:12:28Z</time>
      </trkpt>
      <trkpt lat="45.92509" lon="4.73648">
        <ele>174</ele>
        <time>2017-06-18T08:12:29Z</time>
      </trkpt>
      <trkpt lat="45.92513" lon="4.73647">
        <ele>174</ele>
        <time>2017-06-18T08:12:30Z</time>
      </trkpt>
      <trkpt lat="45.92518" lon="4.73646">
        <ele>174</ele>
        <time>2017-06-18T08:12:31Z</time>
      </trkpt>
      <trkpt lat="45.92527" lon="4.73646">
        <ele>173</ele>
        <time>2017-06-18T08:12:33Z</time>
      </trkpt>
      <trkpt lat="45.92531" lon="4.73644">
        <ele>173</ele>
        <time>2017-06-18T08:12:34Z</time>
      </trkpt>
      <trkpt lat="45.92535" lon="4.73643">
        <ele>173</ele>
        <time>2017-06-18T08:12:35Z</time>
      </trkpt>
      <trkpt lat="45.9254" lon="4.73641">
        <ele>173</ele>
        <time>2017-06-18T08:12:36Z</time>
      </trkpt>
      <trkpt lat="45.92544" lon="4.73639">
        <ele>173</ele>
        <time>2017-06-18T08:12:37Z</time>
      </trkpt>
      <trkpt lat="45.92549" lon="4.73637">
        <ele>173</ele>
        <time>2017-06-18T08:12:38Z</time>
      </trkpt>
      <trkpt lat="45.92554" lon="4.73635">
        <ele>173</ele>
        <time>2017-06-18T08:12:39Z</time>
      </trkpt>
      <trkpt lat="45.92559" lon="4.73634">
        <ele>173</ele>
        <time>2017-06-18T08:12:40Z</time>
      </trkpt>
      <trkpt lat="45.92564" lon="4.73631">
        <ele>173</ele>
        <time>2017-06-18T08:12:41Z</time>
      </trkpt>
      <trkpt lat="45.92568" lon="4.73629">
        <ele>173</ele>
        <time>2017-06-18T08:12:42Z</time>
      </trkpt>
      <trkpt lat="45.92574" lon="4.73627">
        <ele>173</ele>
        <time>2017-06-18T08:12:43Z</time>
      </trkpt>
      <trkpt lat="45.92579" lon="4.73625">
        <ele>173</ele>
        <time>2017-06-18T08:12:44Z</time>
      </trkpt>
      <trkpt lat="45.92584" lon="4.73624">
        <ele>172</ele>
        <time>2017-06-18T08:12:45Z</time>
      </trkpt>
      <trkpt lat="45.9259" lon="4.73622">
        <ele>173</ele>
        <time>2017-06-18T08:12:46Z</time>
      </trkpt>
      <trkpt lat="45.926" lon="4.73621">
        <ele>173</ele>
        <time>2017-06-18T08:12:48Z</time>
      </trkpt>
      <trkpt lat="45.92605" lon="4.7362">
        <ele>173</ele>
        <time>2017-06-18T08:12:49Z</time>
      </trkpt>
      <trkpt lat="45.92615" lon="4.73623">
        <ele>173</ele>
        <time>2017-06-18T08:12:51Z</time>
      </trkpt>
      <trkpt lat="45.9262" lon="4.73626">
        <ele>173</ele>
        <time>2017-06-18T08:12:52Z</time>
      </trkpt>
      <trkpt lat="45.92624" lon="4.73631">
        <ele>173</ele>
        <time>2017-06-18T08:12:53Z</time>
      </trkpt>
      <trkpt lat="45.92626" lon="4.73637">
        <ele>173</ele>
        <time>2017-06-18T08:12:54Z</time>
      </trkpt>
      <trkpt lat="45.92628" lon="4.73644">
        <ele>173</ele>
        <time>2017-06-18T08:12:55Z</time>
      </trkpt>
      <trkpt lat="45.92631" lon="4.7365">
        <ele>173</ele>
        <time>2017-06-18T08:12:56Z</time>
      </trkpt>
      <trkpt lat="45.92634" lon="4.73657">
        <ele>173</ele>
        <time>2017-06-18T08:12:57Z</time>
      </trkpt>
      <trkpt lat="45.92636" lon="4.73664">
        <ele>173</ele>
        <time>2017-06-18T08:12:58Z</time>
      </trkpt>
      <trkpt lat="45.9264" lon="4.73671">
        <ele>173</ele>
        <time>2017-06-18T08:12:59Z</time>
      </trkpt>
      <trkpt lat="45.92644" lon="4.73677">
        <ele>173</ele>
        <time>2017-06-18T08:13:00Z</time>
      </trkpt>
      <trkpt lat="45.92648" lon="4.73682">
        <ele>173</ele>
        <time>2017-06-18T08:13:01Z</time>
      </trkpt>
      <trkpt lat="45.92653" lon="4.73686">
        <ele>173</ele>
        <time>2017-06-18T08:13:02Z</time>
      </trkpt>
      <trkpt lat="45.92658" lon="4.7369">
        <ele>173</ele>
        <time>2017-06-18T08:13:03Z</time>
      </trkpt>
      <trkpt lat="45.92663" lon="4.73694">
        <ele>173</ele>
        <time>2017-06-18T08:13:04Z</time>
      </trkpt>
      <trkpt lat="45.92669" lon="4.73697">
        <ele>174</ele>
        <time>2017-06-18T08:13:05Z</time>
      </trkpt>
      <trkpt lat="45.92674" lon="4.73699">
        <ele>174</ele>
        <time>2017-06-18T08:13:06Z</time>
      </trkpt>
      <trkpt lat="45.92679" lon="4.73701">
        <ele>173</ele>
        <time>2017-06-18T08:13:07Z</time>
      </trkpt>
      <trkpt lat="45.92684" lon="4.73702">
        <ele>173</ele>
        <time>2017-06-18T08:13:08Z</time>
      </trkpt>
      <trkpt lat="45.92689" lon="4.73702">
        <ele>173</ele>
        <time>2017-06-18T08:13:09Z</time>
      </trkpt>
      <trkpt lat="45.92693" lon="4.73704">
        <ele>173</ele>
        <time>2017-06-18T08:13:10Z</time>
      </trkpt>
      <trkpt lat="45.92698" lon="4.73706">
        <ele>173</ele>
        <time>2017-06-18T08:13:11Z</time>
      </trkpt>
      <trkpt lat="45.92703" lon="4.73707">
        <ele>173</ele>
        <time>2017-06-18T08:13:12Z</time>
      </trkpt>
      <trkpt lat="45.92708" lon="4.73708">
        <ele>173</ele>
        <time>2017-06-18T08:13:13Z</time>
      </trkpt>
      <trkpt lat="45.92713" lon="4.7371">
        <ele>173</ele>
        <time>2017-06-18T08:13:14Z</time>
      </trkpt>
      <trkpt lat="45.92718" lon="4.73712">
        <ele>173</ele>
        <time>2017-06-18T08:13:15Z</time>
      </trkpt>
      <trkpt lat="45.92724" lon="4.73713">
        <ele>173</ele>
        <time>2017-06-18T08:13:16Z</time>
      </trkpt>
      <trkpt lat="45.92729" lon="4.73714">
        <ele>173</ele>
        <time>2017-06-18T08:13:17Z</time>
      </trkpt>
      <trkpt lat="45.92734" lon="4.73714">
        <ele>173</ele>
        <time>2017-06-18T08:13:18Z</time>
      </trkpt>
      <trkpt lat="45.92739" lon="4.73714">
        <ele>173</ele>
        <time>2017-06-18T08:13:19Z</time>
      </trkpt>
      <trkpt lat="45.92744" lon="4.73715">
        <ele>173</ele>
        <time>2017-06-18T08:13:20Z</time>
      </trkpt>
      <trkpt lat="45.92749" lon="4.73714">
        <ele>173</ele>
        <time>2017-06-18T08:13:21Z</time>
      </trkpt>
      <trkpt lat="45.92758" lon="4.73715">
        <ele>172</ele>
        <time>2017-06-18T08:13:23Z</time>
      </trkpt>
      <trkpt lat="45.92762" lon="4.73714">
        <ele>172</ele>
        <time>2017-06-18T08:13:24Z</time>
      </trkpt>
      <trkpt lat="45.9277" lon="4.73718">
        <ele>172</ele>
        <time>2017-06-18T08:13:26Z</time>
      </trkpt>
      <trkpt lat="45.92773" lon="4.73719">
        <ele>172</ele>
        <time>2017-06-18T08:13:27Z</time>
      </trkpt>
      <trkpt lat="45.9278" lon="4.73723">
        <ele>172</ele>
        <time>2017-06-18T08:13:29Z</time>
      </trkpt>
      <trkpt lat="45.92781" lon="4.73726">
        <ele>172</ele>
        <time>2017-06-18T08:13:30Z</time>
      </trkpt>
      <trkpt lat="45.92784" lon="4.73737">
        <ele>172</ele>
        <time>2017-06-18T08:13:32Z</time>
      </trkpt>
      <trkpt lat="45.92787" lon="4.73743">
        <ele>172</ele>
        <time>2017-06-18T08:13:33Z</time>
      </trkpt>
      <trkpt lat="45.9279" lon="4.73748">
        <ele>172</ele>
        <time>2017-06-18T08:13:34Z</time>
      </trkpt>
      <trkpt lat="45.92794" lon="4.73752">
        <ele>173</ele>
        <time>2017-06-18T08:13:35Z</time>
      </trkpt>
      <trkpt lat="45.92797" lon="4.73757">
        <ele>173</ele>
        <time>2017-06-18T08:13:36Z</time>
      </trkpt>
      <trkpt lat="45.92801" lon="4.73763">
        <ele>173</ele>
        <time>2017-06-18T08:13:37Z</time>
      </trkpt>
      <trkpt lat="45.92805" lon="4.73767">
        <ele>173</ele>
        <time>2017-06-18T08:13:38Z</time>
      </trkpt>
      <trkpt lat="45.9281" lon="4.73771">
        <ele>173</ele>
        <time>2017-06-18T08:13:39Z</time>
      </trkpt>
      <trkpt lat="45.92815" lon="4.73775">
        <ele>173</ele>
        <time>2017-06-18T08:13:40Z</time>
      </trkpt>
      <trkpt lat="45.9282" lon="4.7378">
        <ele>173</ele>
        <time>2017-06-18T08:13:41Z</time>
      </trkpt>
      <trkpt lat="45.92825" lon="4.73785">
        <ele>173</ele>
        <time>2017-06-18T08:13:42Z</time>
      </trkpt>
      <trkpt lat="45.9283" lon="4.73789">
        <ele>173</ele>
        <time>2017-06-18T08:13:43Z</time>
      </trkpt>
      <trkpt lat="45.92834" lon="4.73793">
        <ele>173</ele>
        <time>2017-06-18T08:13:44Z</time>
      </trkpt>
      <trkpt lat="45.92838" lon="4.73796">
        <ele>173</ele>
        <time>2017-06-18T08:13:45Z</time>
      </trkpt>
      <trkpt lat="45.92845" lon="4.73802">
        <ele>173</ele>
        <time>2017-06-18T08:13:47Z</time>
      </trkpt>
      <trkpt lat="45.92848" lon="4.73806">
        <ele>173</ele>
        <time>2017-06-18T08:13:48Z</time>
      </trkpt>
      <trkpt lat="45.9285" lon="4.73812">
        <ele>173</ele>
        <time>2017-06-18T08:13:49Z</time>
      </trkpt>
      <trkpt lat="45.92852" lon="4.73818">
        <ele>173</ele>
        <time>2017-06-18T08:13:50Z</time>
      </trkpt>
      <trkpt lat="45.92855" lon="4.73824">
        <ele>173</ele>
        <time>2017-06-18T08:13:51Z</time>
      </trkpt>
      <trkpt lat="45.92857" lon="4.73831">
        <ele>173</ele>
        <time>2017-06-18T08:13:52Z</time>
      </trkpt>
      <trkpt lat="45.92859" lon="4.73839">
        <ele>173</ele>
        <time>2017-06-18T08:13:53Z</time>
      </trkpt>
      <trkpt lat="45.92861" lon="4.73846">
        <ele>173</ele>
        <time>2017-06-18T08:13:54Z</time>
      </trkpt>
      <trkpt lat="45.92863" lon="4.73851">
        <ele>173</ele>
        <time>2017-06-18T08:13:55Z</time>
      </trkpt>
      <trkpt lat="45.92865" lon="4.73858">
        <ele>173</ele>
        <time>2017-06-18T08:13:56Z</time>
      </trkpt>
      <trkpt lat="45.92867" lon="4.73866">
        <ele>173</ele>
        <time>2017-06-18T08:13:57Z</time>
      </trkpt>
      <trkpt lat="45.92869" lon="4.73873">
        <ele>173</ele>
        <time>2017-06-18T08:13:58Z</time>
      </trkpt>
      <trkpt lat="45.92871" lon="4.73879">
        <ele>173</ele>
        <time>2017-06-18T08:13:59Z</time>
      </trkpt>
      <trkpt lat="45.92874" lon="4.73884">
        <ele>173</ele>
        <time>2017-06-18T08:14:00Z</time>
      </trkpt>
      <trkpt lat="45.92875" lon="4.73893">
        <ele>173</ele>
        <time>2017-06-18T08:14:01Z</time>
      </trkpt>
      <trkpt lat="45.92877" lon="4.739">
        <ele>173</ele>
        <time>2017-06-18T08:14:02Z</time>
      </trkpt>
      <trkpt lat="45.92878" lon="4.73907">
        <ele>173</ele>
        <time>2017-06-18T08:14:03Z</time>
      </trkpt>
      <trkpt lat="45.92879" lon="4.73914">
        <ele>173</ele>
        <time>2017-06-18T08:14:04Z</time>
      </trkpt>
      <trkpt lat="45.92879" lon="4.73922">
        <ele>172</ele>
        <time>2017-06-18T08:14:05Z</time>
      </trkpt>
      <trkpt lat="45.92879" lon="4.73928">
        <ele>172</ele>
        <time>2017-06-18T08:14:06Z</time>
      </trkpt>
      <trkpt lat="45.9288" lon="4.73935">
        <ele>172</ele>
        <time>2017-06-18T08:14:07Z</time>
      </trkpt>
      <trkpt lat="45.9288" lon="4.73943">
        <ele>172</ele>
        <time>2017-06-18T08:14:08Z</time>
      </trkpt>
      <trkpt lat="45.9288" lon="4.7395">
        <ele>172</ele>
        <time>2017-06-18T08:14:09Z</time>
      </trkpt>
      <trkpt lat="45.9288" lon="4.73957">
        <ele>172</ele>
        <time>2017-06-18T08:14:10Z</time>
      </trkpt>
      <trkpt lat="45.9288" lon="4.73964">
        <ele>172</ele>
        <time>2017-06-18T08:14:11Z</time>
      </trkpt>
      <trkpt lat="45.9288" lon="4.73971">
        <ele>172</ele>
        <time>2017-06-18T08:14:12Z</time>
      </trkpt>
      <trkpt lat="45.92877" lon="4.73982">
        <ele>172</ele>
        <time>2017-06-18T08:14:14Z</time>
      </trkpt>
      <trkpt lat="45.92876" lon="4.73987">
        <ele>172</ele>
        <time>2017-06-18T08:14:15Z</time>
      </trkpt>
      <trkpt lat="45.92874" lon="4.73994">
        <ele>173</ele>
        <time>2017-06-18T08:14:16Z</time>
      </trkpt>
      <trkpt lat="45.92873" lon="4.74">
        <ele>172</ele>
        <time>2017-06-18T08:14:17Z</time>
      </trkpt>
      <trkpt lat="45.92872" lon="4.74007">
        <ele>172</ele>
        <time>2017-06-18T08:14:18Z</time>
      </trkpt>
      <trkpt lat="45.92871" lon="4.74014">
        <ele>172</ele>
        <time>2017-06-18T08:14:19Z</time>
      </trkpt>
      <trkpt lat="45.9287" lon="4.7402">
        <ele>172</ele>
        <time>2017-06-18T08:14:20Z</time>
      </trkpt>
      <trkpt lat="45.92868" lon="4.74027">
        <ele>172</ele>
        <time>2017-06-18T08:14:21Z</time>
      </trkpt>
      <trkpt lat="45.92865" lon="4.74034">
        <ele>172</ele>
        <time>2017-06-18T08:14:22Z</time>
      </trkpt>
      <trkpt lat="45.92862" lon="4.74041">
        <ele>172</ele>
        <time>2017-06-18T08:14:23Z</time>
      </trkpt>
      <trkpt lat="45.92858" lon="4.74049">
        <ele>172</ele>
        <time>2017-06-18T08:14:24Z</time>
      </trkpt>
      <trkpt lat="45.92853" lon="4.74055">
        <ele>172</ele>
        <time>2017-06-18T08:14:25Z</time>
      </trkpt>
      <trkpt lat="45.92848" lon="4.74061">
        <ele>172</ele>
        <time>2017-06-18T08:14:26Z</time>
      </trkpt>
      <trkpt lat="45.92844" lon="4.74067">
        <ele>172</ele>
        <time>2017-06-18T08:14:27Z</time>
      </trkpt>
      <trkpt lat="45.92839" lon="4.74074">
        <ele>172</ele>
        <time>2017-06-18T08:14:28Z</time>
      </trkpt>
      <trkpt lat="45.92835" lon="4.7408">
        <ele>171</ele>
        <time>2017-06-18T08:14:29Z</time>
      </trkpt>
      <trkpt lat="45.9283" lon="4.74086">
        <ele>171</ele>
        <time>2017-06-18T08:14:30Z</time>
      </trkpt>
      <trkpt lat="45.92826" lon="4.74092">
        <ele>171</ele>
        <time>2017-06-18T08:14:31Z</time>
      </trkpt>
      <trkpt lat="45.92822" lon="4.74097">
        <ele>171</ele>
        <time>2017-06-18T08:14:32Z</time>
      </trkpt>
      <trkpt lat="45.92817" lon="4.74101">
        <ele>171</ele>
        <time>2017-06-18T08:14:33Z</time>
      </trkpt>
      <trkpt lat="45.92812" lon="4.74106">
        <ele>172</ele>
        <time>2017-06-18T08:14:34Z</time>
      </trkpt>
      <trkpt lat="45.92808" lon="4.74109">
        <ele>172</ele>
        <time>2017-06-18T08:14:35Z</time>
      </trkpt>
      <trkpt lat="45.92803" lon="4.74114">
        <ele>172</ele>
        <time>2017-06-18T08:14:36Z</time>
      </trkpt>
      <trkpt lat="45.92798" lon="4.74119">
        <ele>172</ele>
        <time>2017-06-18T08:14:37Z</time>
      </trkpt>
      <trkpt lat="45.92793" lon="4.74124">
        <ele>172</ele>
        <time>2017-06-18T08:14:38Z</time>
      </trkpt>
      <trkpt lat="45.92788" lon="4.74129">
        <ele>172</ele>
        <time>2017-06-18T08:14:39Z</time>
      </trkpt>
      <trkpt lat="45.92783" lon="4.74134">
        <ele>172</ele>
        <time>2017-06-18T08:14:40Z</time>
      </trkpt>
      <trkpt lat="45.92779" lon="4.74139">
        <ele>172</ele>
        <time>2017-06-18T08:14:41Z</time>
      </trkpt>
      <trkpt lat="45.92774" lon="4.74144">
        <ele>172</ele>
        <time>2017-06-18T08:14:42Z</time>
      </trkpt>
      <trkpt lat="45.9277" lon="4.74148">
        <ele>172</ele>
        <time>2017-06-18T08:14:43Z</time>
      </trkpt>
      <trkpt lat="45.92765" lon="4.74153">
        <ele>172</ele>
        <time>2017-06-18T08:14:44Z</time>
      </trkpt>
      <trkpt lat="45.92761" lon="4.74157">
        <ele>172</ele>
        <time>2017-06-18T08:14:45Z</time>
      </trkpt>
      <trkpt lat="45.92756" lon="4.74163">
        <ele>172</ele>
        <time>2017-06-18T08:14:46Z</time>
      </trkpt>
      <trkpt lat="45.92752" lon="4.74168">
        <ele>172</ele>
        <time>2017-06-18T08:14:47Z</time>
      </trkpt>
      <trkpt lat="45.92747" lon="4.74173">
        <ele>172</ele>
        <time>2017-06-18T08:14:48Z</time>
      </trkpt>
      <trkpt lat="45.92743" lon="4.74178">
        <ele>172</ele>
        <time>2017-06-18T08:14:49Z</time>
      </trkpt>
      <trkpt lat="45.92739" lon="4.74184">
        <ele>172</ele>
        <time>2017-06-18T08:14:50Z</time>
      </trkpt>
      <trkpt lat="45.92735" lon="4.7419">
        <ele>171</ele>
        <time>2017-06-18T08:14:51Z</time>
      </trkpt>
      <trkpt lat="45.92731" lon="4.74195">
        <ele>171</ele>
        <time>2017-06-18T08:14:52Z</time>
      </trkpt>
      <trkpt lat="45.92727" lon="4.74201">
        <ele>171</ele>
        <time>2017-06-18T08:14:53Z</time>
      </trkpt>
      <trkpt lat="45.92723" lon="4.74207">
        <ele>171</ele>
        <time>2017-06-18T08:14:54Z</time>
      </trkpt>
      <trkpt lat="45.92719" lon="4.74213">
        <ele>171</ele>
        <time>2017-06-18T08:14:55Z</time>
      </trkpt>
      <trkpt lat="45.92715" lon="4.74219">
        <ele>171</ele>
        <time>2017-06-18T08:14:56Z</time>
      </trkpt>
      <trkpt lat="45.92711" lon="4.74225">
        <ele>171</ele>
        <time>2017-06-18T08:14:57Z</time>
      </trkpt>
      <trkpt lat="45.92708" lon="4.7423">
        <ele>171</ele>
        <time>2017-06-18T08:14:58Z</time>
      </trkpt>
      <trkpt lat="45.92704" lon="4.74236">
        <ele>171</ele>
        <time>2017-06-18T08:14:59Z</time>
      </trkpt>
      <trkpt lat="45.927" lon="4.74241">
        <ele>171</ele>
        <time>2017-06-18T08:15:00Z</time>
      </trkpt>
      <trkpt lat="45.92695" lon="4.74251">
        <ele>171</ele>
        <time>2017-06-18T08:15:01Z</time>
      </trkpt>
      <trkpt lat="45.92691" lon="4.74259">
        <ele>171</ele>
        <time>2017-06-18T08:15:02Z</time>
      </trkpt>
      <trkpt lat="45.92688" lon="4.74267">
        <ele>171</ele>
        <time>2017-06-18T08:15:03Z</time>
      </trkpt>
      <trkpt lat="45.92684" lon="4.74274">
        <ele>171</ele>
        <time>2017-06-18T08:15:04Z</time>
      </trkpt>
      <trkpt lat="45.92681" lon="4.7428">
        <ele>171</ele>
        <time>2017-06-18T08:15:05Z</time>
      </trkpt>
      <trkpt lat="45.92677" lon="4.74286">
        <ele>171</ele>
        <time>2017-06-18T08:15:06Z</time>
      </trkpt>
      <trkpt lat="45.92673" lon="4.74293">
        <ele>171</ele>
        <time>2017-06-18T08:15:07Z</time>
      </trkpt>
      <trkpt lat="45.92669" lon="4.74299">
        <ele>171</ele>
        <time>2017-06-18T08:15:08Z</time>
      </trkpt>
      <trkpt lat="45.92665" lon="4.74306">
        <ele>171</ele>
        <time>2017-06-18T08:15:09Z</time>
      </trkpt>
      <trkpt lat="45.92662" lon="4.74313">
        <ele>171</ele>
        <time>2017-06-18T08:15:10Z</time>
      </trkpt>
      <trkpt lat="45.92658" lon="4.7432">
        <ele>171</ele>
        <time>2017-06-18T08:15:11Z</time>
      </trkpt>
      <trkpt lat="45.92654" lon="4.74327">
        <ele>171</ele>
        <time>2017-06-18T08:15:12Z</time>
      </trkpt>
      <trkpt lat="45.9265" lon="4.74334">
        <ele>171</ele>
        <time>2017-06-18T08:15:13Z</time>
      </trkpt>
      <trkpt lat="45.92646" lon="4.74341">
        <ele>171</ele>
        <time>2017-06-18T08:15:14Z</time>
      </trkpt>
      <trkpt lat="45.92643" lon="4.74349">
        <ele>171</ele>
        <time>2017-06-18T08:15:15Z</time>
      </trkpt>
      <trkpt lat="45.92639" lon="4.74356">
        <ele>171</ele>
        <time>2017-06-18T08:15:16Z</time>
      </trkpt>
      <trkpt lat="45.92635" lon="4.74364">
        <ele>171</ele>
        <time>2017-06-18T08:15:17Z</time>
      </trkpt>
      <trkpt lat="45.92631" lon="4.74371">
        <ele>171</ele>
        <time>2017-06-18T08:15:18Z</time>
      </trkpt>
      <trkpt lat="45.92627" lon="4.74378">
        <ele>170</ele>
        <time>2017-06-18T08:15:19Z</time>
      </trkpt>
      <trkpt lat="45.92623" lon="4.74385">
        <ele>170</ele>
        <time>2017-06-18T08:15:20Z</time>
      </trkpt>
      <trkpt lat="45.9262" lon="4.74393">
        <ele>170</ele>
        <time>2017-06-18T08:15:21Z</time>
      </trkpt>
      <trkpt lat="45.92616" lon="4.744">
        <ele>170</ele>
        <time>2017-06-18T08:15:22Z</time>
      </trkpt>
      <trkpt lat="45.92612" lon="4.74407">
        <ele>170</ele>
        <time>2017-06-18T08:15:23Z</time>
      </trkpt>
      <trkpt lat="45.92608" lon="4.74415">
        <ele>170</ele>
        <time>2017-06-18T08:15:24Z</time>
      </trkpt>
      <trkpt lat="45.92604" lon="4.74423">
        <ele>170</ele>
        <time>2017-06-18T08:15:25Z</time>
      </trkpt>
      <trkpt lat="45.926" lon="4.7443">
        <ele>170</ele>
        <time>2017-06-18T08:15:26Z</time>
      </trkpt>
      <trkpt lat="45.92596" lon="4.74437">
        <ele>170</ele>
        <time>2017-06-18T08:15:27Z</time>
      </trkpt>
      <trkpt lat="45.92592" lon="4.74445">
        <ele>170</ele>
        <time>2017-06-18T08:15:28Z</time>
      </trkpt>
      <trkpt lat="45.92588" lon="4.74452">
        <ele>170</ele>
        <time>2017-06-18T08:15:29Z</time>
      </trkpt>
      <trkpt lat="45.92584" lon="4.74459">
        <ele>170</ele>
        <time>2017-06-18T08:15:30Z</time>
      </trkpt>
      <trkpt lat="45.9258" lon="4.74466">
        <ele>170</ele>
        <time>2017-06-18T08:15:31Z</time>
      </trkpt>
      <trkpt lat="45.92576" lon="4.74473">
        <ele>170</ele>
        <time>2017-06-18T08:15:32Z</time>
      </trkpt>
      <trkpt lat="45.92572" lon="4.7448">
        <ele>170</ele>
        <time>2017-06-18T08:15:33Z</time>
      </trkpt>
      <trkpt lat="45.92569" lon="4.74487">
        <ele>170</ele>
        <time>2017-06-18T08:15:34Z</time>
      </trkpt>
      <trkpt lat="45.92565" lon="4.74494">
        <ele>170</ele>
        <time>2017-06-18T08:15:35Z</time>
      </trkpt>
      <trkpt lat="45.92561" lon="4.74502">
        <ele>170</ele>
        <time>2017-06-18T08:15:36Z</time>
      </trkpt>
      <trkpt lat="45.92556" lon="4.74509">
        <ele>170</ele>
        <time>2017-06-18T08:15:37Z</time>
      </trkpt>
      <trkpt lat="45.92552" lon="4.74516">
        <ele>170</ele>
        <time>2017-06-18T08:15:38Z</time>
      </trkpt>
      <trkpt lat="45.92548" lon="4.74524">
        <ele>170</ele>
        <time>2017-06-18T08:15:39Z</time>
      </trkpt>
      <trkpt lat="45.92545" lon="4.74532">
        <ele>170</ele>
        <time>2017-06-18T08:15:40Z</time>
      </trkpt>
      <trkpt lat="45.92541" lon="4.74539">
        <ele>171</ele>
        <time>2017-06-18T08:15:41Z</time>
      </trkpt>
      <trkpt lat="45.92536" lon="4.74546">
        <ele>171</ele>
        <time>2017-06-18T08:15:42Z</time>
      </trkpt>
      <trkpt lat="45.92532" lon="4.74552">
        <ele>171</ele>
        <time>2017-06-18T08:15:43Z</time>
      </trkpt>
      <trkpt lat="45.92528" lon="4.74559">
        <ele>171</ele>
        <time>2017-06-18T08:15:44Z</time>
      </trkpt>
      <trkpt lat="45.92523" lon="4.74565">
        <ele>171</ele>
        <time>2017-06-18T08:15:45Z</time>
      </trkpt>
      <trkpt lat="45.92519" lon="4.74571">
        <ele>171</ele>
        <time>2017-06-18T08:15:46Z</time>
      </trkpt>
      <trkpt lat="45.92515" lon="4.74576">
        <ele>171</ele>
        <time>2017-06-18T08:15:47Z</time>
      </trkpt>
      <trkpt lat="45.9251" lon="4.74582">
        <ele>171</ele>
        <time>2017-06-18T08:15:48Z</time>
      </trkpt>
      <trkpt lat="45.92506" lon="4.74587">
        <ele>171</ele>
        <time>2017-06-18T08:15:49Z</time>
      </trkpt>
      <trkpt lat="45.92501" lon="4.74593">
        <ele>171</ele>
        <time>2017-06-18T08:15:50Z</time>
      </trkpt>
      <trkpt lat="45.92496" lon="4.74598">
        <ele>171</ele>
        <time>2017-06-18T08:15:51Z</time>
      </trkpt>
      <trkpt lat="45.92491" lon="4.74604">
        <ele>171</ele>
        <time>2017-06-18T08:15:52Z</time>
      </trkpt>
      <trkpt lat="45.92487" lon="4.7461">
        <ele>171</ele>
        <time>2017-06-18T08:15:53Z</time>
      </trkpt>
      <trkpt lat="45.92482" lon="4.74616">
        <ele>171</ele>
        <time>2017-06-18T08:15:54Z</time>
      </trkpt>
      <trkpt lat="45.92478" lon="4.74622">
        <ele>171</ele>
        <time>2017-06-18T08:15:55Z</time>
      </trkpt>
      <trkpt lat="45.92473" lon="4.74629">
        <ele>171</ele>
        <time>2017-06-18T08:15:56Z</time>
      </trkpt>
      <trkpt lat="45.92469" lon="4.74635">
        <ele>171</ele>
        <time>2017-06-18T08:15:57Z</time>
      </trkpt>
      <trkpt lat="45.92464" lon="4.74642">
        <ele>171</ele>
        <time>2017-06-18T08:15:58Z</time>
      </trkpt>
      <trkpt lat="45.9246" lon="4.74648">
        <ele>171</ele>
        <time>2017-06-18T08:15:59Z</time>
      </trkpt>
      <trkpt lat="45.92456" lon="4.74656">
        <ele>171</ele>
        <time>2017-06-18T08:16:00Z</time>
      </trkpt>
      <trkpt lat="45.92452" lon="4.74664">
        <ele>171</ele>
        <time>2017-06-18T08:16:01Z</time>
      </trkpt>
      <trkpt lat="45.92447" lon="4.74673">
        <ele>171</ele>
        <time>2017-06-18T08:16:02Z</time>
      </trkpt>
      <trkpt lat="45.92445" lon="4.74679">
        <ele>171</ele>
        <time>2017-06-18T08:16:03Z</time>
      </trkpt>
      <trkpt lat="45.92441" lon="4.74685">
        <ele>171</ele>
        <time>2017-06-18T08:16:04Z</time>
      </trkpt>
      <trkpt lat="45.92438" lon="4.74693">
        <ele>171</ele>
        <time>2017-06-18T08:16:05Z</time>
      </trkpt>
      <trkpt lat="45.92435" lon="4.747">
        <ele>171</ele>
        <time>2017-06-18T08:16:06Z</time>
      </trkpt>
      <trkpt lat="45.92431" lon="4.74708">
        <ele>171</ele>
        <time>2017-06-18T08:16:07Z</time>
      </trkpt>
      <trkpt lat="45.92428" lon="4.74716">
        <ele>171</ele>
        <time>2017-06-18T08:16:08Z</time>
      </trkpt>
      <trkpt lat="45.92425" lon="4.74722">
        <ele>171</ele>
        <time>2017-06-18T08:16:09Z</time>
      </trkpt>
      <trkpt lat="45.92422" lon="4.74729">
        <ele>171</ele>
        <time>2017-06-18T08:16:10Z</time>
      </trkpt>
      <trkpt lat="45.9242" lon="4.74736">
        <ele>171</ele>
        <time>2017-06-18T08:16:11Z</time>
      </trkpt>
      <trkpt lat="45.92417" lon="4.74743">
        <ele>172</ele>
        <time>2017-06-18T08:16:12Z</time>
      </trkpt>
      <trkpt lat="45.92415" lon="4.74751">
        <ele>172</ele>
        <time>2017-06-18T08:16:13Z</time>
      </trkpt>
      <trkpt lat="45.92413" lon="4.74758">
        <ele>172</ele>
        <time>2017-06-18T08:16:14Z</time>
      </trkpt>
      <trkpt lat="45.92411" lon="4.74766">
        <ele>172</ele>
        <time>2017-06-18T08:16:15Z</time>
      </trkpt>
      <trkpt lat="45.92409" lon="4.74774">
        <ele>171</ele>
        <time>2017-06-18T08:16:16Z</time>
      </trkpt>
      <trkpt lat="45.92407" lon="4.74782">
        <ele>171</ele>
        <time>2017-06-18T08:16:17Z</time>
      </trkpt>
      <trkpt lat="45.92405" lon="4.7479">
        <ele>171</ele>
        <time>2017-06-18T08:16:18Z</time>
      </trkpt>
      <trkpt lat="45.92403" lon="4.74798">
        <ele>171</ele>
        <time>2017-06-18T08:16:19Z</time>
      </trkpt>
      <trkpt lat="45.92401" lon="4.74807">
        <ele>171</ele>
        <time>2017-06-18T08:16:20Z</time>
      </trkpt>
      <trkpt lat="45.924" lon="4.74816">
        <ele>171</ele>
        <time>2017-06-18T08:16:21Z</time>
      </trkpt>
      <trkpt lat="45.92397" lon="4.74825">
        <ele>171</ele>
        <time>2017-06-18T08:16:22Z</time>
      </trkpt>
      <trkpt lat="45.92395" lon="4.74834">
        <ele>171</ele>
        <time>2017-06-18T08:16:23Z</time>
      </trkpt>
      <trkpt lat="45.92393" lon="4.74844">
        <ele>171</ele>
        <time>2017-06-18T08:16:24Z</time>
      </trkpt>
      <trkpt lat="45.92391" lon="4.74853">
        <ele>171</ele>
        <time>2017-06-18T08:16:25Z</time>
      </trkpt>
      <trkpt lat="45.92388" lon="4.74862">
        <ele>171</ele>
        <time>2017-06-18T08:16:26Z</time>
      </trkpt>
      <trkpt lat="45.92385" lon="4.7487">
        <ele>171</ele>
        <time>2017-06-18T08:16:27Z</time>
      </trkpt>
      <trkpt lat="45.92382" lon="4.74878">
        <ele>171</ele>
        <time>2017-06-18T08:16:28Z</time>
      </trkpt>
      <trkpt lat="45.92379" lon="4.74886">
        <ele>171</ele>
        <time>2017-06-18T08:16:29Z</time>
      </trkpt>
      <trkpt lat="45.92376" lon="4.74894">
        <ele>171</ele>
        <time>2017-06-18T08:16:30Z</time>
      </trkpt>
      <trkpt lat="45.92373" lon="4.74902">
        <ele>171</ele>
        <time>2017-06-18T08:16:31Z</time>
      </trkpt>
      <trkpt lat="45.9237" lon="4.7491">
        <ele>171</ele>
        <time>2017-06-18T08:16:32Z</time>
      </trkpt>
      <trkpt lat="45.92367" lon="4.74918">
        <ele>170</ele>
        <time>2017-06-18T08:16:33Z</time>
      </trkpt>
      <trkpt lat="45.92364" lon="4.74926">
        <ele>170</ele>
        <time>2017-06-18T08:16:34Z</time>
      </trkpt>
      <trkpt lat="45.92361" lon="4.74933">
        <ele>170</ele>
        <time>2017-06-18T08:16:35Z</time>
      </trkpt>
      <trkpt lat="45.92357" lon="4.74941">
        <ele>170</ele>
        <time>2017-06-18T08:16:36Z</time>
      </trkpt>
      <trkpt lat="45.92355" lon="4.74948">
        <ele>170</ele>
        <time>2017-06-18T08:16:37Z</time>
      </trkpt>
      <trkpt lat="45.92352" lon="4.74955">
        <ele>170</ele>
        <time>2017-06-18T08:16:38Z</time>
      </trkpt>
      <trkpt lat="45.92348" lon="4.74964">
        <ele>170</ele>
        <time>2017-06-18T08:16:39Z</time>
      </trkpt>
      <trkpt lat="45.92345" lon="4.74972">
        <ele>170</ele>
        <time>2017-06-18T08:16:40Z</time>
      </trkpt>
      <trkpt lat="45.92342" lon="4.7498">
        <ele>170</ele>
        <time>2017-06-18T08:16:41Z</time>
      </trkpt>
      <trkpt lat="45.92339" lon="4.74988">
        <ele>170</ele>
        <time>2017-06-18T08:16:42Z</time>
      </trkpt>
      <trkpt lat="45.92336" lon="4.74995">
        <ele>170</ele>
        <time>2017-06-18T08:16:43Z</time>
      </trkpt>
      <trkpt lat="45.92333" lon="4.75003">
        <ele>170</ele>
        <time>2017-06-18T08:16:44Z</time>
      </trkpt>
      <trkpt lat="45.92329" lon="4.75011">
        <ele>171</ele>
        <time>2017-06-18T08:16:45Z</time>
      </trkpt>
      <trkpt lat="45.92326" lon="4.75018">
        <ele>171</ele>
        <time>2017-06-18T08:16:46Z</time>
      </trkpt>
      <trkpt lat="45.92322" lon="4.75026">
        <ele>171</ele>
        <time>2017-06-18T08:16:47Z</time>
      </trkpt>
      <trkpt lat="45.92318" lon="4.75033">
        <ele>171</ele>
        <time>2017-06-18T08:16:48Z</time>
      </trkpt>
      <trkpt lat="45.92315" lon="4.75039">
        <ele>172</ele>
        <time>2017-06-18T08:16:49Z</time>
      </trkpt>
      <trkpt lat="45.92311" lon="4.75046">
        <ele>172</ele>
        <time>2017-06-18T08:16:50Z</time>
      </trkpt>
      <trkpt lat="45.92307" lon="4.75052">
        <ele>172</ele>
        <time>2017-06-18T08:16:51Z</time>
      </trkpt>
      <trkpt lat="45.92303" lon="4.75057">
        <ele>172</ele>
        <time>2017-06-18T08:16:52Z</time>
      </trkpt>
      <trkpt lat="45.92299" lon="4.75062">
        <ele>172</ele>
        <time>2017-06-18T08:16:53Z</time>
      </trkpt>
      <trkpt lat="45.92295" lon="4.75067">
        <ele>172</ele>
        <time>2017-06-18T08:16:54Z</time>
      </trkpt>
      <trkpt lat="45.92291" lon="4.75072">
        <ele>172</ele>
        <time>2017-06-18T08:16:55Z</time>
      </trkpt>
      <trkpt lat="45.92287" lon="4.75077">
        <ele>172</ele>
        <time>2017-06-18T08:16:56Z</time>
      </trkpt>
      <trkpt lat="45.92283" lon="4.75082">
        <ele>172</ele>
        <time>2017-06-18T08:16:57Z</time>
      </trkpt>
      <trkpt lat="45.92278" lon="4.75086">
        <ele>173</ele>
        <time>2017-06-18T08:16:58Z</time>
      </trkpt>
      <trkpt lat="45.92274" lon="4.7509">
        <ele>173</ele>
        <time>2017-06-18T08:16:59Z</time>
      </trkpt>
      <trkpt lat="45.92269" lon="4.75095">
        <ele>173</ele>
        <time>2017-06-18T08:17:00Z</time>
      </trkpt>
      <trkpt lat="45.92265" lon="4.751">
        <ele>173</ele>
        <time>2017-06-18T08:17:01Z</time>
      </trkpt>
      <trkpt lat="45.92261" lon="4.75105">
        <ele>173</ele>
        <time>2017-06-18T08:17:02Z</time>
      </trkpt>
      <trkpt lat="45.92257" lon="4.7511">
        <ele>174</ele>
        <time>2017-06-18T08:17:03Z</time>
      </trkpt>
      <trkpt lat="45.92253" lon="4.75115">
        <ele>174</ele>
        <time>2017-06-18T08:17:04Z</time>
      </trkpt>
      <trkpt lat="45.92248" lon="4.75121">
        <ele>174</ele>
        <time>2017-06-18T08:17:05Z</time>
      </trkpt>
      <trkpt lat="45.92244" lon="4.75126">
        <ele>174</ele>
        <time>2017-06-18T08:17:06Z</time>
      </trkpt>
      <trkpt lat="45.92239" lon="4.75132">
        <ele>174</ele>
        <time>2017-06-18T08:17:07Z</time>
      </trkpt>
      <trkpt lat="45.92235" lon="4.75137">
        <ele>174</ele>
        <time>2017-06-18T08:17:08Z</time>
      </trkpt>
      <trkpt lat="45.92231" lon="4.75143">
        <ele>174</ele>
        <time>2017-06-18T08:17:09Z</time>
      </trkpt>
      <trkpt lat="45.92227" lon="4.75149">
        <ele>174</ele>
        <time>2017-06-18T08:17:10Z</time>
      </trkpt>
      <trkpt lat="45.92224" lon="4.75156">
        <ele>174</ele>
        <time>2017-06-18T08:17:11Z</time>
      </trkpt>
      <trkpt lat="45.92221" lon="4.75163">
        <ele>174</ele>
        <time>2017-06-18T08:17:12Z</time>
      </trkpt>
      <trkpt lat="45.92218" lon="4.75171">
        <ele>175</ele>
        <time>2017-06-18T08:17:13Z</time>
      </trkpt>
      <trkpt lat="45.92216" lon="4.75178">
        <ele>175</ele>
        <time>2017-06-18T08:17:14Z</time>
      </trkpt>
      <trkpt lat="45.92214" lon="4.75186">
        <ele>175</ele>
        <time>2017-06-18T08:17:15Z</time>
      </trkpt>
      <trkpt lat="45.92213" lon="4.75194">
        <ele>175</ele>
        <time>2017-06-18T08:17:16Z</time>
      </trkpt>
      <trkpt lat="45.92211" lon="4.75201">
        <ele>175</ele>
        <time>2017-06-18T08:17:17Z</time>
      </trkpt>
      <trkpt lat="45.9221" lon="4.75209">
        <ele>175</ele>
        <time>2017-06-18T08:17:18Z</time>
      </trkpt>
      <trkpt lat="45.92209" lon="4.75216">
        <ele>175</ele>
        <time>2017-06-18T08:17:19Z</time>
      </trkpt>
      <trkpt lat="45.92208" lon="4.75224">
        <ele>175</ele>
        <time>2017-06-18T08:17:20Z</time>
      </trkpt>
      <trkpt lat="45.92207" lon="4.75232">
        <ele>175</ele>
        <time>2017-06-18T08:17:21Z</time>
      </trkpt>
      <trkpt lat="45.92207" lon="4.75239">
        <ele>175</ele>
        <time>2017-06-18T08:17:22Z</time>
      </trkpt>
      <trkpt lat="45.92207" lon="4.75246">
        <ele>175</ele>
        <time>2017-06-18T08:17:23Z</time>
      </trkpt>
      <trkpt lat="45.92207" lon="4.75253">
        <ele>175</ele>
        <time>2017-06-18T08:17:24Z</time>
      </trkpt>
      <trkpt lat="45.92207" lon="4.75261">
        <ele>176</ele>
        <time>2017-06-18T08:17:25Z</time>
      </trkpt>
      <trkpt lat="45.92206" lon="4.75268">
        <ele>176</ele>
        <time>2017-06-18T08:17:26Z</time>
      </trkpt>
      <trkpt lat="45.92206" lon="4.75275">
        <ele>176</ele>
        <time>2017-06-18T08:17:27Z</time>
      </trkpt>
      <trkpt lat="45.92206" lon="4.75282">
        <ele>176</ele>
        <time>2017-06-18T08:17:28Z</time>
      </trkpt>
      <trkpt lat="45.92205" lon="4.75289">
        <ele>176</ele>
        <time>2017-06-18T08:17:29Z</time>
      </trkpt>
      <trkpt lat="45.92206" lon="4.75296">
        <ele>176</ele>
        <time>2017-06-18T08:17:30Z</time>
      </trkpt>
      <trkpt lat="45.92205" lon="4.75303">
        <ele>176</ele>
        <time>2017-06-18T08:17:31Z</time>
      </trkpt>
      <trkpt lat="45.92205" lon="4.7531">
        <ele>176</ele>
        <time>2017-06-18T08:17:32Z</time>
      </trkpt>
      <trkpt lat="45.92204" lon="4.75317">
        <ele>176</ele>
        <time>2017-06-18T08:17:33Z</time>
      </trkpt>
      <trkpt lat="45.92204" lon="4.75324">
        <ele>176</ele>
        <time>2017-06-18T08:17:34Z</time>
      </trkpt>
      <trkpt lat="45.92203" lon="4.75331">
        <ele>176</ele>
        <time>2017-06-18T08:17:35Z</time>
      </trkpt>
      <trkpt lat="45.92201" lon="4.75338">
        <ele>177</ele>
        <time>2017-06-18T08:17:36Z</time>
      </trkpt>
      <trkpt lat="45.922" lon="4.75345">
        <ele>177</ele>
        <time>2017-06-18T08:17:37Z</time>
      </trkpt>
      <trkpt lat="45.92198" lon="4.75351">
        <ele>177</ele>
        <time>2017-06-18T08:17:38Z</time>
      </trkpt>
      <trkpt lat="45.92195" lon="4.75357">
        <ele>177</ele>
        <time>2017-06-18T08:17:39Z</time>
      </trkpt>
      <trkpt lat="45.92192" lon="4.75363">
        <ele>177</ele>
        <time>2017-06-18T08:17:40Z</time>
      </trkpt>
      <trkpt lat="45.9219" lon="4.75371">
        <ele>177</ele>
        <time>2017-06-18T08:17:41Z</time>
      </trkpt>
      <trkpt lat="45.92187" lon="4.75379">
        <ele>177</ele>
        <time>2017-06-18T08:17:42Z</time>
      </trkpt>
      <trkpt lat="45.92184" lon="4.75386">
        <ele>177</ele>
        <time>2017-06-18T08:17:43Z</time>
      </trkpt>
      <trkpt lat="45.92181" lon="4.75394">
        <ele>177</ele>
        <time>2017-06-18T08:17:44Z</time>
      </trkpt>
      <trkpt lat="45.92179" lon="4.75401">
        <ele>177</ele>
        <time>2017-06-18T08:17:45Z</time>
      </trkpt>
      <trkpt lat="45.92176" lon="4.75408">
        <ele>177</ele>
        <time>2017-06-18T08:17:46Z</time>
      </trkpt>
      <trkpt lat="45.92173" lon="4.75415">
        <ele>178</ele>
        <time>2017-06-18T08:17:47Z</time>
      </trkpt>
      <trkpt lat="45.9217" lon="4.75422">
        <ele>177</ele>
        <time>2017-06-18T08:17:48Z</time>
      </trkpt>
      <trkpt lat="45.92167" lon="4.7543">
        <ele>177</ele>
        <time>2017-06-18T08:17:49Z</time>
      </trkpt>
      <trkpt lat="45.92165" lon="4.75438">
        <ele>177</ele>
        <time>2017-06-18T08:17:50Z</time>
      </trkpt>
      <trkpt lat="45.92161" lon="4.75445">
        <ele>177</ele>
        <time>2017-06-18T08:17:51Z</time>
      </trkpt>
      <trkpt lat="45.92158" lon="4.75453">
        <ele>176</ele>
        <time>2017-06-18T08:17:52Z</time>
      </trkpt>
      <trkpt lat="45.92156" lon="4.75461">
        <ele>176</ele>
        <time>2017-06-18T08:17:53Z</time>
      </trkpt>
      <trkpt lat="45.92153" lon="4.75469">
        <ele>176</ele>
        <time>2017-06-18T08:17:54Z</time>
      </trkpt>
      <trkpt lat="45.9215" lon="4.75478">
        <ele>176</ele>
        <time>2017-06-18T08:17:55Z</time>
      </trkpt>
      <trkpt lat="45.92147" lon="4.75486">
        <ele>176</ele>
        <time>2017-06-18T08:17:56Z</time>
      </trkpt>
      <trkpt lat="45.92143" lon="4.75494">
        <ele>176</ele>
        <time>2017-06-18T08:17:57Z</time>
      </trkpt>
      <trkpt lat="45.92139" lon="4.75501">
        <ele>174</ele>
        <time>2017-06-18T08:17:58Z</time>
      </trkpt>
      <trkpt lat="45.92136" lon="4.75508">
        <ele>174</ele>
        <time>2017-06-18T08:17:59Z</time>
      </trkpt>
      <trkpt lat="45.92132" lon="4.75515">
        <ele>174</ele>
        <time>2017-06-18T08:18:00Z</time>
      </trkpt>
      <trkpt lat="45.92129" lon="4.75522">
        <ele>174</ele>
        <time>2017-06-18T08:18:01Z</time>
      </trkpt>
      <trkpt lat="45.92125" lon="4.75528">
        <ele>174</ele>
        <time>2017-06-18T08:18:02Z</time>
      </trkpt>
      <trkpt lat="45.92122" lon="4.75535">
        <ele>174</ele>
        <time>2017-06-18T08:18:03Z</time>
      </trkpt>
      <trkpt lat="45.92119" lon="4.75542">
        <ele>174</ele>
        <time>2017-06-18T08:18:04Z</time>
      </trkpt>
      <trkpt lat="45.92116" lon="4.75549">
        <ele>174</ele>
        <time>2017-06-18T08:18:05Z</time>
      </trkpt>
      <trkpt lat="45.92113" lon="4.75556">
        <ele>174</ele>
        <time>2017-06-18T08:18:06Z</time>
      </trkpt>
      <trkpt lat="45.92109" lon="4.75562">
        <ele>174</ele>
        <time>2017-06-18T08:18:07Z</time>
      </trkpt>
      <trkpt lat="45.92107" lon="4.75569">
        <ele>174</ele>
        <time>2017-06-18T08:18:08Z</time>
      </trkpt>
      <trkpt lat="45.92106" lon="4.75577">
        <ele>174</ele>
        <time>2017-06-18T08:18:09Z</time>
      </trkpt>
      <trkpt lat="45.92107" lon="4.75585">
        <ele>174</ele>
        <time>2017-06-18T08:18:10Z</time>
      </trkpt>
      <trkpt lat="45.92111" lon="4.75592">
        <ele>174</ele>
        <time>2017-06-18T08:18:11Z</time>
      </trkpt>
      <trkpt lat="45.92116" lon="4.75598">
        <ele>174</ele>
        <time>2017-06-18T08:18:12Z</time>
      </trkpt>
      <trkpt lat="45.9212" lon="4.75602">
        <ele>174</ele>
        <time>2017-06-18T08:18:13Z</time>
      </trkpt>
      <trkpt lat="45.92125" lon="4.75606">
        <ele>174</ele>
        <time>2017-06-18T08:18:14Z</time>
      </trkpt>
      <trkpt lat="45.92129" lon="4.7561">
        <ele>174</ele>
        <time>2017-06-18T08:18:15Z</time>
      </trkpt>
      <trkpt lat="45.92133" lon="4.75614">
        <ele>174</ele>
        <time>2017-06-18T08:18:16Z</time>
      </trkpt>
      <trkpt lat="45.92137" lon="4.75619">
        <ele>174</ele>
        <time>2017-06-18T08:18:17Z</time>
      </trkpt>
      <trkpt lat="45.92142" lon="4.75623">
        <ele>174</ele>
        <time>2017-06-18T08:18:18Z</time>
      </trkpt>
      <trkpt lat="45.92146" lon="4.75628">
        <ele>174</ele>
        <time>2017-06-18T08:18:19Z</time>
      </trkpt>
      <trkpt lat="45.92151" lon="4.75632">
        <ele>174</ele>
        <time>2017-06-18T08:18:20Z</time>
      </trkpt>
      <trkpt lat="45.92155" lon="4.75637">
        <ele>174</ele>
        <time>2017-06-18T08:18:21Z</time>
      </trkpt>
      <trkpt lat="45.9216" lon="4.75642">
        <ele>174</ele>
        <time>2017-06-18T08:18:22Z</time>
      </trkpt>
      <trkpt lat="45.92164" lon="4.75646">
        <ele>174</ele>
        <time>2017-06-18T08:18:23Z</time>
      </trkpt>
      <trkpt lat="45.92169" lon="4.75651">
        <ele>174</ele>
        <time>2017-06-18T08:18:24Z</time>
      </trkpt>
      <trkpt lat="45.92174" lon="4.75656">
        <ele>174</ele>
        <time>2017-06-18T08:18:25Z</time>
      </trkpt>
      <trkpt lat="45.92178" lon="4.75661">
        <ele>174</ele>
        <time>2017-06-18T08:18:26Z</time>
      </trkpt>
      <trkpt lat="45.92183" lon="4.75665">
        <ele>174</ele>
        <time>2017-06-18T08:18:27Z</time>
      </trkpt>
      <trkpt lat="45.92188" lon="4.7567">
        <ele>174</ele>
        <time>2017-06-18T08:18:28Z</time>
      </trkpt>
      <trkpt lat="45.92192" lon="4.75675">
        <ele>174</ele>
        <time>2017-06-18T08:18:29Z</time>
      </trkpt>
      <trkpt lat="45.92196" lon="4.75679">
        <ele>174</ele>
        <time>2017-06-18T08:18:30Z</time>
      </trkpt>
      <trkpt lat="45.922" lon="4.75684">
        <ele>174</ele>
        <time>2017-06-18T08:18:31Z</time>
      </trkpt>
      <trkpt lat="45.92205" lon="4.75688">
        <ele>174</ele>
        <time>2017-06-18T08:18:32Z</time>
      </trkpt>
      <trkpt lat="45.92209" lon="4.75693">
        <ele>174</ele>
        <time>2017-06-18T08:18:33Z</time>
      </trkpt>
      <trkpt lat="45.92214" lon="4.75698">
        <ele>174</ele>
        <time>2017-06-18T08:18:34Z</time>
      </trkpt>
      <trkpt lat="45.92219" lon="4.75702">
        <ele>174</ele>
        <time>2017-06-18T08:18:35Z</time>
      </trkpt>
      <trkpt lat="45.92224" lon="4.75707">
        <ele>174</ele>
        <time>2017-06-18T08:18:36Z</time>
      </trkpt>
      <trkpt lat="45.92228" lon="4.75712">
        <ele>174</ele>
        <time>2017-06-18T08:18:37Z</time>
      </trkpt>
      <trkpt lat="45.92232" lon="4.75717">
        <ele>174</ele>
        <time>2017-06-18T08:18:38Z</time>
      </trkpt>
      <trkpt lat="45.92235" lon="4.75724">
        <ele>174</ele>
        <time>2017-06-18T08:18:39Z</time>
      </trkpt>
      <trkpt lat="45.92238" lon="4.75732">
        <ele>174</ele>
        <time>2017-06-18T08:18:40Z</time>
      </trkpt>
      <trkpt lat="45.92241" lon="4.75739">
        <ele>174</ele>
        <time>2017-06-18T08:18:41Z</time>
      </trkpt>
      <trkpt lat="45.92243" lon="4.75747">
        <ele>174</ele>
        <time>2017-06-18T08:18:42Z</time>
      </trkpt>
      <trkpt lat="45.92245" lon="4.75753">
        <ele>174</ele>
        <time>2017-06-18T08:18:43Z</time>
      </trkpt>
      <trkpt lat="45.92246" lon="4.7576">
        <ele>174</ele>
        <time>2017-06-18T08:18:44Z</time>
      </trkpt>
      <trkpt lat="45.92247" lon="4.75767">
        <ele>174</ele>
        <time>2017-06-18T08:18:45Z</time>
      </trkpt>
      <trkpt lat="45.92249" lon="4.75774">
        <ele>174</ele>
        <time>2017-06-18T08:18:46Z</time>
      </trkpt>
      <trkpt lat="45.9225" lon="4.75781">
        <ele>173</ele>
        <time>2017-06-18T08:18:47Z</time>
      </trkpt>
      <trkpt lat="45.92251" lon="4.75788">
        <ele>174</ele>
        <time>2017-06-18T08:18:48Z</time>
      </trkpt>
      <trkpt lat="45.92253" lon="4.75796">
        <ele>174</ele>
        <time>2017-06-18T08:18:49Z</time>
      </trkpt>
      <trkpt lat="45.92255" lon="4.75804">
        <ele>174</ele>
        <time>2017-06-18T08:18:50Z</time>
      </trkpt>
      <trkpt lat="45.92257" lon="4.75812">
        <ele>174</ele>
        <time>2017-06-18T08:18:51Z</time>
      </trkpt>
      <trkpt lat="45.9226" lon="4.75819">
        <ele>174</ele>
        <time>2017-06-18T08:18:52Z</time>
      </trkpt>
      <trkpt lat="45.92264" lon="4.75826">
        <ele>174</ele>
        <time>2017-06-18T08:18:53Z</time>
      </trkpt>
      <trkpt lat="45.92269" lon="4.75832">
        <ele>174</ele>
        <time>2017-06-18T08:18:54Z</time>
      </trkpt>
      <trkpt lat="45.92274" lon="4.75837">
        <ele>173</ele>
        <time>2017-06-18T08:18:55Z</time>
      </trkpt>
      <trkpt lat="45.92279" lon="4.75841">
        <ele>173</ele>
        <time>2017-06-18T08:18:56Z</time>
      </trkpt>
      <trkpt lat="45.92285" lon="4.75845">
        <ele>173</ele>
        <time>2017-06-18T08:18:57Z</time>
      </trkpt>
      <trkpt lat="45.9229" lon="4.75848">
        <ele>173</ele>
        <time>2017-06-18T08:18:58Z</time>
      </trkpt>
      <trkpt lat="45.92296" lon="4.75852">
        <ele>173</ele>
        <time>2017-06-18T08:18:59Z</time>
      </trkpt>
      <trkpt lat="45.92301" lon="4.75855">
        <ele>173</ele>
        <time>2017-06-18T08:19:00Z</time>
      </trkpt>
      <trkpt lat="45.92307" lon="4.75859">
        <ele>173</ele>
        <time>2017-06-18T08:19:01Z</time>
      </trkpt>
      <trkpt lat="45.92312" lon="4.75862">
        <ele>173</ele>
        <time>2017-06-18T08:19:02Z</time>
      </trkpt>
      <trkpt lat="45.92318" lon="4.75866">
        <ele>173</ele>
        <time>2017-06-18T08:19:03Z</time>
      </trkpt>
      <trkpt lat="45.92324" lon="4.7587">
        <ele>173</ele>
        <time>2017-06-18T08:19:04Z</time>
      </trkpt>
      <trkpt lat="45.9233" lon="4.75873">
        <ele>173</ele>
        <time>2017-06-18T08:19:05Z</time>
      </trkpt>
      <trkpt lat="45.92335" lon="4.75877">
        <ele>173</ele>
        <time>2017-06-18T08:19:06Z</time>
      </trkpt>
      <trkpt lat="45.92341" lon="4.75881">
        <ele>173</ele>
        <time>2017-06-18T08:19:07Z</time>
      </trkpt>
      <trkpt lat="45.92346" lon="4.75884">
        <ele>173</ele>
        <time>2017-06-18T08:19:08Z</time>
      </trkpt>
      <trkpt lat="45.92352" lon="4.75887">
        <ele>173</ele>
        <time>2017-06-18T08:19:09Z</time>
      </trkpt>
      <trkpt lat="45.92358" lon="4.7589">
        <ele>173</ele>
        <time>2017-06-18T08:19:10Z</time>
      </trkpt>
      <trkpt lat="45.92364" lon="4.75893">
        <ele>173</ele>
        <time>2017-06-18T08:19:11Z</time>
      </trkpt>
      <trkpt lat="45.9237" lon="4.75897">
        <ele>173</ele>
        <time>2017-06-18T08:19:12Z</time>
      </trkpt>
      <trkpt lat="45.92375" lon="4.759">
        <ele>173</ele>
        <time>2017-06-18T08:19:13Z</time>
      </trkpt>
      <trkpt lat="45.92379" lon="4.75903">
        <ele>173</ele>
        <time>2017-06-18T08:19:14Z</time>
      </trkpt>
      <trkpt lat="45.92384" lon="4.75906">
        <ele>173</ele>
        <time>2017-06-18T08:19:15Z</time>
      </trkpt>
      <trkpt lat="45.92388" lon="4.75909">
        <ele>173</ele>
        <time>2017-06-18T08:19:16Z</time>
      </trkpt>
      <trkpt lat="45.92394" lon="4.75912">
        <ele>173</ele>
        <time>2017-06-18T08:19:17Z</time>
      </trkpt>
      <trkpt lat="45.92398" lon="4.75915">
        <ele>173</ele>
        <time>2017-06-18T08:19:18Z</time>
      </trkpt>
      <trkpt lat="45.92404" lon="4.75918">
        <ele>172</ele>
        <time>2017-06-18T08:19:19Z</time>
      </trkpt>
      <trkpt lat="45.92409" lon="4.75922">
        <ele>172</ele>
        <time>2017-06-18T08:19:20Z</time>
      </trkpt>
      <trkpt lat="45.92414" lon="4.75926">
        <ele>172</ele>
        <time>2017-06-18T08:19:21Z</time>
      </trkpt>
      <trkpt lat="45.92419" lon="4.7593">
        <ele>172</ele>
        <time>2017-06-18T08:19:22Z</time>
      </trkpt>
      <trkpt lat="45.92424" lon="4.75934">
        <ele>172</ele>
        <time>2017-06-18T08:19:23Z</time>
      </trkpt>
      <trkpt lat="45.92429" lon="4.75938">
        <ele>172</ele>
        <time>2017-06-18T08:19:24Z</time>
      </trkpt>
      <trkpt lat="45.92434" lon="4.75942">
        <ele>172</ele>
        <time>2017-06-18T08:19:25Z</time>
      </trkpt>
      <trkpt lat="45.92439" lon="4.75946">
        <ele>172</ele>
        <time>2017-06-18T08:19:26Z</time>
      </trkpt>
      <trkpt lat="45.92444" lon="4.75949">
        <ele>172</ele>
        <time>2017-06-18T08:19:27Z</time>
      </trkpt>
      <trkpt lat="45.92449" lon="4.75953">
        <ele>172</ele>
        <time>2017-06-18T08:19:28Z</time>
      </trkpt>
      <trkpt lat="45.92454" lon="4.75957">
        <ele>172</ele>
        <time>2017-06-18T08:19:29Z</time>
      </trkpt>
      <trkpt lat="45.92459" lon="4.75961">
        <ele>172</ele>
        <time>2017-06-18T08:19:30Z</time>
      </trkpt>
      <trkpt lat="45.92464" lon="4.75965">
        <ele>172</ele>
        <time>2017-06-18T08:19:31Z</time>
      </trkpt>
      <trkpt lat="45.92469" lon="4.75969">
        <ele>172</ele>
        <time>2017-06-18T08:19:32Z</time>
      </trkpt>
      <trkpt lat="45.92474" lon="4.75973">
        <ele>172</ele>
        <time>2017-06-18T08:19:33Z</time>
      </trkpt>
      <trkpt lat="45.92479" lon="4.75977">
        <ele>172</ele>
        <time>2017-06-18T08:19:34Z</time>
      </trkpt>
      <trkpt lat="45.92484" lon="4.75981">
        <ele>172</ele>
        <time>2017-06-18T08:19:35Z</time>
      </trkpt>
      <trkpt lat="45.92489" lon="4.75985">
        <ele>172</ele>
        <time>2017-06-18T08:19:36Z</time>
      </trkpt>
      <trkpt lat="45.92494" lon="4.75989">
        <ele>172</ele>
        <time>2017-06-18T08:19:37Z</time>
      </trkpt>
      <trkpt lat="45.92499" lon="4.75993">
        <ele>172</ele>
        <time>2017-06-18T08:19:38Z</time>
      </trkpt>
      <trkpt lat="45.92504" lon="4.75996">
        <ele>172</ele>
        <time>2017-06-18T08:19:39Z</time>
      </trkpt>
      <trkpt lat="45.92508" lon="4.76">
        <ele>172</ele>
        <time>2017-06-18T08:19:40Z</time>
      </trkpt>
      <trkpt lat="45.92513" lon="4.76004">
        <ele>172</ele>
        <time>2017-06-18T08:19:41Z</time>
      </trkpt>
      <trkpt lat="45.92517" lon="4.76007">
        <ele>172</ele>
        <time>2017-06-18T08:19:42Z</time>
      </trkpt>
      <trkpt lat="45.92521" lon="4.7601">
        <ele>172</ele>
        <time>2017-06-18T08:19:43Z</time>
      </trkpt>
      <trkpt lat="45.92525" lon="4.76013">
        <ele>172</ele>
        <time>2017-06-18T08:19:44Z</time>
      </trkpt>
      <trkpt lat="45.9253" lon="4.76016">
        <ele>172</ele>
        <time>2017-06-18T08:19:45Z</time>
      </trkpt>
      <trkpt lat="45.92534" lon="4.76018">
        <ele>172</ele>
        <time>2017-06-18T08:19:46Z</time>
      </trkpt>
      <trkpt lat="45.92538" lon="4.76021">
        <ele>172</ele>
        <time>2017-06-18T08:19:47Z</time>
      </trkpt>
      <trkpt lat="45.92542" lon="4.76024">
        <ele>172</ele>
        <time>2017-06-18T08:19:48Z</time>
      </trkpt>
      <trkpt lat="45.92546" lon="4.76027">
        <ele>172</ele>
        <time>2017-06-18T08:19:49Z</time>
      </trkpt>
      <trkpt lat="45.9255" lon="4.76031">
        <ele>172</ele>
        <time>2017-06-18T08:19:50Z</time>
      </trkpt>
      <trkpt lat="45.92555" lon="4.76033">
        <ele>172</ele>
        <time>2017-06-18T08:19:51Z</time>
      </trkpt>
      <trkpt lat="45.9256" lon="4.76037">
        <ele>172</ele>
        <time>2017-06-18T08:19:52Z</time>
      </trkpt>
      <trkpt lat="45.92565" lon="4.7604">
        <ele>172</ele>
        <time>2017-06-18T08:19:53Z</time>
      </trkpt>
      <trkpt lat="45.92569" lon="4.76044">
        <ele>171</ele>
        <time>2017-06-18T08:19:54Z</time>
      </trkpt>
      <trkpt lat="45.92575" lon="4.76047">
        <ele>171</ele>
        <time>2017-06-18T08:19:55Z</time>
      </trkpt>
      <trkpt lat="45.9258" lon="4.76051">
        <ele>171</ele>
        <time>2017-06-18T08:19:56Z</time>
      </trkpt>
      <trkpt lat="45.92585" lon="4.76055">
        <ele>171</ele>
        <time>2017-06-18T08:19:57Z</time>
      </trkpt>
      <trkpt lat="45.92591" lon="4.76059">
        <ele>171</ele>
        <time>2017-06-18T08:19:58Z</time>
      </trkpt>
      <trkpt lat="45.92596" lon="4.76063">
        <ele>171</ele>
        <time>2017-06-18T08:19:59Z</time>
      </trkpt>
      <trkpt lat="45.92602" lon="4.76067">
        <ele>171</ele>
        <time>2017-06-18T08:20:00Z</time>
      </trkpt>
      <trkpt lat="45.92607" lon="4.76071">
        <ele>171</ele>
        <time>2017-06-18T08:20:01Z</time>
      </trkpt>
      <trkpt lat="45.92613" lon="4.76075">
        <ele>171</ele>
        <time>2017-06-18T08:20:02Z</time>
      </trkpt>
      <trkpt lat="45.92619" lon="4.76079">
        <ele>171</ele>
        <time>2017-06-18T08:20:03Z</time>
      </trkpt>
      <trkpt lat="45.92625" lon="4.76083">
        <ele>170</ele>
        <time>2017-06-18T08:20:04Z</time>
      </trkpt>
      <trkpt lat="45.92631" lon="4.76087">
        <ele>170</ele>
        <time>2017-06-18T08:20:05Z</time>
      </trkpt>
      <trkpt lat="45.92637" lon="4.76091">
        <ele>170</ele>
        <time>2017-06-18T08:20:06Z</time>
      </trkpt>
      <trkpt lat="45.92644" lon="4.76096">
        <ele>170</ele>
        <time>2017-06-18T08:20:07Z</time>
      </trkpt>
      <trkpt lat="45.9265" lon="4.761">
        <ele>170</ele>
        <time>2017-06-18T08:20:08Z</time>
      </trkpt>
      <trkpt lat="45.92657" lon="4.76104">
        <ele>170</ele>
        <time>2017-06-18T08:20:09Z</time>
      </trkpt>
      <trkpt lat="45.92663" lon="4.76108">
        <ele>170</ele>
        <time>2017-06-18T08:20:10Z</time>
      </trkpt>
      <trkpt lat="45.9267" lon="4.76112">
        <ele>169</ele>
        <time>2017-06-18T08:20:11Z</time>
      </trkpt>
      <trkpt lat="45.92677" lon="4.76117">
        <ele>169</ele>
        <time>2017-06-18T08:20:12Z</time>
      </trkpt>
      <trkpt lat="45.92684" lon="4.76122">
        <ele>169</ele>
        <time>2017-06-18T08:20:13Z</time>
      </trkpt>
      <trkpt lat="45.92691" lon="4.76126">
        <ele>169</ele>
        <time>2017-06-18T08:20:14Z</time>
      </trkpt>
      <trkpt lat="45.92699" lon="4.76131">
        <ele>169</ele>
        <time>2017-06-18T08:20:15Z</time>
      </trkpt>
      <trkpt lat="45.92706" lon="4.76136">
        <ele>169</ele>
        <time>2017-06-18T08:20:16Z</time>
      </trkpt>
      <trkpt lat="45.92712" lon="4.76141">
        <ele>168</ele>
        <time>2017-06-18T08:20:17Z</time>
      </trkpt>
      <trkpt lat="45.92719" lon="4.76146">
        <ele>168</ele>
        <time>2017-06-18T08:20:18Z</time>
      </trkpt>
      <trkpt lat="45.92726" lon="4.76151">
        <ele>168</ele>
        <time>2017-06-18T08:20:19Z</time>
      </trkpt>
      <trkpt lat="45.92732" lon="4.76156">
        <ele>168</ele>
        <time>2017-06-18T08:20:20Z</time>
      </trkpt>
      <trkpt lat="45.92739" lon="4.7616">
        <ele>168</ele>
        <time>2017-06-18T08:20:21Z</time>
      </trkpt>
      <trkpt lat="45.92745" lon="4.76165">
        <ele>167</ele>
        <time>2017-06-18T08:20:22Z</time>
      </trkpt>
      <trkpt lat="45.9275" lon="4.7617">
        <ele>167</ele>
        <time>2017-06-18T08:20:23Z</time>
      </trkpt>
      <trkpt lat="45.92756" lon="4.76175">
        <ele>167</ele>
        <time>2017-06-18T08:20:24Z</time>
      </trkpt>
      <trkpt lat="45.92761" lon="4.76179">
        <ele>167</ele>
        <time>2017-06-18T08:20:25Z</time>
      </trkpt>
      <trkpt lat="45.92766" lon="4.76184">
        <ele>167</ele>
        <time>2017-06-18T08:20:26Z</time>
      </trkpt>
      <trkpt lat="45.92771" lon="4.76189">
        <ele>168</ele>
        <time>2017-06-18T08:20:27Z</time>
      </trkpt>
      <trkpt lat="45.92776" lon="4.76193">
        <ele>168</ele>
        <time>2017-06-18T08:20:28Z</time>
      </trkpt>
      <trkpt lat="45.92781" lon="4.76198">
        <ele>168</ele>
        <time>2017-06-18T08:20:29Z</time>
      </trkpt>
      <trkpt lat="45.92786" lon="4.76203">
        <ele>168</ele>
        <time>2017-06-18T08:20:30Z</time>
      </trkpt>
      <trkpt lat="45.92791" lon="4.76208">
        <ele>168</ele>
        <time>2017-06-18T08:20:31Z</time>
      </trkpt>
      <trkpt lat="45.92796" lon="4.76213">
        <ele>168</ele>
        <time>2017-06-18T08:20:32Z</time>
      </trkpt>
      <trkpt lat="45.92802" lon="4.76219">
        <ele>168</ele>
        <time>2017-06-18T08:20:33Z</time>
      </trkpt>
      <trkpt lat="45.92807" lon="4.76224">
        <ele>168</ele>
        <time>2017-06-18T08:20:34Z</time>
      </trkpt>
      <trkpt lat="45.92812" lon="4.76229">
        <ele>168</ele>
        <time>2017-06-18T08:20:35Z</time>
      </trkpt>
      <trkpt lat="45.92817" lon="4.76235">
        <ele>168</ele>
        <time>2017-06-18T08:20:36Z</time>
      </trkpt>
      <trkpt lat="45.92822" lon="4.7624">
        <ele>168</ele>
        <time>2017-06-18T08:20:37Z</time>
      </trkpt>
      <trkpt lat="45.92827" lon="4.76245">
        <ele>169</ele>
        <time>2017-06-18T08:20:38Z</time>
      </trkpt>
      <trkpt lat="45.92832" lon="4.7625">
        <ele>169</ele>
        <time>2017-06-18T08:20:39Z</time>
      </trkpt>
      <trkpt lat="45.92836" lon="4.76255">
        <ele>169</ele>
        <time>2017-06-18T08:20:40Z</time>
      </trkpt>
      <trkpt lat="45.92841" lon="4.7626">
        <ele>169</ele>
        <time>2017-06-18T08:20:41Z</time>
      </trkpt>
      <trkpt lat="45.92846" lon="4.76265">
        <ele>169</ele>
        <time>2017-06-18T08:20:42Z</time>
      </trkpt>
      <trkpt lat="45.9285" lon="4.7627">
        <ele>169</ele>
        <time>2017-06-18T08:20:43Z</time>
      </trkpt>
      <trkpt lat="45.92854" lon="4.76274">
        <ele>169</ele>
        <time>2017-06-18T08:20:44Z</time>
      </trkpt>
      <trkpt lat="45.92859" lon="4.76279">
        <ele>169</ele>
        <time>2017-06-18T08:20:45Z</time>
      </trkpt>
      <trkpt lat="45.92863" lon="4.76284">
        <ele>169</ele>
        <time>2017-06-18T08:20:46Z</time>
      </trkpt>
      <trkpt lat="45.92868" lon="4.76288">
        <ele>169</ele>
        <time>2017-06-18T08:20:47Z</time>
      </trkpt>
      <trkpt lat="45.92872" lon="4.76293">
        <ele>169</ele>
        <time>2017-06-18T08:20:48Z</time>
      </trkpt>
      <trkpt lat="45.92877" lon="4.76298">
        <ele>169</ele>
        <time>2017-06-18T08:20:49Z</time>
      </trkpt>
      <trkpt lat="45.92882" lon="4.76302">
        <ele>169</ele>
        <time>2017-06-18T08:20:50Z</time>
      </trkpt>
      <trkpt lat="45.92886" lon="4.76306">
        <ele>169</ele>
        <time>2017-06-18T08:20:51Z</time>
      </trkpt>
      <trkpt lat="45.92891" lon="4.76311">
        <ele>169</ele>
        <time>2017-06-18T08:20:52Z</time>
      </trkpt>
      <trkpt lat="45.92896" lon="4.76316">
        <ele>169</ele>
        <time>2017-06-18T08:20:53Z</time>
      </trkpt>
      <trkpt lat="45.92901" lon="4.7632">
        <ele>169</ele>
        <time>2017-06-18T08:20:54Z</time>
      </trkpt>
      <trkpt lat="45.92906" lon="4.76325">
        <ele>169</ele>
        <time>2017-06-18T08:20:55Z</time>
      </trkpt>
      <trkpt lat="45.92911" lon="4.7633">
        <ele>169</ele>
        <time>2017-06-18T08:20:56Z</time>
      </trkpt>
      <trkpt lat="45.92916" lon="4.76335">
        <ele>169</ele>
        <time>2017-06-18T08:20:57Z</time>
      </trkpt>
      <trkpt lat="45.92921" lon="4.7634">
        <ele>169</ele>
        <time>2017-06-18T08:20:58Z</time>
      </trkpt>
      <trkpt lat="45.92926" lon="4.76345">
        <ele>169</ele>
        <time>2017-06-18T08:20:59Z</time>
      </trkpt>
      <trkpt lat="45.92931" lon="4.7635">
        <ele>169</ele>
        <time>2017-06-18T08:21:00Z</time>
      </trkpt>
      <trkpt lat="45.92936" lon="4.76354">
        <ele>169</ele>
        <time>2017-06-18T08:21:01Z</time>
      </trkpt>
      <trkpt lat="45.9294" lon="4.76359">
        <ele>169</ele>
        <time>2017-06-18T08:21:02Z</time>
      </trkpt>
      <trkpt lat="45.92945" lon="4.76363">
        <ele>169</ele>
        <time>2017-06-18T08:21:03Z</time>
      </trkpt>
      <trkpt lat="45.92949" lon="4.76368">
        <ele>169</ele>
        <time>2017-06-18T08:21:04Z</time>
      </trkpt>
      <trkpt lat="45.92954" lon="4.76374">
        <ele>169</ele>
        <time>2017-06-18T08:21:05Z</time>
      </trkpt>
      <trkpt lat="45.92959" lon="4.76379">
        <ele>169</ele>
        <time>2017-06-18T08:21:06Z</time>
      </trkpt>
      <trkpt lat="45.92964" lon="4.76384">
        <ele>169</ele>
        <time>2017-06-18T08:21:07Z</time>
      </trkpt>
      <trkpt lat="45.92968" lon="4.76389">
        <ele>169</ele>
        <time>2017-06-18T08:21:08Z</time>
      </trkpt>
      <trkpt lat="45.92973" lon="4.76394">
        <ele>169</ele>
        <time>2017-06-18T08:21:09Z</time>
      </trkpt>
      <trkpt lat="45.92978" lon="4.76398">
        <ele>169</ele>
        <time>2017-06-18T08:21:10Z</time>
      </trkpt>
      <trkpt lat="45.92983" lon="4.76403">
        <ele>169</ele>
        <time>2017-06-18T08:21:11Z</time>
      </trkpt>
      <trkpt lat="45.92987" lon="4.76407">
        <ele>169</ele>
        <time>2017-06-18T08:21:12Z</time>
      </trkpt>
      <trkpt lat="45.9299" lon="4.76412">
        <ele>169</ele>
        <time>2017-06-18T08:21:13Z</time>
      </trkpt>
      <trkpt lat="45.92994" lon="4.76416">
        <ele>169</ele>
        <time>2017-06-18T08:21:14Z</time>
      </trkpt>
      <trkpt lat="45.92999" lon="4.76421">
        <ele>169</ele>
        <time>2017-06-18T08:21:15Z</time>
      </trkpt>
      <trkpt lat="45.93002" lon="4.76424">
        <ele>169</ele>
        <time>2017-06-18T08:21:16Z</time>
      </trkpt>
      <trkpt lat="45.93006" lon="4.76429">
        <ele>169</ele>
        <time>2017-06-18T08:21:17Z</time>
      </trkpt>
      <trkpt lat="45.9301" lon="4.76433">
        <ele>169</ele>
        <time>2017-06-18T08:21:18Z</time>
      </trkpt>
      <trkpt lat="45.93015" lon="4.76437">
        <ele>169</ele>
        <time>2017-06-18T08:21:19Z</time>
      </trkpt>
      <trkpt lat="45.93019" lon="4.76442">
        <ele>169</ele>
        <time>2017-06-18T08:21:20Z</time>
      </trkpt>
      <trkpt lat="45.93024" lon="4.76446">
        <ele>169</ele>
        <time>2017-06-18T08:21:21Z</time>
      </trkpt>
      <trkpt lat="45.93028" lon="4.7645">
        <ele>169</ele>
        <time>2017-06-18T08:21:22Z</time>
      </trkpt>
      <trkpt lat="45.93033" lon="4.76455">
        <ele>169</ele>
        <time>2017-06-18T08:21:23Z</time>
      </trkpt>
      <trkpt lat="45.93037" lon="4.76459">
        <ele>169</ele>
        <time>2017-06-18T08:21:24Z</time>
      </trkpt>
      <trkpt lat="45.93042" lon="4.76463">
        <ele>169</ele>
        <time>2017-06-18T08:21:25Z</time>
      </trkpt>
      <trkpt lat="45.93045" lon="4.76467">
        <ele>169</ele>
        <time>2017-06-18T08:21:26Z</time>
      </trkpt>
      <trkpt lat="45.93049" lon="4.76471">
        <ele>169</ele>
        <time>2017-06-18T08:21:27Z</time>
      </trkpt>
      <trkpt lat="45.93054" lon="4.76475">
        <ele>169</ele>
        <time>2017-06-18T08:21:28Z</time>
      </trkpt>
      <trkpt lat="45.93058" lon="4.7648">
        <ele>169</ele>
        <time>2017-06-18T08:21:29Z</time>
      </trkpt>
      <trkpt lat="45.93063" lon="4.76485">
        <ele>169</ele>
        <time>2017-06-18T08:21:30Z</time>
      </trkpt>
      <trkpt lat="45.93067" lon="4.7649">
        <ele>169</ele>
        <time>2017-06-18T08:21:31Z</time>
      </trkpt>
      <trkpt lat="45.93072" lon="4.76495">
        <ele>170</ele>
        <time>2017-06-18T08:21:32Z</time>
      </trkpt>
      <trkpt lat="45.93077" lon="4.765">
        <ele>170</ele>
        <time>2017-06-18T08:21:33Z</time>
      </trkpt>
      <trkpt lat="45.93082" lon="4.76505">
        <ele>170</ele>
        <time>2017-06-18T08:21:34Z</time>
      </trkpt>
      <trkpt lat="45.93087" lon="4.7651">
        <ele>170</ele>
        <time>2017-06-18T08:21:35Z</time>
      </trkpt>
      <trkpt lat="45.93093" lon="4.76515">
        <ele>170</ele>
        <time>2017-06-18T08:21:36Z</time>
      </trkpt>
      <trkpt lat="45.93097" lon="4.7652">
        <ele>170</ele>
        <time>2017-06-18T08:21:37Z</time>
      </trkpt>
      <trkpt lat="45.93102" lon="4.76525">
        <ele>170</ele>
        <time>2017-06-18T08:21:38Z</time>
      </trkpt>
      <trkpt lat="45.93106" lon="4.76529">
        <ele>170</ele>
        <time>2017-06-18T08:21:39Z</time>
      </trkpt>
      <trkpt lat="45.93111" lon="4.76533">
        <ele>170</ele>
        <time>2017-06-18T08:21:40Z</time>
      </trkpt>
      <trkpt lat="45.93114" lon="4.76537">
        <ele>170</ele>
        <time>2017-06-18T08:21:41Z</time>
      </trkpt>
      <trkpt lat="45.93122" lon="4.76544">
        <ele>170</ele>
        <time>2017-06-18T08:21:43Z</time>
      </trkpt>
      <trkpt lat="45.93126" lon="4.76548">
        <ele>170</ele>
        <time>2017-06-18T08:21:44Z</time>
      </trkpt>
      <trkpt lat="45.93129" lon="4.76551">
        <ele>170</ele>
        <time>2017-06-18T08:21:45Z</time>
      </trkpt>
      <trkpt lat="45.93134" lon="4.76554">
        <ele>170</ele>
        <time>2017-06-18T08:21:46Z</time>
      </trkpt>
      <trkpt lat="45.93141" lon="4.7656">
        <ele>170</ele>
        <time>2017-06-18T08:21:48Z</time>
      </trkpt>
      <trkpt lat="45.93146" lon="4.76565">
        <ele>170</ele>
        <time>2017-06-18T08:21:49Z</time>
      </trkpt>
      <trkpt lat="45.9315" lon="4.76569">
        <ele>170</ele>
        <time>2017-06-18T08:21:50Z</time>
      </trkpt>
      <trkpt lat="45.93155" lon="4.76573">
        <ele>170</ele>
        <time>2017-06-18T08:21:51Z</time>
      </trkpt>
      <trkpt lat="45.93159" lon="4.76578">
        <ele>171</ele>
        <time>2017-06-18T08:21:52Z</time>
      </trkpt>
      <trkpt lat="45.93165" lon="4.76584">
        <ele>171</ele>
        <time>2017-06-18T08:21:53Z</time>
      </trkpt>
      <trkpt lat="45.93169" lon="4.7659">
        <ele>171</ele>
        <time>2017-06-18T08:21:54Z</time>
      </trkpt>
      <trkpt lat="45.93175" lon="4.76596">
        <ele>171</ele>
        <time>2017-06-18T08:21:55Z</time>
      </trkpt>
      <trkpt lat="45.9318" lon="4.76602">
        <ele>171</ele>
        <time>2017-06-18T08:21:56Z</time>
      </trkpt>
      <trkpt lat="45.93185" lon="4.76607">
        <ele>171</ele>
        <time>2017-06-18T08:21:57Z</time>
      </trkpt>
      <trkpt lat="45.9319" lon="4.76612">
        <ele>171</ele>
        <time>2017-06-18T08:21:58Z</time>
      </trkpt>
      <trkpt lat="45.93194" lon="4.76616">
        <ele>171</ele>
        <time>2017-06-18T08:21:59Z</time>
      </trkpt>
      <trkpt lat="45.93199" lon="4.7662">
        <ele>171</ele>
        <time>2017-06-18T08:22:00Z</time>
      </trkpt>
      <trkpt lat="45.93204" lon="4.76624">
        <ele>171</ele>
        <time>2017-06-18T08:22:01Z</time>
      </trkpt>
      <trkpt lat="45.93208" lon="4.76627">
        <ele>171</ele>
        <time>2017-06-18T08:22:02Z</time>
      </trkpt>
      <trkpt lat="45.93213" lon="4.76631">
        <ele>171</ele>
        <time>2017-06-18T08:22:03Z</time>
      </trkpt>
      <trkpt lat="45.93217" lon="4.76635">
        <ele>171</ele>
        <time>2017-06-18T08:22:04Z</time>
      </trkpt>
      <trkpt lat="45.93222" lon="4.7664">
        <ele>171</ele>
        <time>2017-06-18T08:22:05Z</time>
      </trkpt>
      <trkpt lat="45.93225" lon="4.76644">
        <ele>171</ele>
        <time>2017-06-18T08:22:06Z</time>
      </trkpt>
      <trkpt lat="45.93229" lon="4.76648">
        <ele>171</ele>
        <time>2017-06-18T08:22:07Z</time>
      </trkpt>
      <trkpt lat="45.93233" lon="4.76652">
        <ele>171</ele>
        <time>2017-06-18T08:22:08Z</time>
      </trkpt>
      <trkpt lat="45.93237" lon="4.76657">
        <ele>171</ele>
        <time>2017-06-18T08:22:09Z</time>
      </trkpt>
      <trkpt lat="45.93242" lon="4.76661">
        <ele>171</ele>
        <time>2017-06-18T08:22:10Z</time>
      </trkpt>
      <trkpt lat="45.93247" lon="4.76667">
        <ele>172</ele>
        <time>2017-06-18T08:22:11Z</time>
      </trkpt>
      <trkpt lat="45.93251" lon="4.76672">
        <ele>172</ele>
        <time>2017-06-18T08:22:12Z</time>
      </trkpt>
      <trkpt lat="45.93255" lon="4.76677">
        <ele>172</ele>
        <time>2017-06-18T08:22:13Z</time>
      </trkpt>
      <trkpt lat="45.9326" lon="4.76681">
        <ele>172</ele>
        <time>2017-06-18T08:22:14Z</time>
      </trkpt>
      <trkpt lat="45.93264" lon="4.76685">
        <ele>172</ele>
        <time>2017-06-18T08:22:15Z</time>
      </trkpt>
      <trkpt lat="45.93269" lon="4.7669">
        <ele>172</ele>
        <time>2017-06-18T08:22:16Z</time>
      </trkpt>
      <trkpt lat="45.93274" lon="4.76698">
        <ele>172</ele>
        <time>2017-06-18T08:22:17Z</time>
      </trkpt>
      <trkpt lat="45.93278" lon="4.76704">
        <ele>172</ele>
        <time>2017-06-18T08:22:18Z</time>
      </trkpt>
      <trkpt lat="45.93282" lon="4.76708">
        <ele>172</ele>
        <time>2017-06-18T08:22:19Z</time>
      </trkpt>
      <trkpt lat="45.93288" lon="4.76714">
        <ele>172</ele>
        <time>2017-06-18T08:22:20Z</time>
      </trkpt>
      <trkpt lat="45.93293" lon="4.76718">
        <ele>172</ele>
        <time>2017-06-18T08:22:21Z</time>
      </trkpt>
      <trkpt lat="45.93298" lon="4.76724">
        <ele>172</ele>
        <time>2017-06-18T08:22:22Z</time>
      </trkpt>
      <trkpt lat="45.93303" lon="4.76728">
        <ele>172</ele>
        <time>2017-06-18T08:22:23Z</time>
      </trkpt>
      <trkpt lat="45.93308" lon="4.76732">
        <ele>172</ele>
        <time>2017-06-18T08:22:24Z</time>
      </trkpt>
      <trkpt lat="45.93313" lon="4.76736">
        <ele>172</ele>
        <time>2017-06-18T08:22:25Z</time>
      </trkpt>
      <trkpt lat="45.93318" lon="4.7674">
        <ele>172</ele>
        <time>2017-06-18T08:22:26Z</time>
      </trkpt>
      <trkpt lat="45.93322" lon="4.76745">
        <ele>172</ele>
        <time>2017-06-18T08:22:27Z</time>
      </trkpt>
      <trkpt lat="45.93327" lon="4.76749">
        <ele>173</ele>
        <time>2017-06-18T08:22:28Z</time>
      </trkpt>
      <trkpt lat="45.93331" lon="4.76753">
        <ele>173</ele>
        <time>2017-06-18T08:22:29Z</time>
      </trkpt>
      <trkpt lat="45.93336" lon="4.76757">
        <ele>173</ele>
        <time>2017-06-18T08:22:30Z</time>
      </trkpt>
      <trkpt lat="45.9334" lon="4.76761">
        <ele>172</ele>
        <time>2017-06-18T08:22:31Z</time>
      </trkpt>
      <trkpt lat="45.93345" lon="4.76765">
        <ele>172</ele>
        <time>2017-06-18T08:22:32Z</time>
      </trkpt>
      <trkpt lat="45.93349" lon="4.76769">
        <ele>172</ele>
        <time>2017-06-18T08:22:33Z</time>
      </trkpt>
      <trkpt lat="45.93354" lon="4.76774">
        <ele>172</ele>
        <time>2017-06-18T08:22:34Z</time>
      </trkpt>
      <trkpt lat="45.93358" lon="4.76778">
        <ele>172</ele>
        <time>2017-06-18T08:22:35Z</time>
      </trkpt>
      <trkpt lat="45.93363" lon="4.76782">
        <ele>172</ele>
        <time>2017-06-18T08:22:36Z</time>
      </trkpt>
      <trkpt lat="45.93367" lon="4.76786">
        <ele>172</ele>
        <time>2017-06-18T08:22:37Z</time>
      </trkpt>
      <trkpt lat="45.93371" lon="4.7679">
        <ele>172</ele>
        <time>2017-06-18T08:22:38Z</time>
      </trkpt>
      <trkpt lat="45.93376" lon="4.76795">
        <ele>172</ele>
        <time>2017-06-18T08:22:39Z</time>
      </trkpt>
      <trkpt lat="45.9338" lon="4.768">
        <ele>172</ele>
        <time>2017-06-18T08:22:40Z</time>
      </trkpt>
      <trkpt lat="45.93384" lon="4.76805">
        <ele>172</ele>
        <time>2017-06-18T08:22:41Z</time>
      </trkpt>
      <trkpt lat="45.93388" lon="4.7681">
        <ele>172</ele>
        <time>2017-06-18T08:22:42Z</time>
      </trkpt>
      <trkpt lat="45.93392" lon="4.76815">
        <ele>172</ele>
        <time>2017-06-18T08:22:43Z</time>
      </trkpt>
      <trkpt lat="45.93395" lon="4.7682">
        <ele>172</ele>
        <time>2017-06-18T08:22:44Z</time>
      </trkpt>
      <trkpt lat="45.93399" lon="4.76825">
        <ele>172</ele>
        <time>2017-06-18T08:22:45Z</time>
      </trkpt>
      <trkpt lat="45.93402" lon="4.7683">
        <ele>172</ele>
        <time>2017-06-18T08:22:46Z</time>
      </trkpt>
      <trkpt lat="45.93405" lon="4.76835">
        <ele>172</ele>
        <time>2017-06-18T08:22:47Z</time>
      </trkpt>
      <trkpt lat="45.93409" lon="4.76841">
        <ele>172</ele>
        <time>2017-06-18T08:22:48Z</time>
      </trkpt>
      <trkpt lat="45.93412" lon="4.76847">
        <ele>172</ele>
        <time>2017-06-18T08:22:49Z</time>
      </trkpt>
      <trkpt lat="45.93415" lon="4.76853">
        <ele>171</ele>
        <time>2017-06-18T08:22:50Z</time>
      </trkpt>
      <trkpt lat="45.93418" lon="4.76859">
        <ele>171</ele>
        <time>2017-06-18T08:22:51Z</time>
      </trkpt>
      <trkpt lat="45.93421" lon="4.76864">
        <ele>171</ele>
        <time>2017-06-18T08:22:52Z</time>
      </trkpt>
      <trkpt lat="45.93424" lon="4.76871">
        <ele>171</ele>
        <time>2017-06-18T08:22:53Z</time>
      </trkpt>
      <trkpt lat="45.93426" lon="4.76877">
        <ele>171</ele>
        <time>2017-06-18T08:22:54Z</time>
      </trkpt>
      <trkpt lat="45.93429" lon="4.76883">
        <ele>171</ele>
        <time>2017-06-18T08:22:55Z</time>
      </trkpt>
      <trkpt lat="45.93432" lon="4.7689">
        <ele>171</ele>
        <time>2017-06-18T08:22:56Z</time>
      </trkpt>
      <trkpt lat="45.93435" lon="4.76896">
        <ele>171</ele>
        <time>2017-06-18T08:22:57Z</time>
      </trkpt>
      <trkpt lat="45.93437" lon="4.76903">
        <ele>171</ele>
        <time>2017-06-18T08:22:58Z</time>
      </trkpt>
      <trkpt lat="45.93439" lon="4.7691">
        <ele>171</ele>
        <time>2017-06-18T08:22:59Z</time>
      </trkpt>
      <trkpt lat="45.9344" lon="4.76916">
        <ele>170</ele>
        <time>2017-06-18T08:23:00Z</time>
      </trkpt>
      <trkpt lat="45.93441" lon="4.76923">
        <ele>170</ele>
        <time>2017-06-18T08:23:01Z</time>
      </trkpt>
      <trkpt lat="45.93443" lon="4.76931">
        <ele>170</ele>
        <time>2017-06-18T08:23:02Z</time>
      </trkpt>
      <trkpt lat="45.93444" lon="4.76938">
        <ele>170</ele>
        <time>2017-06-18T08:23:03Z</time>
      </trkpt>
      <trkpt lat="45.93445" lon="4.76945">
        <ele>170</ele>
        <time>2017-06-18T08:23:04Z</time>
      </trkpt>
      <trkpt lat="45.93447" lon="4.76952">
        <ele>170</ele>
        <time>2017-06-18T08:23:05Z</time>
      </trkpt>
      <trkpt lat="45.93448" lon="4.76959">
        <ele>170</ele>
        <time>2017-06-18T08:23:06Z</time>
      </trkpt>
      <trkpt lat="45.93449" lon="4.76967">
        <ele>170</ele>
        <time>2017-06-18T08:23:07Z</time>
      </trkpt>
      <trkpt lat="45.9345" lon="4.76974">
        <ele>170</ele>
        <time>2017-06-18T08:23:08Z</time>
      </trkpt>
      <trkpt lat="45.93451" lon="4.76981">
        <ele>170</ele>
        <time>2017-06-18T08:23:09Z</time>
      </trkpt>
      <trkpt lat="45.93453" lon="4.76989">
        <ele>170</ele>
        <time>2017-06-18T08:23:10Z</time>
      </trkpt>
      <trkpt lat="45.93454" lon="4.76996">
        <ele>170</ele>
        <time>2017-06-18T08:23:11Z</time>
      </trkpt>
      <trkpt lat="45.93455" lon="4.77003">
        <ele>170</ele>
        <time>2017-06-18T08:23:12Z</time>
      </trkpt>
      <trkpt lat="45.93456" lon="4.77011">
        <ele>170</ele>
        <time>2017-06-18T08:23:13Z</time>
      </trkpt>
      <trkpt lat="45.93457" lon="4.77017">
        <ele>170</ele>
        <time>2017-06-18T08:23:14Z</time>
      </trkpt>
      <trkpt lat="45.93458" lon="4.77024">
        <ele>170</ele>
        <time>2017-06-18T08:23:15Z</time>
      </trkpt>
      <trkpt lat="45.93459" lon="4.77031">
        <ele>170</ele>
        <time>2017-06-18T08:23:16Z</time>
      </trkpt>
      <trkpt lat="45.9346" lon="4.77038">
        <ele>170</ele>
        <time>2017-06-18T08:23:17Z</time>
      </trkpt>
      <trkpt lat="45.93462" lon="4.77045">
        <ele>170</ele>
        <time>2017-06-18T08:23:18Z</time>
      </trkpt>
      <trkpt lat="45.93463" lon="4.77053">
        <ele>170</ele>
        <time>2017-06-18T08:23:19Z</time>
      </trkpt>
      <trkpt lat="45.93464" lon="4.7706">
        <ele>170</ele>
        <time>2017-06-18T08:23:20Z</time>
      </trkpt>
      <trkpt lat="45.93465" lon="4.77067">
        <ele>170</ele>
        <time>2017-06-18T08:23:21Z</time>
      </trkpt>
      <trkpt lat="45.93467" lon="4.77075">
        <ele>170</ele>
        <time>2017-06-18T08:23:22Z</time>
      </trkpt>
      <trkpt lat="45.93468" lon="4.77082">
        <ele>170</ele>
        <time>2017-06-18T08:23:23Z</time>
      </trkpt>
      <trkpt lat="45.93469" lon="4.7709">
        <ele>170</ele>
        <time>2017-06-18T08:23:24Z</time>
      </trkpt>
      <trkpt lat="45.93471" lon="4.77097">
        <ele>169</ele>
        <time>2017-06-18T08:23:25Z</time>
      </trkpt>
      <trkpt lat="45.93472" lon="4.77105">
        <ele>169</ele>
        <time>2017-06-18T08:23:26Z</time>
      </trkpt>
      <trkpt lat="45.93473" lon="4.77112">
        <ele>169</ele>
        <time>2017-06-18T08:23:27Z</time>
      </trkpt>
      <trkpt lat="45.93475" lon="4.7712">
        <ele>169</ele>
        <time>2017-06-18T08:23:28Z</time>
      </trkpt>
      <trkpt lat="45.93476" lon="4.77127">
        <ele>169</ele>
        <time>2017-06-18T08:23:29Z</time>
      </trkpt>
      <trkpt lat="45.93478" lon="4.77134">
        <ele>169</ele>
        <time>2017-06-18T08:23:30Z</time>
      </trkpt>
      <trkpt lat="45.9348" lon="4.77141">
        <ele>169</ele>
        <time>2017-06-18T08:23:31Z</time>
      </trkpt>
      <trkpt lat="45.93481" lon="4.77149">
        <ele>169</ele>
        <time>2017-06-18T08:23:32Z</time>
      </trkpt>
      <trkpt lat="45.93482" lon="4.77156">
        <ele>169</ele>
        <time>2017-06-18T08:23:33Z</time>
      </trkpt>
      <trkpt lat="45.93484" lon="4.77162">
        <ele>169</ele>
        <time>2017-06-18T08:23:34Z</time>
      </trkpt>
      <trkpt lat="45.93485" lon="4.77169">
        <ele>169</ele>
        <time>2017-06-18T08:23:35Z</time>
      </trkpt>
      <trkpt lat="45.93487" lon="4.77175">
        <ele>169</ele>
        <time>2017-06-18T08:23:36Z</time>
      </trkpt>
      <trkpt lat="45.93488" lon="4.77181">
        <ele>169</ele>
        <time>2017-06-18T08:23:37Z</time>
      </trkpt>
      <trkpt lat="45.9349" lon="4.77188">
        <ele>169</ele>
        <time>2017-06-18T08:23:38Z</time>
      </trkpt>
      <trkpt lat="45.93491" lon="4.77194">
        <ele>169</ele>
        <time>2017-06-18T08:23:39Z</time>
      </trkpt>
      <trkpt lat="45.93493" lon="4.772">
        <ele>169</ele>
        <time>2017-06-18T08:23:40Z</time>
      </trkpt>
      <trkpt lat="45.93494" lon="4.77207">
        <ele>169</ele>
        <time>2017-06-18T08:23:41Z</time>
      </trkpt>
      <trkpt lat="45.93496" lon="4.77214">
        <ele>169</ele>
        <time>2017-06-18T08:23:42Z</time>
      </trkpt>
      <trkpt lat="45.93497" lon="4.7722">
        <ele>169</ele>
        <time>2017-06-18T08:23:43Z</time>
      </trkpt>
      <trkpt lat="45.93499" lon="4.77227">
        <ele>170</ele>
        <time>2017-06-18T08:23:44Z</time>
      </trkpt>
      <trkpt lat="45.93501" lon="4.77234">
        <ele>169</ele>
        <time>2017-06-18T08:23:45Z</time>
      </trkpt>
      <trkpt lat="45.93502" lon="4.77241">
        <ele>170</ele>
        <time>2017-06-18T08:23:46Z</time>
      </trkpt>
      <trkpt lat="45.93503" lon="4.77247">
        <ele>170</ele>
        <time>2017-06-18T08:23:47Z</time>
      </trkpt>
      <trkpt lat="45.93505" lon="4.77254">
        <ele>170</ele>
        <time>2017-06-18T08:23:48Z</time>
      </trkpt>
      <trkpt lat="45.93506" lon="4.77261">
        <ele>170</ele>
        <time>2017-06-18T08:23:49Z</time>
      </trkpt>
      <trkpt lat="45.93508" lon="4.77268">
        <ele>170</ele>
        <time>2017-06-18T08:23:50Z</time>
      </trkpt>
      <trkpt lat="45.93509" lon="4.77274">
        <ele>170</ele>
        <time>2017-06-18T08:23:51Z</time>
      </trkpt>
      <trkpt lat="45.93511" lon="4.77281">
        <ele>170</ele>
        <time>2017-06-18T08:23:52Z</time>
      </trkpt>
      <trkpt lat="45.93512" lon="4.77287">
        <ele>170</ele>
        <time>2017-06-18T08:23:53Z</time>
      </trkpt>
      <trkpt lat="45.93513" lon="4.77294">
        <ele>170</ele>
        <time>2017-06-18T08:23:54Z</time>
      </trkpt>
      <trkpt lat="45.93514" lon="4.77301">
        <ele>170</ele>
        <time>2017-06-18T08:23:55Z</time>
      </trkpt>
      <trkpt lat="45.93516" lon="4.77308">
        <ele>170</ele>
        <time>2017-06-18T08:23:56Z</time>
      </trkpt>
      <trkpt lat="45.93517" lon="4.77314">
        <ele>170</ele>
        <time>2017-06-18T08:23:57Z</time>
      </trkpt>
      <trkpt lat="45.93519" lon="4.77321">
        <ele>170</ele>
        <time>2017-06-18T08:23:58Z</time>
      </trkpt>
      <trkpt lat="45.9352" lon="4.77328">
        <ele>170</ele>
        <time>2017-06-18T08:23:59Z</time>
      </trkpt>
      <trkpt lat="45.93522" lon="4.77336">
        <ele>170</ele>
        <time>2017-06-18T08:24:00Z</time>
      </trkpt>
      <trkpt lat="45.93524" lon="4.77343">
        <ele>170</ele>
        <time>2017-06-18T08:24:01Z</time>
      </trkpt>
      <trkpt lat="45.93526" lon="4.7735">
        <ele>170</ele>
        <time>2017-06-18T08:24:02Z</time>
      </trkpt>
      <trkpt lat="45.93527" lon="4.77358">
        <ele>170</ele>
        <time>2017-06-18T08:24:03Z</time>
      </trkpt>
      <trkpt lat="45.93529" lon="4.77365">
        <ele>170</ele>
        <time>2017-06-18T08:24:04Z</time>
      </trkpt>
      <trkpt lat="45.93531" lon="4.77372">
        <ele>170</ele>
        <time>2017-06-18T08:24:05Z</time>
      </trkpt>
      <trkpt lat="45.93532" lon="4.77378">
        <ele>170</ele>
        <time>2017-06-18T08:24:06Z</time>
      </trkpt>
      <trkpt lat="45.93534" lon="4.77385">
        <ele>170</ele>
        <time>2017-06-18T08:24:07Z</time>
      </trkpt>
      <trkpt lat="45.93535" lon="4.77392">
        <ele>170</ele>
        <time>2017-06-18T08:24:08Z</time>
      </trkpt>
      <trkpt lat="45.93537" lon="4.77399">
        <ele>170</ele>
        <time>2017-06-18T08:24:09Z</time>
      </trkpt>
      <trkpt lat="45.93538" lon="4.77406">
        <ele>170</ele>
        <time>2017-06-18T08:24:10Z</time>
      </trkpt>
      <trkpt lat="45.93539" lon="4.77413">
        <ele>170</ele>
        <time>2017-06-18T08:24:11Z</time>
      </trkpt>
      <trkpt lat="45.93541" lon="4.7742">
        <ele>170</ele>
        <time>2017-06-18T08:24:12Z</time>
      </trkpt>
      <trkpt lat="45.93543" lon="4.77427">
        <ele>169</ele>
        <time>2017-06-18T08:24:13Z</time>
      </trkpt>
      <trkpt lat="45.93544" lon="4.77434">
        <ele>169</ele>
        <time>2017-06-18T08:24:14Z</time>
      </trkpt>
      <trkpt lat="45.93546" lon="4.77441">
        <ele>169</ele>
        <time>2017-06-18T08:24:15Z</time>
      </trkpt>
      <trkpt lat="45.93547" lon="4.77448">
        <ele>169</ele>
        <time>2017-06-18T08:24:16Z</time>
      </trkpt>
      <trkpt lat="45.93549" lon="4.77455">
        <ele>169</ele>
        <time>2017-06-18T08:24:17Z</time>
      </trkpt>
      <trkpt lat="45.9355" lon="4.77462">
        <ele>169</ele>
        <time>2017-06-18T08:24:18Z</time>
      </trkpt>
      <trkpt lat="45.93552" lon="4.77469">
        <ele>169</ele>
        <time>2017-06-18T08:24:19Z</time>
      </trkpt>
      <trkpt lat="45.93554" lon="4.77475">
        <ele>169</ele>
        <time>2017-06-18T08:24:20Z</time>
      </trkpt>
      <trkpt lat="45.93555" lon="4.77483">
        <ele>169</ele>
        <time>2017-06-18T08:24:21Z</time>
      </trkpt>
      <trkpt lat="45.93557" lon="4.7749">
        <ele>169</ele>
        <time>2017-06-18T08:24:22Z</time>
      </trkpt>
      <trkpt lat="45.93558" lon="4.77497">
        <ele>169</ele>
        <time>2017-06-18T08:24:23Z</time>
      </trkpt>
      <trkpt lat="45.9356" lon="4.77503">
        <ele>169</ele>
        <time>2017-06-18T08:24:24Z</time>
      </trkpt>
      <trkpt lat="45.93561" lon="4.7751">
        <ele>169</ele>
        <time>2017-06-18T08:24:25Z</time>
      </trkpt>
      <trkpt lat="45.93563" lon="4.77516">
        <ele>169</ele>
        <time>2017-06-18T08:24:26Z</time>
      </trkpt>
      <trkpt lat="45.93564" lon="4.77523">
        <ele>169</ele>
        <time>2017-06-18T08:24:27Z</time>
      </trkpt>
      <trkpt lat="45.93566" lon="4.7753">
        <ele>169</ele>
        <time>2017-06-18T08:24:28Z</time>
      </trkpt>
      <trkpt lat="45.93567" lon="4.77537">
        <ele>169</ele>
        <time>2017-06-18T08:24:29Z</time>
      </trkpt>
      <trkpt lat="45.93569" lon="4.77545">
        <ele>169</ele>
        <time>2017-06-18T08:24:30Z</time>
      </trkpt>
      <trkpt lat="45.93571" lon="4.77553">
        <ele>169</ele>
        <time>2017-06-18T08:24:31Z</time>
      </trkpt>
      <trkpt lat="45.93573" lon="4.77561">
        <ele>169</ele>
        <time>2017-06-18T08:24:32Z</time>
      </trkpt>
      <trkpt lat="45.93575" lon="4.77569">
        <ele>170</ele>
        <time>2017-06-18T08:24:33Z</time>
      </trkpt>
      <trkpt lat="45.93577" lon="4.77577">
        <ele>170</ele>
        <time>2017-06-18T08:24:34Z</time>
      </trkpt>
      <trkpt lat="45.9358" lon="4.77584">
        <ele>170</ele>
        <time>2017-06-18T08:24:35Z</time>
      </trkpt>
      <trkpt lat="45.93582" lon="4.77591">
        <ele>170</ele>
        <time>2017-06-18T08:24:36Z</time>
      </trkpt>
      <trkpt lat="45.93585" lon="4.77598">
        <ele>170</ele>
        <time>2017-06-18T08:24:37Z</time>
      </trkpt>
      <trkpt lat="45.93587" lon="4.77605">
        <ele>170</ele>
        <time>2017-06-18T08:24:38Z</time>
      </trkpt>
      <trkpt lat="45.93589" lon="4.77612">
        <ele>170</ele>
        <time>2017-06-18T08:24:39Z</time>
      </trkpt>
      <trkpt lat="45.93592" lon="4.77619">
        <ele>170</ele>
        <time>2017-06-18T08:24:40Z</time>
      </trkpt>
      <trkpt lat="45.93594" lon="4.77626">
        <ele>169</ele>
        <time>2017-06-18T08:24:41Z</time>
      </trkpt>
      <trkpt lat="45.93596" lon="4.77632">
        <ele>169</ele>
        <time>2017-06-18T08:24:42Z</time>
      </trkpt>
      <trkpt lat="45.93599" lon="4.77639">
        <ele>169</ele>
        <time>2017-06-18T08:24:43Z</time>
      </trkpt>
      <trkpt lat="45.93602" lon="4.77644">
        <ele>169</ele>
        <time>2017-06-18T08:24:44Z</time>
      </trkpt>
      <trkpt lat="45.93604" lon="4.7765">
        <ele>169</ele>
        <time>2017-06-18T08:24:45Z</time>
      </trkpt>
      <trkpt lat="45.93607" lon="4.77656">
        <ele>169</ele>
        <time>2017-06-18T08:24:46Z</time>
      </trkpt>
      <trkpt lat="45.93609" lon="4.77661">
        <ele>169</ele>
        <time>2017-06-18T08:24:47Z</time>
      </trkpt>
      <trkpt lat="45.93612" lon="4.77666">
        <ele>169</ele>
        <time>2017-06-18T08:24:48Z</time>
      </trkpt>
      <trkpt lat="45.93615" lon="4.77672">
        <ele>169</ele>
        <time>2017-06-18T08:24:49Z</time>
      </trkpt>
      <trkpt lat="45.93617" lon="4.77677">
        <ele>169</ele>
        <time>2017-06-18T08:24:50Z</time>
      </trkpt>
      <trkpt lat="45.9362" lon="4.77684">
        <ele>169</ele>
        <time>2017-06-18T08:24:51Z</time>
      </trkpt>
      <trkpt lat="45.93623" lon="4.77691">
        <ele>169</ele>
        <time>2017-06-18T08:24:52Z</time>
      </trkpt>
      <trkpt lat="45.93626" lon="4.77698">
        <ele>169</ele>
        <time>2017-06-18T08:24:53Z</time>
      </trkpt>
      <trkpt lat="45.93629" lon="4.77704">
        <ele>169</ele>
        <time>2017-06-18T08:24:54Z</time>
      </trkpt>
      <trkpt lat="45.93632" lon="4.7771">
        <ele>170</ele>
        <time>2017-06-18T08:24:55Z</time>
      </trkpt>
      <trkpt lat="45.93636" lon="4.77715">
        <ele>170</ele>
        <time>2017-06-18T08:24:56Z</time>
      </trkpt>
      <trkpt lat="45.93639" lon="4.77721">
        <ele>170</ele>
        <time>2017-06-18T08:24:57Z</time>
      </trkpt>
      <trkpt lat="45.93642" lon="4.77727">
        <ele>170</ele>
        <time>2017-06-18T08:24:58Z</time>
      </trkpt>
      <trkpt lat="45.93646" lon="4.77732">
        <ele>170</ele>
        <time>2017-06-18T08:24:59Z</time>
      </trkpt>
      <trkpt lat="45.93649" lon="4.77738">
        <ele>170</ele>
        <time>2017-06-18T08:25:00Z</time>
      </trkpt>
      <trkpt lat="45.93652" lon="4.77743">
        <ele>170</ele>
        <time>2017-06-18T08:25:01Z</time>
      </trkpt>
      <trkpt lat="45.93656" lon="4.77749">
        <ele>170</ele>
        <time>2017-06-18T08:25:02Z</time>
      </trkpt>
      <trkpt lat="45.93659" lon="4.77754">
        <ele>171</ele>
        <time>2017-06-18T08:25:03Z</time>
      </trkpt>
      <trkpt lat="45.93663" lon="4.77759">
        <ele>171</ele>
        <time>2017-06-18T08:25:04Z</time>
      </trkpt>
      <trkpt lat="45.93666" lon="4.77764">
        <ele>170</ele>
        <time>2017-06-18T08:25:05Z</time>
      </trkpt>
      <trkpt lat="45.9367" lon="4.77769">
        <ele>170</ele>
        <time>2017-06-18T08:25:06Z</time>
      </trkpt>
      <trkpt lat="45.93674" lon="4.77774">
        <ele>170</ele>
        <time>2017-06-18T08:25:07Z</time>
      </trkpt>
      <trkpt lat="45.93677" lon="4.77779">
        <ele>170</ele>
        <time>2017-06-18T08:25:08Z</time>
      </trkpt>
      <trkpt lat="45.93681" lon="4.77784">
        <ele>170</ele>
        <time>2017-06-18T08:25:09Z</time>
      </trkpt>
      <trkpt lat="45.93684" lon="4.7779">
        <ele>170</ele>
        <time>2017-06-18T08:25:10Z</time>
      </trkpt>
      <trkpt lat="45.93688" lon="4.77795">
        <ele>170</ele>
        <time>2017-06-18T08:25:11Z</time>
      </trkpt>
      <trkpt lat="45.93692" lon="4.778">
        <ele>169</ele>
        <time>2017-06-18T08:25:12Z</time>
      </trkpt>
      <trkpt lat="45.93696" lon="4.77805">
        <ele>169</ele>
        <time>2017-06-18T08:25:13Z</time>
      </trkpt>
      <trkpt lat="45.937" lon="4.7781">
        <ele>169</ele>
        <time>2017-06-18T08:25:14Z</time>
      </trkpt>
      <trkpt lat="45.93704" lon="4.77816">
        <ele>169</ele>
        <time>2017-06-18T08:25:15Z</time>
      </trkpt>
      <trkpt lat="45.93708" lon="4.77821">
        <ele>169</ele>
        <time>2017-06-18T08:25:16Z</time>
      </trkpt>
      <trkpt lat="45.93712" lon="4.77826">
        <ele>169</ele>
        <time>2017-06-18T08:25:17Z</time>
      </trkpt>
      <trkpt lat="45.93716" lon="4.77831">
        <ele>169</ele>
        <time>2017-06-18T08:25:18Z</time>
      </trkpt>
      <trkpt lat="45.9372" lon="4.77837">
        <ele>167</ele>
        <time>2017-06-18T08:25:19Z</time>
      </trkpt>
      <trkpt lat="45.93724" lon="4.77842">
        <ele>167</ele>
        <time>2017-06-18T08:25:20Z</time>
      </trkpt>
      <trkpt lat="45.93727" lon="4.77847">
        <ele>167</ele>
        <time>2017-06-18T08:25:21Z</time>
      </trkpt>
      <trkpt lat="45.93731" lon="4.77852">
        <ele>167</ele>
        <time>2017-06-18T08:25:22Z</time>
      </trkpt>
      <trkpt lat="45.93735" lon="4.77858">
        <ele>167</ele>
        <time>2017-06-18T08:25:23Z</time>
      </trkpt>
      <trkpt lat="45.93739" lon="4.77863">
        <ele>167</ele>
        <time>2017-06-18T08:25:24Z</time>
      </trkpt>
      <trkpt lat="45.93742" lon="4.77868">
        <ele>167</ele>
        <time>2017-06-18T08:25:25Z</time>
      </trkpt>
      <trkpt lat="45.93746" lon="4.77873">
        <ele>167</ele>
        <time>2017-06-18T08:25:26Z</time>
      </trkpt>
      <trkpt lat="45.9375" lon="4.77878">
        <ele>166</ele>
        <time>2017-06-18T08:25:27Z</time>
      </trkpt>
      <trkpt lat="45.93754" lon="4.77883">
        <ele>166</ele>
        <time>2017-06-18T08:25:28Z</time>
      </trkpt>
      <trkpt lat="45.93758" lon="4.77888">
        <ele>166</ele>
        <time>2017-06-18T08:25:29Z</time>
      </trkpt>
      <trkpt lat="45.93761" lon="4.77893">
        <ele>166</ele>
        <time>2017-06-18T08:25:30Z</time>
      </trkpt>
      <trkpt lat="45.93765" lon="4.77898">
        <ele>166</ele>
        <time>2017-06-18T08:25:31Z</time>
      </trkpt>
      <trkpt lat="45.93768" lon="4.77902">
        <ele>166</ele>
        <time>2017-06-18T08:25:32Z</time>
      </trkpt>
      <trkpt lat="45.93772" lon="4.77906">
        <ele>166</ele>
        <time>2017-06-18T08:25:33Z</time>
      </trkpt>
      <trkpt lat="45.93775" lon="4.77911">
        <ele>166</ele>
        <time>2017-06-18T08:25:34Z</time>
      </trkpt>
      <trkpt lat="45.93778" lon="4.77915">
        <ele>166</ele>
        <time>2017-06-18T08:25:35Z</time>
      </trkpt>
      <trkpt lat="45.93782" lon="4.7792">
        <ele>168</ele>
        <time>2017-06-18T08:25:36Z</time>
      </trkpt>
      <trkpt lat="45.93785" lon="4.77925">
        <ele>168</ele>
        <time>2017-06-18T08:25:37Z</time>
      </trkpt>
      <trkpt lat="45.93789" lon="4.7793">
        <ele>168</ele>
        <time>2017-06-18T08:25:38Z</time>
      </trkpt>
      <trkpt lat="45.93792" lon="4.77934">
        <ele>168</ele>
        <time>2017-06-18T08:25:39Z</time>
      </trkpt>
      <trkpt lat="45.93796" lon="4.77939">
        <ele>169</ele>
        <time>2017-06-18T08:25:40Z</time>
      </trkpt>
      <trkpt lat="45.938" lon="4.77944">
        <ele>169</ele>
        <time>2017-06-18T08:25:41Z</time>
      </trkpt>
      <trkpt lat="45.93803" lon="4.77949">
        <ele>169</ele>
        <time>2017-06-18T08:25:42Z</time>
      </trkpt>
      <trkpt lat="45.93807" lon="4.77954">
        <ele>170</ele>
        <time>2017-06-18T08:25:43Z</time>
      </trkpt>
      <trkpt lat="45.93811" lon="4.77959">
        <ele>170</ele>
        <time>2017-06-18T08:25:44Z</time>
      </trkpt>
      <trkpt lat="45.93815" lon="4.77963">
        <ele>170</ele>
        <time>2017-06-18T08:25:45Z</time>
      </trkpt>
      <trkpt lat="45.93819" lon="4.77968">
        <ele>171</ele>
        <time>2017-06-18T08:25:46Z</time>
      </trkpt>
      <trkpt lat="45.93823" lon="4.77973">
        <ele>172</ele>
        <time>2017-06-18T08:25:47Z</time>
      </trkpt>
      <trkpt lat="45.93827" lon="4.77979">
        <ele>173</ele>
        <time>2017-06-18T08:25:48Z</time>
      </trkpt>
      <trkpt lat="45.9383" lon="4.77984">
        <ele>174</ele>
        <time>2017-06-18T08:25:49Z</time>
      </trkpt>
      <trkpt lat="45.93833" lon="4.7799">
        <ele>176</ele>
        <time>2017-06-18T08:25:50Z</time>
      </trkpt>
      <trkpt lat="45.93836" lon="4.77995">
        <ele>179</ele>
        <time>2017-06-18T08:25:51Z</time>
      </trkpt>
      <trkpt lat="45.93838" lon="4.78005">
        <ele>180</ele>
        <time>2017-06-18T08:25:54Z</time>
      </trkpt>
      <trkpt lat="45.93838" lon="4.78009">
        <ele>180</ele>
        <time>2017-06-18T08:25:55Z</time>
      </trkpt>
      <trkpt lat="45.93838" lon="4.78018">
        <ele>181</ele>
        <time>2017-06-18T08:25:57Z</time>
      </trkpt>
      <trkpt lat="45.93839" lon="4.78023">
        <ele>182</ele>
        <time>2017-06-18T08:25:58Z</time>
      </trkpt>
      <trkpt lat="45.9384" lon="4.78029">
        <ele>182</ele>
        <time>2017-06-18T08:25:59Z</time>
      </trkpt>
      <trkpt lat="45.93842" lon="4.78035">
        <ele>182</ele>
        <time>2017-06-18T08:26:00Z</time>
      </trkpt>
      <trkpt lat="45.93843" lon="4.78042">
        <ele>182</ele>
        <time>2017-06-18T08:26:01Z</time>
      </trkpt>
      <trkpt lat="45.93844" lon="4.78049">
        <ele>182</ele>
        <time>2017-06-18T08:26:02Z</time>
      </trkpt>
      <trkpt lat="45.93844" lon="4.78056">
        <ele>182</ele>
        <time>2017-06-18T08:26:03Z</time>
      </trkpt>
      <trkpt lat="45.93843" lon="4.78063">
        <ele>182</ele>
        <time>2017-06-18T08:26:04Z</time>
      </trkpt>
      <trkpt lat="45.93841" lon="4.78069">
        <ele>182</ele>
        <time>2017-06-18T08:26:05Z</time>
      </trkpt>
      <trkpt lat="45.9384" lon="4.78076">
        <ele>181</ele>
        <time>2017-06-18T08:26:06Z</time>
      </trkpt>
      <trkpt lat="45.93838" lon="4.78082">
        <ele>181</ele>
        <time>2017-06-18T08:26:07Z</time>
      </trkpt>
      <trkpt lat="45.93837" lon="4.78088">
        <ele>181</ele>
        <time>2017-06-18T08:26:08Z</time>
      </trkpt>
      <trkpt lat="45.93835" lon="4.78094">
        <ele>182</ele>
        <time>2017-06-18T08:26:09Z</time>
      </trkpt>
      <trkpt lat="45.93834" lon="4.781">
        <ele>183</ele>
        <time>2017-06-18T08:26:10Z</time>
      </trkpt>
      <trkpt lat="45.93831" lon="4.78113">
        <ele>179</ele>
        <time>2017-06-18T08:26:12Z</time>
      </trkpt>
      <trkpt lat="45.9383" lon="4.78118">
        <ele>179</ele>
        <time>2017-06-18T08:26:13Z</time>
      </trkpt>
      <trkpt lat="45.93827" lon="4.78129">
        <ele>180</ele>
        <time>2017-06-18T08:26:15Z</time>
      </trkpt>
      <trkpt lat="45.93826" lon="4.78134">
        <ele>180</ele>
        <time>2017-06-18T08:26:16Z</time>
      </trkpt>
      <trkpt lat="45.93825" lon="4.7814">
        <ele>180</ele>
        <time>2017-06-18T08:26:17Z</time>
      </trkpt>
      <trkpt lat="45.93823" lon="4.78146">
        <ele>180</ele>
        <time>2017-06-18T08:26:18Z</time>
      </trkpt>
      <trkpt lat="45.93821" lon="4.78152">
        <ele>180</ele>
        <time>2017-06-18T08:26:19Z</time>
      </trkpt>
      <trkpt lat="45.9382" lon="4.78159">
        <ele>180</ele>
        <time>2017-06-18T08:26:20Z</time>
      </trkpt>
      <trkpt lat="45.93818" lon="4.78171">
        <ele>182</ele>
        <time>2017-06-18T08:26:22Z</time>
      </trkpt>
      <trkpt lat="45.93816" lon="4.78177">
        <ele>182</ele>
        <time>2017-06-18T08:26:23Z</time>
      </trkpt>
      <trkpt lat="45.93813" lon="4.78188">
        <ele>182</ele>
        <time>2017-06-18T08:26:25Z</time>
      </trkpt>
      <trkpt lat="45.93814" lon="4.78194">
        <ele>182</ele>
        <time>2017-06-18T08:26:26Z</time>
      </trkpt>
      <trkpt lat="45.93811" lon="4.78206">
        <ele>182</ele>
        <time>2017-06-18T08:26:28Z</time>
      </trkpt>
      <trkpt lat="45.93809" lon="4.78211">
        <ele>182</ele>
        <time>2017-06-18T08:26:29Z</time>
      </trkpt>
      <trkpt lat="45.93805" lon="4.78222">
        <ele>182</ele>
        <time>2017-06-18T08:26:31Z</time>
      </trkpt>
      <trkpt lat="45.93803" lon="4.78227">
        <ele>182</ele>
        <time>2017-06-18T08:26:32Z</time>
      </trkpt>
      <trkpt lat="45.93798" lon="4.78236">
        <ele>182</ele>
        <time>2017-06-18T08:26:34Z</time>
      </trkpt>
      <trkpt lat="45.93796" lon="4.7824">
        <ele>182</ele>
        <time>2017-06-18T08:26:35Z</time>
      </trkpt>
      <trkpt lat="45.93794" lon="4.78246">
        <ele>182</ele>
        <time>2017-06-18T08:26:36Z</time>
      </trkpt>
      <trkpt lat="45.93792" lon="4.78253">
        <ele>183</ele>
        <time>2017-06-18T08:26:37Z</time>
      </trkpt>
      <trkpt lat="45.93791" lon="4.78261">
        <ele>183</ele>
        <time>2017-06-18T08:26:38Z</time>
      </trkpt>
      <trkpt lat="45.9379" lon="4.78268">
        <ele>183</ele>
        <time>2017-06-18T08:26:39Z</time>
      </trkpt>
      <trkpt lat="45.93789" lon="4.78275">
        <ele>183</ele>
        <time>2017-06-18T08:26:40Z</time>
      </trkpt>
      <trkpt lat="45.93786" lon="4.78281">
        <ele>183</ele>
        <time>2017-06-18T08:26:41Z</time>
      </trkpt>
      <trkpt lat="45.93784" lon="4.78288">
        <ele>183</ele>
        <time>2017-06-18T08:26:42Z</time>
      </trkpt>
      <trkpt lat="45.93782" lon="4.78293">
        <ele>183</ele>
        <time>2017-06-18T08:26:43Z</time>
      </trkpt>
      <trkpt lat="45.93779" lon="4.783">
        <ele>183</ele>
        <time>2017-06-18T08:26:44Z</time>
      </trkpt>
      <trkpt lat="45.93777" lon="4.78307">
        <ele>183</ele>
        <time>2017-06-18T08:26:45Z</time>
      </trkpt>
      <trkpt lat="45.93775" lon="4.78314">
        <ele>183</ele>
        <time>2017-06-18T08:26:46Z</time>
      </trkpt>
      <trkpt lat="45.93773" lon="4.78322">
        <ele>183</ele>
        <time>2017-06-18T08:26:47Z</time>
      </trkpt>
      <trkpt lat="45.93771" lon="4.78329">
        <ele>183</ele>
        <time>2017-06-18T08:26:48Z</time>
      </trkpt>
      <trkpt lat="45.93769" lon="4.78336">
        <ele>183</ele>
        <time>2017-06-18T08:26:49Z</time>
      </trkpt>
      <trkpt lat="45.93768" lon="4.78343">
        <ele>183</ele>
        <time>2017-06-18T08:26:50Z</time>
      </trkpt>
      <trkpt lat="45.93766" lon="4.7835">
        <ele>183</ele>
        <time>2017-06-18T08:26:51Z</time>
      </trkpt>
      <trkpt lat="45.93765" lon="4.78357">
        <ele>183</ele>
        <time>2017-06-18T08:26:52Z</time>
      </trkpt>
      <trkpt lat="45.93762" lon="4.78365">
        <ele>183</ele>
        <time>2017-06-18T08:26:53Z</time>
      </trkpt>
      <trkpt lat="45.9376" lon="4.78372">
        <ele>183</ele>
        <time>2017-06-18T08:26:54Z</time>
      </trkpt>
      <trkpt lat="45.93758" lon="4.78378">
        <ele>183</ele>
        <time>2017-06-18T08:26:55Z</time>
      </trkpt>
      <trkpt lat="45.93757" lon="4.78386">
        <ele>183</ele>
        <time>2017-06-18T08:26:56Z</time>
      </trkpt>
      <trkpt lat="45.93756" lon="4.78393">
        <ele>183</ele>
        <time>2017-06-18T08:26:57Z</time>
      </trkpt>
      <trkpt lat="45.93755" lon="4.784">
        <ele>182</ele>
        <time>2017-06-18T08:26:58Z</time>
      </trkpt>
      <trkpt lat="45.93753" lon="4.78407">
        <ele>182</ele>
        <time>2017-06-18T08:26:59Z</time>
      </trkpt>
      <trkpt lat="45.93751" lon="4.78414">
        <ele>181</ele>
        <time>2017-06-18T08:27:00Z</time>
      </trkpt>
      <trkpt lat="45.93749" lon="4.78422">
        <ele>181</ele>
        <time>2017-06-18T08:27:01Z</time>
      </trkpt>
      <trkpt lat="45.93747" lon="4.7843">
        <ele>180</ele>
        <time>2017-06-18T08:27:02Z</time>
      </trkpt>
      <trkpt lat="45.93744" lon="4.78438">
        <ele>180</ele>
        <time>2017-06-18T08:27:03Z</time>
      </trkpt>
      <trkpt lat="45.93742" lon="4.78447">
        <ele>180</ele>
        <time>2017-06-18T08:27:04Z</time>
      </trkpt>
      <trkpt lat="45.9374" lon="4.78456">
        <ele>180</ele>
        <time>2017-06-18T08:27:05Z</time>
      </trkpt>
      <trkpt lat="45.93738" lon="4.78465">
        <ele>180</ele>
        <time>2017-06-18T08:27:06Z</time>
      </trkpt>
      <trkpt lat="45.93735" lon="4.78474">
        <ele>180</ele>
        <time>2017-06-18T08:27:07Z</time>
      </trkpt>
      <trkpt lat="45.93732" lon="4.78483">
        <ele>180</ele>
        <time>2017-06-18T08:27:08Z</time>
      </trkpt>
      <trkpt lat="45.93729" lon="4.78492">
        <ele>180</ele>
        <time>2017-06-18T08:27:09Z</time>
      </trkpt>
      <trkpt lat="45.93727" lon="4.78502">
        <ele>179</ele>
        <time>2017-06-18T08:27:10Z</time>
      </trkpt>
      <trkpt lat="45.93724" lon="4.78511">
        <ele>179</ele>
        <time>2017-06-18T08:27:11Z</time>
      </trkpt>
      <trkpt lat="45.93722" lon="4.7852">
        <ele>179</ele>
        <time>2017-06-18T08:27:12Z</time>
      </trkpt>
      <trkpt lat="45.9372" lon="4.7853">
        <ele>178</ele>
        <time>2017-06-18T08:27:13Z</time>
      </trkpt>
      <trkpt lat="45.93717" lon="4.7854">
        <ele>178</ele>
        <time>2017-06-18T08:27:14Z</time>
      </trkpt>
      <trkpt lat="45.93715" lon="4.78549">
        <ele>178</ele>
        <time>2017-06-18T08:27:15Z</time>
      </trkpt>
      <trkpt lat="45.93713" lon="4.78559">
        <ele>178</ele>
        <time>2017-06-18T08:27:16Z</time>
      </trkpt>
      <trkpt lat="45.93711" lon="4.78568">
        <ele>177</ele>
        <time>2017-06-18T08:27:17Z</time>
      </trkpt>
      <trkpt lat="45.93709" lon="4.78576">
        <ele>177</ele>
        <time>2017-06-18T08:27:18Z</time>
      </trkpt>
      <trkpt lat="45.93708" lon="4.78585">
        <ele>176</ele>
        <time>2017-06-18T08:27:19Z</time>
      </trkpt>
      <trkpt lat="45.93706" lon="4.78592">
        <ele>176</ele>
        <time>2017-06-18T08:27:20Z</time>
      </trkpt>
      <trkpt lat="45.93705" lon="4.78598">
        <ele>176</ele>
        <time>2017-06-18T08:27:21Z</time>
      </trkpt>
      <trkpt lat="45.93702" lon="4.78604">
        <ele>176</ele>
        <time>2017-06-18T08:27:22Z</time>
      </trkpt>
      <trkpt lat="45.937" lon="4.7861">
        <ele>176</ele>
        <time>2017-06-18T08:27:23Z</time>
      </trkpt>
      <trkpt lat="45.93698" lon="4.78617">
        <ele>176</ele>
        <time>2017-06-18T08:27:24Z</time>
      </trkpt>
      <trkpt lat="45.93697" lon="4.78624">
        <ele>176</ele>
        <time>2017-06-18T08:27:25Z</time>
      </trkpt>
      <trkpt lat="45.93697" lon="4.78631">
        <ele>176</ele>
        <time>2017-06-18T08:27:26Z</time>
      </trkpt>
      <trkpt lat="45.93702" lon="4.78635">
        <ele>176</ele>
        <time>2017-06-18T08:27:27Z</time>
      </trkpt>
      <trkpt lat="45.93711" lon="4.78635">
        <ele>176</ele>
        <time>2017-06-18T08:27:29Z</time>
      </trkpt>
      <trkpt lat="45.93714" lon="4.78633">
        <ele>176</ele>
        <time>2017-06-18T08:27:30Z</time>
      </trkpt>
      <trkpt lat="45.93722" lon="4.78631">
        <ele>177</ele>
        <time>2017-06-18T08:27:32Z</time>
      </trkpt>
      <trkpt lat="45.93726" lon="4.7863">
        <ele>177</ele>
        <time>2017-06-18T08:27:33Z</time>
      </trkpt>
      <trkpt lat="45.93732" lon="4.78629">
        <ele>177</ele>
        <time>2017-06-18T08:27:35Z</time>
      </trkpt>
      <trkpt lat="45.93735" lon="4.78629">
        <ele>177</ele>
        <time>2017-06-18T08:27:36Z</time>
      </trkpt>
      <trkpt lat="45.93742" lon="4.78628">
        <ele>177</ele>
        <time>2017-06-18T08:27:38Z</time>
      </trkpt>
      <trkpt lat="45.93745" lon="4.78628">
        <ele>177</ele>
        <time>2017-06-18T08:27:39Z</time>
      </trkpt>
      <trkpt lat="45.93751" lon="4.78626">
        <ele>181</ele>
        <time>2017-06-18T08:27:41Z</time>
      </trkpt>
      <trkpt lat="45.93754" lon="4.78625">
        <ele>181</ele>
        <time>2017-06-18T08:27:42Z</time>
      </trkpt>
      <trkpt lat="45.93761" lon="4.78623">
        <ele>181</ele>
        <time>2017-06-18T08:27:44Z</time>
      </trkpt>
      <trkpt lat="45.93763" lon="4.78623">
        <ele>181</ele>
        <time>2017-06-18T08:27:45Z</time>
      </trkpt>
      <trkpt lat="45.9377" lon="4.78623">
        <ele>181</ele>
        <time>2017-06-18T08:27:47Z</time>
      </trkpt>
      <trkpt lat="45.93773" lon="4.78622">
        <ele>181</ele>
        <time>2017-06-18T08:27:48Z</time>
      </trkpt>
      <trkpt lat="45.9378" lon="4.7862">
        <ele>181</ele>
        <time>2017-06-18T08:27:50Z</time>
      </trkpt>
      <trkpt lat="45.93784" lon="4.78619">
        <ele>182</ele>
        <time>2017-06-18T08:27:51Z</time>
      </trkpt>
      <trkpt lat="45.9379" lon="4.7862">
        <ele>182</ele>
        <time>2017-06-18T08:27:53Z</time>
      </trkpt>
      <trkpt lat="45.93793" lon="4.7862">
        <ele>182</ele>
        <time>2017-06-18T08:27:54Z</time>
      </trkpt>
      <trkpt lat="45.93801" lon="4.78617">
        <ele>182</ele>
        <time>2017-06-18T08:27:56Z</time>
      </trkpt>
      <trkpt lat="45.93805" lon="4.78616">
        <ele>182</ele>
        <time>2017-06-18T08:27:57Z</time>
      </trkpt>
      <trkpt lat="45.93812" lon="4.78614">
        <ele>183</ele>
        <time>2017-06-18T08:27:59Z</time>
      </trkpt>
      <trkpt lat="45.93815" lon="4.78614">
        <ele>183</ele>
        <time>2017-06-18T08:28:00Z</time>
      </trkpt>
      <trkpt lat="45.93823" lon="4.78612">
        <ele>183</ele>
        <time>2017-06-18T08:28:03Z</time>
      </trkpt>
      <trkpt lat="45.93826" lon="4.78611">
        <ele>184</ele>
        <time>2017-06-18T08:28:04Z</time>
      </trkpt>
      <trkpt lat="45.93834" lon="4.78609">
        <ele>187</ele>
        <time>2017-06-18T08:28:07Z</time>
      </trkpt>
      <trkpt lat="45.93837" lon="4.78609">
        <ele>187</ele>
        <time>2017-06-18T08:28:08Z</time>
      </trkpt>
      <trkpt lat="45.93845" lon="4.78609">
        <ele>188</ele>
        <time>2017-06-18T08:28:11Z</time>
      </trkpt>
      <trkpt lat="45.93848" lon="4.78608">
        <ele>188</ele>
        <time>2017-06-18T08:28:12Z</time>
      </trkpt>
      <trkpt lat="45.93856" lon="4.78609">
        <ele>188</ele>
        <time>2017-06-18T08:28:15Z</time>
      </trkpt>
      <trkpt lat="45.93859" lon="4.78609">
        <ele>188</ele>
        <time>2017-06-18T08:28:16Z</time>
      </trkpt>
      <trkpt lat="45.93867" lon="4.78607">
        <ele>188</ele>
        <time>2017-06-18T08:28:19Z</time>
      </trkpt>
      <trkpt lat="45.93869" lon="4.78606">
        <ele>188</ele>
        <time>2017-06-18T08:28:20Z</time>
      </trkpt>
      <trkpt lat="45.93877" lon="4.78603">
        <ele>189</ele>
        <time>2017-06-18T08:28:23Z</time>
      </trkpt>
      <trkpt lat="45.93879" lon="4.78601">
        <ele>189</ele>
        <time>2017-06-18T08:28:24Z</time>
      </trkpt>
      <trkpt lat="45.93887" lon="4.78601">
        <ele>189</ele>
        <time>2017-06-18T08:28:27Z</time>
      </trkpt>
      <trkpt lat="45.93889" lon="4.78601">
        <ele>189</ele>
        <time>2017-06-18T08:28:28Z</time>
      </trkpt>
      <trkpt lat="45.93896" lon="4.78595">
        <ele>190</ele>
        <time>2017-06-18T08:28:30Z</time>
      </trkpt>
      <trkpt lat="45.939" lon="4.78596">
        <ele>190</ele>
        <time>2017-06-18T08:28:31Z</time>
      </trkpt>
      <trkpt lat="45.93908" lon="4.78594">
        <ele>191</ele>
        <time>2017-06-18T08:28:34Z</time>
      </trkpt>
      <trkpt lat="45.9391" lon="4.7859">
        <ele>191</ele>
        <time>2017-06-18T08:28:35Z</time>
      </trkpt>
      <trkpt lat="45.93918" lon="4.78587">
        <ele>194</ele>
        <time>2017-06-18T08:28:38Z</time>
      </trkpt>
      <trkpt lat="45.9392" lon="4.78588">
        <ele>194</ele>
        <time>2017-06-18T08:28:39Z</time>
      </trkpt>
      <trkpt lat="45.93929" lon="4.78589">
        <ele>195</ele>
        <time>2017-06-18T08:28:45Z</time>
      </trkpt>
      <trkpt lat="45.93929" lon="4.78592">
        <ele>195</ele>
        <time>2017-06-18T08:28:46Z</time>
      </trkpt>
      <trkpt lat="45.93931" lon="4.78603">
        <ele>195</ele>
        <time>2017-06-18T08:28:49Z</time>
      </trkpt>
      <trkpt lat="45.93932" lon="4.78606">
        <ele>195</ele>
        <time>2017-06-18T08:28:50Z</time>
      </trkpt>
      <trkpt lat="45.93932" lon="4.78615">
        <ele>195</ele>
        <time>2017-06-18T08:28:52Z</time>
      </trkpt>
      <trkpt lat="45.93933" lon="4.7862">
        <ele>195</ele>
        <time>2017-06-18T08:28:53Z</time>
      </trkpt>
      <trkpt lat="45.93933" lon="4.78631">
        <ele>195</ele>
        <time>2017-06-18T08:28:55Z</time>
      </trkpt>
      <trkpt lat="45.93933" lon="4.78636">
        <ele>195</ele>
        <time>2017-06-18T08:28:56Z</time>
      </trkpt>
      <trkpt lat="45.93932" lon="4.78646">
        <ele>194</ele>
        <time>2017-06-18T08:28:58Z</time>
      </trkpt>
      <trkpt lat="45.93932" lon="4.78652">
        <ele>194</ele>
        <time>2017-06-18T08:28:59Z</time>
      </trkpt>
      <trkpt lat="45.93934" lon="4.78663">
        <ele>193</ele>
        <time>2017-06-18T08:29:01Z</time>
      </trkpt>
      <trkpt lat="45.93935" lon="4.78669">
        <ele>193</ele>
        <time>2017-06-18T08:29:02Z</time>
      </trkpt>
      <trkpt lat="45.93936" lon="4.7868">
        <ele>193</ele>
        <time>2017-06-18T08:29:04Z</time>
      </trkpt>
      <trkpt lat="45.93937" lon="4.78685">
        <ele>194</ele>
        <time>2017-06-18T08:29:05Z</time>
      </trkpt>
      <trkpt lat="45.93936" lon="4.78698">
        <ele>194</ele>
        <time>2017-06-18T08:29:07Z</time>
      </trkpt>
      <trkpt lat="45.93936" lon="4.78704">
        <ele>194</ele>
        <time>2017-06-18T08:29:08Z</time>
      </trkpt>
      <trkpt lat="45.93936" lon="4.78715">
        <ele>194</ele>
        <time>2017-06-18T08:29:10Z</time>
      </trkpt>
      <trkpt lat="45.93936" lon="4.78721">
        <ele>194</ele>
        <time>2017-06-18T08:29:11Z</time>
      </trkpt>
      <trkpt lat="45.93937" lon="4.78731">
        <ele>194</ele>
        <time>2017-06-18T08:29:13Z</time>
      </trkpt>
      <trkpt lat="45.93936" lon="4.78737">
        <ele>193</ele>
        <time>2017-06-18T08:29:14Z</time>
      </trkpt>
      <trkpt lat="45.93937" lon="4.78747">
        <ele>193</ele>
        <time>2017-06-18T08:29:16Z</time>
      </trkpt>
      <trkpt lat="45.93937" lon="4.78752">
        <ele>193</ele>
        <time>2017-06-18T08:29:17Z</time>
      </trkpt>
      <trkpt lat="45.93937" lon="4.78764">
        <ele>193</ele>
        <time>2017-06-18T08:29:19Z</time>
      </trkpt>
      <trkpt lat="45.93938" lon="4.78771">
        <ele>194</ele>
        <time>2017-06-18T08:29:20Z</time>
      </trkpt>
      <trkpt lat="45.93938" lon="4.78777">
        <ele>194</ele>
        <time>2017-06-18T08:29:21Z</time>
      </trkpt>
      <trkpt lat="45.93936" lon="4.78784">
        <ele>194</ele>
        <time>2017-06-18T08:29:22Z</time>
      </trkpt>
      <trkpt lat="45.93936" lon="4.78797">
        <ele>194</ele>
        <time>2017-06-18T08:29:24Z</time>
      </trkpt>
      <trkpt lat="45.93935" lon="4.78804">
        <ele>194</ele>
        <time>2017-06-18T08:29:25Z</time>
      </trkpt>
      <trkpt lat="45.93934" lon="4.78811">
        <ele>194</ele>
        <time>2017-06-18T08:29:26Z</time>
      </trkpt>
      <trkpt lat="45.93934" lon="4.78818">
        <ele>193</ele>
        <time>2017-06-18T08:29:27Z</time>
      </trkpt>
      <trkpt lat="45.93934" lon="4.78825">
        <ele>193</ele>
        <time>2017-06-18T08:29:28Z</time>
      </trkpt>
      <trkpt lat="45.93935" lon="4.78831">
        <ele>193</ele>
        <time>2017-06-18T08:29:29Z</time>
      </trkpt>
      <trkpt lat="45.93935" lon="4.78838">
        <ele>193</ele>
        <time>2017-06-18T08:29:30Z</time>
      </trkpt>
      <trkpt lat="45.93935" lon="4.78845">
        <ele>193</ele>
        <time>2017-06-18T08:29:31Z</time>
      </trkpt>
      <trkpt lat="45.93935" lon="4.78857">
        <ele>193</ele>
        <time>2017-06-18T08:29:33Z</time>
      </trkpt>
      <trkpt lat="45.93935" lon="4.78863">
        <ele>193</ele>
        <time>2017-06-18T08:29:34Z</time>
      </trkpt>
      <trkpt lat="45.93935" lon="4.78875">
        <ele>193</ele>
        <time>2017-06-18T08:29:36Z</time>
      </trkpt>
      <trkpt lat="45.93935" lon="4.78881">
        <ele>193</ele>
        <time>2017-06-18T08:29:37Z</time>
      </trkpt>
      <trkpt lat="45.93936" lon="4.78888">
        <ele>193</ele>
        <time>2017-06-18T08:29:38Z</time>
      </trkpt>
      <trkpt lat="45.93936" lon="4.78894">
        <ele>193</ele>
        <time>2017-06-18T08:29:39Z</time>
      </trkpt>
      <trkpt lat="45.93934" lon="4.78901">
        <ele>193</ele>
        <time>2017-06-18T08:29:40Z</time>
      </trkpt>
      <trkpt lat="45.93934" lon="4.78907">
        <ele>193</ele>
        <time>2017-06-18T08:29:41Z</time>
      </trkpt>
      <trkpt lat="45.93936" lon="4.7892">
        <ele>193</ele>
        <time>2017-06-18T08:29:43Z</time>
      </trkpt>
      <trkpt lat="45.93936" lon="4.78926">
        <ele>193</ele>
        <time>2017-06-18T08:29:44Z</time>
      </trkpt>
      <trkpt lat="45.93936" lon="4.78937">
        <ele>193</ele>
        <time>2017-06-18T08:29:46Z</time>
      </trkpt>
      <trkpt lat="45.93936" lon="4.78943">
        <ele>193</ele>
        <time>2017-06-18T08:29:47Z</time>
      </trkpt>
      <trkpt lat="45.93936" lon="4.78955">
        <ele>194</ele>
        <time>2017-06-18T08:29:49Z</time>
      </trkpt>
      <trkpt lat="45.93937" lon="4.78962">
        <ele>194</ele>
        <time>2017-06-18T08:29:50Z</time>
      </trkpt>
      <trkpt lat="45.93938" lon="4.78973">
        <ele>194</ele>
        <time>2017-06-18T08:29:52Z</time>
      </trkpt>
      <trkpt lat="45.93939" lon="4.78979">
        <ele>193</ele>
        <time>2017-06-18T08:29:53Z</time>
      </trkpt>
      <trkpt lat="45.93939" lon="4.78985">
        <ele>193</ele>
        <time>2017-06-18T08:29:54Z</time>
      </trkpt>
      <trkpt lat="45.9394" lon="4.78992">
        <ele>193</ele>
        <time>2017-06-18T08:29:55Z</time>
      </trkpt>
      <trkpt lat="45.93941" lon="4.79004">
        <ele>194</ele>
        <time>2017-06-18T08:29:57Z</time>
      </trkpt>
      <trkpt lat="45.93942" lon="4.7901">
        <ele>194</ele>
        <time>2017-06-18T08:29:58Z</time>
      </trkpt>
      <trkpt lat="45.93942" lon="4.79021">
        <ele>195</ele>
        <time>2017-06-18T08:30:00Z</time>
      </trkpt>
      <trkpt lat="45.93942" lon="4.79027">
        <ele>195</ele>
        <time>2017-06-18T08:30:01Z</time>
      </trkpt>
      <trkpt lat="45.93942" lon="4.79033">
        <ele>195</ele>
        <time>2017-06-18T08:30:02Z</time>
      </trkpt>
      <trkpt lat="45.93943" lon="4.79039">
        <ele>195</ele>
        <time>2017-06-18T08:30:03Z</time>
      </trkpt>
      <trkpt lat="45.93944" lon="4.79052">
        <ele>195</ele>
        <time>2017-06-18T08:30:05Z</time>
      </trkpt>
      <trkpt lat="45.93946" lon="4.79058">
        <ele>196</ele>
        <time>2017-06-18T08:30:06Z</time>
      </trkpt>
      <trkpt lat="45.93947" lon="4.79069">
        <ele>196</ele>
        <time>2017-06-18T08:30:08Z</time>
      </trkpt>
      <trkpt lat="45.93948" lon="4.79075">
        <ele>196</ele>
        <time>2017-06-18T08:30:09Z</time>
      </trkpt>
      <trkpt lat="45.93948" lon="4.79088">
        <ele>196</ele>
        <time>2017-06-18T08:30:11Z</time>
      </trkpt>
      <trkpt lat="45.93949" lon="4.79093">
        <ele>196</ele>
        <time>2017-06-18T08:30:12Z</time>
      </trkpt>
      <trkpt lat="45.93949" lon="4.79105">
        <ele>197</ele>
        <time>2017-06-18T08:30:14Z</time>
      </trkpt>
      <trkpt lat="45.9395" lon="4.79111">
        <ele>197</ele>
        <time>2017-06-18T08:30:15Z</time>
      </trkpt>
      <trkpt lat="45.9395" lon="4.79122">
        <ele>197</ele>
        <time>2017-06-18T08:30:17Z</time>
      </trkpt>
      <trkpt lat="45.93948" lon="4.79129">
        <ele>197</ele>
        <time>2017-06-18T08:30:18Z</time>
      </trkpt>
      <trkpt lat="45.93946" lon="4.79141">
        <ele>196</ele>
        <time>2017-06-18T08:30:20Z</time>
      </trkpt>
      <trkpt lat="45.93945" lon="4.79146">
        <ele>196</ele>
        <time>2017-06-18T08:30:21Z</time>
      </trkpt>
      <trkpt lat="45.93945" lon="4.79157">
        <ele>196</ele>
        <time>2017-06-18T08:30:23Z</time>
      </trkpt>
      <trkpt lat="45.93945" lon="4.79163">
        <ele>196</ele>
        <time>2017-06-18T08:30:24Z</time>
      </trkpt>
      <trkpt lat="45.93946" lon="4.79174">
        <ele>196</ele>
        <time>2017-06-18T08:30:26Z</time>
      </trkpt>
      <trkpt lat="45.93946" lon="4.7918">
        <ele>196</ele>
        <time>2017-06-18T08:30:27Z</time>
      </trkpt>
      <trkpt lat="45.93946" lon="4.7919">
        <ele>197</ele>
        <time>2017-06-18T08:30:29Z</time>
      </trkpt>
      <trkpt lat="45.93946" lon="4.79195">
        <ele>197</ele>
        <time>2017-06-18T08:30:30Z</time>
      </trkpt>
      <trkpt lat="45.93946" lon="4.79205">
        <ele>197</ele>
        <time>2017-06-18T08:30:32Z</time>
      </trkpt>
      <trkpt lat="45.93945" lon="4.7921">
        <ele>197</ele>
        <time>2017-06-18T08:30:33Z</time>
      </trkpt>
      <trkpt lat="45.93945" lon="4.79221">
        <ele>197</ele>
        <time>2017-06-18T08:30:35Z</time>
      </trkpt>
      <trkpt lat="45.93945" lon="4.79227">
        <ele>197</ele>
        <time>2017-06-18T08:30:36Z</time>
      </trkpt>
      <trkpt lat="45.93946" lon="4.79237">
        <ele>196</ele>
        <time>2017-06-18T08:30:38Z</time>
      </trkpt>
      <trkpt lat="45.93946" lon="4.79242">
        <ele>196</ele>
        <time>2017-06-18T08:30:39Z</time>
      </trkpt>
      <trkpt lat="45.93947" lon="4.79252">
        <ele>197</ele>
        <time>2017-06-18T08:30:41Z</time>
      </trkpt>
      <trkpt lat="45.93948" lon="4.79257">
        <ele>197</ele>
        <time>2017-06-18T08:30:42Z</time>
      </trkpt>
      <trkpt lat="45.93949" lon="4.79267">
        <ele>198</ele>
        <time>2017-06-18T08:30:44Z</time>
      </trkpt>
      <trkpt lat="45.9395" lon="4.79272">
        <ele>198</ele>
        <time>2017-06-18T08:30:45Z</time>
      </trkpt>
      <trkpt lat="45.9395" lon="4.79282">
        <ele>198</ele>
        <time>2017-06-18T08:30:47Z</time>
      </trkpt>
      <trkpt lat="45.9395" lon="4.79287">
        <ele>198</ele>
        <time>2017-06-18T08:30:48Z</time>
      </trkpt>
      <trkpt lat="45.9395" lon="4.79297">
        <ele>198</ele>
        <time>2017-06-18T08:30:50Z</time>
      </trkpt>
      <trkpt lat="45.9395" lon="4.79302">
        <ele>198</ele>
        <time>2017-06-18T08:30:51Z</time>
      </trkpt>
      <trkpt lat="45.9395" lon="4.79311">
        <ele>198</ele>
        <time>2017-06-18T08:30:53Z</time>
      </trkpt>
      <trkpt lat="45.93949" lon="4.79317">
        <ele>198</ele>
        <time>2017-06-18T08:30:54Z</time>
      </trkpt>
      <trkpt lat="45.93949" lon="4.79328">
        <ele>198</ele>
        <time>2017-06-18T08:30:56Z</time>
      </trkpt>
      <trkpt lat="45.93949" lon="4.79333">
        <ele>198</ele>
        <time>2017-06-18T08:30:57Z</time>
      </trkpt>
      <trkpt lat="45.9395" lon="4.79343">
        <ele>200</ele>
        <time>2017-06-18T08:30:59Z</time>
      </trkpt>
      <trkpt lat="45.9395" lon="4.79348">
        <ele>200</ele>
        <time>2017-06-18T08:31:00Z</time>
      </trkpt>
      <trkpt lat="45.9395" lon="4.79359">
        <ele>200</ele>
        <time>2017-06-18T08:31:02Z</time>
      </trkpt>
      <trkpt lat="45.9395" lon="4.79365">
        <ele>200</ele>
        <time>2017-06-18T08:31:03Z</time>
      </trkpt>
      <trkpt lat="45.93951" lon="4.79375">
        <ele>201</ele>
        <time>2017-06-18T08:31:05Z</time>
      </trkpt>
      <trkpt lat="45.93951" lon="4.7938">
        <ele>201</ele>
        <time>2017-06-18T08:31:06Z</time>
      </trkpt>
      <trkpt lat="45.9395" lon="4.7939">
        <ele>201</ele>
        <time>2017-06-18T08:31:08Z</time>
      </trkpt>
      <trkpt lat="45.93951" lon="4.79395">
        <ele>201</ele>
        <time>2017-06-18T08:31:09Z</time>
      </trkpt>
      <trkpt lat="45.9395" lon="4.79404">
        <ele>201</ele>
        <time>2017-06-18T08:31:11Z</time>
      </trkpt>
      <trkpt lat="45.93949" lon="4.79409">
        <ele>201</ele>
        <time>2017-06-18T08:31:12Z</time>
      </trkpt>
      <trkpt lat="45.93948" lon="4.79421">
        <ele>202</ele>
        <time>2017-06-18T08:31:14Z</time>
      </trkpt>
      <trkpt lat="45.93947" lon="4.79426">
        <ele>202</ele>
        <time>2017-06-18T08:31:15Z</time>
      </trkpt>
      <trkpt lat="45.93946" lon="4.79436">
        <ele>202</ele>
        <time>2017-06-18T08:31:17Z</time>
      </trkpt>
      <trkpt lat="45.93946" lon="4.79442">
        <ele>202</ele>
        <time>2017-06-18T08:31:18Z</time>
      </trkpt>
      <trkpt lat="45.93944" lon="4.79453">
        <ele>202</ele>
        <time>2017-06-18T08:31:20Z</time>
      </trkpt>
      <trkpt lat="45.93943" lon="4.79459">
        <ele>202</ele>
        <time>2017-06-18T08:31:21Z</time>
      </trkpt>
      <trkpt lat="45.93943" lon="4.79471">
        <ele>202</ele>
        <time>2017-06-18T08:31:23Z</time>
      </trkpt>
      <trkpt lat="45.93943" lon="4.79477">
        <ele>202</ele>
        <time>2017-06-18T08:31:24Z</time>
      </trkpt>
      <trkpt lat="45.93943" lon="4.79488">
        <ele>202</ele>
        <time>2017-06-18T08:31:26Z</time>
      </trkpt>
      <trkpt lat="45.93944" lon="4.79494">
        <ele>201</ele>
        <time>2017-06-18T08:31:27Z</time>
      </trkpt>
      <trkpt lat="45.93945" lon="4.79506">
        <ele>203</ele>
        <time>2017-06-18T08:31:29Z</time>
      </trkpt>
      <trkpt lat="45.93946" lon="4.79512">
        <ele>203</ele>
        <time>2017-06-18T08:31:30Z</time>
      </trkpt>
      <trkpt lat="45.93947" lon="4.79524">
        <ele>204</ele>
        <time>2017-06-18T08:31:32Z</time>
      </trkpt>
      <trkpt lat="45.93947" lon="4.79529">
        <ele>204</ele>
        <time>2017-06-18T08:31:33Z</time>
      </trkpt>
      <trkpt lat="45.93947" lon="4.7954">
        <ele>204</ele>
        <time>2017-06-18T08:31:35Z</time>
      </trkpt>
      <trkpt lat="45.93947" lon="4.79546">
        <ele>204</ele>
        <time>2017-06-18T08:31:36Z</time>
      </trkpt>
      <trkpt lat="45.93948" lon="4.79558">
        <ele>204</ele>
        <time>2017-06-18T08:31:38Z</time>
      </trkpt>
      <trkpt lat="45.93947" lon="4.79564">
        <ele>204</ele>
        <time>2017-06-18T08:31:39Z</time>
      </trkpt>
      <trkpt lat="45.93948" lon="4.79574">
        <ele>205</ele>
        <time>2017-06-18T08:31:41Z</time>
      </trkpt>
      <trkpt lat="45.93949" lon="4.79579">
        <ele>205</ele>
        <time>2017-06-18T08:31:42Z</time>
      </trkpt>
      <trkpt lat="45.9395" lon="4.7959">
        <ele>206</ele>
        <time>2017-06-18T08:31:44Z</time>
      </trkpt>
      <trkpt lat="45.93951" lon="4.79595">
        <ele>206</ele>
        <time>2017-06-18T08:31:45Z</time>
      </trkpt>
      <trkpt lat="45.93952" lon="4.79605">
        <ele>206</ele>
        <time>2017-06-18T08:31:47Z</time>
      </trkpt>
      <trkpt lat="45.93952" lon="4.7961">
        <ele>206</ele>
        <time>2017-06-18T08:31:48Z</time>
      </trkpt>
      <trkpt lat="45.93953" lon="4.79621">
        <ele>206</ele>
        <time>2017-06-18T08:31:50Z</time>
      </trkpt>
      <trkpt lat="45.93953" lon="4.79626">
        <ele>206</ele>
        <time>2017-06-18T08:31:51Z</time>
      </trkpt>
      <trkpt lat="45.93955" lon="4.79638">
        <ele>207</ele>
        <time>2017-06-18T08:31:53Z</time>
      </trkpt>
      <trkpt lat="45.93957" lon="4.79643">
        <ele>207</ele>
        <time>2017-06-18T08:31:54Z</time>
      </trkpt>
      <trkpt lat="45.93958" lon="4.79653">
        <ele>207</ele>
        <time>2017-06-18T08:31:56Z</time>
      </trkpt>
      <trkpt lat="45.93959" lon="4.79659">
        <ele>207</ele>
        <time>2017-06-18T08:31:57Z</time>
      </trkpt>
      <trkpt lat="45.93961" lon="4.79669">
        <ele>207</ele>
        <time>2017-06-18T08:31:59Z</time>
      </trkpt>
      <trkpt lat="45.93961" lon="4.79674">
        <ele>207</ele>
        <time>2017-06-18T08:32:00Z</time>
      </trkpt>
      <trkpt lat="45.93962" lon="4.79685">
        <ele>207</ele>
        <time>2017-06-18T08:32:02Z</time>
      </trkpt>
      <trkpt lat="45.93964" lon="4.7969">
        <ele>207</ele>
        <time>2017-06-18T08:32:03Z</time>
      </trkpt>
      <trkpt lat="45.93965" lon="4.797">
        <ele>207</ele>
        <time>2017-06-18T08:32:05Z</time>
      </trkpt>
      <trkpt lat="45.93966" lon="4.79706">
        <ele>207</ele>
        <time>2017-06-18T08:32:06Z</time>
      </trkpt>
      <trkpt lat="45.93969" lon="4.79717">
        <ele>207</ele>
        <time>2017-06-18T08:32:08Z</time>
      </trkpt>
      <trkpt lat="45.9397" lon="4.79723">
        <ele>207</ele>
        <time>2017-06-18T08:32:09Z</time>
      </trkpt>
      <trkpt lat="45.9397" lon="4.79733">
        <ele>207</ele>
        <time>2017-06-18T08:32:11Z</time>
      </trkpt>
      <trkpt lat="45.9397" lon="4.79739">
        <ele>207</ele>
        <time>2017-06-18T08:32:12Z</time>
      </trkpt>
      <trkpt lat="45.93971" lon="4.79752">
        <ele>206</ele>
        <time>2017-06-18T08:32:14Z</time>
      </trkpt>
      <trkpt lat="45.93971" lon="4.79758">
        <ele>206</ele>
        <time>2017-06-18T08:32:15Z</time>
      </trkpt>
      <trkpt lat="45.9397" lon="4.7977">
        <ele>206</ele>
        <time>2017-06-18T08:32:17Z</time>
      </trkpt>
      <trkpt lat="45.9397" lon="4.79776">
        <ele>206</ele>
        <time>2017-06-18T08:32:18Z</time>
      </trkpt>
      <trkpt lat="45.93969" lon="4.79787">
        <ele>206</ele>
        <time>2017-06-18T08:32:20Z</time>
      </trkpt>
      <trkpt lat="45.93968" lon="4.79793">
        <ele>206</ele>
        <time>2017-06-18T08:32:21Z</time>
      </trkpt>
      <trkpt lat="45.93965" lon="4.79804">
        <ele>206</ele>
        <time>2017-06-18T08:32:23Z</time>
      </trkpt>
      <trkpt lat="45.93964" lon="4.79809">
        <ele>206</ele>
        <time>2017-06-18T08:32:24Z</time>
      </trkpt>
      <trkpt lat="45.93963" lon="4.79816">
        <ele>206</ele>
        <time>2017-06-18T08:32:25Z</time>
      </trkpt>
      <trkpt lat="45.93962" lon="4.79823">
        <ele>206</ele>
        <time>2017-06-18T08:32:26Z</time>
      </trkpt>
      <trkpt lat="45.93961" lon="4.79829">
        <ele>206</ele>
        <time>2017-06-18T08:32:27Z</time>
      </trkpt>
      <trkpt lat="45.9396" lon="4.79837">
        <ele>206</ele>
        <time>2017-06-18T08:32:28Z</time>
      </trkpt>
      <trkpt lat="45.93959" lon="4.79844">
        <ele>206</ele>
        <time>2017-06-18T08:32:29Z</time>
      </trkpt>
      <trkpt lat="45.93957" lon="4.79852">
        <ele>206</ele>
        <time>2017-06-18T08:32:30Z</time>
      </trkpt>
      <trkpt lat="45.93956" lon="4.79859">
        <ele>206</ele>
        <time>2017-06-18T08:32:31Z</time>
      </trkpt>
      <trkpt lat="45.93955" lon="4.79866">
        <ele>206</ele>
        <time>2017-06-18T08:32:32Z</time>
      </trkpt>
      <trkpt lat="45.93954" lon="4.79873">
        <ele>206</ele>
        <time>2017-06-18T08:32:33Z</time>
      </trkpt>
      <trkpt lat="45.93952" lon="4.79879">
        <ele>205</ele>
        <time>2017-06-18T08:32:34Z</time>
      </trkpt>
      <trkpt lat="45.93951" lon="4.79886">
        <ele>205</ele>
        <time>2017-06-18T08:32:35Z</time>
      </trkpt>
      <trkpt lat="45.9395" lon="4.79892">
        <ele>205</ele>
        <time>2017-06-18T08:32:36Z</time>
      </trkpt>
      <trkpt lat="45.93948" lon="4.79902">
        <ele>205</ele>
        <time>2017-06-18T08:32:38Z</time>
      </trkpt>
      <trkpt lat="45.93948" lon="4.79909">
        <ele>205</ele>
        <time>2017-06-18T08:32:39Z</time>
      </trkpt>
      <trkpt lat="45.93947" lon="4.79915">
        <ele>205</ele>
        <time>2017-06-18T08:32:40Z</time>
      </trkpt>
      <trkpt lat="45.93945" lon="4.79921">
        <ele>205</ele>
        <time>2017-06-18T08:32:41Z</time>
      </trkpt>
      <trkpt lat="45.93944" lon="4.79928">
        <ele>205</ele>
        <time>2017-06-18T08:32:42Z</time>
      </trkpt>
      <trkpt lat="45.93942" lon="4.79935">
        <ele>205</ele>
        <time>2017-06-18T08:32:43Z</time>
      </trkpt>
      <trkpt lat="45.93942" lon="4.79941">
        <ele>205</ele>
        <time>2017-06-18T08:32:44Z</time>
      </trkpt>
      <trkpt lat="45.93941" lon="4.79948">
        <ele>205</ele>
        <time>2017-06-18T08:32:45Z</time>
      </trkpt>
      <trkpt lat="45.93941" lon="4.79955">
        <ele>205</ele>
        <time>2017-06-18T08:32:46Z</time>
      </trkpt>
      <trkpt lat="45.9394" lon="4.79962">
        <ele>205</ele>
        <time>2017-06-18T08:32:47Z</time>
      </trkpt>
      <trkpt lat="45.93939" lon="4.79973">
        <ele>204</ele>
        <time>2017-06-18T08:32:49Z</time>
      </trkpt>
      <trkpt lat="45.93939" lon="4.79979">
        <ele>204</ele>
        <time>2017-06-18T08:32:50Z</time>
      </trkpt>
      <trkpt lat="45.93936" lon="4.7999">
        <ele>204</ele>
        <time>2017-06-18T08:32:52Z</time>
      </trkpt>
      <trkpt lat="45.93935" lon="4.79996">
        <ele>204</ele>
        <time>2017-06-18T08:32:53Z</time>
      </trkpt>
      <trkpt lat="45.93933" lon="4.80008">
        <ele>205</ele>
        <time>2017-06-18T08:32:55Z</time>
      </trkpt>
      <trkpt lat="45.93932" lon="4.80014">
        <ele>205</ele>
        <time>2017-06-18T08:32:56Z</time>
      </trkpt>
      <trkpt lat="45.93931" lon="4.80021">
        <ele>206</ele>
        <time>2017-06-18T08:32:57Z</time>
      </trkpt>
      <trkpt lat="45.9393" lon="4.80027">
        <ele>206</ele>
        <time>2017-06-18T08:32:58Z</time>
      </trkpt>
      <trkpt lat="45.9393" lon="4.80034">
        <ele>206</ele>
        <time>2017-06-18T08:32:59Z</time>
      </trkpt>
      <trkpt lat="45.9393" lon="4.8004">
        <ele>207</ele>
        <time>2017-06-18T08:33:00Z</time>
      </trkpt>
      <trkpt lat="45.93929" lon="4.80053">
        <ele>207</ele>
        <time>2017-06-18T08:33:02Z</time>
      </trkpt>
      <trkpt lat="45.93929" lon="4.80059">
        <ele>207</ele>
        <time>2017-06-18T08:33:03Z</time>
      </trkpt>
      <trkpt lat="45.93929" lon="4.80066">
        <ele>207</ele>
        <time>2017-06-18T08:33:04Z</time>
      </trkpt>
      <trkpt lat="45.9393" lon="4.80073">
        <ele>207</ele>
        <time>2017-06-18T08:33:05Z</time>
      </trkpt>
      <trkpt lat="45.93931" lon="4.8008">
        <ele>207</ele>
        <time>2017-06-18T08:33:06Z</time>
      </trkpt>
      <trkpt lat="45.93932" lon="4.80087">
        <ele>207</ele>
        <time>2017-06-18T08:33:07Z</time>
      </trkpt>
      <trkpt lat="45.93933" lon="4.80095">
        <ele>208</ele>
        <time>2017-06-18T08:33:08Z</time>
      </trkpt>
      <trkpt lat="45.93934" lon="4.80103">
        <ele>208</ele>
        <time>2017-06-18T08:33:09Z</time>
      </trkpt>
      <trkpt lat="45.93935" lon="4.8011">
        <ele>208</ele>
        <time>2017-06-18T08:33:10Z</time>
      </trkpt>
      <trkpt lat="45.93935" lon="4.80117">
        <ele>208</ele>
        <time>2017-06-18T08:33:11Z</time>
      </trkpt>
      <trkpt lat="45.93936" lon="4.80123">
        <ele>208</ele>
        <time>2017-06-18T08:33:12Z</time>
      </trkpt>
      <trkpt lat="45.93936" lon="4.8013">
        <ele>208</ele>
        <time>2017-06-18T08:33:13Z</time>
      </trkpt>
      <trkpt lat="45.93937" lon="4.80137">
        <ele>208</ele>
        <time>2017-06-18T08:33:14Z</time>
      </trkpt>
      <trkpt lat="45.93937" lon="4.80144">
        <ele>208</ele>
        <time>2017-06-18T08:33:15Z</time>
      </trkpt>
      <trkpt lat="45.93938" lon="4.8015">
        <ele>208</ele>
        <time>2017-06-18T08:33:16Z</time>
      </trkpt>
      <trkpt lat="45.93939" lon="4.80156">
        <ele>208</ele>
        <time>2017-06-18T08:33:17Z</time>
      </trkpt>
      <trkpt lat="45.9394" lon="4.80163">
        <ele>207</ele>
        <time>2017-06-18T08:33:18Z</time>
      </trkpt>
      <trkpt lat="45.93941" lon="4.80169">
        <ele>205</ele>
        <time>2017-06-18T08:33:19Z</time>
      </trkpt>
      <trkpt lat="45.93942" lon="4.80176">
        <ele>205</ele>
        <time>2017-06-18T08:33:20Z</time>
      </trkpt>
      <trkpt lat="45.93944" lon="4.80183">
        <ele>205</ele>
        <time>2017-06-18T08:33:21Z</time>
      </trkpt>
      <trkpt lat="45.93945" lon="4.80191">
        <ele>205</ele>
        <time>2017-06-18T08:33:22Z</time>
      </trkpt>
      <trkpt lat="45.93946" lon="4.80198">
        <ele>205</ele>
        <time>2017-06-18T08:33:23Z</time>
      </trkpt>
      <trkpt lat="45.93948" lon="4.80204">
        <ele>205</ele>
        <time>2017-06-18T08:33:24Z</time>
      </trkpt>
      <trkpt lat="45.93949" lon="4.80211">
        <ele>205</ele>
        <time>2017-06-18T08:33:25Z</time>
      </trkpt>
      <trkpt lat="45.93951" lon="4.80217">
        <ele>205</ele>
        <time>2017-06-18T08:33:26Z</time>
      </trkpt>
      <trkpt lat="45.93953" lon="4.80224">
        <ele>204</ele>
        <time>2017-06-18T08:33:27Z</time>
      </trkpt>
      <trkpt lat="45.93954" lon="4.8023">
        <ele>204</ele>
        <time>2017-06-18T08:33:28Z</time>
      </trkpt>
      <trkpt lat="45.93956" lon="4.80236">
        <ele>204</ele>
        <time>2017-06-18T08:33:29Z</time>
      </trkpt>
      <trkpt lat="45.93959" lon="4.80247">
        <ele>204</ele>
        <time>2017-06-18T08:33:31Z</time>
      </trkpt>
      <trkpt lat="45.93961" lon="4.80253">
        <ele>202</ele>
        <time>2017-06-18T08:33:32Z</time>
      </trkpt>
      <trkpt lat="45.93964" lon="4.80263">
        <ele>202</ele>
        <time>2017-06-18T08:33:34Z</time>
      </trkpt>
      <trkpt lat="45.93966" lon="4.80269">
        <ele>202</ele>
        <time>2017-06-18T08:33:35Z</time>
      </trkpt>
      <trkpt lat="45.93969" lon="4.8028">
        <ele>202</ele>
        <time>2017-06-18T08:33:37Z</time>
      </trkpt>
      <trkpt lat="45.93971" lon="4.80286">
        <ele>202</ele>
        <time>2017-06-18T08:33:38Z</time>
      </trkpt>
      <trkpt lat="45.93974" lon="4.80295">
        <ele>203</ele>
        <time>2017-06-18T08:33:40Z</time>
      </trkpt>
      <trkpt lat="45.93975" lon="4.803">
        <ele>203</ele>
        <time>2017-06-18T08:33:41Z</time>
      </trkpt>
      <trkpt lat="45.93978" lon="4.8031">
        <ele>203</ele>
        <time>2017-06-18T08:33:43Z</time>
      </trkpt>
      <trkpt lat="45.9398" lon="4.80316">
        <ele>203</ele>
        <time>2017-06-18T08:33:44Z</time>
      </trkpt>
      <trkpt lat="45.93981" lon="4.80322">
        <ele>203</ele>
        <time>2017-06-18T08:33:45Z</time>
      </trkpt>
      <trkpt lat="45.93983" lon="4.80328">
        <ele>204</ele>
        <time>2017-06-18T08:33:46Z</time>
      </trkpt>
      <trkpt lat="45.93985" lon="4.8034">
        <ele>206</ele>
        <time>2017-06-18T08:33:48Z</time>
      </trkpt>
      <trkpt lat="45.93987" lon="4.80345">
        <ele>206</ele>
        <time>2017-06-18T08:33:49Z</time>
      </trkpt>
      <trkpt lat="45.9399" lon="4.80356">
        <ele>206</ele>
        <time>2017-06-18T08:33:51Z</time>
      </trkpt>
      <trkpt lat="45.93992" lon="4.80361">
        <ele>207</ele>
        <time>2017-06-18T08:33:52Z</time>
      </trkpt>
      <trkpt lat="45.93995" lon="4.8037">
        <ele>207</ele>
        <time>2017-06-18T08:33:54Z</time>
      </trkpt>
      <trkpt lat="45.93997" lon="4.80374">
        <ele>208</ele>
        <time>2017-06-18T08:33:55Z</time>
      </trkpt>
      <trkpt lat="45.93999" lon="4.80384">
        <ele>209</ele>
        <time>2017-06-18T08:33:58Z</time>
      </trkpt>
      <trkpt lat="45.93999" lon="4.80388">
        <ele>209</ele>
        <time>2017-06-18T08:33:59Z</time>
      </trkpt>
      <trkpt lat="45.94001" lon="4.80398">
        <ele>217</ele>
        <time>2017-06-18T08:34:02Z</time>
      </trkpt>
      <trkpt lat="45.94002" lon="4.80402">
        <ele>217</ele>
        <time>2017-06-18T08:34:03Z</time>
      </trkpt>
      <trkpt lat="45.94004" lon="4.80411">
        <ele>217</ele>
        <time>2017-06-18T08:34:06Z</time>
      </trkpt>
      <trkpt lat="45.94005" lon="4.80414">
        <ele>217</ele>
        <time>2017-06-18T08:34:07Z</time>
      </trkpt>
      <trkpt lat="45.94006" lon="4.80423">
        <ele>219</ele>
        <time>2017-06-18T08:34:10Z</time>
      </trkpt>
      <trkpt lat="45.94007" lon="4.80427">
        <ele>220</ele>
        <time>2017-06-18T08:34:11Z</time>
      </trkpt>
      <trkpt lat="45.94008" lon="4.80438">
        <ele>221</ele>
        <time>2017-06-18T08:34:14Z</time>
      </trkpt>
      <trkpt lat="45.94008" lon="4.80442">
        <ele>222</ele>
        <time>2017-06-18T08:34:15Z</time>
      </trkpt>
      <trkpt lat="45.94009" lon="4.80454">
        <ele>222</ele>
        <time>2017-06-18T08:34:18Z</time>
      </trkpt>
      <trkpt lat="45.9401" lon="4.80458">
        <ele>223</ele>
        <time>2017-06-18T08:34:19Z</time>
      </trkpt>
      <trkpt lat="45.9401" lon="4.80468">
        <ele>223</ele>
        <time>2017-06-18T08:34:21Z</time>
      </trkpt>
      <trkpt lat="45.9401" lon="4.80472">
        <ele>222</ele>
        <time>2017-06-18T08:34:22Z</time>
      </trkpt>
      <trkpt lat="45.9401" lon="4.80485">
        <ele>222</ele>
        <time>2017-06-18T08:34:25Z</time>
      </trkpt>
      <trkpt lat="45.9401" lon="4.80488">
        <ele>221</ele>
        <time>2017-06-18T08:34:26Z</time>
      </trkpt>
      <trkpt lat="45.9401" lon="4.80499">
        <ele>221</ele>
        <time>2017-06-18T08:34:30Z</time>
      </trkpt>
      <trkpt lat="45.94011" lon="4.80503">
        <ele>221</ele>
        <time>2017-06-18T08:34:31Z</time>
      </trkpt>
      <trkpt lat="45.94011" lon="4.80516">
        <ele>223</ele>
        <time>2017-06-18T08:34:35Z</time>
      </trkpt>
      <trkpt lat="45.94011" lon="4.8052">
        <ele>223</ele>
        <time>2017-06-18T08:34:36Z</time>
      </trkpt>
      <trkpt lat="45.9401" lon="4.80531">
        <ele>224</ele>
        <time>2017-06-18T08:34:39Z</time>
      </trkpt>
      <trkpt lat="45.9401" lon="4.80534">
        <ele>224</ele>
        <time>2017-06-18T08:34:40Z</time>
      </trkpt>
      <trkpt lat="45.94008" lon="4.80544">
        <ele>224</ele>
        <time>2017-06-18T08:34:43Z</time>
      </trkpt>
      <trkpt lat="45.94008" lon="4.8055">
        <ele>224</ele>
        <time>2017-06-18T08:34:44Z</time>
      </trkpt>
      <trkpt lat="45.94009" lon="4.8056">
        <ele>223</ele>
        <time>2017-06-18T08:34:46Z</time>
      </trkpt>
      <trkpt lat="45.9401" lon="4.80564">
        <ele>223</ele>
        <time>2017-06-18T08:34:47Z</time>
      </trkpt>
      <trkpt lat="45.94013" lon="4.80574">
        <ele>222</ele>
        <time>2017-06-18T08:34:50Z</time>
      </trkpt>
      <trkpt lat="45.94013" lon="4.80577">
        <ele>221</ele>
        <time>2017-06-18T08:34:51Z</time>
      </trkpt>
      <trkpt lat="45.94012" lon="4.8059">
        <ele>221</ele>
        <time>2017-06-18T08:34:55Z</time>
      </trkpt>
      <trkpt lat="45.94011" lon="4.80593">
        <ele>221</ele>
        <time>2017-06-18T08:34:56Z</time>
      </trkpt>
      <trkpt lat="45.94011" lon="4.80604">
        <ele>223</ele>
        <time>2017-06-18T08:35:00Z</time>
      </trkpt>
      <trkpt lat="45.94011" lon="4.80607">
        <ele>223</ele>
        <time>2017-06-18T08:35:01Z</time>
      </trkpt>
      <trkpt lat="45.94014" lon="4.80618">
        <ele>224</ele>
        <time>2017-06-18T08:35:05Z</time>
      </trkpt>
      <trkpt lat="45.94015" lon="4.8062">
        <ele>224</ele>
        <time>2017-06-18T08:35:06Z</time>
      </trkpt>
      <trkpt lat="45.94018" lon="4.8063">
        <ele>224</ele>
        <time>2017-06-18T08:35:10Z</time>
      </trkpt>
      <trkpt lat="45.94018" lon="4.80633">
        <ele>224</ele>
        <time>2017-06-18T08:35:11Z</time>
      </trkpt>
      <trkpt lat="45.94021" lon="4.80645">
        <ele>224</ele>
        <time>2017-06-18T08:35:14Z</time>
      </trkpt>
      <trkpt lat="45.94022" lon="4.80647">
        <ele>224</ele>
        <time>2017-06-18T08:35:15Z</time>
      </trkpt>
      <trkpt lat="45.94024" lon="4.80657">
        <ele>223</ele>
        <time>2017-06-18T08:35:19Z</time>
      </trkpt>
      <trkpt lat="45.94025" lon="4.80659">
        <ele>223</ele>
        <time>2017-06-18T08:35:20Z</time>
      </trkpt>
      <trkpt lat="45.94026" lon="4.80671">
        <ele>224</ele>
        <time>2017-06-18T08:35:24Z</time>
      </trkpt>
      <trkpt lat="45.94026" lon="4.80673">
        <ele>224</ele>
        <time>2017-06-18T08:35:25Z</time>
      </trkpt>
      <trkpt lat="45.94027" lon="4.80682">
        <ele>224</ele>
        <time>2017-06-18T08:35:27Z</time>
      </trkpt>
      <trkpt lat="45.94028" lon="4.80686">
        <ele>224</ele>
        <time>2017-06-18T08:35:28Z</time>
      </trkpt>
      <trkpt lat="45.94028" lon="4.80698">
        <ele>225</ele>
        <time>2017-06-18T08:35:31Z</time>
      </trkpt>
      <trkpt lat="45.94029" lon="4.80702">
        <ele>225</ele>
        <time>2017-06-18T08:35:32Z</time>
      </trkpt>
      <trkpt lat="45.9403" lon="4.80714">
        <ele>225</ele>
        <time>2017-06-18T08:35:37Z</time>
      </trkpt>
      <trkpt lat="45.9403" lon="4.80717">
        <ele>225</ele>
        <time>2017-06-18T08:35:38Z</time>
      </trkpt>
      <trkpt lat="45.94031" lon="4.80729">
        <ele>225</ele>
        <time>2017-06-18T08:35:41Z</time>
      </trkpt>
      <trkpt lat="45.94032" lon="4.80732">
        <ele>225</ele>
        <time>2017-06-18T08:35:42Z</time>
      </trkpt>
      <trkpt lat="45.94034" lon="4.80743">
        <ele>226</ele>
        <time>2017-06-18T08:35:45Z</time>
      </trkpt>
      <trkpt lat="45.94034" lon="4.80746">
        <ele>226</ele>
        <time>2017-06-18T08:35:46Z</time>
      </trkpt>
      <trkpt lat="45.94035" lon="4.80756">
        <ele>227</ele>
        <time>2017-06-18T08:35:49Z</time>
      </trkpt>
      <trkpt lat="45.94035" lon="4.8076">
        <ele>227</ele>
        <time>2017-06-18T08:35:50Z</time>
      </trkpt>
      <trkpt lat="45.94035" lon="4.80771">
        <ele>227</ele>
        <time>2017-06-18T08:35:53Z</time>
      </trkpt>
      <trkpt lat="45.94034" lon="4.80775">
        <ele>227</ele>
        <time>2017-06-18T08:35:54Z</time>
      </trkpt>
      <trkpt lat="45.94036" lon="4.80786">
        <ele>227</ele>
        <time>2017-06-18T08:35:57Z</time>
      </trkpt>
      <trkpt lat="45.94036" lon="4.8079">
        <ele>227</ele>
        <time>2017-06-18T08:35:58Z</time>
      </trkpt>
      <trkpt lat="45.94037" lon="4.808">
        <ele>227</ele>
        <time>2017-06-18T08:36:02Z</time>
      </trkpt>
      <trkpt lat="45.94037" lon="4.80803">
        <ele>227</ele>
        <time>2017-06-18T08:36:03Z</time>
      </trkpt>
      <trkpt lat="45.94038" lon="4.80813">
        <ele>227</ele>
        <time>2017-06-18T08:36:06Z</time>
      </trkpt>
      <trkpt lat="45.94038" lon="4.80816">
        <ele>228</ele>
        <time>2017-06-18T08:36:07Z</time>
      </trkpt>
      <trkpt lat="45.9404" lon="4.80828">
        <ele>228</ele>
        <time>2017-06-18T08:36:11Z</time>
      </trkpt>
      <trkpt lat="45.94041" lon="4.80831">
        <ele>228</ele>
        <time>2017-06-18T08:36:12Z</time>
      </trkpt>
      <trkpt lat="45.94042" lon="4.80841">
        <ele>229</ele>
        <time>2017-06-18T08:36:15Z</time>
      </trkpt>
      <trkpt lat="45.94043" lon="4.80845">
        <ele>229</ele>
        <time>2017-06-18T08:36:16Z</time>
      </trkpt>
      <trkpt lat="45.94044" lon="4.80855">
        <ele>229</ele>
        <time>2017-06-18T08:36:19Z</time>
      </trkpt>
      <trkpt lat="45.94044" lon="4.80859">
        <ele>229</ele>
        <time>2017-06-18T08:36:20Z</time>
      </trkpt>
      <trkpt lat="45.94044" lon="4.80871">
        <ele>229</ele>
        <time>2017-06-18T08:36:23Z</time>
      </trkpt>
      <trkpt lat="45.94045" lon="4.80874">
        <ele>229</ele>
        <time>2017-06-18T08:36:24Z</time>
      </trkpt>
      <trkpt lat="45.94046" lon="4.80885">
        <ele>229</ele>
        <time>2017-06-18T08:36:27Z</time>
      </trkpt>
      <trkpt lat="45.94046" lon="4.80889">
        <ele>229</ele>
        <time>2017-06-18T08:36:28Z</time>
      </trkpt>
      <trkpt lat="45.94048" lon="4.80901">
        <ele>230</ele>
        <time>2017-06-18T08:36:32Z</time>
      </trkpt>
      <trkpt lat="45.94049" lon="4.80904">
        <ele>230</ele>
        <time>2017-06-18T08:36:33Z</time>
      </trkpt>
      <trkpt lat="45.94049" lon="4.80914">
        <ele>230</ele>
        <time>2017-06-18T08:36:36Z</time>
      </trkpt>
      <trkpt lat="45.94049" lon="4.80918">
        <ele>231</ele>
        <time>2017-06-18T08:36:37Z</time>
      </trkpt>
      <trkpt lat="45.94051" lon="4.8093">
        <ele>231</ele>
        <time>2017-06-18T08:36:41Z</time>
      </trkpt>
      <trkpt lat="45.94052" lon="4.80934">
        <ele>231</ele>
        <time>2017-06-18T08:36:42Z</time>
      </trkpt>
      <trkpt lat="45.94054" lon="4.80944">
        <ele>231</ele>
        <time>2017-06-18T08:36:45Z</time>
      </trkpt>
      <trkpt lat="45.94055" lon="4.80947">
        <ele>231</ele>
        <time>2017-06-18T08:36:46Z</time>
      </trkpt>
      <trkpt lat="45.94056" lon="4.80957">
        <ele>231</ele>
        <time>2017-06-18T08:36:49Z</time>
      </trkpt>
      <trkpt lat="45.94056" lon="4.80961">
        <ele>231</ele>
        <time>2017-06-18T08:36:50Z</time>
      </trkpt>
      <trkpt lat="45.94057" lon="4.80971">
        <ele>232</ele>
        <time>2017-06-18T08:36:53Z</time>
      </trkpt>
      <trkpt lat="45.94057" lon="4.80974">
        <ele>232</ele>
        <time>2017-06-18T08:36:54Z</time>
      </trkpt>
      <trkpt lat="45.9406" lon="4.80986">
        <ele>233</ele>
        <time>2017-06-18T08:36:58Z</time>
      </trkpt>
      <trkpt lat="45.94061" lon="4.80988">
        <ele>233</ele>
        <time>2017-06-18T08:36:59Z</time>
      </trkpt>
      <trkpt lat="45.94063" lon="4.80999">
        <ele>234</ele>
        <time>2017-06-18T08:37:03Z</time>
      </trkpt>
      <trkpt lat="45.94063" lon="4.81002">
        <ele>234</ele>
        <time>2017-06-18T08:37:04Z</time>
      </trkpt>
      <trkpt lat="45.94065" lon="4.81014">
        <ele>234</ele>
        <time>2017-06-18T08:37:07Z</time>
      </trkpt>
      <trkpt lat="45.94066" lon="4.81018">
        <ele>234</ele>
        <time>2017-06-18T08:37:08Z</time>
      </trkpt>
      <trkpt lat="45.94069" lon="4.81028">
        <ele>233</ele>
        <time>2017-06-18T08:37:11Z</time>
      </trkpt>
      <trkpt lat="45.9407" lon="4.81031">
        <ele>233</ele>
        <time>2017-06-18T08:37:12Z</time>
      </trkpt>
      <trkpt lat="45.94073" lon="4.81041">
        <ele>233</ele>
        <time>2017-06-18T08:37:15Z</time>
      </trkpt>
      <trkpt lat="45.94074" lon="4.81044">
        <ele>233</ele>
        <time>2017-06-18T08:37:16Z</time>
      </trkpt>
      <trkpt lat="45.94076" lon="4.81054">
        <ele>233</ele>
        <time>2017-06-18T08:37:19Z</time>
      </trkpt>
      <trkpt lat="45.94078" lon="4.81057">
        <ele>233</ele>
        <time>2017-06-18T08:37:20Z</time>
      </trkpt>
      <trkpt lat="45.94082" lon="4.81067">
        <ele>234</ele>
        <time>2017-06-18T08:37:24Z</time>
      </trkpt>
      <trkpt lat="45.94083" lon="4.81069">
        <ele>235</ele>
        <time>2017-06-18T08:37:25Z</time>
      </trkpt>
      <trkpt lat="45.94088" lon="4.8108">
        <ele>239</ele>
        <time>2017-06-18T08:37:29Z</time>
      </trkpt>
      <trkpt lat="45.94089" lon="4.81082">
        <ele>239</ele>
        <time>2017-06-18T08:37:30Z</time>
      </trkpt>
      <trkpt lat="45.94094" lon="4.8109">
        <ele>240</ele>
        <time>2017-06-18T08:37:34Z</time>
      </trkpt>
      <trkpt lat="45.94096" lon="4.81092">
        <ele>240</ele>
        <time>2017-06-18T08:37:35Z</time>
      </trkpt>
      <trkpt lat="45.94101" lon="4.811">
        <ele>241</ele>
        <time>2017-06-18T08:37:39Z</time>
      </trkpt>
      <trkpt lat="45.94102" lon="4.81101">
        <ele>241</ele>
        <time>2017-06-18T08:37:40Z</time>
      </trkpt>
      <trkpt lat="45.94106" lon="4.8111">
        <ele>242</ele>
        <time>2017-06-18T08:37:42Z</time>
      </trkpt>
      <trkpt lat="45.94107" lon="4.81113">
        <ele>242</ele>
        <time>2017-06-18T08:37:43Z</time>
      </trkpt>
      <trkpt lat="45.94112" lon="4.81122">
        <ele>242</ele>
        <time>2017-06-18T08:37:47Z</time>
      </trkpt>
      <trkpt lat="45.94112" lon="4.81124">
        <ele>242</ele>
        <time>2017-06-18T08:37:48Z</time>
      </trkpt>
      <trkpt lat="45.94116" lon="4.81134">
        <ele>242</ele>
        <time>2017-06-18T08:37:51Z</time>
      </trkpt>
      <trkpt lat="45.94117" lon="4.81137">
        <ele>242</ele>
        <time>2017-06-18T08:37:52Z</time>
      </trkpt>
      <trkpt lat="45.94121" lon="4.81147">
        <ele>242</ele>
        <time>2017-06-18T08:37:56Z</time>
      </trkpt>
      <trkpt lat="45.94122" lon="4.8115">
        <ele>242</ele>
        <time>2017-06-18T08:37:57Z</time>
      </trkpt>
      <trkpt lat="45.94127" lon="4.81161">
        <ele>243</ele>
        <time>2017-06-18T08:38:01Z</time>
      </trkpt>
      <trkpt lat="45.94129" lon="4.81163">
        <ele>243</ele>
        <time>2017-06-18T08:38:02Z</time>
      </trkpt>
      <trkpt lat="45.94133" lon="4.81173">
        <ele>243</ele>
        <time>2017-06-18T08:38:06Z</time>
      </trkpt>
      <trkpt lat="45.94133" lon="4.81176">
        <ele>243</ele>
        <time>2017-06-18T08:38:07Z</time>
      </trkpt>
      <trkpt lat="45.94136" lon="4.81188">
        <ele>243</ele>
        <time>2017-06-18T08:38:11Z</time>
      </trkpt>
      <trkpt lat="45.94137" lon="4.81191">
        <ele>243</ele>
        <time>2017-06-18T08:38:12Z</time>
      </trkpt>
      <trkpt lat="45.94141" lon="4.81201">
        <ele>244</ele>
        <time>2017-06-18T08:38:16Z</time>
      </trkpt>
      <trkpt lat="45.94141" lon="4.81204">
        <ele>244</ele>
        <time>2017-06-18T08:38:17Z</time>
      </trkpt>
      <trkpt lat="45.94145" lon="4.81215">
        <ele>244</ele>
        <time>2017-06-18T08:38:20Z</time>
      </trkpt>
      <trkpt lat="45.94145" lon="4.81218">
        <ele>244</ele>
        <time>2017-06-18T08:38:21Z</time>
      </trkpt>
      <trkpt lat="45.94147" lon="4.81229">
        <ele>245</ele>
        <time>2017-06-18T08:38:26Z</time>
      </trkpt>
      <trkpt lat="45.94147" lon="4.81231">
        <ele>245</ele>
        <time>2017-06-18T08:38:27Z</time>
      </trkpt>
      <trkpt lat="45.94149" lon="4.81242">
        <ele>246</ele>
        <time>2017-06-18T08:38:32Z</time>
      </trkpt>
      <trkpt lat="45.94149" lon="4.81244">
        <ele>246</ele>
        <time>2017-06-18T08:38:33Z</time>
      </trkpt>
      <trkpt lat="45.9415" lon="4.81257">
        <ele>247</ele>
        <time>2017-06-18T08:38:38Z</time>
      </trkpt>
      <trkpt lat="45.9415" lon="4.8126">
        <ele>247</ele>
        <time>2017-06-18T08:38:39Z</time>
      </trkpt>
      <trkpt lat="45.94151" lon="4.81272">
        <ele>247</ele>
        <time>2017-06-18T08:38:42Z</time>
      </trkpt>
      <trkpt lat="45.94152" lon="4.81277">
        <ele>247</ele>
        <time>2017-06-18T08:38:43Z</time>
      </trkpt>
      <trkpt lat="45.94153" lon="4.81287">
        <ele>247</ele>
        <time>2017-06-18T08:38:46Z</time>
      </trkpt>
      <trkpt lat="45.94153" lon="4.81291">
        <ele>247</ele>
        <time>2017-06-18T08:38:47Z</time>
      </trkpt>
      <trkpt lat="45.94155" lon="4.81303">
        <ele>247</ele>
        <time>2017-06-18T08:38:50Z</time>
      </trkpt>
      <trkpt lat="45.94155" lon="4.81305">
        <ele>247</ele>
        <time>2017-06-18T08:38:51Z</time>
      </trkpt>
      <trkpt lat="45.94155" lon="4.81317">
        <ele>248</ele>
        <time>2017-06-18T08:38:56Z</time>
      </trkpt>
      <trkpt lat="45.94155" lon="4.81319">
        <ele>248</ele>
        <time>2017-06-18T08:38:57Z</time>
      </trkpt>
      <trkpt lat="45.94153" lon="4.81331">
        <ele>249</ele>
        <time>2017-06-18T08:39:01Z</time>
      </trkpt>
      <trkpt lat="45.94152" lon="4.81333">
        <ele>249</ele>
        <time>2017-06-18T08:39:02Z</time>
      </trkpt>
      <trkpt lat="45.9415" lon="4.81345">
        <ele>250</ele>
        <time>2017-06-18T08:39:06Z</time>
      </trkpt>
      <trkpt lat="45.9415" lon="4.81347">
        <ele>250</ele>
        <time>2017-06-18T08:39:07Z</time>
      </trkpt>
      <trkpt lat="45.94149" lon="4.81356">
        <ele>250</ele>
        <time>2017-06-18T08:39:10Z</time>
      </trkpt>
      <trkpt lat="45.94148" lon="4.81361">
        <ele>250</ele>
        <time>2017-06-18T08:39:11Z</time>
      </trkpt>
      <trkpt lat="45.94147" lon="4.81372">
        <ele>250</ele>
        <time>2017-06-18T08:39:14Z</time>
      </trkpt>
      <trkpt lat="45.94147" lon="4.81376">
        <ele>250</ele>
        <time>2017-06-18T08:39:15Z</time>
      </trkpt>
      <trkpt lat="45.94146" lon="4.81387">
        <ele>251</ele>
        <time>2017-06-18T08:39:18Z</time>
      </trkpt>
      <trkpt lat="45.94146" lon="4.81391">
        <ele>251</ele>
        <time>2017-06-18T08:39:19Z</time>
      </trkpt>
      <trkpt lat="45.94147" lon="4.81399">
        <ele>251</ele>
        <time>2017-06-18T08:39:21Z</time>
      </trkpt>
      <trkpt lat="45.94146" lon="4.81405">
        <ele>252</ele>
        <time>2017-06-18T08:39:22Z</time>
      </trkpt>
      <trkpt lat="45.94146" lon="4.81418">
        <ele>255</ele>
        <time>2017-06-18T08:39:25Z</time>
      </trkpt>
      <trkpt lat="45.94145" lon="4.81422">
        <ele>256</ele>
        <time>2017-06-18T08:39:26Z</time>
      </trkpt>
      <trkpt lat="45.94143" lon="4.81432">
        <ele>256</ele>
        <time>2017-06-18T08:39:30Z</time>
      </trkpt>
      <trkpt lat="45.94143" lon="4.81435">
        <ele>256</ele>
        <time>2017-06-18T08:39:31Z</time>
      </trkpt>
      <trkpt lat="45.94142" lon="4.81448">
        <ele>256</ele>
        <time>2017-06-18T08:39:36Z</time>
      </trkpt>
      <trkpt lat="45.94143" lon="4.81451">
        <ele>256</ele>
        <time>2017-06-18T08:39:37Z</time>
      </trkpt>
      <trkpt lat="45.94142" lon="4.81462">
        <ele>257</ele>
        <time>2017-06-18T08:39:42Z</time>
      </trkpt>
      <trkpt lat="45.94141" lon="4.81464">
        <ele>257</ele>
        <time>2017-06-18T08:39:43Z</time>
      </trkpt>
      <trkpt lat="45.94139" lon="4.81475">
        <ele>258</ele>
        <time>2017-06-18T08:39:47Z</time>
      </trkpt>
      <trkpt lat="45.94139" lon="4.81477">
        <ele>258</ele>
        <time>2017-06-18T08:39:48Z</time>
      </trkpt>
      <trkpt lat="45.94138" lon="4.81487">
        <ele>258</ele>
        <time>2017-06-18T08:39:51Z</time>
      </trkpt>
      <trkpt lat="45.94138" lon="4.81491">
        <ele>258</ele>
        <time>2017-06-18T08:39:52Z</time>
      </trkpt>
      <trkpt lat="45.94137" lon="4.81503">
        <ele>263</ele>
        <time>2017-06-18T08:39:56Z</time>
      </trkpt>
      <trkpt lat="45.94137" lon="4.81508">
        <ele>263</ele>
        <time>2017-06-18T08:39:57Z</time>
      </trkpt>
      <trkpt lat="45.94137" lon="4.8152">
        <ele>263</ele>
        <time>2017-06-18T08:40:01Z</time>
      </trkpt>
      <trkpt lat="45.94138" lon="4.81522">
        <ele>263</ele>
        <time>2017-06-18T08:40:02Z</time>
      </trkpt>
      <trkpt lat="45.94139" lon="4.81534">
        <ele>263</ele>
        <time>2017-06-18T08:40:06Z</time>
      </trkpt>
      <trkpt lat="45.94139" lon="4.81537">
        <ele>264</ele>
        <time>2017-06-18T08:40:07Z</time>
      </trkpt>
      <trkpt lat="45.94141" lon="4.81547">
        <ele>264</ele>
        <time>2017-06-18T08:40:10Z</time>
      </trkpt>
      <trkpt lat="45.94142" lon="4.81552">
        <ele>264</ele>
        <time>2017-06-18T08:40:11Z</time>
      </trkpt>
      <trkpt lat="45.94143" lon="4.8156">
        <ele>264</ele>
        <time>2017-06-18T08:40:13Z</time>
      </trkpt>
      <trkpt lat="45.94144" lon="4.81565">
        <ele>265</ele>
        <time>2017-06-18T08:40:14Z</time>
      </trkpt>
      <trkpt lat="45.94145" lon="4.81576">
        <ele>265</ele>
        <time>2017-06-18T08:40:16Z</time>
      </trkpt>
      <trkpt lat="45.94146" lon="4.81582">
        <ele>265</ele>
        <time>2017-06-18T08:40:17Z</time>
      </trkpt>
      <trkpt lat="45.94148" lon="4.81592">
        <ele>267</ele>
        <time>2017-06-18T08:40:19Z</time>
      </trkpt>
      <trkpt lat="45.94148" lon="4.81596">
        <ele>267</ele>
        <time>2017-06-18T08:40:20Z</time>
      </trkpt>
      <trkpt lat="45.9415" lon="4.81607">
        <ele>267</ele>
        <time>2017-06-18T08:40:22Z</time>
      </trkpt>
      <trkpt lat="45.94151" lon="4.81613">
        <ele>267</ele>
        <time>2017-06-18T08:40:23Z</time>
      </trkpt>
      <trkpt lat="45.94152" lon="4.81621">
        <ele>268</ele>
        <time>2017-06-18T08:40:25Z</time>
      </trkpt>
      <trkpt lat="45.94153" lon="4.81625">
        <ele>268</ele>
        <time>2017-06-18T08:40:26Z</time>
      </trkpt>
      <trkpt lat="45.94156" lon="4.81633">
        <ele>268</ele>
        <time>2017-06-18T08:40:28Z</time>
      </trkpt>
      <trkpt lat="45.94157" lon="4.81637">
        <ele>268</ele>
        <time>2017-06-18T08:40:29Z</time>
      </trkpt>
      <trkpt lat="45.9416" lon="4.81646">
        <ele>268</ele>
        <time>2017-06-18T08:40:31Z</time>
      </trkpt>
      <trkpt lat="45.94162" lon="4.81651">
        <ele>268</ele>
        <time>2017-06-18T08:40:32Z</time>
      </trkpt>
      <trkpt lat="45.94165" lon="4.8166">
        <ele>269</ele>
        <time>2017-06-18T08:40:34Z</time>
      </trkpt>
      <trkpt lat="45.94166" lon="4.81664">
        <ele>269</ele>
        <time>2017-06-18T08:40:35Z</time>
      </trkpt>
      <trkpt lat="45.94167" lon="4.81674">
        <ele>268</ele>
        <time>2017-06-18T08:40:38Z</time>
      </trkpt>
      <trkpt lat="45.94167" lon="4.81678">
        <ele>269</ele>
        <time>2017-06-18T08:40:39Z</time>
      </trkpt>
      <trkpt lat="45.94169" lon="4.81689">
        <ele>268</ele>
        <time>2017-06-18T08:40:42Z</time>
      </trkpt>
      <trkpt lat="45.9417" lon="4.81693">
        <ele>267</ele>
        <time>2017-06-18T08:40:43Z</time>
      </trkpt>
      <trkpt lat="45.94172" lon="4.81704">
        <ele>267</ele>
        <time>2017-06-18T08:40:46Z</time>
      </trkpt>
      <trkpt lat="45.94172" lon="4.81708">
        <ele>267</ele>
        <time>2017-06-18T08:40:47Z</time>
      </trkpt>
      <trkpt lat="45.94173" lon="4.8172">
        <ele>267</ele>
        <time>2017-06-18T08:40:50Z</time>
      </trkpt>
      <trkpt lat="45.94173" lon="4.81724">
        <ele>267</ele>
        <time>2017-06-18T08:40:51Z</time>
      </trkpt>
      <trkpt lat="45.94177" lon="4.81732">
        <ele>267</ele>
        <time>2017-06-18T08:40:54Z</time>
      </trkpt>
      <trkpt lat="45.94179" lon="4.81735">
        <ele>267</ele>
        <time>2017-06-18T08:40:55Z</time>
      </trkpt>
      <trkpt lat="45.94181" lon="4.8174">
        <ele>267</ele>
        <time>2017-06-18T08:40:56Z</time>
      </trkpt>
      <trkpt lat="45.94184" lon="4.81746">
        <ele>267</ele>
        <time>2017-06-18T08:40:57Z</time>
      </trkpt>
      <trkpt lat="45.94188" lon="4.81755">
        <ele>266</ele>
        <time>2017-06-18T08:40:59Z</time>
      </trkpt>
      <trkpt lat="45.94189" lon="4.81758">
        <ele>266</ele>
        <time>2017-06-18T08:41:00Z</time>
      </trkpt>
      <trkpt lat="45.94191" lon="4.81768">
        <ele>266</ele>
        <time>2017-06-18T08:41:02Z</time>
      </trkpt>
      <trkpt lat="45.94192" lon="4.81773">
        <ele>266</ele>
        <time>2017-06-18T08:41:03Z</time>
      </trkpt>
      <trkpt lat="45.94191" lon="4.81783">
        <ele>266</ele>
        <time>2017-06-18T08:41:05Z</time>
      </trkpt>
      <trkpt lat="45.94192" lon="4.81788">
        <ele>266</ele>
        <time>2017-06-18T08:41:06Z</time>
      </trkpt>
      <trkpt lat="45.94194" lon="4.81797">
        <ele>266</ele>
        <time>2017-06-18T08:41:08Z</time>
      </trkpt>
      <trkpt lat="45.94194" lon="4.81802">
        <ele>266</ele>
        <time>2017-06-18T08:41:09Z</time>
      </trkpt>
      <trkpt lat="45.94195" lon="4.81811">
        <ele>266</ele>
        <time>2017-06-18T08:41:11Z</time>
      </trkpt>
      <trkpt lat="45.94195" lon="4.81816">
        <ele>266</ele>
        <time>2017-06-18T08:41:12Z</time>
      </trkpt>
      <trkpt lat="45.94197" lon="4.81825">
        <ele>266</ele>
        <time>2017-06-18T08:41:14Z</time>
      </trkpt>
      <trkpt lat="45.94198" lon="4.8183">
        <ele>266</ele>
        <time>2017-06-18T08:41:15Z</time>
      </trkpt>
      <trkpt lat="45.94198" lon="4.81839">
        <ele>266</ele>
        <time>2017-06-18T08:41:17Z</time>
      </trkpt>
      <trkpt lat="45.94199" lon="4.81843">
        <ele>266</ele>
        <time>2017-06-18T08:41:18Z</time>
      </trkpt>
      <trkpt lat="45.942" lon="4.81851">
        <ele>266</ele>
        <time>2017-06-18T08:41:20Z</time>
      </trkpt>
      <trkpt lat="45.94201" lon="4.81856">
        <ele>266</ele>
        <time>2017-06-18T08:41:21Z</time>
      </trkpt>
      <trkpt lat="45.94203" lon="4.81865">
        <ele>266</ele>
        <time>2017-06-18T08:41:23Z</time>
      </trkpt>
      <trkpt lat="45.94203" lon="4.81871">
        <ele>265</ele>
        <time>2017-06-18T08:41:24Z</time>
      </trkpt>
      <trkpt lat="45.94206" lon="4.8188">
        <ele>265</ele>
        <time>2017-06-18T08:41:26Z</time>
      </trkpt>
      <trkpt lat="45.94207" lon="4.81885">
        <ele>265</ele>
        <time>2017-06-18T08:41:27Z</time>
      </trkpt>
      <trkpt lat="45.94209" lon="4.81895">
        <ele>265</ele>
        <time>2017-06-18T08:41:29Z</time>
      </trkpt>
      <trkpt lat="45.9421" lon="4.819">
        <ele>265</ele>
        <time>2017-06-18T08:41:30Z</time>
      </trkpt>
      <trkpt lat="45.94212" lon="4.81911">
        <ele>265</ele>
        <time>2017-06-18T08:41:32Z</time>
      </trkpt>
      <trkpt lat="45.94214" lon="4.81918">
        <ele>264</ele>
        <time>2017-06-18T08:41:33Z</time>
      </trkpt>
      <trkpt lat="45.94215" lon="4.81924">
        <ele>264</ele>
        <time>2017-06-18T08:41:34Z</time>
      </trkpt>
      <trkpt lat="45.94216" lon="4.8193">
        <ele>264</ele>
        <time>2017-06-18T08:41:35Z</time>
      </trkpt>
      <trkpt lat="45.94218" lon="4.81942">
        <ele>264</ele>
        <time>2017-06-18T08:41:37Z</time>
      </trkpt>
      <trkpt lat="45.9422" lon="4.81948">
        <ele>264</ele>
        <time>2017-06-18T08:41:38Z</time>
      </trkpt>
      <trkpt lat="45.94223" lon="4.81959">
        <ele>264</ele>
        <time>2017-06-18T08:41:40Z</time>
      </trkpt>
      <trkpt lat="45.94224" lon="4.81964">
        <ele>264</ele>
        <time>2017-06-18T08:41:41Z</time>
      </trkpt>
      <trkpt lat="45.94226" lon="4.81975">
        <ele>264</ele>
        <time>2017-06-18T08:41:43Z</time>
      </trkpt>
      <trkpt lat="45.94228" lon="4.81981">
        <ele>264</ele>
        <time>2017-06-18T08:41:44Z</time>
      </trkpt>
      <trkpt lat="45.9423" lon="4.81992">
        <ele>263</ele>
        <time>2017-06-18T08:41:46Z</time>
      </trkpt>
      <trkpt lat="45.94231" lon="4.81996">
        <ele>263</ele>
        <time>2017-06-18T08:41:47Z</time>
      </trkpt>
      <trkpt lat="45.94233" lon="4.82007">
        <ele>263</ele>
        <time>2017-06-18T08:41:49Z</time>
      </trkpt>
      <trkpt lat="45.94234" lon="4.82012">
        <ele>263</ele>
        <time>2017-06-18T08:41:50Z</time>
      </trkpt>
      <trkpt lat="45.94236" lon="4.82023">
        <ele>263</ele>
        <time>2017-06-18T08:41:52Z</time>
      </trkpt>
      <trkpt lat="45.94237" lon="4.82028">
        <ele>263</ele>
        <time>2017-06-18T08:41:53Z</time>
      </trkpt>
      <trkpt lat="45.94237" lon="4.82036">
        <ele>263</ele>
        <time>2017-06-18T08:41:55Z</time>
      </trkpt>
      <trkpt lat="45.94237" lon="4.82041">
        <ele>263</ele>
        <time>2017-06-18T08:41:56Z</time>
      </trkpt>
      <trkpt lat="45.94239" lon="4.8205">
        <ele>263</ele>
        <time>2017-06-18T08:41:58Z</time>
      </trkpt>
      <trkpt lat="45.9424" lon="4.82056">
        <ele>263</ele>
        <time>2017-06-18T08:41:59Z</time>
      </trkpt>
      <trkpt lat="45.94242" lon="4.82066">
        <ele>263</ele>
        <time>2017-06-18T08:42:01Z</time>
      </trkpt>
      <trkpt lat="45.94243" lon="4.82072">
        <ele>263</ele>
        <time>2017-06-18T08:42:02Z</time>
      </trkpt>
      <trkpt lat="45.94244" lon="4.8208">
        <ele>262</ele>
        <time>2017-06-18T08:42:04Z</time>
      </trkpt>
      <trkpt lat="45.94246" lon="4.82085">
        <ele>262</ele>
        <time>2017-06-18T08:42:05Z</time>
      </trkpt>
      <trkpt lat="45.94248" lon="4.82096">
        <ele>263</ele>
        <time>2017-06-18T08:42:07Z</time>
      </trkpt>
      <trkpt lat="45.9425" lon="4.82101">
        <ele>263</ele>
        <time>2017-06-18T08:42:08Z</time>
      </trkpt>
      <trkpt lat="45.94253" lon="4.82113">
        <ele>263</ele>
        <time>2017-06-18T08:42:10Z</time>
      </trkpt>
      <trkpt lat="45.94254" lon="4.8212">
        <ele>263</ele>
        <time>2017-06-18T08:42:11Z</time>
      </trkpt>
      <trkpt lat="45.94257" lon="4.82132">
        <ele>263</ele>
        <time>2017-06-18T08:42:13Z</time>
      </trkpt>
      <trkpt lat="45.94258" lon="4.82138">
        <ele>263</ele>
        <time>2017-06-18T08:42:14Z</time>
      </trkpt>
      <trkpt lat="45.9426" lon="4.82148">
        <ele>263</ele>
        <time>2017-06-18T08:42:16Z</time>
      </trkpt>
      <trkpt lat="45.94261" lon="4.82154">
        <ele>263</ele>
        <time>2017-06-18T08:42:17Z</time>
      </trkpt>
      <trkpt lat="45.94262" lon="4.82165">
        <ele>263</ele>
        <time>2017-06-18T08:42:19Z</time>
      </trkpt>
      <trkpt lat="45.94263" lon="4.82171">
        <ele>263</ele>
        <time>2017-06-18T08:42:20Z</time>
      </trkpt>
      <trkpt lat="45.94265" lon="4.82183">
        <ele>264</ele>
        <time>2017-06-18T08:42:22Z</time>
      </trkpt>
      <trkpt lat="45.94266" lon="4.82189">
        <ele>264</ele>
        <time>2017-06-18T08:42:23Z</time>
      </trkpt>
      <trkpt lat="45.94266" lon="4.822">
        <ele>264</ele>
        <time>2017-06-18T08:42:25Z</time>
      </trkpt>
      <trkpt lat="45.94268" lon="4.8221">
        <ele>264</ele>
        <time>2017-06-18T08:42:26Z</time>
      </trkpt>
      <trkpt lat="45.94268" lon="4.82218">
        <ele>264</ele>
        <time>2017-06-18T08:42:27Z</time>
      </trkpt>
      <trkpt lat="45.94269" lon="4.82224">
        <ele>264</ele>
        <time>2017-06-18T08:42:28Z</time>
      </trkpt>
      <trkpt lat="45.94272" lon="4.82235">
        <ele>264</ele>
        <time>2017-06-18T08:42:30Z</time>
      </trkpt>
      <trkpt lat="45.94273" lon="4.8224">
        <ele>264</ele>
        <time>2017-06-18T08:42:31Z</time>
      </trkpt>
      <trkpt lat="45.94273" lon="4.82253">
        <ele>265</ele>
        <time>2017-06-18T08:42:33Z</time>
      </trkpt>
      <trkpt lat="45.94274" lon="4.82259">
        <ele>265</ele>
        <time>2017-06-18T08:42:34Z</time>
      </trkpt>
      <trkpt lat="45.94274" lon="4.82266">
        <ele>265</ele>
        <time>2017-06-18T08:42:35Z</time>
      </trkpt>
      <trkpt lat="45.94275" lon="4.82273">
        <ele>265</ele>
        <time>2017-06-18T08:42:36Z</time>
      </trkpt>
      <trkpt lat="45.94275" lon="4.82279">
        <ele>265</ele>
        <time>2017-06-18T08:42:37Z</time>
      </trkpt>
      <trkpt lat="45.94276" lon="4.82286">
        <ele>265</ele>
        <time>2017-06-18T08:42:38Z</time>
      </trkpt>
      <trkpt lat="45.94277" lon="4.82293">
        <ele>265</ele>
        <time>2017-06-18T08:42:39Z</time>
      </trkpt>
      <trkpt lat="45.94277" lon="4.82299">
        <ele>265</ele>
        <time>2017-06-18T08:42:40Z</time>
      </trkpt>
      <trkpt lat="45.94278" lon="4.82306">
        <ele>265</ele>
        <time>2017-06-18T08:42:41Z</time>
      </trkpt>
      <trkpt lat="45.94278" lon="4.82312">
        <ele>265</ele>
        <time>2017-06-18T08:42:42Z</time>
      </trkpt>
      <trkpt lat="45.94278" lon="4.82319">
        <ele>265</ele>
        <time>2017-06-18T08:42:43Z</time>
      </trkpt>
      <trkpt lat="45.94279" lon="4.82326">
        <ele>265</ele>
        <time>2017-06-18T08:42:44Z</time>
      </trkpt>
      <trkpt lat="45.9428" lon="4.82333">
        <ele>265</ele>
        <time>2017-06-18T08:42:45Z</time>
      </trkpt>
      <trkpt lat="45.9428" lon="4.82341">
        <ele>264</ele>
        <time>2017-06-18T08:42:46Z</time>
      </trkpt>
      <trkpt lat="45.9428" lon="4.82349">
        <ele>264</ele>
        <time>2017-06-18T08:42:47Z</time>
      </trkpt>
      <trkpt lat="45.9428" lon="4.82358">
        <ele>264</ele>
        <time>2017-06-18T08:42:48Z</time>
      </trkpt>
      <trkpt lat="45.94281" lon="4.82367">
        <ele>264</ele>
        <time>2017-06-18T08:42:49Z</time>
      </trkpt>
      <trkpt lat="45.94281" lon="4.82376">
        <ele>264</ele>
        <time>2017-06-18T08:42:50Z</time>
      </trkpt>
      <trkpt lat="45.94282" lon="4.82385">
        <ele>264</ele>
        <time>2017-06-18T08:42:51Z</time>
      </trkpt>
      <trkpt lat="45.94283" lon="4.82395">
        <ele>264</ele>
        <time>2017-06-18T08:42:52Z</time>
      </trkpt>
      <trkpt lat="45.94283" lon="4.82404">
        <ele>264</ele>
        <time>2017-06-18T08:42:53Z</time>
      </trkpt>
      <trkpt lat="45.94284" lon="4.82413">
        <ele>264</ele>
        <time>2017-06-18T08:42:54Z</time>
      </trkpt>
      <trkpt lat="45.94285" lon="4.82421">
        <ele>264</ele>
        <time>2017-06-18T08:42:55Z</time>
      </trkpt>
      <trkpt lat="45.94285" lon="4.82429">
        <ele>264</ele>
        <time>2017-06-18T08:42:56Z</time>
      </trkpt>
      <trkpt lat="45.94286" lon="4.82436">
        <ele>264</ele>
        <time>2017-06-18T08:42:57Z</time>
      </trkpt>
      <trkpt lat="45.94286" lon="4.82443">
        <ele>264</ele>
        <time>2017-06-18T08:42:58Z</time>
      </trkpt>
      <trkpt lat="45.94287" lon="4.8245">
        <ele>264</ele>
        <time>2017-06-18T08:42:59Z</time>
      </trkpt>
      <trkpt lat="45.94288" lon="4.82457">
        <ele>264</ele>
        <time>2017-06-18T08:43:00Z</time>
      </trkpt>
      <trkpt lat="45.94288" lon="4.82463">
        <ele>264</ele>
        <time>2017-06-18T08:43:01Z</time>
      </trkpt>
      <trkpt lat="45.94288" lon="4.8247">
        <ele>264</ele>
        <time>2017-06-18T08:43:02Z</time>
      </trkpt>
      <trkpt lat="45.94288" lon="4.82476">
        <ele>264</ele>
        <time>2017-06-18T08:43:03Z</time>
      </trkpt>
      <trkpt lat="45.94289" lon="4.82483">
        <ele>264</ele>
        <time>2017-06-18T08:43:04Z</time>
      </trkpt>
      <trkpt lat="45.94289" lon="4.8249">
        <ele>264</ele>
        <time>2017-06-18T08:43:05Z</time>
      </trkpt>
      <trkpt lat="45.94289" lon="4.82497">
        <ele>264</ele>
        <time>2017-06-18T08:43:06Z</time>
      </trkpt>
      <trkpt lat="45.94289" lon="4.82504">
        <ele>264</ele>
        <time>2017-06-18T08:43:07Z</time>
      </trkpt>
      <trkpt lat="45.9429" lon="4.82511">
        <ele>264</ele>
        <time>2017-06-18T08:43:08Z</time>
      </trkpt>
      <trkpt lat="45.9429" lon="4.82517">
        <ele>264</ele>
        <time>2017-06-18T08:43:09Z</time>
      </trkpt>
      <trkpt lat="45.94291" lon="4.82524">
        <ele>264</ele>
        <time>2017-06-18T08:43:10Z</time>
      </trkpt>
      <trkpt lat="45.94291" lon="4.8253">
        <ele>264</ele>
        <time>2017-06-18T08:43:11Z</time>
      </trkpt>
      <trkpt lat="45.94291" lon="4.82537">
        <ele>264</ele>
        <time>2017-06-18T08:43:12Z</time>
      </trkpt>
      <trkpt lat="45.94291" lon="4.82544">
        <ele>264</ele>
        <time>2017-06-18T08:43:13Z</time>
      </trkpt>
      <trkpt lat="45.94291" lon="4.82551">
        <ele>264</ele>
        <time>2017-06-18T08:43:14Z</time>
      </trkpt>
      <trkpt lat="45.94291" lon="4.82558">
        <ele>264</ele>
        <time>2017-06-18T08:43:15Z</time>
      </trkpt>
      <trkpt lat="45.94291" lon="4.82565">
        <ele>264</ele>
        <time>2017-06-18T08:43:16Z</time>
      </trkpt>
      <trkpt lat="45.94291" lon="4.82571">
        <ele>265</ele>
        <time>2017-06-18T08:43:17Z</time>
      </trkpt>
      <trkpt lat="45.94291" lon="4.82578">
        <ele>265</ele>
        <time>2017-06-18T08:43:18Z</time>
      </trkpt>
      <trkpt lat="45.94291" lon="4.82585">
        <ele>265</ele>
        <time>2017-06-18T08:43:19Z</time>
      </trkpt>
      <trkpt lat="45.94291" lon="4.82591">
        <ele>265</ele>
        <time>2017-06-18T08:43:20Z</time>
      </trkpt>
      <trkpt lat="45.94291" lon="4.82598">
        <ele>265</ele>
        <time>2017-06-18T08:43:21Z</time>
      </trkpt>
      <trkpt lat="45.94291" lon="4.82604">
        <ele>265</ele>
        <time>2017-06-18T08:43:22Z</time>
      </trkpt>
      <trkpt lat="45.94291" lon="4.82611">
        <ele>265</ele>
        <time>2017-06-18T08:43:23Z</time>
      </trkpt>
      <trkpt lat="45.94291" lon="4.82617">
        <ele>265</ele>
        <time>2017-06-18T08:43:24Z</time>
      </trkpt>
      <trkpt lat="45.94291" lon="4.82624">
        <ele>265</ele>
        <time>2017-06-18T08:43:25Z</time>
      </trkpt>
      <trkpt lat="45.94291" lon="4.82631">
        <ele>265</ele>
        <time>2017-06-18T08:43:26Z</time>
      </trkpt>
      <trkpt lat="45.9429" lon="4.82638">
        <ele>265</ele>
        <time>2017-06-18T08:43:27Z</time>
      </trkpt>
      <trkpt lat="45.9429" lon="4.82646">
        <ele>265</ele>
        <time>2017-06-18T08:43:28Z</time>
      </trkpt>
      <trkpt lat="45.9429" lon="4.82653">
        <ele>265</ele>
        <time>2017-06-18T08:43:29Z</time>
      </trkpt>
      <trkpt lat="45.9429" lon="4.82661">
        <ele>265</ele>
        <time>2017-06-18T08:43:30Z</time>
      </trkpt>
      <trkpt lat="45.9429" lon="4.82668">
        <ele>265</ele>
        <time>2017-06-18T08:43:31Z</time>
      </trkpt>
      <trkpt lat="45.9429" lon="4.82676">
        <ele>265</ele>
        <time>2017-06-18T08:43:32Z</time>
      </trkpt>
      <trkpt lat="45.9429" lon="4.82683">
        <ele>265</ele>
        <time>2017-06-18T08:43:33Z</time>
      </trkpt>
      <trkpt lat="45.9429" lon="4.8269">
        <ele>265</ele>
        <time>2017-06-18T08:43:34Z</time>
      </trkpt>
      <trkpt lat="45.9429" lon="4.82697">
        <ele>265</ele>
        <time>2017-06-18T08:43:35Z</time>
      </trkpt>
      <trkpt lat="45.94289" lon="4.82704">
        <ele>265</ele>
        <time>2017-06-18T08:43:36Z</time>
      </trkpt>
      <trkpt lat="45.94289" lon="4.82711">
        <ele>265</ele>
        <time>2017-06-18T08:43:37Z</time>
      </trkpt>
      <trkpt lat="45.94289" lon="4.82719">
        <ele>265</ele>
        <time>2017-06-18T08:43:38Z</time>
      </trkpt>
      <trkpt lat="45.94289" lon="4.82726">
        <ele>265</ele>
        <time>2017-06-18T08:43:39Z</time>
      </trkpt>
      <trkpt lat="45.94289" lon="4.82733">
        <ele>265</ele>
        <time>2017-06-18T08:43:40Z</time>
      </trkpt>
      <trkpt lat="45.94289" lon="4.8274">
        <ele>265</ele>
        <time>2017-06-18T08:43:41Z</time>
      </trkpt>
      <trkpt lat="45.94288" lon="4.82746">
        <ele>265</ele>
        <time>2017-06-18T08:43:42Z</time>
      </trkpt>
      <trkpt lat="45.94288" lon="4.82759">
        <ele>265</ele>
        <time>2017-06-18T08:43:44Z</time>
      </trkpt>
      <trkpt lat="45.94288" lon="4.82765">
        <ele>265</ele>
        <time>2017-06-18T08:43:45Z</time>
      </trkpt>
      <trkpt lat="45.94287" lon="4.82778">
        <ele>265</ele>
        <time>2017-06-18T08:43:47Z</time>
      </trkpt>
      <trkpt lat="45.94287" lon="4.82784">
        <ele>265</ele>
        <time>2017-06-18T08:43:48Z</time>
      </trkpt>
      <trkpt lat="45.94287" lon="4.82791">
        <ele>265</ele>
        <time>2017-06-18T08:43:49Z</time>
      </trkpt>
      <trkpt lat="45.94287" lon="4.82797">
        <ele>265</ele>
        <time>2017-06-18T08:43:50Z</time>
      </trkpt>
      <trkpt lat="45.94287" lon="4.8281">
        <ele>265</ele>
        <time>2017-06-18T08:43:52Z</time>
      </trkpt>
      <trkpt lat="45.94286" lon="4.82816">
        <ele>265</ele>
        <time>2017-06-18T08:43:53Z</time>
      </trkpt>
      <trkpt lat="45.94286" lon="4.82828">
        <ele>265</ele>
        <time>2017-06-18T08:43:55Z</time>
      </trkpt>
      <trkpt lat="45.94286" lon="4.82834">
        <ele>265</ele>
        <time>2017-06-18T08:43:56Z</time>
      </trkpt>
      <trkpt lat="45.94286" lon="4.8284">
        <ele>265</ele>
        <time>2017-06-18T08:43:57Z</time>
      </trkpt>
      <trkpt lat="45.94286" lon="4.82847">
        <ele>265</ele>
        <time>2017-06-18T08:43:58Z</time>
      </trkpt>
      <trkpt lat="45.94285" lon="4.82855">
        <ele>265</ele>
        <time>2017-06-18T08:43:59Z</time>
      </trkpt>
      <trkpt lat="45.94285" lon="4.82862">
        <ele>265</ele>
        <time>2017-06-18T08:44:00Z</time>
      </trkpt>
      <trkpt lat="45.94285" lon="4.8287">
        <ele>265</ele>
        <time>2017-06-18T08:44:01Z</time>
      </trkpt>
      <trkpt lat="45.94285" lon="4.82877">
        <ele>265</ele>
        <time>2017-06-18T08:44:02Z</time>
      </trkpt>
      <trkpt lat="45.94285" lon="4.82884">
        <ele>265</ele>
        <time>2017-06-18T08:44:03Z</time>
      </trkpt>
      <trkpt lat="45.94284" lon="4.82891">
        <ele>265</ele>
        <time>2017-06-18T08:44:04Z</time>
      </trkpt>
      <trkpt lat="45.94284" lon="4.82897">
        <ele>265</ele>
        <time>2017-06-18T08:44:05Z</time>
      </trkpt>
      <trkpt lat="45.94284" lon="4.82904">
        <ele>265</ele>
        <time>2017-06-18T08:44:06Z</time>
      </trkpt>
      <trkpt lat="45.94284" lon="4.8291">
        <ele>265</ele>
        <time>2017-06-18T08:44:07Z</time>
      </trkpt>
      <trkpt lat="45.94284" lon="4.82917">
        <ele>265</ele>
        <time>2017-06-18T08:44:08Z</time>
      </trkpt>
      <trkpt lat="45.94283" lon="4.82924">
        <ele>265</ele>
        <time>2017-06-18T08:44:09Z</time>
      </trkpt>
      <trkpt lat="45.94282" lon="4.8293">
        <ele>265</ele>
        <time>2017-06-18T08:44:10Z</time>
      </trkpt>
      <trkpt lat="45.94281" lon="4.82937">
        <ele>265</ele>
        <time>2017-06-18T08:44:11Z</time>
      </trkpt>
      <trkpt lat="45.94279" lon="4.82943">
        <ele>265</ele>
        <time>2017-06-18T08:44:12Z</time>
      </trkpt>
      <trkpt lat="45.94276" lon="4.82954">
        <ele>265</ele>
        <time>2017-06-18T08:44:14Z</time>
      </trkpt>
      <trkpt lat="45.94274" lon="4.82959">
        <ele>265</ele>
        <time>2017-06-18T08:44:15Z</time>
      </trkpt>
      <trkpt lat="45.94274" lon="4.8297">
        <ele>265</ele>
        <time>2017-06-18T08:44:19Z</time>
      </trkpt>
      <trkpt lat="45.94277" lon="4.82972">
        <ele>265</ele>
        <time>2017-06-18T08:44:20Z</time>
      </trkpt>
      <trkpt lat="45.94283" lon="4.8298">
        <ele>265</ele>
        <time>2017-06-18T08:44:22Z</time>
      </trkpt>
      <trkpt lat="45.94285" lon="4.82985">
        <ele>265</ele>
        <time>2017-06-18T08:44:23Z</time>
      </trkpt>
      <trkpt lat="45.94287" lon="4.82991">
        <ele>265</ele>
        <time>2017-06-18T08:44:24Z</time>
      </trkpt>
      <trkpt lat="45.94289" lon="4.82998">
        <ele>265</ele>
        <time>2017-06-18T08:44:25Z</time>
      </trkpt>
      <trkpt lat="45.94292" lon="4.8301">
        <ele>266</ele>
        <time>2017-06-18T08:44:27Z</time>
      </trkpt>
      <trkpt lat="45.94293" lon="4.83016">
        <ele>266</ele>
        <time>2017-06-18T08:44:28Z</time>
      </trkpt>
      <trkpt lat="45.94294" lon="4.83023">
        <ele>266</ele>
        <time>2017-06-18T08:44:29Z</time>
      </trkpt>
      <trkpt lat="45.94295" lon="4.83029">
        <ele>266</ele>
        <time>2017-06-18T08:44:30Z</time>
      </trkpt>
      <trkpt lat="45.94296" lon="4.83036">
        <ele>266</ele>
        <time>2017-06-18T08:44:31Z</time>
      </trkpt>
      <trkpt lat="45.94298" lon="4.83042">
        <ele>266</ele>
        <time>2017-06-18T08:44:32Z</time>
      </trkpt>
      <trkpt lat="45.943" lon="4.83053">
        <ele>266</ele>
        <time>2017-06-18T08:44:34Z</time>
      </trkpt>
      <trkpt lat="45.94301" lon="4.83059">
        <ele>266</ele>
        <time>2017-06-18T08:44:35Z</time>
      </trkpt>
      <trkpt lat="45.94304" lon="4.8307">
        <ele>266</ele>
        <time>2017-06-18T08:44:37Z</time>
      </trkpt>
      <trkpt lat="45.94305" lon="4.83076">
        <ele>266</ele>
        <time>2017-06-18T08:44:38Z</time>
      </trkpt>
      <trkpt lat="45.94306" lon="4.83083">
        <ele>266</ele>
        <time>2017-06-18T08:44:39Z</time>
      </trkpt>
      <trkpt lat="45.94308" lon="4.83089">
        <ele>266</ele>
        <time>2017-06-18T08:44:40Z</time>
      </trkpt>
      <trkpt lat="45.9431" lon="4.83096">
        <ele>266</ele>
        <time>2017-06-18T08:44:41Z</time>
      </trkpt>
      <trkpt lat="45.94312" lon="4.83102">
        <ele>266</ele>
        <time>2017-06-18T08:44:42Z</time>
      </trkpt>
      <trkpt lat="45.94314" lon="4.83108">
        <ele>266</ele>
        <time>2017-06-18T08:44:43Z</time>
      </trkpt>
      <trkpt lat="45.94316" lon="4.83114">
        <ele>266</ele>
        <time>2017-06-18T08:44:44Z</time>
      </trkpt>
      <trkpt lat="45.9432" lon="4.83126">
        <ele>266</ele>
        <time>2017-06-18T08:44:46Z</time>
      </trkpt>
      <trkpt lat="45.94321" lon="4.83131">
        <ele>266</ele>
        <time>2017-06-18T08:44:47Z</time>
      </trkpt>
      <trkpt lat="45.94325" lon="4.83143">
        <ele>266</ele>
        <time>2017-06-18T08:44:49Z</time>
      </trkpt>
      <trkpt lat="45.94327" lon="4.83149">
        <ele>266</ele>
        <time>2017-06-18T08:44:50Z</time>
      </trkpt>
      <trkpt lat="45.94329" lon="4.83155">
        <ele>266</ele>
        <time>2017-06-18T08:44:51Z</time>
      </trkpt>
      <trkpt lat="45.94331" lon="4.83161">
        <ele>266</ele>
        <time>2017-06-18T08:44:52Z</time>
      </trkpt>
      <trkpt lat="45.94333" lon="4.83167">
        <ele>266</ele>
        <time>2017-06-18T08:44:53Z</time>
      </trkpt>
      <trkpt lat="45.94335" lon="4.83173">
        <ele>266</ele>
        <time>2017-06-18T08:44:54Z</time>
      </trkpt>
      <trkpt lat="45.94338" lon="4.83178">
        <ele>266</ele>
        <time>2017-06-18T08:44:55Z</time>
      </trkpt>
      <trkpt lat="45.9434" lon="4.83184">
        <ele>266</ele>
        <time>2017-06-18T08:44:56Z</time>
      </trkpt>
      <trkpt lat="45.94342" lon="4.8319">
        <ele>266</ele>
        <time>2017-06-18T08:44:57Z</time>
      </trkpt>
      <trkpt lat="45.94344" lon="4.83196">
        <ele>266</ele>
        <time>2017-06-18T08:44:58Z</time>
      </trkpt>
      <trkpt lat="45.94346" lon="4.83202">
        <ele>266</ele>
        <time>2017-06-18T08:44:59Z</time>
      </trkpt>
      <trkpt lat="45.94348" lon="4.83207">
        <ele>266</ele>
        <time>2017-06-18T08:45:00Z</time>
      </trkpt>
      <trkpt lat="45.94351" lon="4.83213">
        <ele>266</ele>
        <time>2017-06-18T08:45:01Z</time>
      </trkpt>
      <trkpt lat="45.94353" lon="4.83219">
        <ele>266</ele>
        <time>2017-06-18T08:45:02Z</time>
      </trkpt>
      <trkpt lat="45.94355" lon="4.83225">
        <ele>266</ele>
        <time>2017-06-18T08:45:03Z</time>
      </trkpt>
      <trkpt lat="45.94356" lon="4.83231">
        <ele>265</ele>
        <time>2017-06-18T08:45:04Z</time>
      </trkpt>
      <trkpt lat="45.94359" lon="4.83238">
        <ele>265</ele>
        <time>2017-06-18T08:45:05Z</time>
      </trkpt>
      <trkpt lat="45.94361" lon="4.83245">
        <ele>265</ele>
        <time>2017-06-18T08:45:06Z</time>
      </trkpt>
      <trkpt lat="45.94363" lon="4.83252">
        <ele>265</ele>
        <time>2017-06-18T08:45:07Z</time>
      </trkpt>
      <trkpt lat="45.94366" lon="4.83259">
        <ele>265</ele>
        <time>2017-06-18T08:45:08Z</time>
      </trkpt>
      <trkpt lat="45.94368" lon="4.83266">
        <ele>264</ele>
        <time>2017-06-18T08:45:09Z</time>
      </trkpt>
      <trkpt lat="45.94371" lon="4.83274">
        <ele>264</ele>
        <time>2017-06-18T08:45:10Z</time>
      </trkpt>
      <trkpt lat="45.94373" lon="4.83281">
        <ele>264</ele>
        <time>2017-06-18T08:45:11Z</time>
      </trkpt>
      <trkpt lat="45.94376" lon="4.83288">
        <ele>264</ele>
        <time>2017-06-18T08:45:12Z</time>
      </trkpt>
      <trkpt lat="45.94379" lon="4.83295">
        <ele>264</ele>
        <time>2017-06-18T08:45:13Z</time>
      </trkpt>
      <trkpt lat="45.94381" lon="4.83302">
        <ele>264</ele>
        <time>2017-06-18T08:45:14Z</time>
      </trkpt>
      <trkpt lat="45.94384" lon="4.83309">
        <ele>264</ele>
        <time>2017-06-18T08:45:15Z</time>
      </trkpt>
      <trkpt lat="45.94386" lon="4.83316">
        <ele>264</ele>
        <time>2017-06-18T08:45:16Z</time>
      </trkpt>
      <trkpt lat="45.94389" lon="4.83323">
        <ele>264</ele>
        <time>2017-06-18T08:45:17Z</time>
      </trkpt>
      <trkpt lat="45.94391" lon="4.8333">
        <ele>264</ele>
        <time>2017-06-18T08:45:18Z</time>
      </trkpt>
      <trkpt lat="45.94394" lon="4.83337">
        <ele>263</ele>
        <time>2017-06-18T08:45:19Z</time>
      </trkpt>
      <trkpt lat="45.94396" lon="4.83343">
        <ele>263</ele>
        <time>2017-06-18T08:45:20Z</time>
      </trkpt>
      <trkpt lat="45.94399" lon="4.8335">
        <ele>263</ele>
        <time>2017-06-18T08:45:21Z</time>
      </trkpt>
      <trkpt lat="45.94402" lon="4.83357">
        <ele>264</ele>
        <time>2017-06-18T08:45:22Z</time>
      </trkpt>
      <trkpt lat="45.94405" lon="4.83363">
        <ele>264</ele>
        <time>2017-06-18T08:45:23Z</time>
      </trkpt>
      <trkpt lat="45.94408" lon="4.8337">
        <ele>264</ele>
        <time>2017-06-18T08:45:24Z</time>
      </trkpt>
      <trkpt lat="45.9441" lon="4.83376">
        <ele>264</ele>
        <time>2017-06-18T08:45:25Z</time>
      </trkpt>
      <trkpt lat="45.94413" lon="4.83382">
        <ele>264</ele>
        <time>2017-06-18T08:45:26Z</time>
      </trkpt>
      <trkpt lat="45.94417" lon="4.83389">
        <ele>264</ele>
        <time>2017-06-18T08:45:27Z</time>
      </trkpt>
      <trkpt lat="45.9442" lon="4.83396">
        <ele>264</ele>
        <time>2017-06-18T08:45:28Z</time>
      </trkpt>
      <trkpt lat="45.94423" lon="4.83404">
        <ele>264</ele>
        <time>2017-06-18T08:45:29Z</time>
      </trkpt>
      <trkpt lat="45.94427" lon="4.83411">
        <ele>264</ele>
        <time>2017-06-18T08:45:30Z</time>
      </trkpt>
      <trkpt lat="45.9443" lon="4.83418">
        <ele>264</ele>
        <time>2017-06-18T08:45:31Z</time>
      </trkpt>
      <trkpt lat="45.94434" lon="4.83425">
        <ele>264</ele>
        <time>2017-06-18T08:45:32Z</time>
      </trkpt>
      <trkpt lat="45.94438" lon="4.83433">
        <ele>264</ele>
        <time>2017-06-18T08:45:33Z</time>
      </trkpt>
      <trkpt lat="45.94441" lon="4.8344">
        <ele>263</ele>
        <time>2017-06-18T08:45:34Z</time>
      </trkpt>
      <trkpt lat="45.94445" lon="4.83447">
        <ele>263</ele>
        <time>2017-06-18T08:45:35Z</time>
      </trkpt>
      <trkpt lat="45.94448" lon="4.83454">
        <ele>263</ele>
        <time>2017-06-18T08:45:36Z</time>
      </trkpt>
      <trkpt lat="45.94452" lon="4.8346">
        <ele>263</ele>
        <time>2017-06-18T08:45:37Z</time>
      </trkpt>
      <trkpt lat="45.94456" lon="4.83466">
        <ele>263</ele>
        <time>2017-06-18T08:45:38Z</time>
      </trkpt>
      <trkpt lat="45.9446" lon="4.83473">
        <ele>263</ele>
        <time>2017-06-18T08:45:39Z</time>
      </trkpt>
      <trkpt lat="45.94463" lon="4.8348">
        <ele>263</ele>
        <time>2017-06-18T08:45:40Z</time>
      </trkpt>
      <trkpt lat="45.94467" lon="4.83487">
        <ele>263</ele>
        <time>2017-06-18T08:45:41Z</time>
      </trkpt>
      <trkpt lat="45.94471" lon="4.83494">
        <ele>263</ele>
        <time>2017-06-18T08:45:42Z</time>
      </trkpt>
      <trkpt lat="45.94475" lon="4.835">
        <ele>262</ele>
        <time>2017-06-18T08:45:43Z</time>
      </trkpt>
      <trkpt lat="45.94479" lon="4.83507">
        <ele>262</ele>
        <time>2017-06-18T08:45:44Z</time>
      </trkpt>
      <trkpt lat="45.94483" lon="4.83513">
        <ele>262</ele>
        <time>2017-06-18T08:45:45Z</time>
      </trkpt>
      <trkpt lat="45.94487" lon="4.83519">
        <ele>262</ele>
        <time>2017-06-18T08:45:46Z</time>
      </trkpt>
      <trkpt lat="45.9449" lon="4.83526">
        <ele>262</ele>
        <time>2017-06-18T08:45:47Z</time>
      </trkpt>
      <trkpt lat="45.94494" lon="4.83532">
        <ele>262</ele>
        <time>2017-06-18T08:45:48Z</time>
      </trkpt>
      <trkpt lat="45.94497" lon="4.83538">
        <ele>262</ele>
        <time>2017-06-18T08:45:49Z</time>
      </trkpt>
      <trkpt lat="45.945" lon="4.83543">
        <ele>262</ele>
        <time>2017-06-18T08:45:50Z</time>
      </trkpt>
      <trkpt lat="45.94504" lon="4.8355">
        <ele>261</ele>
        <time>2017-06-18T08:45:51Z</time>
      </trkpt>
      <trkpt lat="45.94507" lon="4.83556">
        <ele>261</ele>
        <time>2017-06-18T08:45:52Z</time>
      </trkpt>
      <trkpt lat="45.9451" lon="4.83563">
        <ele>261</ele>
        <time>2017-06-18T08:45:53Z</time>
      </trkpt>
      <trkpt lat="45.94513" lon="4.8357">
        <ele>261</ele>
        <time>2017-06-18T08:45:54Z</time>
      </trkpt>
      <trkpt lat="45.94516" lon="4.83577">
        <ele>261</ele>
        <time>2017-06-18T08:45:55Z</time>
      </trkpt>
      <trkpt lat="45.94519" lon="4.83584">
        <ele>261</ele>
        <time>2017-06-18T08:45:56Z</time>
      </trkpt>
      <trkpt lat="45.94521" lon="4.83592">
        <ele>261</ele>
        <time>2017-06-18T08:45:57Z</time>
      </trkpt>
      <trkpt lat="45.94523" lon="4.836">
        <ele>261</ele>
        <time>2017-06-18T08:45:58Z</time>
      </trkpt>
      <trkpt lat="45.94525" lon="4.83607">
        <ele>261</ele>
        <time>2017-06-18T08:45:59Z</time>
      </trkpt>
      <trkpt lat="45.94527" lon="4.83615">
        <ele>261</ele>
        <time>2017-06-18T08:46:00Z</time>
      </trkpt>
      <trkpt lat="45.94528" lon="4.83622">
        <ele>261</ele>
        <time>2017-06-18T08:46:01Z</time>
      </trkpt>
      <trkpt lat="45.9453" lon="4.8363">
        <ele>261</ele>
        <time>2017-06-18T08:46:02Z</time>
      </trkpt>
      <trkpt lat="45.94531" lon="4.83637">
        <ele>261</ele>
        <time>2017-06-18T08:46:03Z</time>
      </trkpt>
      <trkpt lat="45.94532" lon="4.83644">
        <ele>261</ele>
        <time>2017-06-18T08:46:04Z</time>
      </trkpt>
      <trkpt lat="45.94533" lon="4.83651">
        <ele>261</ele>
        <time>2017-06-18T08:46:05Z</time>
      </trkpt>
      <trkpt lat="45.94534" lon="4.83659">
        <ele>261</ele>
        <time>2017-06-18T08:46:06Z</time>
      </trkpt>
      <trkpt lat="45.94535" lon="4.83668">
        <ele>262</ele>
        <time>2017-06-18T08:46:07Z</time>
      </trkpt>
      <trkpt lat="45.94537" lon="4.83676">
        <ele>262</ele>
        <time>2017-06-18T08:46:08Z</time>
      </trkpt>
      <trkpt lat="45.94538" lon="4.83684">
        <ele>262</ele>
        <time>2017-06-18T08:46:09Z</time>
      </trkpt>
      <trkpt lat="45.94539" lon="4.83692">
        <ele>262</ele>
        <time>2017-06-18T08:46:10Z</time>
      </trkpt>
      <trkpt lat="45.9454" lon="4.83701">
        <ele>262</ele>
        <time>2017-06-18T08:46:11Z</time>
      </trkpt>
      <trkpt lat="45.94541" lon="4.83709">
        <ele>262</ele>
        <time>2017-06-18T08:46:12Z</time>
      </trkpt>
      <trkpt lat="45.94543" lon="4.83717">
        <ele>262</ele>
        <time>2017-06-18T08:46:13Z</time>
      </trkpt>
      <trkpt lat="45.94544" lon="4.83725">
        <ele>262</ele>
        <time>2017-06-18T08:46:14Z</time>
      </trkpt>
      <trkpt lat="45.94546" lon="4.83734">
        <ele>262</ele>
        <time>2017-06-18T08:46:15Z</time>
      </trkpt>
      <trkpt lat="45.94547" lon="4.83742">
        <ele>262</ele>
        <time>2017-06-18T08:46:16Z</time>
      </trkpt>
      <trkpt lat="45.94548" lon="4.8375">
        <ele>263</ele>
        <time>2017-06-18T08:46:17Z</time>
      </trkpt>
      <trkpt lat="45.9455" lon="4.83758">
        <ele>263</ele>
        <time>2017-06-18T08:46:18Z</time>
      </trkpt>
      <trkpt lat="45.94551" lon="4.83766">
        <ele>263</ele>
        <time>2017-06-18T08:46:19Z</time>
      </trkpt>
      <trkpt lat="45.94552" lon="4.83773">
        <ele>264</ele>
        <time>2017-06-18T08:46:20Z</time>
      </trkpt>
      <trkpt lat="45.94553" lon="4.8378">
        <ele>264</ele>
        <time>2017-06-18T08:46:21Z</time>
      </trkpt>
      <trkpt lat="45.94554" lon="4.83788">
        <ele>264</ele>
        <time>2017-06-18T08:46:22Z</time>
      </trkpt>
      <trkpt lat="45.94556" lon="4.83796">
        <ele>264</ele>
        <time>2017-06-18T08:46:23Z</time>
      </trkpt>
      <trkpt lat="45.94557" lon="4.83804">
        <ele>264</ele>
        <time>2017-06-18T08:46:24Z</time>
      </trkpt>
      <trkpt lat="45.94558" lon="4.83812">
        <ele>264</ele>
        <time>2017-06-18T08:46:25Z</time>
      </trkpt>
      <trkpt lat="45.94559" lon="4.8382">
        <ele>264</ele>
        <time>2017-06-18T08:46:26Z</time>
      </trkpt>
      <trkpt lat="45.94561" lon="4.83828">
        <ele>265</ele>
        <time>2017-06-18T08:46:27Z</time>
      </trkpt>
      <trkpt lat="45.94562" lon="4.83837">
        <ele>266</ele>
        <time>2017-06-18T08:46:28Z</time>
      </trkpt>
      <trkpt lat="45.94564" lon="4.83845">
        <ele>266</ele>
        <time>2017-06-18T08:46:29Z</time>
      </trkpt>
      <trkpt lat="45.94565" lon="4.83854">
        <ele>266</ele>
        <time>2017-06-18T08:46:30Z</time>
      </trkpt>
      <trkpt lat="45.94566" lon="4.83862">
        <ele>267</ele>
        <time>2017-06-18T08:46:31Z</time>
      </trkpt>
      <trkpt lat="45.94567" lon="4.8387">
        <ele>267</ele>
        <time>2017-06-18T08:46:32Z</time>
      </trkpt>
      <trkpt lat="45.94568" lon="4.83879">
        <ele>267</ele>
        <time>2017-06-18T08:46:33Z</time>
      </trkpt>
      <trkpt lat="45.9457" lon="4.83888">
        <ele>267</ele>
        <time>2017-06-18T08:46:34Z</time>
      </trkpt>
      <trkpt lat="45.94571" lon="4.83896">
        <ele>267</ele>
        <time>2017-06-18T08:46:35Z</time>
      </trkpt>
      <trkpt lat="45.94573" lon="4.83905">
        <ele>268</ele>
        <time>2017-06-18T08:46:36Z</time>
      </trkpt>
      <trkpt lat="45.94574" lon="4.83914">
        <ele>268</ele>
        <time>2017-06-18T08:46:37Z</time>
      </trkpt>
      <trkpt lat="45.94575" lon="4.83922">
        <ele>268</ele>
        <time>2017-06-18T08:46:38Z</time>
      </trkpt>
      <trkpt lat="45.94577" lon="4.83931">
        <ele>268</ele>
        <time>2017-06-18T08:46:39Z</time>
      </trkpt>
      <trkpt lat="45.94578" lon="4.8394">
        <ele>269</ele>
        <time>2017-06-18T08:46:40Z</time>
      </trkpt>
      <trkpt lat="45.94579" lon="4.83949">
        <ele>269</ele>
        <time>2017-06-18T08:46:41Z</time>
      </trkpt>
      <trkpt lat="45.9458" lon="4.83958">
        <ele>269</ele>
        <time>2017-06-18T08:46:42Z</time>
      </trkpt>
      <trkpt lat="45.94582" lon="4.83967">
        <ele>269</ele>
        <time>2017-06-18T08:46:43Z</time>
      </trkpt>
      <trkpt lat="45.94583" lon="4.83975">
        <ele>269</ele>
        <time>2017-06-18T08:46:44Z</time>
      </trkpt>
      <trkpt lat="45.94585" lon="4.83983">
        <ele>269</ele>
        <time>2017-06-18T08:46:45Z</time>
      </trkpt>
      <trkpt lat="45.94586" lon="4.83991">
        <ele>269</ele>
        <time>2017-06-18T08:46:46Z</time>
      </trkpt>
      <trkpt lat="45.94587" lon="4.83998">
        <ele>269</ele>
        <time>2017-06-18T08:46:47Z</time>
      </trkpt>
      <trkpt lat="45.94588" lon="4.84005">
        <ele>269</ele>
        <time>2017-06-18T08:46:48Z</time>
      </trkpt>
      <trkpt lat="45.9459" lon="4.84012">
        <ele>269</ele>
        <time>2017-06-18T08:46:49Z</time>
      </trkpt>
      <trkpt lat="45.94591" lon="4.84019">
        <ele>269</ele>
        <time>2017-06-18T08:46:50Z</time>
      </trkpt>
      <trkpt lat="45.94592" lon="4.84025">
        <ele>269</ele>
        <time>2017-06-18T08:46:51Z</time>
      </trkpt>
      <trkpt lat="45.94593" lon="4.84032">
        <ele>269</ele>
        <time>2017-06-18T08:46:52Z</time>
      </trkpt>
      <trkpt lat="45.94595" lon="4.84044">
        <ele>269</ele>
        <time>2017-06-18T08:46:54Z</time>
      </trkpt>
      <trkpt lat="45.94596" lon="4.8405">
        <ele>269</ele>
        <time>2017-06-18T08:46:55Z</time>
      </trkpt>
      <trkpt lat="45.94597" lon="4.84057">
        <ele>269</ele>
        <time>2017-06-18T08:46:56Z</time>
      </trkpt>
      <trkpt lat="45.94598" lon="4.84064">
        <ele>269</ele>
        <time>2017-06-18T08:46:57Z</time>
      </trkpt>
      <trkpt lat="45.94599" lon="4.8407">
        <ele>269</ele>
        <time>2017-06-18T08:46:58Z</time>
      </trkpt>
      <trkpt lat="45.946" lon="4.84077">
        <ele>269</ele>
        <time>2017-06-18T08:46:59Z</time>
      </trkpt>
      <trkpt lat="45.94601" lon="4.84084">
        <ele>269</ele>
        <time>2017-06-18T08:47:00Z</time>
      </trkpt>
      <trkpt lat="45.94602" lon="4.8409">
        <ele>269</ele>
        <time>2017-06-18T08:47:01Z</time>
      </trkpt>
      <trkpt lat="45.94603" lon="4.84097">
        <ele>269</ele>
        <time>2017-06-18T08:47:02Z</time>
      </trkpt>
      <trkpt lat="45.94604" lon="4.84104">
        <ele>269</ele>
        <time>2017-06-18T08:47:03Z</time>
      </trkpt>
      <trkpt lat="45.94605" lon="4.84111">
        <ele>269</ele>
        <time>2017-06-18T08:47:04Z</time>
      </trkpt>
      <trkpt lat="45.94606" lon="4.84118">
        <ele>269</ele>
        <time>2017-06-18T08:47:05Z</time>
      </trkpt>
      <trkpt lat="45.94607" lon="4.84125">
        <ele>269</ele>
        <time>2017-06-18T08:47:06Z</time>
      </trkpt>
      <trkpt lat="45.94608" lon="4.84132">
        <ele>269</ele>
        <time>2017-06-18T08:47:07Z</time>
      </trkpt>
      <trkpt lat="45.94609" lon="4.84139">
        <ele>269</ele>
        <time>2017-06-18T08:47:08Z</time>
      </trkpt>
      <trkpt lat="45.9461" lon="4.84146">
        <ele>269</ele>
        <time>2017-06-18T08:47:09Z</time>
      </trkpt>
      <trkpt lat="45.94612" lon="4.84153">
        <ele>269</ele>
        <time>2017-06-18T08:47:10Z</time>
      </trkpt>
      <trkpt lat="45.94613" lon="4.84161">
        <ele>269</ele>
        <time>2017-06-18T08:47:11Z</time>
      </trkpt>
      <trkpt lat="45.94614" lon="4.84168">
        <ele>269</ele>
        <time>2017-06-18T08:47:12Z</time>
      </trkpt>
      <trkpt lat="45.94615" lon="4.84175">
        <ele>269</ele>
        <time>2017-06-18T08:47:13Z</time>
      </trkpt>
      <trkpt lat="45.94616" lon="4.84182">
        <ele>269</ele>
        <time>2017-06-18T08:47:14Z</time>
      </trkpt>
      <trkpt lat="45.94617" lon="4.84189">
        <ele>269</ele>
        <time>2017-06-18T08:47:15Z</time>
      </trkpt>
      <trkpt lat="45.94619" lon="4.84196">
        <ele>269</ele>
        <time>2017-06-18T08:47:16Z</time>
      </trkpt>
      <trkpt lat="45.9462" lon="4.84202">
        <ele>269</ele>
        <time>2017-06-18T08:47:17Z</time>
      </trkpt>
      <trkpt lat="45.94621" lon="4.84209">
        <ele>269</ele>
        <time>2017-06-18T08:47:18Z</time>
      </trkpt>
      <trkpt lat="45.94621" lon="4.84215">
        <ele>269</ele>
        <time>2017-06-18T08:47:19Z</time>
      </trkpt>
      <trkpt lat="45.94622" lon="4.84222">
        <ele>269</ele>
        <time>2017-06-18T08:47:20Z</time>
      </trkpt>
      <trkpt lat="45.94623" lon="4.84229">
        <ele>269</ele>
        <time>2017-06-18T08:47:21Z</time>
      </trkpt>
      <trkpt lat="45.94624" lon="4.84235">
        <ele>269</ele>
        <time>2017-06-18T08:47:22Z</time>
      </trkpt>
      <trkpt lat="45.94626" lon="4.84242">
        <ele>269</ele>
        <time>2017-06-18T08:47:23Z</time>
      </trkpt>
      <trkpt lat="45.94627" lon="4.84248">
        <ele>269</ele>
        <time>2017-06-18T08:47:24Z</time>
      </trkpt>
      <trkpt lat="45.94628" lon="4.84255">
        <ele>269</ele>
        <time>2017-06-18T08:47:25Z</time>
      </trkpt>
      <trkpt lat="45.9463" lon="4.84267">
        <ele>269</ele>
        <time>2017-06-18T08:47:27Z</time>
      </trkpt>
      <trkpt lat="45.9463" lon="4.84273">
        <ele>269</ele>
        <time>2017-06-18T08:47:28Z</time>
      </trkpt>
      <trkpt lat="45.94631" lon="4.8428">
        <ele>269</ele>
        <time>2017-06-18T08:47:29Z</time>
      </trkpt>
      <trkpt lat="45.94632" lon="4.84286">
        <ele>269</ele>
        <time>2017-06-18T08:47:30Z</time>
      </trkpt>
      <trkpt lat="45.94633" lon="4.84293">
        <ele>269</ele>
        <time>2017-06-18T08:47:31Z</time>
      </trkpt>
      <trkpt lat="45.94634" lon="4.84299">
        <ele>269</ele>
        <time>2017-06-18T08:47:32Z</time>
      </trkpt>
      <trkpt lat="45.94635" lon="4.84306">
        <ele>269</ele>
        <time>2017-06-18T08:47:33Z</time>
      </trkpt>
      <trkpt lat="45.94635" lon="4.84312">
        <ele>269</ele>
        <time>2017-06-18T08:47:34Z</time>
      </trkpt>
      <trkpt lat="45.94637" lon="4.84324">
        <ele>269</ele>
        <time>2017-06-18T08:47:36Z</time>
      </trkpt>
      <trkpt lat="45.94638" lon="4.84329">
        <ele>269</ele>
        <time>2017-06-18T08:47:37Z</time>
      </trkpt>
      <trkpt lat="45.94639" lon="4.84342">
        <ele>268</ele>
        <time>2017-06-18T08:47:39Z</time>
      </trkpt>
      <trkpt lat="45.9464" lon="4.84348">
        <ele>268</ele>
        <time>2017-06-18T08:47:40Z</time>
      </trkpt>
      <trkpt lat="45.94641" lon="4.84355">
        <ele>268</ele>
        <time>2017-06-18T08:47:41Z</time>
      </trkpt>
      <trkpt lat="45.94641" lon="4.84361">
        <ele>268</ele>
        <time>2017-06-18T08:47:42Z</time>
      </trkpt>
      <trkpt lat="45.94643" lon="4.84373">
        <ele>268</ele>
        <time>2017-06-18T08:47:44Z</time>
      </trkpt>
      <trkpt lat="45.94643" lon="4.8438">
        <ele>268</ele>
        <time>2017-06-18T08:47:45Z</time>
      </trkpt>
      <trkpt lat="45.94644" lon="4.84386">
        <ele>268</ele>
        <time>2017-06-18T08:47:46Z</time>
      </trkpt>
      <trkpt lat="45.94644" lon="4.84393">
        <ele>268</ele>
        <time>2017-06-18T08:47:47Z</time>
      </trkpt>
      <trkpt lat="45.94645" lon="4.84399">
        <ele>268</ele>
        <time>2017-06-18T08:47:48Z</time>
      </trkpt>
      <trkpt lat="45.94646" lon="4.84406">
        <ele>268</ele>
        <time>2017-06-18T08:47:49Z</time>
      </trkpt>
      <trkpt lat="45.94648" lon="4.84418">
        <ele>268</ele>
        <time>2017-06-18T08:47:51Z</time>
      </trkpt>
      <trkpt lat="45.94649" lon="4.84424">
        <ele>268</ele>
        <time>2017-06-18T08:47:52Z</time>
      </trkpt>
      <trkpt lat="45.9465" lon="4.84437">
        <ele>268</ele>
        <time>2017-06-18T08:47:54Z</time>
      </trkpt>
      <trkpt lat="45.94651" lon="4.84443">
        <ele>268</ele>
        <time>2017-06-18T08:47:55Z</time>
      </trkpt>
      <trkpt lat="45.94651" lon="4.84449">
        <ele>268</ele>
        <time>2017-06-18T08:47:56Z</time>
      </trkpt>
      <trkpt lat="45.94652" lon="4.84456">
        <ele>268</ele>
        <time>2017-06-18T08:47:57Z</time>
      </trkpt>
      <trkpt lat="45.94653" lon="4.84463">
        <ele>268</ele>
        <time>2017-06-18T08:47:58Z</time>
      </trkpt>
      <trkpt lat="45.94653" lon="4.8447">
        <ele>268</ele>
        <time>2017-06-18T08:47:59Z</time>
      </trkpt>
      <trkpt lat="45.94654" lon="4.84478">
        <ele>268</ele>
        <time>2017-06-18T08:48:00Z</time>
      </trkpt>
      <trkpt lat="45.94655" lon="4.84485">
        <ele>268</ele>
        <time>2017-06-18T08:48:01Z</time>
      </trkpt>
      <trkpt lat="45.94656" lon="4.84493">
        <ele>268</ele>
        <time>2017-06-18T08:48:02Z</time>
      </trkpt>
      <trkpt lat="45.94656" lon="4.84501">
        <ele>268</ele>
        <time>2017-06-18T08:48:03Z</time>
      </trkpt>
      <trkpt lat="45.94657" lon="4.84508">
        <ele>268</ele>
        <time>2017-06-18T08:48:04Z</time>
      </trkpt>
      <trkpt lat="45.94658" lon="4.84515">
        <ele>268</ele>
        <time>2017-06-18T08:48:05Z</time>
      </trkpt>
      <trkpt lat="45.94658" lon="4.84522">
        <ele>268</ele>
        <time>2017-06-18T08:48:06Z</time>
      </trkpt>
      <trkpt lat="45.94659" lon="4.84529">
        <ele>268</ele>
        <time>2017-06-18T08:48:07Z</time>
      </trkpt>
      <trkpt lat="45.94659" lon="4.84536">
        <ele>268</ele>
        <time>2017-06-18T08:48:08Z</time>
      </trkpt>
      <trkpt lat="45.9466" lon="4.84543">
        <ele>268</ele>
        <time>2017-06-18T08:48:09Z</time>
      </trkpt>
      <trkpt lat="45.94661" lon="4.8455">
        <ele>268</ele>
        <time>2017-06-18T08:48:10Z</time>
      </trkpt>
      <trkpt lat="45.94661" lon="4.84558">
        <ele>268</ele>
        <time>2017-06-18T08:48:11Z</time>
      </trkpt>
      <trkpt lat="45.94662" lon="4.84565">
        <ele>268</ele>
        <time>2017-06-18T08:48:12Z</time>
      </trkpt>
      <trkpt lat="45.94663" lon="4.84572">
        <ele>268</ele>
        <time>2017-06-18T08:48:13Z</time>
      </trkpt>
      <trkpt lat="45.94663" lon="4.8458">
        <ele>268</ele>
        <time>2017-06-18T08:48:14Z</time>
      </trkpt>
      <trkpt lat="45.94664" lon="4.84586">
        <ele>268</ele>
        <time>2017-06-18T08:48:15Z</time>
      </trkpt>
      <trkpt lat="45.94664" lon="4.84593">
        <ele>268</ele>
        <time>2017-06-18T08:48:16Z</time>
      </trkpt>
      <trkpt lat="45.94664" lon="4.846">
        <ele>268</ele>
        <time>2017-06-18T08:48:17Z</time>
      </trkpt>
      <trkpt lat="45.94665" lon="4.84607">
        <ele>268</ele>
        <time>2017-06-18T08:48:18Z</time>
      </trkpt>
      <trkpt lat="45.94665" lon="4.84614">
        <ele>268</ele>
        <time>2017-06-18T08:48:19Z</time>
      </trkpt>
      <trkpt lat="45.94665" lon="4.84621">
        <ele>268</ele>
        <time>2017-06-18T08:48:20Z</time>
      </trkpt>
      <trkpt lat="45.94665" lon="4.84628">
        <ele>268</ele>
        <time>2017-06-18T08:48:21Z</time>
      </trkpt>
      <trkpt lat="45.94665" lon="4.84635">
        <ele>268</ele>
        <time>2017-06-18T08:48:22Z</time>
      </trkpt>
      <trkpt lat="45.94666" lon="4.84642">
        <ele>268</ele>
        <time>2017-06-18T08:48:23Z</time>
      </trkpt>
      <trkpt lat="45.94666" lon="4.8465">
        <ele>269</ele>
        <time>2017-06-18T08:48:24Z</time>
      </trkpt>
      <trkpt lat="45.94666" lon="4.84658">
        <ele>269</ele>
        <time>2017-06-18T08:48:25Z</time>
      </trkpt>
      <trkpt lat="45.94666" lon="4.84666">
        <ele>269</ele>
        <time>2017-06-18T08:48:26Z</time>
      </trkpt>
      <trkpt lat="45.94667" lon="4.84673">
        <ele>269</ele>
        <time>2017-06-18T08:48:27Z</time>
      </trkpt>
      <trkpt lat="45.94667" lon="4.84681">
        <ele>269</ele>
        <time>2017-06-18T08:48:28Z</time>
      </trkpt>
      <trkpt lat="45.94668" lon="4.84688">
        <ele>269</ele>
        <time>2017-06-18T08:48:29Z</time>
      </trkpt>
      <trkpt lat="45.94668" lon="4.84695">
        <ele>269</ele>
        <time>2017-06-18T08:48:30Z</time>
      </trkpt>
      <trkpt lat="45.94668" lon="4.84702">
        <ele>269</ele>
        <time>2017-06-18T08:48:31Z</time>
      </trkpt>
      <trkpt lat="45.94668" lon="4.84709">
        <ele>269</ele>
        <time>2017-06-18T08:48:32Z</time>
      </trkpt>
      <trkpt lat="45.94668" lon="4.84716">
        <ele>269</ele>
        <time>2017-06-18T08:48:33Z</time>
      </trkpt>
      <trkpt lat="45.94668" lon="4.84722">
        <ele>269</ele>
        <time>2017-06-18T08:48:34Z</time>
      </trkpt>
      <trkpt lat="45.94669" lon="4.84729">
        <ele>269</ele>
        <time>2017-06-18T08:48:35Z</time>
      </trkpt>
      <trkpt lat="45.94669" lon="4.84736">
        <ele>269</ele>
        <time>2017-06-18T08:48:36Z</time>
      </trkpt>
      <trkpt lat="45.9467" lon="4.84742">
        <ele>269</ele>
        <time>2017-06-18T08:48:37Z</time>
      </trkpt>
      <trkpt lat="45.9467" lon="4.8475">
        <ele>269</ele>
        <time>2017-06-18T08:48:38Z</time>
      </trkpt>
      <trkpt lat="45.94671" lon="4.84757">
        <ele>269</ele>
        <time>2017-06-18T08:48:39Z</time>
      </trkpt>
      <trkpt lat="45.94672" lon="4.84764">
        <ele>269</ele>
        <time>2017-06-18T08:48:40Z</time>
      </trkpt>
      <trkpt lat="45.94672" lon="4.84771">
        <ele>269</ele>
        <time>2017-06-18T08:48:41Z</time>
      </trkpt>
      <trkpt lat="45.94673" lon="4.84778">
        <ele>269</ele>
        <time>2017-06-18T08:48:42Z</time>
      </trkpt>
      <trkpt lat="45.94673" lon="4.84785">
        <ele>269</ele>
        <time>2017-06-18T08:48:43Z</time>
      </trkpt>
      <trkpt lat="45.94674" lon="4.84791">
        <ele>269</ele>
        <time>2017-06-18T08:48:44Z</time>
      </trkpt>
      <trkpt lat="45.94674" lon="4.84798">
        <ele>268</ele>
        <time>2017-06-18T08:48:45Z</time>
      </trkpt>
      <trkpt lat="45.94675" lon="4.84804">
        <ele>268</ele>
        <time>2017-06-18T08:48:46Z</time>
      </trkpt>
      <trkpt lat="45.94675" lon="4.84811">
        <ele>268</ele>
        <time>2017-06-18T08:48:47Z</time>
      </trkpt>
      <trkpt lat="45.94676" lon="4.84818">
        <ele>268</ele>
        <time>2017-06-18T08:48:48Z</time>
      </trkpt>
      <trkpt lat="45.94676" lon="4.84826">
        <ele>268</ele>
        <time>2017-06-18T08:48:49Z</time>
      </trkpt>
      <trkpt lat="45.94676" lon="4.84833">
        <ele>268</ele>
        <time>2017-06-18T08:48:50Z</time>
      </trkpt>
      <trkpt lat="45.94677" lon="4.8484">
        <ele>268</ele>
        <time>2017-06-18T08:48:51Z</time>
      </trkpt>
      <trkpt lat="45.94678" lon="4.84848">
        <ele>268</ele>
        <time>2017-06-18T08:48:52Z</time>
      </trkpt>
      <trkpt lat="45.94678" lon="4.84855">
        <ele>268</ele>
        <time>2017-06-18T08:48:53Z</time>
      </trkpt>
      <trkpt lat="45.94679" lon="4.84862">
        <ele>268</ele>
        <time>2017-06-18T08:48:54Z</time>
      </trkpt>
      <trkpt lat="45.94679" lon="4.84869">
        <ele>268</ele>
        <time>2017-06-18T08:48:55Z</time>
      </trkpt>
      <trkpt lat="45.9468" lon="4.84876">
        <ele>268</ele>
        <time>2017-06-18T08:48:56Z</time>
      </trkpt>
      <trkpt lat="45.9468" lon="4.84883">
        <ele>268</ele>
        <time>2017-06-18T08:48:57Z</time>
      </trkpt>
      <trkpt lat="45.94681" lon="4.84889">
        <ele>268</ele>
        <time>2017-06-18T08:48:58Z</time>
      </trkpt>
      <trkpt lat="45.94681" lon="4.84896">
        <ele>268</ele>
        <time>2017-06-18T08:48:59Z</time>
      </trkpt>
      <trkpt lat="45.94682" lon="4.84903">
        <ele>269</ele>
        <time>2017-06-18T08:49:00Z</time>
      </trkpt>
      <trkpt lat="45.94683" lon="4.8491">
        <ele>269</ele>
        <time>2017-06-18T08:49:01Z</time>
      </trkpt>
      <trkpt lat="45.94684" lon="4.84917">
        <ele>269</ele>
        <time>2017-06-18T08:49:02Z</time>
      </trkpt>
      <trkpt lat="45.94685" lon="4.84925">
        <ele>269</ele>
        <time>2017-06-18T08:49:03Z</time>
      </trkpt>
      <trkpt lat="45.94685" lon="4.84932">
        <ele>269</ele>
        <time>2017-06-18T08:49:04Z</time>
      </trkpt>
      <trkpt lat="45.94686" lon="4.84939">
        <ele>269</ele>
        <time>2017-06-18T08:49:05Z</time>
      </trkpt>
      <trkpt lat="45.94687" lon="4.84946">
        <ele>269</ele>
        <time>2017-06-18T08:49:06Z</time>
      </trkpt>
      <trkpt lat="45.94687" lon="4.84952">
        <ele>269</ele>
        <time>2017-06-18T08:49:07Z</time>
      </trkpt>
      <trkpt lat="45.94688" lon="4.84959">
        <ele>269</ele>
        <time>2017-06-18T08:49:08Z</time>
      </trkpt>
      <trkpt lat="45.94689" lon="4.84965">
        <ele>269</ele>
        <time>2017-06-18T08:49:09Z</time>
      </trkpt>
      <trkpt lat="45.9469" lon="4.84972">
        <ele>269</ele>
        <time>2017-06-18T08:49:10Z</time>
      </trkpt>
      <trkpt lat="45.94691" lon="4.84979">
        <ele>269</ele>
        <time>2017-06-18T08:49:11Z</time>
      </trkpt>
      <trkpt lat="45.94692" lon="4.84986">
        <ele>269</ele>
        <time>2017-06-18T08:49:12Z</time>
      </trkpt>
      <trkpt lat="45.94693" lon="4.84993">
        <ele>269</ele>
        <time>2017-06-18T08:49:13Z</time>
      </trkpt>
      <trkpt lat="45.94693" lon="4.85">
        <ele>269</ele>
        <time>2017-06-18T08:49:14Z</time>
      </trkpt>
      <trkpt lat="45.94694" lon="4.85007">
        <ele>269</ele>
        <time>2017-06-18T08:49:15Z</time>
      </trkpt>
      <trkpt lat="45.94695" lon="4.85014">
        <ele>269</ele>
        <time>2017-06-18T08:49:16Z</time>
      </trkpt>
      <trkpt lat="45.94696" lon="4.85021">
        <ele>269</ele>
        <time>2017-06-18T08:49:17Z</time>
      </trkpt>
      <trkpt lat="45.94697" lon="4.85028">
        <ele>269</ele>
        <time>2017-06-18T08:49:18Z</time>
      </trkpt>
      <trkpt lat="45.94698" lon="4.85034">
        <ele>269</ele>
        <time>2017-06-18T08:49:19Z</time>
      </trkpt>
      <trkpt lat="45.94699" lon="4.85041">
        <ele>269</ele>
        <time>2017-06-18T08:49:20Z</time>
      </trkpt>
      <trkpt lat="45.947" lon="4.85048">
        <ele>269</ele>
        <time>2017-06-18T08:49:21Z</time>
      </trkpt>
      <trkpt lat="45.947" lon="4.85055">
        <ele>269</ele>
        <time>2017-06-18T08:49:22Z</time>
      </trkpt>
      <trkpt lat="45.94701" lon="4.85063">
        <ele>269</ele>
        <time>2017-06-18T08:49:23Z</time>
      </trkpt>
      <trkpt lat="45.94702" lon="4.85071">
        <ele>269</ele>
        <time>2017-06-18T08:49:24Z</time>
      </trkpt>
      <trkpt lat="45.94703" lon="4.85079">
        <ele>269</ele>
        <time>2017-06-18T08:49:25Z</time>
      </trkpt>
      <trkpt lat="45.94704" lon="4.85088">
        <ele>269</ele>
        <time>2017-06-18T08:49:26Z</time>
      </trkpt>
      <trkpt lat="45.94704" lon="4.85096">
        <ele>269</ele>
        <time>2017-06-18T08:49:27Z</time>
      </trkpt>
      <trkpt lat="45.94705" lon="4.85104">
        <ele>269</ele>
        <time>2017-06-18T08:49:28Z</time>
      </trkpt>
      <trkpt lat="45.94706" lon="4.85111">
        <ele>269</ele>
        <time>2017-06-18T08:49:29Z</time>
      </trkpt>
      <trkpt lat="45.94707" lon="4.85118">
        <ele>269</ele>
        <time>2017-06-18T08:49:30Z</time>
      </trkpt>
      <trkpt lat="45.94708" lon="4.85125">
        <ele>269</ele>
        <time>2017-06-18T08:49:31Z</time>
      </trkpt>
      <trkpt lat="45.94709" lon="4.85132">
        <ele>269</ele>
        <time>2017-06-18T08:49:32Z</time>
      </trkpt>
      <trkpt lat="45.9471" lon="4.85139">
        <ele>269</ele>
        <time>2017-06-18T08:49:33Z</time>
      </trkpt>
      <trkpt lat="45.9471" lon="4.85146">
        <ele>269</ele>
        <time>2017-06-18T08:49:34Z</time>
      </trkpt>
      <trkpt lat="45.94711" lon="4.85152">
        <ele>269</ele>
        <time>2017-06-18T08:49:35Z</time>
      </trkpt>
      <trkpt lat="45.94711" lon="4.85159">
        <ele>269</ele>
        <time>2017-06-18T08:49:36Z</time>
      </trkpt>
      <trkpt lat="45.94712" lon="4.85166">
        <ele>269</ele>
        <time>2017-06-18T08:49:37Z</time>
      </trkpt>
      <trkpt lat="45.94712" lon="4.85172">
        <ele>269</ele>
        <time>2017-06-18T08:49:38Z</time>
      </trkpt>
      <trkpt lat="45.94713" lon="4.85179">
        <ele>269</ele>
        <time>2017-06-18T08:49:39Z</time>
      </trkpt>
      <trkpt lat="45.94714" lon="4.85185">
        <ele>269</ele>
        <time>2017-06-18T08:49:40Z</time>
      </trkpt>
      <trkpt lat="45.94715" lon="4.85192">
        <ele>269</ele>
        <time>2017-06-18T08:49:41Z</time>
      </trkpt>
      <trkpt lat="45.94715" lon="4.85199">
        <ele>269</ele>
        <time>2017-06-18T08:49:42Z</time>
      </trkpt>
      <trkpt lat="45.94716" lon="4.85207">
        <ele>269</ele>
        <time>2017-06-18T08:49:43Z</time>
      </trkpt>
      <trkpt lat="45.94717" lon="4.85214">
        <ele>269</ele>
        <time>2017-06-18T08:49:44Z</time>
      </trkpt>
      <trkpt lat="45.94718" lon="4.85222">
        <ele>269</ele>
        <time>2017-06-18T08:49:45Z</time>
      </trkpt>
      <trkpt lat="45.94719" lon="4.85229">
        <ele>269</ele>
        <time>2017-06-18T08:49:46Z</time>
      </trkpt>
      <trkpt lat="45.94719" lon="4.85237">
        <ele>269</ele>
        <time>2017-06-18T08:49:47Z</time>
      </trkpt>
      <trkpt lat="45.9472" lon="4.85244">
        <ele>269</ele>
        <time>2017-06-18T08:49:48Z</time>
      </trkpt>
      <trkpt lat="45.94721" lon="4.85251">
        <ele>269</ele>
        <time>2017-06-18T08:49:49Z</time>
      </trkpt>
      <trkpt lat="45.94721" lon="4.85257">
        <ele>269</ele>
        <time>2017-06-18T08:49:50Z</time>
      </trkpt>
      <trkpt lat="45.94722" lon="4.85264">
        <ele>269</ele>
        <time>2017-06-18T08:49:51Z</time>
      </trkpt>
      <trkpt lat="45.94723" lon="4.85276">
        <ele>269</ele>
        <time>2017-06-18T08:49:53Z</time>
      </trkpt>
      <trkpt lat="45.94724" lon="4.85282">
        <ele>269</ele>
        <time>2017-06-18T08:49:54Z</time>
      </trkpt>
      <trkpt lat="45.94724" lon="4.85288">
        <ele>269</ele>
        <time>2017-06-18T08:49:55Z</time>
      </trkpt>
      <trkpt lat="45.94725" lon="4.85295">
        <ele>270</ele>
        <time>2017-06-18T08:49:56Z</time>
      </trkpt>
      <trkpt lat="45.94725" lon="4.85302">
        <ele>270</ele>
        <time>2017-06-18T08:49:57Z</time>
      </trkpt>
      <trkpt lat="45.94726" lon="4.8531">
        <ele>270</ele>
        <time>2017-06-18T08:49:58Z</time>
      </trkpt>
      <trkpt lat="45.94727" lon="4.85318">
        <ele>270</ele>
        <time>2017-06-18T08:49:59Z</time>
      </trkpt>
      <trkpt lat="45.94728" lon="4.85327">
        <ele>270</ele>
        <time>2017-06-18T08:50:00Z</time>
      </trkpt>
      <trkpt lat="45.94729" lon="4.85335">
        <ele>271</ele>
        <time>2017-06-18T08:50:01Z</time>
      </trkpt>
      <trkpt lat="45.9473" lon="4.85344">
        <ele>271</ele>
        <time>2017-06-18T08:50:02Z</time>
      </trkpt>
      <trkpt lat="45.94731" lon="4.85352">
        <ele>271</ele>
        <time>2017-06-18T08:50:03Z</time>
      </trkpt>
      <trkpt lat="45.94732" lon="4.85361">
        <ele>271</ele>
        <time>2017-06-18T08:50:04Z</time>
      </trkpt>
      <trkpt lat="45.94733" lon="4.85369">
        <ele>271</ele>
        <time>2017-06-18T08:50:05Z</time>
      </trkpt>
      <trkpt lat="45.94733" lon="4.85377">
        <ele>271</ele>
        <time>2017-06-18T08:50:06Z</time>
      </trkpt>
      <trkpt lat="45.94734" lon="4.85386">
        <ele>272</ele>
        <time>2017-06-18T08:50:07Z</time>
      </trkpt>
      <trkpt lat="45.94735" lon="4.85394">
        <ele>272</ele>
        <time>2017-06-18T08:50:08Z</time>
      </trkpt>
      <trkpt lat="45.94736" lon="4.85402">
        <ele>272</ele>
        <time>2017-06-18T08:50:09Z</time>
      </trkpt>
      <trkpt lat="45.94737" lon="4.8541">
        <ele>272</ele>
        <time>2017-06-18T08:50:10Z</time>
      </trkpt>
      <trkpt lat="45.94738" lon="4.85418">
        <ele>273</ele>
        <time>2017-06-18T08:50:11Z</time>
      </trkpt>
      <trkpt lat="45.94739" lon="4.85425">
        <ele>273</ele>
        <time>2017-06-18T08:50:12Z</time>
      </trkpt>
      <trkpt lat="45.94739" lon="4.85431">
        <ele>273</ele>
        <time>2017-06-18T08:50:13Z</time>
      </trkpt>
      <trkpt lat="45.9474" lon="4.85438">
        <ele>274</ele>
        <time>2017-06-18T08:50:14Z</time>
      </trkpt>
      <trkpt lat="45.94741" lon="4.85445">
        <ele>274</ele>
        <time>2017-06-18T08:50:15Z</time>
      </trkpt>
      <trkpt lat="45.94742" lon="4.85451">
        <ele>274</ele>
        <time>2017-06-18T08:50:16Z</time>
      </trkpt>
      <trkpt lat="45.94743" lon="4.85458">
        <ele>274</ele>
        <time>2017-06-18T08:50:17Z</time>
      </trkpt>
      <trkpt lat="45.94744" lon="4.85465">
        <ele>274</ele>
        <time>2017-06-18T08:50:18Z</time>
      </trkpt>
      <trkpt lat="45.94744" lon="4.85472">
        <ele>274</ele>
        <time>2017-06-18T08:50:19Z</time>
      </trkpt>
      <trkpt lat="45.94745" lon="4.85479">
        <ele>275</ele>
        <time>2017-06-18T08:50:20Z</time>
      </trkpt>
      <trkpt lat="45.94746" lon="4.85486">
        <ele>275</ele>
        <time>2017-06-18T08:50:21Z</time>
      </trkpt>
      <trkpt lat="45.94748" lon="4.85493">
        <ele>275</ele>
        <time>2017-06-18T08:50:22Z</time>
      </trkpt>
      <trkpt lat="45.94749" lon="4.85501">
        <ele>276</ele>
        <time>2017-06-18T08:50:23Z</time>
      </trkpt>
      <trkpt lat="45.94749" lon="4.85508">
        <ele>276</ele>
        <time>2017-06-18T08:50:24Z</time>
      </trkpt>
      <trkpt lat="45.9475" lon="4.85516">
        <ele>277</ele>
        <time>2017-06-18T08:50:25Z</time>
      </trkpt>
      <trkpt lat="45.94752" lon="4.85523">
        <ele>277</ele>
        <time>2017-06-18T08:50:26Z</time>
      </trkpt>
      <trkpt lat="45.94753" lon="4.85531">
        <ele>278</ele>
        <time>2017-06-18T08:50:27Z</time>
      </trkpt>
      <trkpt lat="45.94754" lon="4.85538">
        <ele>278</ele>
        <time>2017-06-18T08:50:28Z</time>
      </trkpt>
      <trkpt lat="45.94755" lon="4.85545">
        <ele>278</ele>
        <time>2017-06-18T08:50:29Z</time>
      </trkpt>
      <trkpt lat="45.94756" lon="4.85551">
        <ele>278</ele>
        <time>2017-06-18T08:50:30Z</time>
      </trkpt>
      <trkpt lat="45.94757" lon="4.85558">
        <ele>278</ele>
        <time>2017-06-18T08:50:31Z</time>
      </trkpt>
      <trkpt lat="45.94758" lon="4.85565">
        <ele>279</ele>
        <time>2017-06-18T08:50:32Z</time>
      </trkpt>
      <trkpt lat="45.94759" lon="4.85573">
        <ele>279</ele>
        <time>2017-06-18T08:50:33Z</time>
      </trkpt>
      <trkpt lat="45.94761" lon="4.8558">
        <ele>279</ele>
        <time>2017-06-18T08:50:34Z</time>
      </trkpt>
      <trkpt lat="45.94762" lon="4.85587">
        <ele>280</ele>
        <time>2017-06-18T08:50:35Z</time>
      </trkpt>
      <trkpt lat="45.94764" lon="4.85594">
        <ele>280</ele>
        <time>2017-06-18T08:50:36Z</time>
      </trkpt>
      <trkpt lat="45.94765" lon="4.85602">
        <ele>280</ele>
        <time>2017-06-18T08:50:37Z</time>
      </trkpt>
      <trkpt lat="45.94767" lon="4.85609">
        <ele>280</ele>
        <time>2017-06-18T08:50:38Z</time>
      </trkpt>
      <trkpt lat="45.94769" lon="4.85616">
        <ele>280</ele>
        <time>2017-06-18T08:50:39Z</time>
      </trkpt>
      <trkpt lat="45.94771" lon="4.85624">
        <ele>280</ele>
        <time>2017-06-18T08:50:40Z</time>
      </trkpt>
      <trkpt lat="45.94773" lon="4.85631">
        <ele>280</ele>
        <time>2017-06-18T08:50:41Z</time>
      </trkpt>
      <trkpt lat="45.94775" lon="4.85638">
        <ele>281</ele>
        <time>2017-06-18T08:50:42Z</time>
      </trkpt>
      <trkpt lat="45.94777" lon="4.85644">
        <ele>281</ele>
        <time>2017-06-18T08:50:43Z</time>
      </trkpt>
      <trkpt lat="45.94778" lon="4.8565">
        <ele>281</ele>
        <time>2017-06-18T08:50:44Z</time>
      </trkpt>
      <trkpt lat="45.9478" lon="4.85656">
        <ele>281</ele>
        <time>2017-06-18T08:50:45Z</time>
      </trkpt>
      <trkpt lat="45.94781" lon="4.85662">
        <ele>281</ele>
        <time>2017-06-18T08:50:46Z</time>
      </trkpt>
      <trkpt lat="45.94784" lon="4.85673">
        <ele>280</ele>
        <time>2017-06-18T08:50:48Z</time>
      </trkpt>
      <trkpt lat="45.94785" lon="4.85679">
        <ele>280</ele>
        <time>2017-06-18T08:50:49Z</time>
      </trkpt>
      <trkpt lat="45.94788" lon="4.8569">
        <ele>280</ele>
        <time>2017-06-18T08:50:51Z</time>
      </trkpt>
      <trkpt lat="45.94789" lon="4.85695">
        <ele>280</ele>
        <time>2017-06-18T08:50:52Z</time>
      </trkpt>
      <trkpt lat="45.94792" lon="4.85705">
        <ele>280</ele>
        <time>2017-06-18T08:50:54Z</time>
      </trkpt>
      <trkpt lat="45.94795" lon="4.85711">
        <ele>280</ele>
        <time>2017-06-18T08:50:55Z</time>
      </trkpt>
      <trkpt lat="45.94796" lon="4.85717">
        <ele>280</ele>
        <time>2017-06-18T08:50:56Z</time>
      </trkpt>
      <trkpt lat="45.94798" lon="4.85723">
        <ele>280</ele>
        <time>2017-06-18T08:50:57Z</time>
      </trkpt>
      <trkpt lat="45.94799" lon="4.8573">
        <ele>280</ele>
        <time>2017-06-18T08:50:58Z</time>
      </trkpt>
      <trkpt lat="45.948" lon="4.85736">
        <ele>280</ele>
        <time>2017-06-18T08:50:59Z</time>
      </trkpt>
      <trkpt lat="45.94801" lon="4.85742">
        <ele>279</ele>
        <time>2017-06-18T08:51:00Z</time>
      </trkpt>
      <trkpt lat="45.94803" lon="4.85749">
        <ele>279</ele>
        <time>2017-06-18T08:51:01Z</time>
      </trkpt>
      <trkpt lat="45.94804" lon="4.85756">
        <ele>278</ele>
        <time>2017-06-18T08:51:02Z</time>
      </trkpt>
      <trkpt lat="45.94806" lon="4.85762">
        <ele>278</ele>
        <time>2017-06-18T08:51:03Z</time>
      </trkpt>
      <trkpt lat="45.94807" lon="4.85769">
        <ele>278</ele>
        <time>2017-06-18T08:51:04Z</time>
      </trkpt>
      <trkpt lat="45.94809" lon="4.85776">
        <ele>278</ele>
        <time>2017-06-18T08:51:05Z</time>
      </trkpt>
      <trkpt lat="45.94811" lon="4.85783">
        <ele>278</ele>
        <time>2017-06-18T08:51:06Z</time>
      </trkpt>
      <trkpt lat="45.94813" lon="4.85789">
        <ele>278</ele>
        <time>2017-06-18T08:51:07Z</time>
      </trkpt>
      <trkpt lat="45.94815" lon="4.85796">
        <ele>278</ele>
        <time>2017-06-18T08:51:08Z</time>
      </trkpt>
      <trkpt lat="45.94817" lon="4.85803">
        <ele>278</ele>
        <time>2017-06-18T08:51:09Z</time>
      </trkpt>
      <trkpt lat="45.94818" lon="4.8581">
        <ele>278</ele>
        <time>2017-06-18T08:51:10Z</time>
      </trkpt>
      <trkpt lat="45.9482" lon="4.85817">
        <ele>278</ele>
        <time>2017-06-18T08:51:11Z</time>
      </trkpt>
      <trkpt lat="45.94822" lon="4.85824">
        <ele>278</ele>
        <time>2017-06-18T08:51:12Z</time>
      </trkpt>
      <trkpt lat="45.94824" lon="4.8583">
        <ele>277</ele>
        <time>2017-06-18T08:51:13Z</time>
      </trkpt>
      <trkpt lat="45.94825" lon="4.85836">
        <ele>277</ele>
        <time>2017-06-18T08:51:14Z</time>
      </trkpt>
      <trkpt lat="45.94827" lon="4.85843">
        <ele>277</ele>
        <time>2017-06-18T08:51:15Z</time>
      </trkpt>
      <trkpt lat="45.94829" lon="4.8585">
        <ele>277</ele>
        <time>2017-06-18T08:51:16Z</time>
      </trkpt>
      <trkpt lat="45.94831" lon="4.85857">
        <ele>277</ele>
        <time>2017-06-18T08:51:17Z</time>
      </trkpt>
      <trkpt lat="45.94833" lon="4.85863">
        <ele>277</ele>
        <time>2017-06-18T08:51:18Z</time>
      </trkpt>
      <trkpt lat="45.94834" lon="4.8587">
        <ele>276</ele>
        <time>2017-06-18T08:51:19Z</time>
      </trkpt>
      <trkpt lat="45.94837" lon="4.85877">
        <ele>276</ele>
        <time>2017-06-18T08:51:20Z</time>
      </trkpt>
      <trkpt lat="45.94838" lon="4.85884">
        <ele>276</ele>
        <time>2017-06-18T08:51:21Z</time>
      </trkpt>
      <trkpt lat="45.9484" lon="4.85891">
        <ele>276</ele>
        <time>2017-06-18T08:51:22Z</time>
      </trkpt>
      <trkpt lat="45.94842" lon="4.85899">
        <ele>276</ele>
        <time>2017-06-18T08:51:23Z</time>
      </trkpt>
      <trkpt lat="45.94844" lon="4.85906">
        <ele>275</ele>
        <time>2017-06-18T08:51:24Z</time>
      </trkpt>
      <trkpt lat="45.94846" lon="4.85913">
        <ele>275</ele>
        <time>2017-06-18T08:51:25Z</time>
      </trkpt>
      <trkpt lat="45.94848" lon="4.8592">
        <ele>275</ele>
        <time>2017-06-18T08:51:26Z</time>
      </trkpt>
      <trkpt lat="45.9485" lon="4.85927">
        <ele>275</ele>
        <time>2017-06-18T08:51:27Z</time>
      </trkpt>
      <trkpt lat="45.94851" lon="4.85934">
        <ele>275</ele>
        <time>2017-06-18T08:51:28Z</time>
      </trkpt>
      <trkpt lat="45.94853" lon="4.85941">
        <ele>275</ele>
        <time>2017-06-18T08:51:29Z</time>
      </trkpt>
      <trkpt lat="45.94855" lon="4.85948">
        <ele>275</ele>
        <time>2017-06-18T08:51:30Z</time>
      </trkpt>
      <trkpt lat="45.94857" lon="4.85956">
        <ele>275</ele>
        <time>2017-06-18T08:51:31Z</time>
      </trkpt>
      <trkpt lat="45.94859" lon="4.85963">
        <ele>275</ele>
        <time>2017-06-18T08:51:32Z</time>
      </trkpt>
      <trkpt lat="45.9486" lon="4.8597">
        <ele>275</ele>
        <time>2017-06-18T08:51:33Z</time>
      </trkpt>
      <trkpt lat="45.94862" lon="4.85977">
        <ele>275</ele>
        <time>2017-06-18T08:51:34Z</time>
      </trkpt>
      <trkpt lat="45.94864" lon="4.85985">
        <ele>275</ele>
        <time>2017-06-18T08:51:35Z</time>
      </trkpt>
      <trkpt lat="45.94866" lon="4.85992">
        <ele>275</ele>
        <time>2017-06-18T08:51:36Z</time>
      </trkpt>
      <trkpt lat="45.94868" lon="4.85999">
        <ele>275</ele>
        <time>2017-06-18T08:51:37Z</time>
      </trkpt>
      <trkpt lat="45.9487" lon="4.86005">
        <ele>274</ele>
        <time>2017-06-18T08:51:38Z</time>
      </trkpt>
      <trkpt lat="45.94871" lon="4.86012">
        <ele>274</ele>
        <time>2017-06-18T08:51:39Z</time>
      </trkpt>
      <trkpt lat="45.94873" lon="4.86019">
        <ele>274</ele>
        <time>2017-06-18T08:51:40Z</time>
      </trkpt>
      <trkpt lat="45.94875" lon="4.86026">
        <ele>274</ele>
        <time>2017-06-18T08:51:41Z</time>
      </trkpt>
      <trkpt lat="45.94877" lon="4.86033">
        <ele>274</ele>
        <time>2017-06-18T08:51:42Z</time>
      </trkpt>
      <trkpt lat="45.94879" lon="4.8604">
        <ele>274</ele>
        <time>2017-06-18T08:51:43Z</time>
      </trkpt>
      <trkpt lat="45.94881" lon="4.86047">
        <ele>274</ele>
        <time>2017-06-18T08:51:44Z</time>
      </trkpt>
      <trkpt lat="45.94883" lon="4.86053">
        <ele>274</ele>
        <time>2017-06-18T08:51:45Z</time>
      </trkpt>
      <trkpt lat="45.94885" lon="4.86059">
        <ele>274</ele>
        <time>2017-06-18T08:51:46Z</time>
      </trkpt>
      <trkpt lat="45.94886" lon="4.86066">
        <ele>274</ele>
        <time>2017-06-18T08:51:47Z</time>
      </trkpt>
      <trkpt lat="45.94888" lon="4.86072">
        <ele>274</ele>
        <time>2017-06-18T08:51:48Z</time>
      </trkpt>
      <trkpt lat="45.9489" lon="4.86078">
        <ele>274</ele>
        <time>2017-06-18T08:51:49Z</time>
      </trkpt>
      <trkpt lat="45.94892" lon="4.86085">
        <ele>274</ele>
        <time>2017-06-18T08:51:50Z</time>
      </trkpt>
      <trkpt lat="45.94894" lon="4.86091">
        <ele>274</ele>
        <time>2017-06-18T08:51:51Z</time>
      </trkpt>
      <trkpt lat="45.94896" lon="4.86097">
        <ele>274</ele>
        <time>2017-06-18T08:51:52Z</time>
      </trkpt>
      <trkpt lat="45.94899" lon="4.86104">
        <ele>274</ele>
        <time>2017-06-18T08:51:53Z</time>
      </trkpt>
      <trkpt lat="45.94901" lon="4.8611">
        <ele>274</ele>
        <time>2017-06-18T08:51:54Z</time>
      </trkpt>
      <trkpt lat="45.94904" lon="4.86117">
        <ele>274</ele>
        <time>2017-06-18T08:51:55Z</time>
      </trkpt>
      <trkpt lat="45.94907" lon="4.86123">
        <ele>274</ele>
        <time>2017-06-18T08:51:56Z</time>
      </trkpt>
      <trkpt lat="45.94909" lon="4.8613">
        <ele>274</ele>
        <time>2017-06-18T08:51:57Z</time>
      </trkpt>
      <trkpt lat="45.94913" lon="4.86136">
        <ele>274</ele>
        <time>2017-06-18T08:51:58Z</time>
      </trkpt>
      <trkpt lat="45.94916" lon="4.86142">
        <ele>274</ele>
        <time>2017-06-18T08:51:59Z</time>
      </trkpt>
      <trkpt lat="45.9492" lon="4.86147">
        <ele>273</ele>
        <time>2017-06-18T08:52:00Z</time>
      </trkpt>
      <trkpt lat="45.94923" lon="4.86153">
        <ele>273</ele>
        <time>2017-06-18T08:52:01Z</time>
      </trkpt>
      <trkpt lat="45.94927" lon="4.86159">
        <ele>273</ele>
        <time>2017-06-18T08:52:02Z</time>
      </trkpt>
      <trkpt lat="45.94931" lon="4.86164">
        <ele>273</ele>
        <time>2017-06-18T08:52:03Z</time>
      </trkpt>
      <trkpt lat="45.94935" lon="4.86169">
        <ele>273</ele>
        <time>2017-06-18T08:52:04Z</time>
      </trkpt>
      <trkpt lat="45.94939" lon="4.86173">
        <ele>273</ele>
        <time>2017-06-18T08:52:05Z</time>
      </trkpt>
      <trkpt lat="45.94943" lon="4.86178">
        <ele>273</ele>
        <time>2017-06-18T08:52:06Z</time>
      </trkpt>
      <trkpt lat="45.94947" lon="4.86183">
        <ele>273</ele>
        <time>2017-06-18T08:52:07Z</time>
      </trkpt>
      <trkpt lat="45.94951" lon="4.86188">
        <ele>273</ele>
        <time>2017-06-18T08:52:08Z</time>
      </trkpt>
      <trkpt lat="45.94955" lon="4.86193">
        <ele>273</ele>
        <time>2017-06-18T08:52:09Z</time>
      </trkpt>
      <trkpt lat="45.94959" lon="4.86198">
        <ele>272</ele>
        <time>2017-06-18T08:52:10Z</time>
      </trkpt>
      <trkpt lat="45.94964" lon="4.86203">
        <ele>272</ele>
        <time>2017-06-18T08:52:11Z</time>
      </trkpt>
      <trkpt lat="45.94968" lon="4.86208">
        <ele>272</ele>
        <time>2017-06-18T08:52:12Z</time>
      </trkpt>
      <trkpt lat="45.94972" lon="4.86213">
        <ele>272</ele>
        <time>2017-06-18T08:52:13Z</time>
      </trkpt>
      <trkpt lat="45.94976" lon="4.86217">
        <ele>272</ele>
        <time>2017-06-18T08:52:14Z</time>
      </trkpt>
      <trkpt lat="45.9498" lon="4.86222">
        <ele>272</ele>
        <time>2017-06-18T08:52:15Z</time>
      </trkpt>
      <trkpt lat="45.94984" lon="4.86227">
        <ele>272</ele>
        <time>2017-06-18T08:52:16Z</time>
      </trkpt>
      <trkpt lat="45.94988" lon="4.86233">
        <ele>272</ele>
        <time>2017-06-18T08:52:17Z</time>
      </trkpt>
      <trkpt lat="45.94992" lon="4.86237">
        <ele>272</ele>
        <time>2017-06-18T08:52:18Z</time>
      </trkpt>
      <trkpt lat="45.94996" lon="4.86242">
        <ele>272</ele>
        <time>2017-06-18T08:52:19Z</time>
      </trkpt>
      <trkpt lat="45.95" lon="4.86248">
        <ele>272</ele>
        <time>2017-06-18T08:52:20Z</time>
      </trkpt>
      <trkpt lat="45.95004" lon="4.86253">
        <ele>272</ele>
        <time>2017-06-18T08:52:21Z</time>
      </trkpt>
      <trkpt lat="45.95008" lon="4.86258">
        <ele>272</ele>
        <time>2017-06-18T08:52:22Z</time>
      </trkpt>
      <trkpt lat="45.95012" lon="4.86263">
        <ele>272</ele>
        <time>2017-06-18T08:52:23Z</time>
      </trkpt>
      <trkpt lat="45.95016" lon="4.86268">
        <ele>271</ele>
        <time>2017-06-18T08:52:24Z</time>
      </trkpt>
      <trkpt lat="45.9502" lon="4.86273">
        <ele>271</ele>
        <time>2017-06-18T08:52:25Z</time>
      </trkpt>
      <trkpt lat="45.95025" lon="4.86278">
        <ele>271</ele>
        <time>2017-06-18T08:52:26Z</time>
      </trkpt>
      <trkpt lat="45.95029" lon="4.86284">
        <ele>271</ele>
        <time>2017-06-18T08:52:27Z</time>
      </trkpt>
      <trkpt lat="45.95033" lon="4.86289">
        <ele>271</ele>
        <time>2017-06-18T08:52:28Z</time>
      </trkpt>
      <trkpt lat="45.95037" lon="4.86295">
        <ele>271</ele>
        <time>2017-06-18T08:52:29Z</time>
      </trkpt>
      <trkpt lat="45.95042" lon="4.863">
        <ele>271</ele>
        <time>2017-06-18T08:52:30Z</time>
      </trkpt>
      <trkpt lat="45.95046" lon="4.86305">
        <ele>271</ele>
        <time>2017-06-18T08:52:31Z</time>
      </trkpt>
      <trkpt lat="45.95051" lon="4.86311">
        <ele>271</ele>
        <time>2017-06-18T08:52:32Z</time>
      </trkpt>
      <trkpt lat="45.95055" lon="4.86316">
        <ele>271</ele>
        <time>2017-06-18T08:52:33Z</time>
      </trkpt>
      <trkpt lat="45.95059" lon="4.86322">
        <ele>270</ele>
        <time>2017-06-18T08:52:34Z</time>
      </trkpt>
      <trkpt lat="45.95064" lon="4.86327">
        <ele>270</ele>
        <time>2017-06-18T08:52:35Z</time>
      </trkpt>
      <trkpt lat="45.95068" lon="4.86333">
        <ele>270</ele>
        <time>2017-06-18T08:52:36Z</time>
      </trkpt>
      <trkpt lat="45.95072" lon="4.86338">
        <ele>270</ele>
        <time>2017-06-18T08:52:37Z</time>
      </trkpt>
      <trkpt lat="45.95077" lon="4.86343">
        <ele>270</ele>
        <time>2017-06-18T08:52:38Z</time>
      </trkpt>
      <trkpt lat="45.95081" lon="4.86348">
        <ele>270</ele>
        <time>2017-06-18T08:52:39Z</time>
      </trkpt>
      <trkpt lat="45.95085" lon="4.86353">
        <ele>269</ele>
        <time>2017-06-18T08:52:40Z</time>
      </trkpt>
      <trkpt lat="45.95089" lon="4.86359">
        <ele>269</ele>
        <time>2017-06-18T08:52:41Z</time>
      </trkpt>
      <trkpt lat="45.95094" lon="4.86364">
        <ele>269</ele>
        <time>2017-06-18T08:52:42Z</time>
      </trkpt>
      <trkpt lat="45.95098" lon="4.86369">
        <ele>269</ele>
        <time>2017-06-18T08:52:43Z</time>
      </trkpt>
      <trkpt lat="45.95102" lon="4.86374">
        <ele>269</ele>
        <time>2017-06-18T08:52:44Z</time>
      </trkpt>
      <trkpt lat="45.95106" lon="4.86379">
        <ele>269</ele>
        <time>2017-06-18T08:52:45Z</time>
      </trkpt>
      <trkpt lat="45.9511" lon="4.86383">
        <ele>269</ele>
        <time>2017-06-18T08:52:46Z</time>
      </trkpt>
      <trkpt lat="45.95114" lon="4.86388">
        <ele>269</ele>
        <time>2017-06-18T08:52:47Z</time>
      </trkpt>
      <trkpt lat="45.95118" lon="4.86393">
        <ele>269</ele>
        <time>2017-06-18T08:52:48Z</time>
      </trkpt>
      <trkpt lat="45.95122" lon="4.86398">
        <ele>269</ele>
        <time>2017-06-18T08:52:49Z</time>
      </trkpt>
      <trkpt lat="45.95125" lon="4.86402">
        <ele>268</ele>
        <time>2017-06-18T08:52:50Z</time>
      </trkpt>
      <trkpt lat="45.95129" lon="4.86406">
        <ele>268</ele>
        <time>2017-06-18T08:52:51Z</time>
      </trkpt>
      <trkpt lat="45.95133" lon="4.86411">
        <ele>268</ele>
        <time>2017-06-18T08:52:52Z</time>
      </trkpt>
      <trkpt lat="45.95137" lon="4.86416">
        <ele>268</ele>
        <time>2017-06-18T08:52:53Z</time>
      </trkpt>
      <trkpt lat="45.95141" lon="4.86421">
        <ele>269</ele>
        <time>2017-06-18T08:52:54Z</time>
      </trkpt>
      <trkpt lat="45.95145" lon="4.86425">
        <ele>268</ele>
        <time>2017-06-18T08:52:55Z</time>
      </trkpt>
      <trkpt lat="45.95149" lon="4.8643">
        <ele>268</ele>
        <time>2017-06-18T08:52:56Z</time>
      </trkpt>
      <trkpt lat="45.95153" lon="4.86434">
        <ele>268</ele>
        <time>2017-06-18T08:52:57Z</time>
      </trkpt>
      <trkpt lat="45.95157" lon="4.86439">
        <ele>268</ele>
        <time>2017-06-18T08:52:58Z</time>
      </trkpt>
      <trkpt lat="45.95161" lon="4.86445">
        <ele>269</ele>
        <time>2017-06-18T08:52:59Z</time>
      </trkpt>
      <trkpt lat="45.95165" lon="4.8645">
        <ele>269</ele>
        <time>2017-06-18T08:53:00Z</time>
      </trkpt>
      <trkpt lat="45.9517" lon="4.86456">
        <ele>268</ele>
        <time>2017-06-18T08:53:01Z</time>
      </trkpt>
      <trkpt lat="45.95175" lon="4.86462">
        <ele>268</ele>
        <time>2017-06-18T08:53:02Z</time>
      </trkpt>
      <trkpt lat="45.9518" lon="4.86468">
        <ele>268</ele>
        <time>2017-06-18T08:53:03Z</time>
      </trkpt>
      <trkpt lat="45.95185" lon="4.86473">
        <ele>268</ele>
        <time>2017-06-18T08:53:04Z</time>
      </trkpt>
      <trkpt lat="45.9519" lon="4.86479">
        <ele>268</ele>
        <time>2017-06-18T08:53:05Z</time>
      </trkpt>
      <trkpt lat="45.95195" lon="4.86485">
        <ele>268</ele>
        <time>2017-06-18T08:53:06Z</time>
      </trkpt>
      <trkpt lat="45.952" lon="4.86491">
        <ele>268</ele>
        <time>2017-06-18T08:53:07Z</time>
      </trkpt>
      <trkpt lat="45.95206" lon="4.86497">
        <ele>268</ele>
        <time>2017-06-18T08:53:08Z</time>
      </trkpt>
      <trkpt lat="45.95211" lon="4.86504">
        <ele>268</ele>
        <time>2017-06-18T08:53:09Z</time>
      </trkpt>
      <trkpt lat="45.95217" lon="4.8651">
        <ele>268</ele>
        <time>2017-06-18T08:53:10Z</time>
      </trkpt>
      <trkpt lat="45.95222" lon="4.86516">
        <ele>268</ele>
        <time>2017-06-18T08:53:11Z</time>
      </trkpt>
      <trkpt lat="45.95228" lon="4.86523">
        <ele>268</ele>
        <time>2017-06-18T08:53:12Z</time>
      </trkpt>
      <trkpt lat="45.95233" lon="4.86529">
        <ele>268</ele>
        <time>2017-06-18T08:53:13Z</time>
      </trkpt>
      <trkpt lat="45.95238" lon="4.86535">
        <ele>268</ele>
        <time>2017-06-18T08:53:14Z</time>
      </trkpt>
      <trkpt lat="45.95243" lon="4.86541">
        <ele>268</ele>
        <time>2017-06-18T08:53:15Z</time>
      </trkpt>
      <trkpt lat="45.95248" lon="4.86546">
        <ele>268</ele>
        <time>2017-06-18T08:53:16Z</time>
      </trkpt>
      <trkpt lat="45.95253" lon="4.86553">
        <ele>267</ele>
        <time>2017-06-18T08:53:17Z</time>
      </trkpt>
      <trkpt lat="45.95257" lon="4.86558">
        <ele>267</ele>
        <time>2017-06-18T08:53:18Z</time>
      </trkpt>
      <trkpt lat="45.95259" lon="4.86564">
        <ele>267</ele>
        <time>2017-06-18T08:53:19Z</time>
      </trkpt>
      <trkpt lat="45.95255" lon="4.8657">
        <ele>267</ele>
        <time>2017-06-18T08:53:20Z</time>
      </trkpt>
      <trkpt lat="45.95253" lon="4.86575">
        <ele>268</ele>
        <time>2017-06-18T08:53:21Z</time>
      </trkpt>
      <trkpt lat="45.95248" lon="4.86582">
        <ele>268</ele>
        <time>2017-06-18T08:53:23Z</time>
      </trkpt>
      <trkpt lat="45.95244" lon="4.86583">
        <ele>268</ele>
        <time>2017-06-18T08:53:24Z</time>
      </trkpt>
      <trkpt lat="45.95237" lon="4.86582">
        <ele>268</ele>
        <time>2017-06-18T08:53:26Z</time>
      </trkpt>
      <trkpt lat="45.95233" lon="4.86581">
        <ele>268</ele>
        <time>2017-06-18T08:53:27Z</time>
      </trkpt>
      <trkpt lat="45.95225" lon="4.8658">
        <ele>268</ele>
        <time>2017-06-18T08:53:29Z</time>
      </trkpt>
      <trkpt lat="45.9522" lon="4.8658">
        <ele>268</ele>
        <time>2017-06-18T08:53:30Z</time>
      </trkpt>
      <trkpt lat="45.95212" lon="4.86578">
        <ele>268</ele>
        <time>2017-06-18T08:53:32Z</time>
      </trkpt>
      <trkpt lat="45.95208" lon="4.86578">
        <ele>268</ele>
        <time>2017-06-18T08:53:33Z</time>
      </trkpt>
      <trkpt lat="45.95199" lon="4.86578">
        <ele>268</ele>
        <time>2017-06-18T08:53:35Z</time>
      </trkpt>
      <trkpt lat="45.95195" lon="4.86577">
        <ele>268</ele>
        <time>2017-06-18T08:53:36Z</time>
      </trkpt>
      <trkpt lat="45.95188" lon="4.86577">
        <ele>269</ele>
        <time>2017-06-18T08:53:38Z</time>
      </trkpt>
      <trkpt lat="45.95184" lon="4.86577">
        <ele>269</ele>
        <time>2017-06-18T08:53:39Z</time>
      </trkpt>
      <trkpt lat="45.95177" lon="4.86579">
        <ele>269</ele>
        <time>2017-06-18T08:53:41Z</time>
      </trkpt>
      <trkpt lat="45.95173" lon="4.8658">
        <ele>269</ele>
        <time>2017-06-18T08:53:42Z</time>
      </trkpt>
      <trkpt lat="45.95166" lon="4.86581">
        <ele>269</ele>
        <time>2017-06-18T08:53:44Z</time>
      </trkpt>
      <trkpt lat="45.95162" lon="4.86581">
        <ele>269</ele>
        <time>2017-06-18T08:53:45Z</time>
      </trkpt>
      <trkpt lat="45.95155" lon="4.8658">
        <ele>269</ele>
        <time>2017-06-18T08:53:47Z</time>
      </trkpt>
      <trkpt lat="45.95152" lon="4.8658">
        <ele>269</ele>
        <time>2017-06-18T08:53:48Z</time>
      </trkpt>
      <trkpt lat="45.95145" lon="4.86581">
        <ele>270</ele>
        <time>2017-06-18T08:53:50Z</time>
      </trkpt>
      <trkpt lat="45.9514" lon="4.86582">
        <ele>270</ele>
        <time>2017-06-18T08:53:51Z</time>
      </trkpt>
      <trkpt lat="45.95133" lon="4.86583">
        <ele>270</ele>
        <time>2017-06-18T08:53:53Z</time>
      </trkpt>
      <trkpt lat="45.95129" lon="4.86583">
        <ele>270</ele>
        <time>2017-06-18T08:53:54Z</time>
      </trkpt>
      <trkpt lat="45.95122" lon="4.86584">
        <ele>270</ele>
        <time>2017-06-18T08:53:56Z</time>
      </trkpt>
      <trkpt lat="45.95119" lon="4.86585">
        <ele>270</ele>
        <time>2017-06-18T08:53:57Z</time>
      </trkpt>
      <trkpt lat="45.95111" lon="4.86587">
        <ele>271</ele>
        <time>2017-06-18T08:53:59Z</time>
      </trkpt>
      <trkpt lat="45.95108" lon="4.86588">
        <ele>271</ele>
        <time>2017-06-18T08:54:00Z</time>
      </trkpt>
      <trkpt lat="45.951" lon="4.86589">
        <ele>271</ele>
        <time>2017-06-18T08:54:02Z</time>
      </trkpt>
      <trkpt lat="45.95097" lon="4.8659">
        <ele>271</ele>
        <time>2017-06-18T08:54:03Z</time>
      </trkpt>
      <trkpt lat="45.9509" lon="4.86591">
        <ele>271</ele>
        <time>2017-06-18T08:54:05Z</time>
      </trkpt>
      <trkpt lat="45.95086" lon="4.86592">
        <ele>271</ele>
        <time>2017-06-18T08:54:06Z</time>
      </trkpt>
      <trkpt lat="45.95079" lon="4.86594">
        <ele>272</ele>
        <time>2017-06-18T08:54:08Z</time>
      </trkpt>
      <trkpt lat="45.95075" lon="4.86595">
        <ele>272</ele>
        <time>2017-06-18T08:54:09Z</time>
      </trkpt>
      <trkpt lat="45.95068" lon="4.86597">
        <ele>272</ele>
        <time>2017-06-18T08:54:11Z</time>
      </trkpt>
      <trkpt lat="45.95065" lon="4.86599">
        <ele>272</ele>
        <time>2017-06-18T08:54:12Z</time>
      </trkpt>
      <trkpt lat="45.95058" lon="4.86602">
        <ele>272</ele>
        <time>2017-06-18T08:54:14Z</time>
      </trkpt>
      <trkpt lat="45.95055" lon="4.86603">
        <ele>272</ele>
        <time>2017-06-18T08:54:15Z</time>
      </trkpt>
      <trkpt lat="45.95048" lon="4.86605">
        <ele>272</ele>
        <time>2017-06-18T08:54:17Z</time>
      </trkpt>
      <trkpt lat="45.95044" lon="4.86606">
        <ele>272</ele>
        <time>2017-06-18T08:54:18Z</time>
      </trkpt>
      <trkpt lat="45.95037" lon="4.86608">
        <ele>273</ele>
        <time>2017-06-18T08:54:20Z</time>
      </trkpt>
      <trkpt lat="45.95033" lon="4.86609">
        <ele>273</ele>
        <time>2017-06-18T08:54:21Z</time>
      </trkpt>
      <trkpt lat="45.95027" lon="4.8661">
        <ele>273</ele>
        <time>2017-06-18T08:54:23Z</time>
      </trkpt>
      <trkpt lat="45.95023" lon="4.86611">
        <ele>273</ele>
        <time>2017-06-18T08:54:24Z</time>
      </trkpt>
      <trkpt lat="45.95017" lon="4.86613">
        <ele>273</ele>
        <time>2017-06-18T08:54:26Z</time>
      </trkpt>
      <trkpt lat="45.95013" lon="4.86613">
        <ele>273</ele>
        <time>2017-06-18T08:54:27Z</time>
      </trkpt>
      <trkpt lat="45.95006" lon="4.86614">
        <ele>273</ele>
        <time>2017-06-18T08:54:29Z</time>
      </trkpt>
      <trkpt lat="45.95003" lon="4.86614">
        <ele>273</ele>
        <time>2017-06-18T08:54:30Z</time>
      </trkpt>
      <trkpt lat="45.94995" lon="4.86615">
        <ele>275</ele>
        <time>2017-06-18T08:54:32Z</time>
      </trkpt>
      <trkpt lat="45.94991" lon="4.86615">
        <ele>275</ele>
        <time>2017-06-18T08:54:33Z</time>
      </trkpt>
      <trkpt lat="45.94984" lon="4.86617">
        <ele>275</ele>
        <time>2017-06-18T08:54:35Z</time>
      </trkpt>
      <trkpt lat="45.9498" lon="4.86618">
        <ele>275</ele>
        <time>2017-06-18T08:54:36Z</time>
      </trkpt>
      <trkpt lat="45.94974" lon="4.8662">
        <ele>275</ele>
        <time>2017-06-18T08:54:38Z</time>
      </trkpt>
      <trkpt lat="45.9497" lon="4.86622">
        <ele>275</ele>
        <time>2017-06-18T08:54:39Z</time>
      </trkpt>
      <trkpt lat="45.94963" lon="4.86627">
        <ele>275</ele>
        <time>2017-06-18T08:54:41Z</time>
      </trkpt>
      <trkpt lat="45.9496" lon="4.86629">
        <ele>275</ele>
        <time>2017-06-18T08:54:42Z</time>
      </trkpt>
      <trkpt lat="45.94953" lon="4.86637">
        <ele>276</ele>
        <time>2017-06-18T08:54:44Z</time>
      </trkpt>
      <trkpt lat="45.9495" lon="4.86641">
        <ele>276</ele>
        <time>2017-06-18T08:54:45Z</time>
      </trkpt>
      <trkpt lat="45.94946" lon="4.86651">
        <ele>276</ele>
        <time>2017-06-18T08:54:47Z</time>
      </trkpt>
      <trkpt lat="45.94944" lon="4.86656">
        <ele>276</ele>
        <time>2017-06-18T08:54:48Z</time>
      </trkpt>
      <trkpt lat="45.94942" lon="4.86667">
        <ele>276</ele>
        <time>2017-06-18T08:54:50Z</time>
      </trkpt>
      <trkpt lat="45.94942" lon="4.86673">
        <ele>276</ele>
        <time>2017-06-18T08:54:51Z</time>
      </trkpt>
      <trkpt lat="45.94942" lon="4.86684">
        <ele>276</ele>
        <time>2017-06-18T08:54:53Z</time>
      </trkpt>
      <trkpt lat="45.94943" lon="4.8669">
        <ele>276</ele>
        <time>2017-06-18T08:54:54Z</time>
      </trkpt>
      <trkpt lat="45.94944" lon="4.86701">
        <ele>276</ele>
        <time>2017-06-18T08:54:56Z</time>
      </trkpt>
      <trkpt lat="45.94945" lon="4.86706">
        <ele>275</ele>
        <time>2017-06-18T08:54:57Z</time>
      </trkpt>
      <trkpt lat="45.94947" lon="4.86716">
        <ele>275</ele>
        <time>2017-06-18T08:54:59Z</time>
      </trkpt>
      <trkpt lat="45.94948" lon="4.86722">
        <ele>275</ele>
        <time>2017-06-18T08:55:00Z</time>
      </trkpt>
      <trkpt lat="45.94952" lon="4.86731">
        <ele>275</ele>
        <time>2017-06-18T08:55:02Z</time>
      </trkpt>
      <trkpt lat="45.94954" lon="4.86736">
        <ele>275</ele>
        <time>2017-06-18T08:55:03Z</time>
      </trkpt>
      <trkpt lat="45.94957" lon="4.86745">
        <ele>275</ele>
        <time>2017-06-18T08:55:05Z</time>
      </trkpt>
      <trkpt lat="45.94959" lon="4.8675">
        <ele>275</ele>
        <time>2017-06-18T08:55:06Z</time>
      </trkpt>
      <trkpt lat="45.94964" lon="4.86759">
        <ele>275</ele>
        <time>2017-06-18T08:55:08Z</time>
      </trkpt>
      <trkpt lat="45.94966" lon="4.86763">
        <ele>275</ele>
        <time>2017-06-18T08:55:09Z</time>
      </trkpt>
      <trkpt lat="45.94971" lon="4.86773">
        <ele>275</ele>
        <time>2017-06-18T08:55:11Z</time>
      </trkpt>
      <trkpt lat="45.94974" lon="4.86777">
        <ele>275</ele>
        <time>2017-06-18T08:55:12Z</time>
      </trkpt>
      <trkpt lat="45.94979" lon="4.86786">
        <ele>276</ele>
        <time>2017-06-18T08:55:14Z</time>
      </trkpt>
      <trkpt lat="45.94981" lon="4.86791">
        <ele>276</ele>
        <time>2017-06-18T08:55:15Z</time>
      </trkpt>
      <trkpt lat="45.94986" lon="4.868">
        <ele>276</ele>
        <time>2017-06-18T08:55:17Z</time>
      </trkpt>
      <trkpt lat="45.94989" lon="4.86805">
        <ele>276</ele>
        <time>2017-06-18T08:55:18Z</time>
      </trkpt>
      <trkpt lat="45.94992" lon="4.8681">
        <ele>276</ele>
        <time>2017-06-18T08:55:19Z</time>
      </trkpt>
      <trkpt lat="45.94995" lon="4.86816">
        <ele>276</ele>
        <time>2017-06-18T08:55:20Z</time>
      </trkpt>
      <trkpt lat="45.94998" lon="4.86822">
        <ele>276</ele>
        <time>2017-06-18T08:55:21Z</time>
      </trkpt>
      <trkpt lat="45.95" lon="4.86828">
        <ele>276</ele>
        <time>2017-06-18T08:55:22Z</time>
      </trkpt>
      <trkpt lat="45.95003" lon="4.86834">
        <ele>276</ele>
        <time>2017-06-18T08:55:23Z</time>
      </trkpt>
      <trkpt lat="45.95005" lon="4.8684">
        <ele>276</ele>
        <time>2017-06-18T08:55:24Z</time>
      </trkpt>
      <trkpt lat="45.95007" lon="4.86846">
        <ele>276</ele>
        <time>2017-06-18T08:55:25Z</time>
      </trkpt>
      <trkpt lat="45.95009" lon="4.86853">
        <ele>275</ele>
        <time>2017-06-18T08:55:26Z</time>
      </trkpt>
      <trkpt lat="45.95011" lon="4.86859">
        <ele>275</ele>
        <time>2017-06-18T08:55:27Z</time>
      </trkpt>
      <trkpt lat="45.95013" lon="4.86865">
        <ele>275</ele>
        <time>2017-06-18T08:55:28Z</time>
      </trkpt>
      <trkpt lat="45.95015" lon="4.86871">
        <ele>275</ele>
        <time>2017-06-18T08:55:29Z</time>
      </trkpt>
      <trkpt lat="45.95017" lon="4.86877">
        <ele>275</ele>
        <time>2017-06-18T08:55:30Z</time>
      </trkpt>
      <trkpt lat="45.95019" lon="4.86883">
        <ele>275</ele>
        <time>2017-06-18T08:55:31Z</time>
      </trkpt>
      <trkpt lat="45.95022" lon="4.86889">
        <ele>275</ele>
        <time>2017-06-18T08:55:32Z</time>
      </trkpt>
      <trkpt lat="45.95025" lon="4.869">
        <ele>275</ele>
        <time>2017-06-18T08:55:34Z</time>
      </trkpt>
      <trkpt lat="45.95027" lon="4.86906">
        <ele>275</ele>
        <time>2017-06-18T08:55:35Z</time>
      </trkpt>
      <trkpt lat="45.95029" lon="4.86912">
        <ele>275</ele>
        <time>2017-06-18T08:55:36Z</time>
      </trkpt>
      <trkpt lat="45.9503" lon="4.86918">
        <ele>276</ele>
        <time>2017-06-18T08:55:37Z</time>
      </trkpt>
      <trkpt lat="45.95032" lon="4.86925">
        <ele>276</ele>
        <time>2017-06-18T08:55:38Z</time>
      </trkpt>
      <trkpt lat="45.95034" lon="4.86931">
        <ele>276</ele>
        <time>2017-06-18T08:55:39Z</time>
      </trkpt>
      <trkpt lat="45.95037" lon="4.86943">
        <ele>276</ele>
        <time>2017-06-18T08:55:41Z</time>
      </trkpt>
      <trkpt lat="45.95039" lon="4.86948">
        <ele>276</ele>
        <time>2017-06-18T08:55:42Z</time>
      </trkpt>
      <trkpt lat="45.95041" lon="4.86954">
        <ele>276</ele>
        <time>2017-06-18T08:55:43Z</time>
      </trkpt>
      <trkpt lat="45.95043" lon="4.8696">
        <ele>276</ele>
        <time>2017-06-18T08:55:44Z</time>
      </trkpt>
      <trkpt lat="45.95045" lon="4.86966">
        <ele>276</ele>
        <time>2017-06-18T08:55:45Z</time>
      </trkpt>
      <trkpt lat="45.95047" lon="4.86972">
        <ele>276</ele>
        <time>2017-06-18T08:55:46Z</time>
      </trkpt>
      <trkpt lat="45.95049" lon="4.86978">
        <ele>276</ele>
        <time>2017-06-18T08:55:47Z</time>
      </trkpt>
      <trkpt lat="45.95051" lon="4.86984">
        <ele>276</ele>
        <time>2017-06-18T08:55:48Z</time>
      </trkpt>
      <trkpt lat="45.95053" lon="4.86989">
        <ele>276</ele>
        <time>2017-06-18T08:55:49Z</time>
      </trkpt>
      <trkpt lat="45.95056" lon="4.86995">
        <ele>276</ele>
        <time>2017-06-18T08:55:50Z</time>
      </trkpt>
      <trkpt lat="45.95059" lon="4.87002">
        <ele>277</ele>
        <time>2017-06-18T08:55:51Z</time>
      </trkpt>
      <trkpt lat="45.95061" lon="4.87007">
        <ele>277</ele>
        <time>2017-06-18T08:55:52Z</time>
      </trkpt>
      <trkpt lat="45.95064" lon="4.87014">
        <ele>277</ele>
        <time>2017-06-18T08:55:53Z</time>
      </trkpt>
      <trkpt lat="45.95067" lon="4.8702">
        <ele>277</ele>
        <time>2017-06-18T08:55:54Z</time>
      </trkpt>
      <trkpt lat="45.9507" lon="4.87025">
        <ele>277</ele>
        <time>2017-06-18T08:55:55Z</time>
      </trkpt>
      <trkpt lat="45.95073" lon="4.8703">
        <ele>277</ele>
        <time>2017-06-18T08:55:56Z</time>
      </trkpt>
      <trkpt lat="45.95079" lon="4.87039">
        <ele>277</ele>
        <time>2017-06-18T08:55:58Z</time>
      </trkpt>
      <trkpt lat="45.95081" lon="4.87044">
        <ele>277</ele>
        <time>2017-06-18T08:55:59Z</time>
      </trkpt>
      <trkpt lat="45.95086" lon="4.87054">
        <ele>277</ele>
        <time>2017-06-18T08:56:01Z</time>
      </trkpt>
      <trkpt lat="45.95089" lon="4.8706">
        <ele>277</ele>
        <time>2017-06-18T08:56:02Z</time>
      </trkpt>
      <trkpt lat="45.95093" lon="4.87071">
        <ele>277</ele>
        <time>2017-06-18T08:56:04Z</time>
      </trkpt>
      <trkpt lat="45.95095" lon="4.87076">
        <ele>277</ele>
        <time>2017-06-18T08:56:05Z</time>
      </trkpt>
      <trkpt lat="45.95098" lon="4.87081">
        <ele>277</ele>
        <time>2017-06-18T08:56:06Z</time>
      </trkpt>
      <trkpt lat="45.951" lon="4.87087">
        <ele>277</ele>
        <time>2017-06-18T08:56:07Z</time>
      </trkpt>
      <trkpt lat="45.95104" lon="4.87098">
        <ele>277</ele>
        <time>2017-06-18T08:56:09Z</time>
      </trkpt>
      <trkpt lat="45.95106" lon="4.87103">
        <ele>277</ele>
        <time>2017-06-18T08:56:10Z</time>
      </trkpt>
      <trkpt lat="45.9511" lon="4.87114">
        <ele>277</ele>
        <time>2017-06-18T08:56:12Z</time>
      </trkpt>
      <trkpt lat="45.95111" lon="4.87119">
        <ele>277</ele>
        <time>2017-06-18T08:56:13Z</time>
      </trkpt>
      <trkpt lat="45.95113" lon="4.87129">
        <ele>277</ele>
        <time>2017-06-18T08:56:15Z</time>
      </trkpt>
      <trkpt lat="45.95115" lon="4.87134">
        <ele>277</ele>
        <time>2017-06-18T08:56:16Z</time>
      </trkpt>
      <trkpt lat="45.95118" lon="4.87145">
        <ele>277</ele>
        <time>2017-06-18T08:56:18Z</time>
      </trkpt>
      <trkpt lat="45.95119" lon="4.87151">
        <ele>277</ele>
        <time>2017-06-18T08:56:19Z</time>
      </trkpt>
      <trkpt lat="45.95121" lon="4.87157">
        <ele>276</ele>
        <time>2017-06-18T08:56:20Z</time>
      </trkpt>
      <trkpt lat="45.95123" lon="4.87164">
        <ele>276</ele>
        <time>2017-06-18T08:56:21Z</time>
      </trkpt>
      <trkpt lat="45.95122" lon="4.87172">
        <ele>276</ele>
        <time>2017-06-18T08:56:22Z</time>
      </trkpt>
      <trkpt lat="45.95122" lon="4.8718">
        <ele>276</ele>
        <time>2017-06-18T08:56:23Z</time>
      </trkpt>
      <trkpt lat="45.95123" lon="4.87187">
        <ele>276</ele>
        <time>2017-06-18T08:56:24Z</time>
      </trkpt>
      <trkpt lat="45.95124" lon="4.87194">
        <ele>276</ele>
        <time>2017-06-18T08:56:25Z</time>
      </trkpt>
      <trkpt lat="45.95126" lon="4.87202">
        <ele>276</ele>
        <time>2017-06-18T08:56:26Z</time>
      </trkpt>
      <trkpt lat="45.95128" lon="4.87211">
        <ele>276</ele>
        <time>2017-06-18T08:56:27Z</time>
      </trkpt>
      <trkpt lat="45.9513" lon="4.8722">
        <ele>276</ele>
        <time>2017-06-18T08:56:28Z</time>
      </trkpt>
      <trkpt lat="45.95132" lon="4.87229">
        <ele>276</ele>
        <time>2017-06-18T08:56:29Z</time>
      </trkpt>
      <trkpt lat="45.95134" lon="4.87239">
        <ele>276</ele>
        <time>2017-06-18T08:56:30Z</time>
      </trkpt>
      <trkpt lat="45.95136" lon="4.87248">
        <ele>276</ele>
        <time>2017-06-18T08:56:31Z</time>
      </trkpt>
      <trkpt lat="45.95138" lon="4.87258">
        <ele>275</ele>
        <time>2017-06-18T08:56:32Z</time>
      </trkpt>
      <trkpt lat="45.9514" lon="4.87267">
        <ele>274</ele>
        <time>2017-06-18T08:56:33Z</time>
      </trkpt>
      <trkpt lat="45.95143" lon="4.87278">
        <ele>274</ele>
        <time>2017-06-18T08:56:34Z</time>
      </trkpt>
      <trkpt lat="45.95145" lon="4.87288">
        <ele>274</ele>
        <time>2017-06-18T08:56:35Z</time>
      </trkpt>
      <trkpt lat="45.95148" lon="4.87299">
        <ele>274</ele>
        <time>2017-06-18T08:56:36Z</time>
      </trkpt>
      <trkpt lat="45.9515" lon="4.8731">
        <ele>274</ele>
        <time>2017-06-18T08:56:37Z</time>
      </trkpt>
      <trkpt lat="45.95153" lon="4.8732">
        <ele>273</ele>
        <time>2017-06-18T08:56:38Z</time>
      </trkpt>
      <trkpt lat="45.95156" lon="4.87331">
        <ele>272</ele>
        <time>2017-06-18T08:56:39Z</time>
      </trkpt>
      <trkpt lat="45.95159" lon="4.87342">
        <ele>272</ele>
        <time>2017-06-18T08:56:40Z</time>
      </trkpt>
      <trkpt lat="45.95161" lon="4.87353">
        <ele>272</ele>
        <time>2017-06-18T08:56:41Z</time>
      </trkpt>
      <trkpt lat="45.95163" lon="4.87363">
        <ele>272</ele>
        <time>2017-06-18T08:56:42Z</time>
      </trkpt>
      <trkpt lat="45.95165" lon="4.87373">
        <ele>272</ele>
        <time>2017-06-18T08:56:43Z</time>
      </trkpt>
      <trkpt lat="45.95168" lon="4.87382">
        <ele>271</ele>
        <time>2017-06-18T08:56:44Z</time>
      </trkpt>
      <trkpt lat="45.9517" lon="4.87391">
        <ele>271</ele>
        <time>2017-06-18T08:56:45Z</time>
      </trkpt>
      <trkpt lat="45.95172" lon="4.874">
        <ele>271</ele>
        <time>2017-06-18T08:56:46Z</time>
      </trkpt>
      <trkpt lat="45.95174" lon="4.87409">
        <ele>271</ele>
        <time>2017-06-18T08:56:47Z</time>
      </trkpt>
      <trkpt lat="45.95176" lon="4.87417">
        <ele>271</ele>
        <time>2017-06-18T08:56:48Z</time>
      </trkpt>
      <trkpt lat="45.95178" lon="4.87425">
        <ele>271</ele>
        <time>2017-06-18T08:56:49Z</time>
      </trkpt>
      <trkpt lat="45.9518" lon="4.87434">
        <ele>271</ele>
        <time>2017-06-18T08:56:50Z</time>
      </trkpt>
      <trkpt lat="45.95182" lon="4.87442">
        <ele>272</ele>
        <time>2017-06-18T08:56:51Z</time>
      </trkpt>
      <trkpt lat="45.95183" lon="4.8745">
        <ele>272</ele>
        <time>2017-06-18T08:56:52Z</time>
      </trkpt>
      <trkpt lat="45.95185" lon="4.87459">
        <ele>272</ele>
        <time>2017-06-18T08:56:53Z</time>
      </trkpt>
      <trkpt lat="45.95186" lon="4.87467">
        <ele>272</ele>
        <time>2017-06-18T08:56:54Z</time>
      </trkpt>
      <trkpt lat="45.95188" lon="4.87474">
        <ele>272</ele>
        <time>2017-06-18T08:56:55Z</time>
      </trkpt>
      <trkpt lat="45.9519" lon="4.87481">
        <ele>272</ele>
        <time>2017-06-18T08:56:56Z</time>
      </trkpt>
      <trkpt lat="45.95192" lon="4.87488">
        <ele>272</ele>
        <time>2017-06-18T08:56:57Z</time>
      </trkpt>
      <trkpt lat="45.95194" lon="4.87494">
        <ele>272</ele>
        <time>2017-06-18T08:56:58Z</time>
      </trkpt>
      <trkpt lat="45.95196" lon="4.875">
        <ele>273</ele>
        <time>2017-06-18T08:56:59Z</time>
      </trkpt>
      <trkpt lat="45.95198" lon="4.87512">
        <ele>273</ele>
        <time>2017-06-18T08:57:01Z</time>
      </trkpt>
      <trkpt lat="45.95199" lon="4.87517">
        <ele>273</ele>
        <time>2017-06-18T08:57:02Z</time>
      </trkpt>
      <trkpt lat="45.95201" lon="4.87529">
        <ele>274</ele>
        <time>2017-06-18T08:57:04Z</time>
      </trkpt>
      <trkpt lat="45.95203" lon="4.87535">
        <ele>274</ele>
        <time>2017-06-18T08:57:05Z</time>
      </trkpt>
      <trkpt lat="45.95204" lon="4.87542">
        <ele>274</ele>
        <time>2017-06-18T08:57:06Z</time>
      </trkpt>
      <trkpt lat="45.95205" lon="4.87549">
        <ele>274</ele>
        <time>2017-06-18T08:57:07Z</time>
      </trkpt>
      <trkpt lat="45.95205" lon="4.87556">
        <ele>274</ele>
        <time>2017-06-18T08:57:08Z</time>
      </trkpt>
      <trkpt lat="45.95206" lon="4.87564">
        <ele>274</ele>
        <time>2017-06-18T08:57:09Z</time>
      </trkpt>
      <trkpt lat="45.95206" lon="4.87576">
        <ele>274</ele>
        <time>2017-06-18T08:57:11Z</time>
      </trkpt>
      <trkpt lat="45.95206" lon="4.87583">
        <ele>274</ele>
        <time>2017-06-18T08:57:12Z</time>
      </trkpt>
      <trkpt lat="45.95206" lon="4.87589">
        <ele>276</ele>
        <time>2017-06-18T08:57:13Z</time>
      </trkpt>
      <trkpt lat="45.95207" lon="4.87596">
        <ele>276</ele>
        <time>2017-06-18T08:57:14Z</time>
      </trkpt>
      <trkpt lat="45.95208" lon="4.87603">
        <ele>276</ele>
        <time>2017-06-18T08:57:15Z</time>
      </trkpt>
      <trkpt lat="45.95209" lon="4.87609">
        <ele>276</ele>
        <time>2017-06-18T08:57:16Z</time>
      </trkpt>
      <trkpt lat="45.9521" lon="4.87615">
        <ele>276</ele>
        <time>2017-06-18T08:57:17Z</time>
      </trkpt>
      <trkpt lat="45.9521" lon="4.87622">
        <ele>276</ele>
        <time>2017-06-18T08:57:18Z</time>
      </trkpt>
      <trkpt lat="45.95212" lon="4.87635">
        <ele>276</ele>
        <time>2017-06-18T08:57:20Z</time>
      </trkpt>
      <trkpt lat="45.95213" lon="4.87641">
        <ele>276</ele>
        <time>2017-06-18T08:57:21Z</time>
      </trkpt>
      <trkpt lat="45.95214" lon="4.87648">
        <ele>276</ele>
        <time>2017-06-18T08:57:22Z</time>
      </trkpt>
      <trkpt lat="45.95215" lon="4.87655">
        <ele>276</ele>
        <time>2017-06-18T08:57:23Z</time>
      </trkpt>
      <trkpt lat="45.95216" lon="4.87662">
        <ele>277</ele>
        <time>2017-06-18T08:57:24Z</time>
      </trkpt>
      <trkpt lat="45.95218" lon="4.8767">
        <ele>278</ele>
        <time>2017-06-18T08:57:25Z</time>
      </trkpt>
      <trkpt lat="45.9522" lon="4.87683">
        <ele>279</ele>
        <time>2017-06-18T08:57:27Z</time>
      </trkpt>
      <trkpt lat="45.95221" lon="4.87688">
        <ele>279</ele>
        <time>2017-06-18T08:57:28Z</time>
      </trkpt>
      <trkpt lat="45.95221" lon="4.87698">
        <ele>279</ele>
        <time>2017-06-18T08:57:30Z</time>
      </trkpt>
      <trkpt lat="45.95222" lon="4.87703">
        <ele>279</ele>
        <time>2017-06-18T08:57:31Z</time>
      </trkpt>
      <trkpt lat="45.95223" lon="4.87714">
        <ele>279</ele>
        <time>2017-06-18T08:57:33Z</time>
      </trkpt>
      <trkpt lat="45.95224" lon="4.8772">
        <ele>280</ele>
        <time>2017-06-18T08:57:34Z</time>
      </trkpt>
      <trkpt lat="45.95225" lon="4.8773">
        <ele>280</ele>
        <time>2017-06-18T08:57:36Z</time>
      </trkpt>
      <trkpt lat="45.95225" lon="4.87735">
        <ele>280</ele>
        <time>2017-06-18T08:57:37Z</time>
      </trkpt>
      <trkpt lat="45.95227" lon="4.87743">
        <ele>280</ele>
        <time>2017-06-18T08:57:39Z</time>
      </trkpt>
      <trkpt lat="45.95228" lon="4.87748">
        <ele>280</ele>
        <time>2017-06-18T08:57:40Z</time>
      </trkpt>
      <trkpt lat="45.9523" lon="4.87758">
        <ele>282</ele>
        <time>2017-06-18T08:57:42Z</time>
      </trkpt>
      <trkpt lat="45.9523" lon="4.87762">
        <ele>282</ele>
        <time>2017-06-18T08:57:43Z</time>
      </trkpt>
      <trkpt lat="45.95232" lon="4.87772">
        <ele>282</ele>
        <time>2017-06-18T08:57:45Z</time>
      </trkpt>
      <trkpt lat="45.95233" lon="4.87778">
        <ele>282</ele>
        <time>2017-06-18T08:57:46Z</time>
      </trkpt>
      <trkpt lat="45.95235" lon="4.87787">
        <ele>282</ele>
        <time>2017-06-18T08:57:48Z</time>
      </trkpt>
      <trkpt lat="45.95235" lon="4.87792">
        <ele>282</ele>
        <time>2017-06-18T08:57:49Z</time>
      </trkpt>
      <trkpt lat="45.95237" lon="4.87801">
        <ele>282</ele>
        <time>2017-06-18T08:57:51Z</time>
      </trkpt>
      <trkpt lat="45.95237" lon="4.87806">
        <ele>282</ele>
        <time>2017-06-18T08:57:52Z</time>
      </trkpt>
      <trkpt lat="45.95238" lon="4.87816">
        <ele>282</ele>
        <time>2017-06-18T08:57:54Z</time>
      </trkpt>
      <trkpt lat="45.95239" lon="4.8782">
        <ele>282</ele>
        <time>2017-06-18T08:57:55Z</time>
      </trkpt>
      <trkpt lat="45.95239" lon="4.87832">
        <ele>282</ele>
        <time>2017-06-18T08:57:57Z</time>
      </trkpt>
      <trkpt lat="45.9524" lon="4.87837">
        <ele>283</ele>
        <time>2017-06-18T08:57:58Z</time>
      </trkpt>
      <trkpt lat="45.95241" lon="4.87847">
        <ele>283</ele>
        <time>2017-06-18T08:58:00Z</time>
      </trkpt>
      <trkpt lat="45.95242" lon="4.87852">
        <ele>283</ele>
        <time>2017-06-18T08:58:01Z</time>
      </trkpt>
      <trkpt lat="45.95244" lon="4.87862">
        <ele>283</ele>
        <time>2017-06-18T08:58:03Z</time>
      </trkpt>
      <trkpt lat="45.95245" lon="4.87867">
        <ele>283</ele>
        <time>2017-06-18T08:58:04Z</time>
      </trkpt>
      <trkpt lat="45.95248" lon="4.87877">
        <ele>283</ele>
        <time>2017-06-18T08:58:06Z</time>
      </trkpt>
      <trkpt lat="45.95249" lon="4.87882">
        <ele>283</ele>
        <time>2017-06-18T08:58:07Z</time>
      </trkpt>
      <trkpt lat="45.95252" lon="4.87893">
        <ele>281</ele>
        <time>2017-06-18T08:58:09Z</time>
      </trkpt>
      <trkpt lat="45.95253" lon="4.87899">
        <ele>281</ele>
        <time>2017-06-18T08:58:10Z</time>
      </trkpt>
      <trkpt lat="45.95253" lon="4.87907">
        <ele>282</ele>
        <time>2017-06-18T08:58:11Z</time>
      </trkpt>
      <trkpt lat="45.95253" lon="4.87913">
        <ele>282</ele>
        <time>2017-06-18T08:58:12Z</time>
      </trkpt>
      <trkpt lat="45.95253" lon="4.87924">
        <ele>282</ele>
        <time>2017-06-18T08:58:14Z</time>
      </trkpt>
      <trkpt lat="45.95253" lon="4.8793">
        <ele>281</ele>
        <time>2017-06-18T08:58:15Z</time>
      </trkpt>
      <trkpt lat="45.95251" lon="4.87941">
        <ele>280</ele>
        <time>2017-06-18T08:58:17Z</time>
      </trkpt>
      <trkpt lat="45.95249" lon="4.87947">
        <ele>282</ele>
        <time>2017-06-18T08:58:18Z</time>
      </trkpt>
      <trkpt lat="45.95245" lon="4.87956">
        <ele>282</ele>
        <time>2017-06-18T08:58:20Z</time>
      </trkpt>
      <trkpt lat="45.95242" lon="4.8796">
        <ele>282</ele>
        <time>2017-06-18T08:58:21Z</time>
      </trkpt>
      <trkpt lat="45.95237" lon="4.87969">
        <ele>282</ele>
        <time>2017-06-18T08:58:23Z</time>
      </trkpt>
      <trkpt lat="45.95235" lon="4.87973">
        <ele>282</ele>
        <time>2017-06-18T08:58:24Z</time>
      </trkpt>
      <trkpt lat="45.9523" lon="4.87982">
        <ele>282</ele>
        <time>2017-06-18T08:58:26Z</time>
      </trkpt>
      <trkpt lat="45.95228" lon="4.87988">
        <ele>282</ele>
        <time>2017-06-18T08:58:27Z</time>
      </trkpt>
      <trkpt lat="45.95222" lon="4.87998">
        <ele>282</ele>
        <time>2017-06-18T08:58:29Z</time>
      </trkpt>
      <trkpt lat="45.95219" lon="4.88003">
        <ele>281</ele>
        <time>2017-06-18T08:58:30Z</time>
      </trkpt>
      <trkpt lat="45.95216" lon="4.88007">
        <ele>281</ele>
        <time>2017-06-18T08:58:31Z</time>
      </trkpt>
      <trkpt lat="45.95213" lon="4.88012">
        <ele>281</ele>
        <time>2017-06-18T08:58:32Z</time>
      </trkpt>
      <trkpt lat="45.95208" lon="4.88022">
        <ele>281</ele>
        <time>2017-06-18T08:58:34Z</time>
      </trkpt>
      <trkpt lat="45.95205" lon="4.88026">
        <ele>281</ele>
        <time>2017-06-18T08:58:35Z</time>
      </trkpt>
      <trkpt lat="45.952" lon="4.88035">
        <ele>281</ele>
        <time>2017-06-18T08:58:37Z</time>
      </trkpt>
      <trkpt lat="45.95198" lon="4.88039">
        <ele>281</ele>
        <time>2017-06-18T08:58:38Z</time>
      </trkpt>
      <trkpt lat="45.95194" lon="4.88048">
        <ele>281</ele>
        <time>2017-06-18T08:58:40Z</time>
      </trkpt>
      <trkpt lat="45.95192" lon="4.88053">
        <ele>281</ele>
        <time>2017-06-18T08:58:41Z</time>
      </trkpt>
      <trkpt lat="45.95188" lon="4.88063">
        <ele>281</ele>
        <time>2017-06-18T08:58:43Z</time>
      </trkpt>
      <trkpt lat="45.95187" lon="4.88069">
        <ele>281</ele>
        <time>2017-06-18T08:58:44Z</time>
      </trkpt>
      <trkpt lat="45.95184" lon="4.88081">
        <ele>281</ele>
        <time>2017-06-18T08:58:46Z</time>
      </trkpt>
      <trkpt lat="45.95183" lon="4.88086">
        <ele>282</ele>
        <time>2017-06-18T08:58:47Z</time>
      </trkpt>
      <trkpt lat="45.9518" lon="4.88097">
        <ele>282</ele>
        <time>2017-06-18T08:58:49Z</time>
      </trkpt>
      <trkpt lat="45.95179" lon="4.88102">
        <ele>282</ele>
        <time>2017-06-18T08:58:50Z</time>
      </trkpt>
      <trkpt lat="45.95177" lon="4.88112">
        <ele>282</ele>
        <time>2017-06-18T08:58:52Z</time>
      </trkpt>
      <trkpt lat="45.95176" lon="4.88118">
        <ele>282</ele>
        <time>2017-06-18T08:58:53Z</time>
      </trkpt>
      <trkpt lat="45.95173" lon="4.88127">
        <ele>282</ele>
        <time>2017-06-18T08:58:55Z</time>
      </trkpt>
      <trkpt lat="45.95172" lon="4.88132">
        <ele>283</ele>
        <time>2017-06-18T08:58:56Z</time>
      </trkpt>
      <trkpt lat="45.95169" lon="4.88143">
        <ele>283</ele>
        <time>2017-06-18T08:58:58Z</time>
      </trkpt>
      <trkpt lat="45.95167" lon="4.88148">
        <ele>283</ele>
        <time>2017-06-18T08:58:59Z</time>
      </trkpt>
      <trkpt lat="45.95167" lon="4.88159">
        <ele>285</ele>
        <time>2017-06-18T08:59:01Z</time>
      </trkpt>
      <trkpt lat="45.95167" lon="4.88164">
        <ele>285</ele>
        <time>2017-06-18T08:59:02Z</time>
      </trkpt>
      <trkpt lat="45.95173" lon="4.88171">
        <ele>285</ele>
        <time>2017-06-18T08:59:05Z</time>
      </trkpt>
      <trkpt lat="45.95177" lon="4.88172">
        <ele>285</ele>
        <time>2017-06-18T08:59:06Z</time>
      </trkpt>
      <trkpt lat="45.95184" lon="4.88171">
        <ele>285</ele>
        <time>2017-06-18T08:59:08Z</time>
      </trkpt>
      <trkpt lat="45.95188" lon="4.8817">
        <ele>285</ele>
        <time>2017-06-18T08:59:09Z</time>
      </trkpt>
      <trkpt lat="45.95197" lon="4.88171">
        <ele>285</ele>
        <time>2017-06-18T08:59:11Z</time>
      </trkpt>
      <trkpt lat="45.95202" lon="4.88172">
        <ele>285</ele>
        <time>2017-06-18T08:59:12Z</time>
      </trkpt>
      <trkpt lat="45.95207" lon="4.88172">
        <ele>284</ele>
        <time>2017-06-18T08:59:13Z</time>
      </trkpt>
      <trkpt lat="45.95212" lon="4.88172">
        <ele>284</ele>
        <time>2017-06-18T08:59:14Z</time>
      </trkpt>
      <trkpt lat="45.95217" lon="4.88172">
        <ele>284</ele>
        <time>2017-06-18T08:59:15Z</time>
      </trkpt>
      <trkpt lat="45.95223" lon="4.88172">
        <ele>284</ele>
        <time>2017-06-18T08:59:16Z</time>
      </trkpt>
      <trkpt lat="45.95229" lon="4.88172">
        <ele>283</ele>
        <time>2017-06-18T08:59:17Z</time>
      </trkpt>
      <trkpt lat="45.95235" lon="4.88172">
        <ele>283</ele>
        <time>2017-06-18T08:59:18Z</time>
      </trkpt>
      <trkpt lat="45.95241" lon="4.88171">
        <ele>282</ele>
        <time>2017-06-18T08:59:19Z</time>
      </trkpt>
      <trkpt lat="45.95248" lon="4.88171">
        <ele>282</ele>
        <time>2017-06-18T08:59:20Z</time>
      </trkpt>
      <trkpt lat="45.95255" lon="4.88171">
        <ele>281</ele>
        <time>2017-06-18T08:59:21Z</time>
      </trkpt>
      <trkpt lat="45.95262" lon="4.88171">
        <ele>281</ele>
        <time>2017-06-18T08:59:22Z</time>
      </trkpt>
      <trkpt lat="45.95268" lon="4.88171">
        <ele>281</ele>
        <time>2017-06-18T08:59:23Z</time>
      </trkpt>
      <trkpt lat="45.95275" lon="4.88171">
        <ele>281</ele>
        <time>2017-06-18T08:59:24Z</time>
      </trkpt>
      <trkpt lat="45.95283" lon="4.88171">
        <ele>281</ele>
        <time>2017-06-18T08:59:25Z</time>
      </trkpt>
      <trkpt lat="45.9529" lon="4.88172">
        <ele>281</ele>
        <time>2017-06-18T08:59:26Z</time>
      </trkpt>
      <trkpt lat="45.95296" lon="4.88173">
        <ele>281</ele>
        <time>2017-06-18T08:59:27Z</time>
      </trkpt>
      <trkpt lat="45.95304" lon="4.88174">
        <ele>281</ele>
        <time>2017-06-18T08:59:28Z</time>
      </trkpt>
      <trkpt lat="45.95312" lon="4.88175">
        <ele>280</ele>
        <time>2017-06-18T08:59:29Z</time>
      </trkpt>
      <trkpt lat="45.9532" lon="4.88176">
        <ele>280</ele>
        <time>2017-06-18T08:59:30Z</time>
      </trkpt>
      <trkpt lat="45.95328" lon="4.88176">
        <ele>279</ele>
        <time>2017-06-18T08:59:31Z</time>
      </trkpt>
      <trkpt lat="45.95336" lon="4.88176">
        <ele>278</ele>
        <time>2017-06-18T08:59:32Z</time>
      </trkpt>
      <trkpt lat="45.95343" lon="4.88176">
        <ele>278</ele>
        <time>2017-06-18T08:59:33Z</time>
      </trkpt>
      <trkpt lat="45.95351" lon="4.88175">
        <ele>278</ele>
        <time>2017-06-18T08:59:34Z</time>
      </trkpt>
      <trkpt lat="45.95358" lon="4.88174">
        <ele>278</ele>
        <time>2017-06-18T08:59:35Z</time>
      </trkpt>
      <trkpt lat="45.95366" lon="4.88172">
        <ele>278</ele>
        <time>2017-06-18T08:59:36Z</time>
      </trkpt>
      <trkpt lat="45.95374" lon="4.88169">
        <ele>278</ele>
        <time>2017-06-18T08:59:37Z</time>
      </trkpt>
      <trkpt lat="45.95381" lon="4.88167">
        <ele>278</ele>
        <time>2017-06-18T08:59:38Z</time>
      </trkpt>
      <trkpt lat="45.95387" lon="4.88165">
        <ele>276</ele>
        <time>2017-06-18T08:59:39Z</time>
      </trkpt>
      <trkpt lat="45.95394" lon="4.88163">
        <ele>276</ele>
        <time>2017-06-18T08:59:40Z</time>
      </trkpt>
      <trkpt lat="45.954" lon="4.88161">
        <ele>276</ele>
        <time>2017-06-18T08:59:41Z</time>
      </trkpt>
      <trkpt lat="45.95405" lon="4.88159">
        <ele>276</ele>
        <time>2017-06-18T08:59:42Z</time>
      </trkpt>
      <trkpt lat="45.95411" lon="4.88157">
        <ele>276</ele>
        <time>2017-06-18T08:59:43Z</time>
      </trkpt>
      <trkpt lat="45.95416" lon="4.88154">
        <ele>276</ele>
        <time>2017-06-18T08:59:44Z</time>
      </trkpt>
      <trkpt lat="45.95421" lon="4.88151">
        <ele>276</ele>
        <time>2017-06-18T08:59:45Z</time>
      </trkpt>
      <trkpt lat="45.95426" lon="4.88148">
        <ele>276</ele>
        <time>2017-06-18T08:59:46Z</time>
      </trkpt>
      <trkpt lat="45.95431" lon="4.88146">
        <ele>276</ele>
        <time>2017-06-18T08:59:47Z</time>
      </trkpt>
      <trkpt lat="45.95436" lon="4.88144">
        <ele>276</ele>
        <time>2017-06-18T08:59:48Z</time>
      </trkpt>
      <trkpt lat="45.95441" lon="4.88142">
        <ele>276</ele>
        <time>2017-06-18T08:59:49Z</time>
      </trkpt>
      <trkpt lat="45.95446" lon="4.88139">
        <ele>276</ele>
        <time>2017-06-18T08:59:50Z</time>
      </trkpt>
      <trkpt lat="45.95451" lon="4.88137">
        <ele>276</ele>
        <time>2017-06-18T08:59:51Z</time>
      </trkpt>
      <trkpt lat="45.95455" lon="4.88134">
        <ele>276</ele>
        <time>2017-06-18T08:59:52Z</time>
      </trkpt>
      <trkpt lat="45.9546" lon="4.88132">
        <ele>276</ele>
        <time>2017-06-18T08:59:53Z</time>
      </trkpt>
      <trkpt lat="45.95465" lon="4.8813">
        <ele>276</ele>
        <time>2017-06-18T08:59:54Z</time>
      </trkpt>
      <trkpt lat="45.9547" lon="4.88128">
        <ele>276</ele>
        <time>2017-06-18T08:59:55Z</time>
      </trkpt>
      <trkpt lat="45.95475" lon="4.88126">
        <ele>276</ele>
        <time>2017-06-18T08:59:56Z</time>
      </trkpt>
      <trkpt lat="45.95479" lon="4.88124">
        <ele>276</ele>
        <time>2017-06-18T08:59:57Z</time>
      </trkpt>
      <trkpt lat="45.95484" lon="4.88122">
        <ele>276</ele>
        <time>2017-06-18T08:59:58Z</time>
      </trkpt>
      <trkpt lat="45.95489" lon="4.88119">
        <ele>276</ele>
        <time>2017-06-18T08:59:59Z</time>
      </trkpt>
      <trkpt lat="45.95494" lon="4.88117">
        <ele>276</ele>
        <time>2017-06-18T09:00:00Z</time>
      </trkpt>
      <trkpt lat="45.955" lon="4.88114">
        <ele>276</ele>
        <time>2017-06-18T09:00:01Z</time>
      </trkpt>
      <trkpt lat="45.95505" lon="4.88112">
        <ele>276</ele>
        <time>2017-06-18T09:00:02Z</time>
      </trkpt>
      <trkpt lat="45.95511" lon="4.8811">
        <ele>276</ele>
        <time>2017-06-18T09:00:03Z</time>
      </trkpt>
      <trkpt lat="45.95516" lon="4.88108">
        <ele>276</ele>
        <time>2017-06-18T09:00:04Z</time>
      </trkpt>
      <trkpt lat="45.95521" lon="4.88106">
        <ele>277</ele>
        <time>2017-06-18T09:00:05Z</time>
      </trkpt>
      <trkpt lat="45.95526" lon="4.88103">
        <ele>277</ele>
        <time>2017-06-18T09:00:06Z</time>
      </trkpt>
      <trkpt lat="45.95534" lon="4.88099">
        <ele>277</ele>
        <time>2017-06-18T09:00:08Z</time>
      </trkpt>
      <trkpt lat="45.95538" lon="4.88097">
        <ele>277</ele>
        <time>2017-06-18T09:00:09Z</time>
      </trkpt>
      <trkpt lat="45.95546" lon="4.88092">
        <ele>277</ele>
        <time>2017-06-18T09:00:11Z</time>
      </trkpt>
      <trkpt lat="45.9555" lon="4.8809">
        <ele>277</ele>
        <time>2017-06-18T09:00:12Z</time>
      </trkpt>
      <trkpt lat="45.95555" lon="4.88088">
        <ele>277</ele>
        <time>2017-06-18T09:00:13Z</time>
      </trkpt>
      <trkpt lat="45.95559" lon="4.88086">
        <ele>277</ele>
        <time>2017-06-18T09:00:14Z</time>
      </trkpt>
      <trkpt lat="45.95567" lon="4.88082">
        <ele>276</ele>
        <time>2017-06-18T09:00:16Z</time>
      </trkpt>
      <trkpt lat="45.95572" lon="4.88079">
        <ele>277</ele>
        <time>2017-06-18T09:00:17Z</time>
      </trkpt>
      <trkpt lat="45.95576" lon="4.88076">
        <ele>277</ele>
        <time>2017-06-18T09:00:18Z</time>
      </trkpt>
      <trkpt lat="45.9558" lon="4.88073">
        <ele>277</ele>
        <time>2017-06-18T09:00:19Z</time>
      </trkpt>
      <trkpt lat="45.95584" lon="4.8807">
        <ele>278</ele>
        <time>2017-06-18T09:00:20Z</time>
      </trkpt>
      <trkpt lat="45.95588" lon="4.88066">
        <ele>278</ele>
        <time>2017-06-18T09:00:21Z</time>
      </trkpt>
      <trkpt lat="45.95592" lon="4.88063">
        <ele>278</ele>
        <time>2017-06-18T09:00:22Z</time>
      </trkpt>
      <trkpt lat="45.95596" lon="4.8806">
        <ele>278</ele>
        <time>2017-06-18T09:00:23Z</time>
      </trkpt>
      <trkpt lat="45.956" lon="4.88056">
        <ele>278</ele>
        <time>2017-06-18T09:00:24Z</time>
      </trkpt>
      <trkpt lat="45.95604" lon="4.88053">
        <ele>278</ele>
        <time>2017-06-18T09:00:25Z</time>
      </trkpt>
      <trkpt lat="45.95608" lon="4.88049">
        <ele>278</ele>
        <time>2017-06-18T09:00:26Z</time>
      </trkpt>
      <trkpt lat="45.95612" lon="4.88046">
        <ele>278</ele>
        <time>2017-06-18T09:00:27Z</time>
      </trkpt>
      <trkpt lat="45.95616" lon="4.88042">
        <ele>278</ele>
        <time>2017-06-18T09:00:28Z</time>
      </trkpt>
      <trkpt lat="45.9562" lon="4.88039">
        <ele>278</ele>
        <time>2017-06-18T09:00:29Z</time>
      </trkpt>
      <trkpt lat="45.95624" lon="4.88035">
        <ele>278</ele>
        <time>2017-06-18T09:00:30Z</time>
      </trkpt>
      <trkpt lat="45.95628" lon="4.88032">
        <ele>279</ele>
        <time>2017-06-18T09:00:31Z</time>
      </trkpt>
      <trkpt lat="45.95634" lon="4.88024">
        <ele>279</ele>
        <time>2017-06-18T09:00:33Z</time>
      </trkpt>
      <trkpt lat="45.95638" lon="4.88021">
        <ele>279</ele>
        <time>2017-06-18T09:00:34Z</time>
      </trkpt>
      <trkpt lat="45.95645" lon="4.88014">
        <ele>279</ele>
        <time>2017-06-18T09:00:36Z</time>
      </trkpt>
      <trkpt lat="45.95648" lon="4.8801">
        <ele>279</ele>
        <time>2017-06-18T09:00:37Z</time>
      </trkpt>
      <trkpt lat="45.95652" lon="4.88007">
        <ele>280</ele>
        <time>2017-06-18T09:00:38Z</time>
      </trkpt>
      <trkpt lat="45.95656" lon="4.88004">
        <ele>280</ele>
        <time>2017-06-18T09:00:39Z</time>
      </trkpt>
      <trkpt lat="45.9566" lon="4.88001">
        <ele>280</ele>
        <time>2017-06-18T09:00:40Z</time>
      </trkpt>
      <trkpt lat="45.95665" lon="4.87998">
        <ele>281</ele>
        <time>2017-06-18T09:00:41Z</time>
      </trkpt>
      <trkpt lat="45.95669" lon="4.87994">
        <ele>281</ele>
        <time>2017-06-18T09:00:42Z</time>
      </trkpt>
      <trkpt lat="45.95673" lon="4.8799">
        <ele>282</ele>
        <time>2017-06-18T09:00:43Z</time>
      </trkpt>
      <trkpt lat="45.95676" lon="4.87987">
        <ele>282</ele>
        <time>2017-06-18T09:00:44Z</time>
      </trkpt>
      <trkpt lat="45.9568" lon="4.87983">
        <ele>282</ele>
        <time>2017-06-18T09:00:45Z</time>
      </trkpt>
      <trkpt lat="45.95684" lon="4.87979">
        <ele>282</ele>
        <time>2017-06-18T09:00:46Z</time>
      </trkpt>
      <trkpt lat="45.95688" lon="4.87975">
        <ele>282</ele>
        <time>2017-06-18T09:00:47Z</time>
      </trkpt>
      <trkpt lat="45.95695" lon="4.87968">
        <ele>282</ele>
        <time>2017-06-18T09:00:49Z</time>
      </trkpt>
      <trkpt lat="45.95699" lon="4.87965">
        <ele>283</ele>
        <time>2017-06-18T09:00:50Z</time>
      </trkpt>
      <trkpt lat="45.95706" lon="4.87957">
        <ele>283</ele>
        <time>2017-06-18T09:00:52Z</time>
      </trkpt>
      <trkpt lat="45.9571" lon="4.87954">
        <ele>283</ele>
        <time>2017-06-18T09:00:53Z</time>
      </trkpt>
      <trkpt lat="45.95714" lon="4.87951">
        <ele>283</ele>
        <time>2017-06-18T09:00:54Z</time>
      </trkpt>
      <trkpt lat="45.95718" lon="4.87947">
        <ele>283</ele>
        <time>2017-06-18T09:00:55Z</time>
      </trkpt>
      <trkpt lat="45.95722" lon="4.87944">
        <ele>283</ele>
        <time>2017-06-18T09:00:56Z</time>
      </trkpt>
      <trkpt lat="45.95727" lon="4.8794">
        <ele>283</ele>
        <time>2017-06-18T09:00:57Z</time>
      </trkpt>
      <trkpt lat="45.95731" lon="4.87937">
        <ele>283</ele>
        <time>2017-06-18T09:00:58Z</time>
      </trkpt>
      <trkpt lat="45.95735" lon="4.87933">
        <ele>284</ele>
        <time>2017-06-18T09:00:59Z</time>
      </trkpt>
      <trkpt lat="45.95739" lon="4.87929">
        <ele>284</ele>
        <time>2017-06-18T09:01:00Z</time>
      </trkpt>
      <trkpt lat="45.95743" lon="4.87925">
        <ele>284</ele>
        <time>2017-06-18T09:01:01Z</time>
      </trkpt>
      <trkpt lat="45.95749" lon="4.87922">
        <ele>285</ele>
        <time>2017-06-18T09:01:02Z</time>
      </trkpt>
      <trkpt lat="45.95754" lon="4.87919">
        <ele>285</ele>
        <time>2017-06-18T09:01:03Z</time>
      </trkpt>
      <trkpt lat="45.95759" lon="4.87916">
        <ele>285</ele>
        <time>2017-06-18T09:01:04Z</time>
      </trkpt>
      <trkpt lat="45.95762" lon="4.87914">
        <ele>286</ele>
        <time>2017-06-18T09:01:05Z</time>
      </trkpt>
      <trkpt lat="45.9577" lon="4.87909">
        <ele>286</ele>
        <time>2017-06-18T09:01:07Z</time>
      </trkpt>
      <trkpt lat="45.95774" lon="4.87906">
        <ele>286</ele>
        <time>2017-06-18T09:01:08Z</time>
      </trkpt>
      <trkpt lat="45.9578" lon="4.87902">
        <ele>286</ele>
        <time>2017-06-18T09:01:10Z</time>
      </trkpt>
      <trkpt lat="45.95783" lon="4.879">
        <ele>286</ele>
        <time>2017-06-18T09:01:11Z</time>
      </trkpt>
      <trkpt lat="45.95791" lon="4.87895">
        <ele>286</ele>
        <time>2017-06-18T09:01:14Z</time>
      </trkpt>
      <trkpt lat="45.95793" lon="4.87893">
        <ele>286</ele>
        <time>2017-06-18T09:01:15Z</time>
      </trkpt>
      <trkpt lat="45.958" lon="4.8789">
        <ele>287</ele>
        <time>2017-06-18T09:01:18Z</time>
      </trkpt>
      <trkpt lat="45.95803" lon="4.87889">
        <ele>287</ele>
        <time>2017-06-18T09:01:19Z</time>
      </trkpt>
      <trkpt lat="45.95811" lon="4.87885">
        <ele>287</ele>
        <time>2017-06-18T09:01:22Z</time>
      </trkpt>
      <trkpt lat="45.95814" lon="4.87884">
        <ele>287</ele>
        <time>2017-06-18T09:01:23Z</time>
      </trkpt>
      <trkpt lat="45.95823" lon="4.87883">
        <ele>287</ele>
        <time>2017-06-18T09:01:26Z</time>
      </trkpt>
      <trkpt lat="45.95825" lon="4.87882">
        <ele>287</ele>
        <time>2017-06-18T09:01:27Z</time>
      </trkpt>
      <trkpt lat="45.95833" lon="4.8788">
        <ele>287</ele>
        <time>2017-06-18T09:01:30Z</time>
      </trkpt>
      <trkpt lat="45.95835" lon="4.87878">
        <ele>289</ele>
        <time>2017-06-18T09:01:31Z</time>
      </trkpt>
      <trkpt lat="45.9584" lon="4.87873">
        <ele>289</ele>
        <time>2017-06-18T09:01:33Z</time>
      </trkpt>
      <trkpt lat="45.95843" lon="4.87869">
        <ele>289</ele>
        <time>2017-06-18T09:01:34Z</time>
      </trkpt>
      <trkpt lat="45.95848" lon="4.87861">
        <ele>289</ele>
        <time>2017-06-18T09:01:36Z</time>
      </trkpt>
      <trkpt lat="45.95851" lon="4.87858">
        <ele>289</ele>
        <time>2017-06-18T09:01:37Z</time>
      </trkpt>
      <trkpt lat="45.95856" lon="4.87852">
        <ele>289</ele>
        <time>2017-06-18T09:01:39Z</time>
      </trkpt>
      <trkpt lat="45.95858" lon="4.87848">
        <ele>289</ele>
        <time>2017-06-18T09:01:40Z</time>
      </trkpt>
      <trkpt lat="45.95863" lon="4.87842">
        <ele>289</ele>
        <time>2017-06-18T09:01:42Z</time>
      </trkpt>
      <trkpt lat="45.95866" lon="4.87839">
        <ele>289</ele>
        <time>2017-06-18T09:01:43Z</time>
      </trkpt>
      <trkpt lat="45.95873" lon="4.87833">
        <ele>288</ele>
        <time>2017-06-18T09:01:45Z</time>
      </trkpt>
      <trkpt lat="45.95876" lon="4.87831">
        <ele>288</ele>
        <time>2017-06-18T09:01:46Z</time>
      </trkpt>
      <trkpt lat="45.95882" lon="4.87824">
        <ele>288</ele>
        <time>2017-06-18T09:01:48Z</time>
      </trkpt>
      <trkpt lat="45.95885" lon="4.8782">
        <ele>288</ele>
        <time>2017-06-18T09:01:49Z</time>
      </trkpt>
      <trkpt lat="45.95891" lon="4.87812">
        <ele>288</ele>
        <time>2017-06-18T09:01:51Z</time>
      </trkpt>
      <trkpt lat="45.95894" lon="4.87808">
        <ele>288</ele>
        <time>2017-06-18T09:01:52Z</time>
      </trkpt>
      <trkpt lat="45.95899" lon="4.87801">
        <ele>288</ele>
        <time>2017-06-18T09:01:54Z</time>
      </trkpt>
      <trkpt lat="45.95902" lon="4.87797">
        <ele>288</ele>
        <time>2017-06-18T09:01:55Z</time>
      </trkpt>
      <trkpt lat="45.95907" lon="4.8779">
        <ele>288</ele>
        <time>2017-06-18T09:01:57Z</time>
      </trkpt>
      <trkpt lat="45.9591" lon="4.87786">
        <ele>288</ele>
        <time>2017-06-18T09:01:58Z</time>
      </trkpt>
      <trkpt lat="45.95915" lon="4.87778">
        <ele>288</ele>
        <time>2017-06-18T09:02:00Z</time>
      </trkpt>
      <trkpt lat="45.95918" lon="4.87773">
        <ele>289</ele>
        <time>2017-06-18T09:02:01Z</time>
      </trkpt>
      <trkpt lat="45.95923" lon="4.87764">
        <ele>288</ele>
        <time>2017-06-18T09:02:03Z</time>
      </trkpt>
      <trkpt lat="45.95926" lon="4.8776">
        <ele>288</ele>
        <time>2017-06-18T09:02:04Z</time>
      </trkpt>
      <trkpt lat="45.95932" lon="4.87751">
        <ele>288</ele>
        <time>2017-06-18T09:02:06Z</time>
      </trkpt>
      <trkpt lat="45.95934" lon="4.87746">
        <ele>288</ele>
        <time>2017-06-18T09:02:07Z</time>
      </trkpt>
      <trkpt lat="45.9594" lon="4.87738">
        <ele>288</ele>
        <time>2017-06-18T09:02:09Z</time>
      </trkpt>
      <trkpt lat="45.95943" lon="4.87733">
        <ele>289</ele>
        <time>2017-06-18T09:02:10Z</time>
      </trkpt>
      <trkpt lat="45.95948" lon="4.87726">
        <ele>289</ele>
        <time>2017-06-18T09:02:12Z</time>
      </trkpt>
      <trkpt lat="45.9595" lon="4.87722">
        <ele>289</ele>
        <time>2017-06-18T09:02:13Z</time>
      </trkpt>
      <trkpt lat="45.95956" lon="4.87715">
        <ele>289</ele>
        <time>2017-06-18T09:02:15Z</time>
      </trkpt>
      <trkpt lat="45.95959" lon="4.87711">
        <ele>289</ele>
        <time>2017-06-18T09:02:16Z</time>
      </trkpt>
      <trkpt lat="45.95965" lon="4.87703">
        <ele>289</ele>
        <time>2017-06-18T09:02:18Z</time>
      </trkpt>
      <trkpt lat="45.95968" lon="4.877">
        <ele>289</ele>
        <time>2017-06-18T09:02:19Z</time>
      </trkpt>
      <trkpt lat="45.95973" lon="4.87692">
        <ele>289</ele>
        <time>2017-06-18T09:02:21Z</time>
      </trkpt>
      <trkpt lat="45.95976" lon="4.87689">
        <ele>289</ele>
        <time>2017-06-18T09:02:22Z</time>
      </trkpt>
      <trkpt lat="45.95983" lon="4.87681">
        <ele>289</ele>
        <time>2017-06-18T09:02:24Z</time>
      </trkpt>
      <trkpt lat="45.95986" lon="4.87677">
        <ele>289</ele>
        <time>2017-06-18T09:02:25Z</time>
      </trkpt>
      <trkpt lat="45.95993" lon="4.87669">
        <ele>290</ele>
        <time>2017-06-18T09:02:27Z</time>
      </trkpt>
      <trkpt lat="45.95996" lon="4.87665">
        <ele>290</ele>
        <time>2017-06-18T09:02:28Z</time>
      </trkpt>
      <trkpt lat="45.96004" lon="4.87658">
        <ele>290</ele>
        <time>2017-06-18T09:02:30Z</time>
      </trkpt>
      <trkpt lat="45.96007" lon="4.87654">
        <ele>289</ele>
        <time>2017-06-18T09:02:31Z</time>
      </trkpt>
      <trkpt lat="45.96014" lon="4.87646">
        <ele>289</ele>
        <time>2017-06-18T09:02:33Z</time>
      </trkpt>
      <trkpt lat="45.96017" lon="4.87643">
        <ele>289</ele>
        <time>2017-06-18T09:02:34Z</time>
      </trkpt>
      <trkpt lat="45.96024" lon="4.87635">
        <ele>289</ele>
        <time>2017-06-18T09:02:36Z</time>
      </trkpt>
      <trkpt lat="45.96027" lon="4.87632">
        <ele>289</ele>
        <time>2017-06-18T09:02:37Z</time>
      </trkpt>
      <trkpt lat="45.96031" lon="4.87627">
        <ele>289</ele>
        <time>2017-06-18T09:02:38Z</time>
      </trkpt>
      <trkpt lat="45.96034" lon="4.87623">
        <ele>289</ele>
        <time>2017-06-18T09:02:39Z</time>
      </trkpt>
      <trkpt lat="45.96041" lon="4.87616">
        <ele>289</ele>
        <time>2017-06-18T09:02:41Z</time>
      </trkpt>
      <trkpt lat="45.96045" lon="4.87612">
        <ele>289</ele>
        <time>2017-06-18T09:02:42Z</time>
      </trkpt>
      <trkpt lat="45.96049" lon="4.87608">
        <ele>289</ele>
        <time>2017-06-18T09:02:43Z</time>
      </trkpt>
      <trkpt lat="45.96052" lon="4.87604">
        <ele>289</ele>
        <time>2017-06-18T09:02:44Z</time>
      </trkpt>
      <trkpt lat="45.96059" lon="4.87596">
        <ele>288</ele>
        <time>2017-06-18T09:02:46Z</time>
      </trkpt>
      <trkpt lat="45.96063" lon="4.87592">
        <ele>288</ele>
        <time>2017-06-18T09:02:47Z</time>
      </trkpt>
      <trkpt lat="45.96069" lon="4.87584">
        <ele>288</ele>
        <time>2017-06-18T09:02:49Z</time>
      </trkpt>
      <trkpt lat="45.96073" lon="4.8758">
        <ele>288</ele>
        <time>2017-06-18T09:02:50Z</time>
      </trkpt>
      <trkpt lat="45.96077" lon="4.87577">
        <ele>288</ele>
        <time>2017-06-18T09:02:51Z</time>
      </trkpt>
      <trkpt lat="45.9608" lon="4.87572">
        <ele>288</ele>
        <time>2017-06-18T09:02:52Z</time>
      </trkpt>
      <trkpt lat="45.96084" lon="4.87568">
        <ele>287</ele>
        <time>2017-06-18T09:02:53Z</time>
      </trkpt>
      <trkpt lat="45.96088" lon="4.87564">
        <ele>287</ele>
        <time>2017-06-18T09:02:54Z</time>
      </trkpt>
      <trkpt lat="45.96091" lon="4.8756">
        <ele>287</ele>
        <time>2017-06-18T09:02:55Z</time>
      </trkpt>
      <trkpt lat="45.96095" lon="4.87555">
        <ele>287</ele>
        <time>2017-06-18T09:02:56Z</time>
      </trkpt>
      <trkpt lat="45.96099" lon="4.87551">
        <ele>287</ele>
        <time>2017-06-18T09:02:57Z</time>
      </trkpt>
      <trkpt lat="45.96102" lon="4.87547">
        <ele>287</ele>
        <time>2017-06-18T09:02:58Z</time>
      </trkpt>
      <trkpt lat="45.96106" lon="4.87543">
        <ele>287</ele>
        <time>2017-06-18T09:02:59Z</time>
      </trkpt>
      <trkpt lat="45.9611" lon="4.87539">
        <ele>287</ele>
        <time>2017-06-18T09:03:00Z</time>
      </trkpt>
      <trkpt lat="45.96113" lon="4.87535">
        <ele>287</ele>
        <time>2017-06-18T09:03:01Z</time>
      </trkpt>
      <trkpt lat="45.96117" lon="4.8753">
        <ele>287</ele>
        <time>2017-06-18T09:03:02Z</time>
      </trkpt>
      <trkpt lat="45.9612" lon="4.87526">
        <ele>286</ele>
        <time>2017-06-18T09:03:03Z</time>
      </trkpt>
      <trkpt lat="45.96124" lon="4.87521">
        <ele>286</ele>
        <time>2017-06-18T09:03:04Z</time>
      </trkpt>
      <trkpt lat="45.96128" lon="4.87517">
        <ele>286</ele>
        <time>2017-06-18T09:03:05Z</time>
      </trkpt>
      <trkpt lat="45.96132" lon="4.87512">
        <ele>286</ele>
        <time>2017-06-18T09:03:06Z</time>
      </trkpt>
      <trkpt lat="45.96137" lon="4.87508">
        <ele>286</ele>
        <time>2017-06-18T09:03:07Z</time>
      </trkpt>
      <trkpt lat="45.96142" lon="4.87504">
        <ele>286</ele>
        <time>2017-06-18T09:03:08Z</time>
      </trkpt>
      <trkpt lat="45.96146" lon="4.87499">
        <ele>285</ele>
        <time>2017-06-18T09:03:09Z</time>
      </trkpt>
      <trkpt lat="45.96151" lon="4.87494">
        <ele>285</ele>
        <time>2017-06-18T09:03:10Z</time>
      </trkpt>
      <trkpt lat="45.96155" lon="4.87489">
        <ele>285</ele>
        <time>2017-06-18T09:03:11Z</time>
      </trkpt>
      <trkpt lat="45.9616" lon="4.87484">
        <ele>285</ele>
        <time>2017-06-18T09:03:12Z</time>
      </trkpt>
      <trkpt lat="45.96164" lon="4.87479">
        <ele>285</ele>
        <time>2017-06-18T09:03:13Z</time>
      </trkpt>
      <trkpt lat="45.96169" lon="4.87474">
        <ele>284</ele>
        <time>2017-06-18T09:03:14Z</time>
      </trkpt>
      <trkpt lat="45.96173" lon="4.87468">
        <ele>284</ele>
        <time>2017-06-18T09:03:15Z</time>
      </trkpt>
      <trkpt lat="45.96178" lon="4.87463">
        <ele>284</ele>
        <time>2017-06-18T09:03:16Z</time>
      </trkpt>
      <trkpt lat="45.96183" lon="4.87457">
        <ele>284</ele>
        <time>2017-06-18T09:03:17Z</time>
      </trkpt>
      <trkpt lat="45.96188" lon="4.87451">
        <ele>284</ele>
        <time>2017-06-18T09:03:18Z</time>
      </trkpt>
      <trkpt lat="45.96193" lon="4.87446">
        <ele>284</ele>
        <time>2017-06-18T09:03:19Z</time>
      </trkpt>
      <trkpt lat="45.96198" lon="4.8744">
        <ele>284</ele>
        <time>2017-06-18T09:03:20Z</time>
      </trkpt>
      <trkpt lat="45.96203" lon="4.87435">
        <ele>284</ele>
        <time>2017-06-18T09:03:21Z</time>
      </trkpt>
      <trkpt lat="45.96208" lon="4.87429">
        <ele>284</ele>
        <time>2017-06-18T09:03:22Z</time>
      </trkpt>
      <trkpt lat="45.96212" lon="4.87423">
        <ele>284</ele>
        <time>2017-06-18T09:03:23Z</time>
      </trkpt>
      <trkpt lat="45.96217" lon="4.87417">
        <ele>284</ele>
        <time>2017-06-18T09:03:24Z</time>
      </trkpt>
      <trkpt lat="45.96221" lon="4.87412">
        <ele>283</ele>
        <time>2017-06-18T09:03:25Z</time>
      </trkpt>
      <trkpt lat="45.96226" lon="4.87407">
        <ele>283</ele>
        <time>2017-06-18T09:03:26Z</time>
      </trkpt>
      <trkpt lat="45.9623" lon="4.87401">
        <ele>283</ele>
        <time>2017-06-18T09:03:27Z</time>
      </trkpt>
      <trkpt lat="45.96234" lon="4.87396">
        <ele>283</ele>
        <time>2017-06-18T09:03:28Z</time>
      </trkpt>
      <trkpt lat="45.96238" lon="4.87391">
        <ele>283</ele>
        <time>2017-06-18T09:03:29Z</time>
      </trkpt>
      <trkpt lat="45.96242" lon="4.87386">
        <ele>283</ele>
        <time>2017-06-18T09:03:30Z</time>
      </trkpt>
      <trkpt lat="45.96246" lon="4.87381">
        <ele>283</ele>
        <time>2017-06-18T09:03:31Z</time>
      </trkpt>
      <trkpt lat="45.9625" lon="4.87377">
        <ele>283</ele>
        <time>2017-06-18T09:03:32Z</time>
      </trkpt>
      <trkpt lat="45.96254" lon="4.87372">
        <ele>283</ele>
        <time>2017-06-18T09:03:33Z</time>
      </trkpt>
      <trkpt lat="45.96258" lon="4.87367">
        <ele>283</ele>
        <time>2017-06-18T09:03:34Z</time>
      </trkpt>
      <trkpt lat="45.96262" lon="4.87362">
        <ele>283</ele>
        <time>2017-06-18T09:03:35Z</time>
      </trkpt>
      <trkpt lat="45.96266" lon="4.87357">
        <ele>283</ele>
        <time>2017-06-18T09:03:36Z</time>
      </trkpt>
      <trkpt lat="45.96271" lon="4.87351">
        <ele>283</ele>
        <time>2017-06-18T09:03:37Z</time>
      </trkpt>
      <trkpt lat="45.96275" lon="4.87345">
        <ele>283</ele>
        <time>2017-06-18T09:03:38Z</time>
      </trkpt>
      <trkpt lat="45.9628" lon="4.87338">
        <ele>284</ele>
        <time>2017-06-18T09:03:39Z</time>
      </trkpt>
      <trkpt lat="45.96285" lon="4.87332">
        <ele>283</ele>
        <time>2017-06-18T09:03:40Z</time>
      </trkpt>
      <trkpt lat="45.9629" lon="4.87326">
        <ele>283</ele>
        <time>2017-06-18T09:03:41Z</time>
      </trkpt>
      <trkpt lat="45.96295" lon="4.87319">
        <ele>283</ele>
        <time>2017-06-18T09:03:42Z</time>
      </trkpt>
      <trkpt lat="45.96299" lon="4.87313">
        <ele>283</ele>
        <time>2017-06-18T09:03:43Z</time>
      </trkpt>
      <trkpt lat="45.96304" lon="4.87307">
        <ele>283</ele>
        <time>2017-06-18T09:03:44Z</time>
      </trkpt>
      <trkpt lat="45.96309" lon="4.87301">
        <ele>283</ele>
        <time>2017-06-18T09:03:45Z</time>
      </trkpt>
      <trkpt lat="45.96313" lon="4.87296">
        <ele>283</ele>
        <time>2017-06-18T09:03:46Z</time>
      </trkpt>
      <trkpt lat="45.96318" lon="4.8729">
        <ele>283</ele>
        <time>2017-06-18T09:03:47Z</time>
      </trkpt>
      <trkpt lat="45.96322" lon="4.87284">
        <ele>283</ele>
        <time>2017-06-18T09:03:48Z</time>
      </trkpt>
      <trkpt lat="45.96327" lon="4.87278">
        <ele>283</ele>
        <time>2017-06-18T09:03:49Z</time>
      </trkpt>
      <trkpt lat="45.96331" lon="4.87273">
        <ele>283</ele>
        <time>2017-06-18T09:03:50Z</time>
      </trkpt>
      <trkpt lat="45.96335" lon="4.87267">
        <ele>283</ele>
        <time>2017-06-18T09:03:51Z</time>
      </trkpt>
      <trkpt lat="45.96339" lon="4.87261">
        <ele>283</ele>
        <time>2017-06-18T09:03:52Z</time>
      </trkpt>
      <trkpt lat="45.96344" lon="4.87256">
        <ele>283</ele>
        <time>2017-06-18T09:03:53Z</time>
      </trkpt>
      <trkpt lat="45.96348" lon="4.87251">
        <ele>283</ele>
        <time>2017-06-18T09:03:54Z</time>
      </trkpt>
      <trkpt lat="45.96352" lon="4.87245">
        <ele>282</ele>
        <time>2017-06-18T09:03:55Z</time>
      </trkpt>
      <trkpt lat="45.96356" lon="4.8724">
        <ele>282</ele>
        <time>2017-06-18T09:03:56Z</time>
      </trkpt>
      <trkpt lat="45.9636" lon="4.87235">
        <ele>282</ele>
        <time>2017-06-18T09:03:57Z</time>
      </trkpt>
      <trkpt lat="45.96364" lon="4.8723">
        <ele>282</ele>
        <time>2017-06-18T09:03:58Z</time>
      </trkpt>
      <trkpt lat="45.96368" lon="4.87225">
        <ele>282</ele>
        <time>2017-06-18T09:03:59Z</time>
      </trkpt>
      <trkpt lat="45.96372" lon="4.8722">
        <ele>282</ele>
        <time>2017-06-18T09:04:00Z</time>
      </trkpt>
      <trkpt lat="45.96375" lon="4.87215">
        <ele>282</ele>
        <time>2017-06-18T09:04:01Z</time>
      </trkpt>
      <trkpt lat="45.96379" lon="4.8721">
        <ele>282</ele>
        <time>2017-06-18T09:04:02Z</time>
      </trkpt>
      <trkpt lat="45.96383" lon="4.87205">
        <ele>282</ele>
        <time>2017-06-18T09:04:03Z</time>
      </trkpt>
      <trkpt lat="45.96386" lon="4.872">
        <ele>282</ele>
        <time>2017-06-18T09:04:04Z</time>
      </trkpt>
      <trkpt lat="45.9639" lon="4.87195">
        <ele>282</ele>
        <time>2017-06-18T09:04:05Z</time>
      </trkpt>
      <trkpt lat="45.96394" lon="4.87191">
        <ele>282</ele>
        <time>2017-06-18T09:04:06Z</time>
      </trkpt>
      <trkpt lat="45.96398" lon="4.87186">
        <ele>282</ele>
        <time>2017-06-18T09:04:07Z</time>
      </trkpt>
      <trkpt lat="45.96402" lon="4.87181">
        <ele>282</ele>
        <time>2017-06-18T09:04:08Z</time>
      </trkpt>
      <trkpt lat="45.96406" lon="4.87176">
        <ele>281</ele>
        <time>2017-06-18T09:04:09Z</time>
      </trkpt>
      <trkpt lat="45.9641" lon="4.87172">
        <ele>281</ele>
        <time>2017-06-18T09:04:10Z</time>
      </trkpt>
      <trkpt lat="45.96414" lon="4.87166">
        <ele>281</ele>
        <time>2017-06-18T09:04:11Z</time>
      </trkpt>
      <trkpt lat="45.96418" lon="4.87161">
        <ele>281</ele>
        <time>2017-06-18T09:04:12Z</time>
      </trkpt>
      <trkpt lat="45.96422" lon="4.87155">
        <ele>281</ele>
        <time>2017-06-18T09:04:13Z</time>
      </trkpt>
      <trkpt lat="45.96425" lon="4.8715">
        <ele>281</ele>
        <time>2017-06-18T09:04:14Z</time>
      </trkpt>
      <trkpt lat="45.96428" lon="4.87145">
        <ele>281</ele>
        <time>2017-06-18T09:04:15Z</time>
      </trkpt>
      <trkpt lat="45.96432" lon="4.87141">
        <ele>281</ele>
        <time>2017-06-18T09:04:16Z</time>
      </trkpt>
      <trkpt lat="45.96435" lon="4.87136">
        <ele>281</ele>
        <time>2017-06-18T09:04:17Z</time>
      </trkpt>
      <trkpt lat="45.96438" lon="4.87132">
        <ele>281</ele>
        <time>2017-06-18T09:04:18Z</time>
      </trkpt>
      <trkpt lat="45.96444" lon="4.87124">
        <ele>281</ele>
        <time>2017-06-18T09:04:20Z</time>
      </trkpt>
      <trkpt lat="45.96448" lon="4.87119">
        <ele>281</ele>
        <time>2017-06-18T09:04:21Z</time>
      </trkpt>
      <trkpt lat="45.96451" lon="4.87115">
        <ele>281</ele>
        <time>2017-06-18T09:04:22Z</time>
      </trkpt>
      <trkpt lat="45.96455" lon="4.87109">
        <ele>281</ele>
        <time>2017-06-18T09:04:23Z</time>
      </trkpt>
      <trkpt lat="45.96459" lon="4.87104">
        <ele>282</ele>
        <time>2017-06-18T09:04:24Z</time>
      </trkpt>
      <trkpt lat="45.96463" lon="4.87099">
        <ele>282</ele>
        <time>2017-06-18T09:04:25Z</time>
      </trkpt>
      <trkpt lat="45.96468" lon="4.87093">
        <ele>282</ele>
        <time>2017-06-18T09:04:26Z</time>
      </trkpt>
      <trkpt lat="45.96472" lon="4.87087">
        <ele>282</ele>
        <time>2017-06-18T09:04:27Z</time>
      </trkpt>
      <trkpt lat="45.96476" lon="4.87081">
        <ele>282</ele>
        <time>2017-06-18T09:04:28Z</time>
      </trkpt>
      <trkpt lat="45.9648" lon="4.87076">
        <ele>282</ele>
        <time>2017-06-18T09:04:29Z</time>
      </trkpt>
      <trkpt lat="45.96484" lon="4.8707">
        <ele>282</ele>
        <time>2017-06-18T09:04:30Z</time>
      </trkpt>
      <trkpt lat="45.96487" lon="4.87065">
        <ele>282</ele>
        <time>2017-06-18T09:04:31Z</time>
      </trkpt>
      <trkpt lat="45.96491" lon="4.8706">
        <ele>281</ele>
        <time>2017-06-18T09:04:32Z</time>
      </trkpt>
      <trkpt lat="45.96494" lon="4.87055">
        <ele>281</ele>
        <time>2017-06-18T09:04:33Z</time>
      </trkpt>
      <trkpt lat="45.96499" lon="4.87047">
        <ele>281</ele>
        <time>2017-06-18T09:04:35Z</time>
      </trkpt>
      <trkpt lat="45.96503" lon="4.87045">
        <ele>282</ele>
        <time>2017-06-18T09:04:36Z</time>
      </trkpt>
      <trkpt lat="45.96509" lon="4.87048">
        <ele>283</ele>
        <time>2017-06-18T09:04:38Z</time>
      </trkpt>
      <trkpt lat="45.96511" lon="4.8705">
        <ele>283</ele>
        <time>2017-06-18T09:04:39Z</time>
      </trkpt>
      <trkpt lat="45.96517" lon="4.87059">
        <ele>283</ele>
        <time>2017-06-18T09:04:42Z</time>
      </trkpt>
      <trkpt lat="45.96519" lon="4.87062">
        <ele>283</ele>
        <time>2017-06-18T09:04:43Z</time>
      </trkpt>
      <trkpt lat="45.96526" lon="4.87066">
        <ele>283</ele>
        <time>2017-06-18T09:04:46Z</time>
      </trkpt>
      <trkpt lat="45.96528" lon="4.87066">
        <ele>283</ele>
        <time>2017-06-18T09:04:47Z</time>
      </trkpt>
      <trkpt lat="45.96536" lon="4.87061">
        <ele>283</ele>
        <time>2017-06-18T09:04:52Z</time>
      </trkpt>
      <trkpt lat="45.96537" lon="4.87062">
        <ele>283</ele>
        <time>2017-06-18T09:04:53Z</time>
      </trkpt>
      <trkpt lat="45.96541" lon="4.87073">
        <ele>283</ele>
        <time>2017-06-18T09:04:57Z</time>
      </trkpt>
      <trkpt lat="45.96543" lon="4.87074">
        <ele>283</ele>
        <time>2017-06-18T09:04:58Z</time>
      </trkpt>
      <trkpt lat="45.96551" lon="4.87076">
        <ele>283</ele>
        <time>2017-06-18T09:05:02Z</time>
      </trkpt>
      <trkpt lat="45.96553" lon="4.87076">
        <ele>283</ele>
        <time>2017-06-18T09:05:03Z</time>
      </trkpt>
      <trkpt lat="45.96558" lon="4.87068">
        <ele>283</ele>
        <time>2017-06-18T09:05:06Z</time>
      </trkpt>
      <trkpt lat="45.96558" lon="4.87063">
        <ele>283</ele>
        <time>2017-06-18T09:05:07Z</time>
      </trkpt>
      <trkpt lat="45.96557" lon="4.87054">
        <ele>283</ele>
        <time>2017-06-18T09:05:09Z</time>
      </trkpt>
      <trkpt lat="45.96558" lon="4.87049">
        <ele>283</ele>
        <time>2017-06-18T09:05:10Z</time>
      </trkpt>
      <trkpt lat="45.9656" lon="4.87039">
        <ele>283</ele>
        <time>2017-06-18T09:05:12Z</time>
      </trkpt>
      <trkpt lat="45.9656" lon="4.87035">
        <ele>283</ele>
        <time>2017-06-18T09:05:13Z</time>
      </trkpt>
      <trkpt lat="45.96554" lon="4.87026">
        <ele>283</ele>
        <time>2017-06-18T09:05:18Z</time>
      </trkpt>
      <trkpt lat="45.96551" lon="4.87026">
        <ele>283</ele>
        <time>2017-06-18T09:05:19Z</time>
      </trkpt>
      <trkpt lat="45.96543" lon="4.87031">
        <ele>283</ele>
        <time>2017-06-18T09:11:47Z</time>
      </trkpt>
      <trkpt lat="45.96542" lon="4.87029">
        <ele>283</ele>
        <time>2017-06-18T09:11:48Z</time>
      </trkpt>
      <trkpt lat="45.96534" lon="4.87026">
        <ele>283</ele>
        <time>2017-06-18T09:12:04Z</time>
      </trkpt>
      <trkpt lat="45.96533" lon="4.87026">
        <ele>283</ele>
        <time>2017-06-18T09:12:05Z</time>
      </trkpt>
      <trkpt lat="45.96541" lon="4.8702">
        <ele>283</ele>
        <time>2017-06-18T09:14:12Z</time>
      </trkpt>
      <trkpt lat="45.96542" lon="4.87018">
        <ele>283</ele>
        <time>2017-06-18T09:14:13Z</time>
      </trkpt>
      <trkpt lat="45.96542" lon="4.87008">
        <ele>283</ele>
        <time>2017-06-18T09:14:17Z</time>
      </trkpt>
      <trkpt lat="45.96542" lon="4.87005">
        <ele>283</ele>
        <time>2017-06-18T09:14:18Z</time>
      </trkpt>
      <trkpt lat="45.96541" lon="4.86995">
        <ele>283</ele>
        <time>2017-06-18T09:14:21Z</time>
      </trkpt>
      <trkpt lat="45.96543" lon="4.86992">
        <ele>283</ele>
        <time>2017-06-18T09:14:22Z</time>
      </trkpt>
      <trkpt lat="45.96548" lon="4.86983">
        <ele>283</ele>
        <time>2017-06-18T09:14:25Z</time>
      </trkpt>
      <trkpt lat="45.9655" lon="4.8698">
        <ele>283</ele>
        <time>2017-06-18T09:14:26Z</time>
      </trkpt>
      <trkpt lat="45.96554" lon="4.86973">
        <ele>283</ele>
        <time>2017-06-18T09:14:28Z</time>
      </trkpt>
      <trkpt lat="45.96556" lon="4.86969">
        <ele>283</ele>
        <time>2017-06-18T09:14:29Z</time>
      </trkpt>
      <trkpt lat="45.9656" lon="4.86963">
        <ele>283</ele>
        <time>2017-06-18T09:14:31Z</time>
      </trkpt>
      <trkpt lat="45.96563" lon="4.86959">
        <ele>283</ele>
        <time>2017-06-18T09:14:32Z</time>
      </trkpt>
      <trkpt lat="45.96568" lon="4.86952">
        <ele>284</ele>
        <time>2017-06-18T09:14:34Z</time>
      </trkpt>
      <trkpt lat="45.9657" lon="4.86948">
        <ele>284</ele>
        <time>2017-06-18T09:14:35Z</time>
      </trkpt>
      <trkpt lat="45.96576" lon="4.8694">
        <ele>284</ele>
        <time>2017-06-18T09:14:37Z</time>
      </trkpt>
      <trkpt lat="45.9658" lon="4.86936">
        <ele>284</ele>
        <time>2017-06-18T09:14:38Z</time>
      </trkpt>
      <trkpt lat="45.96584" lon="4.86929">
        <ele>285</ele>
        <time>2017-06-18T09:14:40Z</time>
      </trkpt>
      <trkpt lat="45.96585" lon="4.86925">
        <ele>285</ele>
        <time>2017-06-18T09:14:41Z</time>
      </trkpt>
      <trkpt lat="45.96589" lon="4.86917">
        <ele>285</ele>
        <time>2017-06-18T09:14:43Z</time>
      </trkpt>
      <trkpt lat="45.96592" lon="4.86912">
        <ele>286</ele>
        <time>2017-06-18T09:14:44Z</time>
      </trkpt>
      <trkpt lat="45.96596" lon="4.86905">
        <ele>286</ele>
        <time>2017-06-18T09:14:46Z</time>
      </trkpt>
      <trkpt lat="45.96598" lon="4.86902">
        <ele>286</ele>
        <time>2017-06-18T09:14:47Z</time>
      </trkpt>
      <trkpt lat="45.96603" lon="4.86893">
        <ele>286</ele>
        <time>2017-06-18T09:14:50Z</time>
      </trkpt>
      <trkpt lat="45.96604" lon="4.8689">
        <ele>287</ele>
        <time>2017-06-18T09:14:51Z</time>
      </trkpt>
      <trkpt lat="45.96609" lon="4.8688">
        <ele>287</ele>
        <time>2017-06-18T09:14:54Z</time>
      </trkpt>
      <trkpt lat="45.96611" lon="4.86876">
        <ele>287</ele>
        <time>2017-06-18T09:14:55Z</time>
      </trkpt>
      <trkpt lat="45.96616" lon="4.86869">
        <ele>287</ele>
        <time>2017-06-18T09:14:57Z</time>
      </trkpt>
      <trkpt lat="45.96618" lon="4.86865">
        <ele>287</ele>
        <time>2017-06-18T09:14:58Z</time>
      </trkpt>
      <trkpt lat="45.96624" lon="4.86856">
        <ele>287</ele>
        <time>2017-06-18T09:15:00Z</time>
      </trkpt>
      <trkpt lat="45.96626" lon="4.86851">
        <ele>287</ele>
        <time>2017-06-18T09:15:01Z</time>
      </trkpt>
      <trkpt lat="45.96632" lon="4.86843">
        <ele>287</ele>
        <time>2017-06-18T09:15:03Z</time>
      </trkpt>
      <trkpt lat="45.96635" lon="4.8684">
        <ele>287</ele>
        <time>2017-06-18T09:15:04Z</time>
      </trkpt>
      <trkpt lat="45.96641" lon="4.86832">
        <ele>288</ele>
        <time>2017-06-18T09:15:07Z</time>
      </trkpt>
      <trkpt lat="45.96643" lon="4.86829">
        <ele>288</ele>
        <time>2017-06-18T09:15:08Z</time>
      </trkpt>
      <trkpt lat="45.96648" lon="4.86819">
        <ele>288</ele>
        <time>2017-06-18T09:15:11Z</time>
      </trkpt>
      <trkpt lat="45.9665" lon="4.86815">
        <ele>288</ele>
        <time>2017-06-18T09:15:12Z</time>
      </trkpt>
      <trkpt lat="45.96655" lon="4.86807">
        <ele>288</ele>
        <time>2017-06-18T09:15:14Z</time>
      </trkpt>
      <trkpt lat="45.96658" lon="4.86803">
        <ele>288</ele>
        <time>2017-06-18T09:15:15Z</time>
      </trkpt>
      <trkpt lat="45.96663" lon="4.86795">
        <ele>288</ele>
        <time>2017-06-18T09:15:17Z</time>
      </trkpt>
      <trkpt lat="45.96666" lon="4.86791">
        <ele>288</ele>
        <time>2017-06-18T09:15:18Z</time>
      </trkpt>
      <trkpt lat="45.96671" lon="4.86783">
        <ele>289</ele>
        <time>2017-06-18T09:15:20Z</time>
      </trkpt>
      <trkpt lat="45.96673" lon="4.8678">
        <ele>289</ele>
        <time>2017-06-18T09:15:21Z</time>
      </trkpt>
      <trkpt lat="45.96677" lon="4.86773">
        <ele>289</ele>
        <time>2017-06-18T09:15:23Z</time>
      </trkpt>
      <trkpt lat="45.96679" lon="4.86769">
        <ele>289</ele>
        <time>2017-06-18T09:15:24Z</time>
      </trkpt>
      <trkpt lat="45.96685" lon="4.86761">
        <ele>289</ele>
        <time>2017-06-18T09:15:26Z</time>
      </trkpt>
      <trkpt lat="45.96687" lon="4.86756">
        <ele>289</ele>
        <time>2017-06-18T09:15:27Z</time>
      </trkpt>
      <trkpt lat="45.96693" lon="4.86748">
        <ele>289</ele>
        <time>2017-06-18T09:15:29Z</time>
      </trkpt>
      <trkpt lat="45.96695" lon="4.86743">
        <ele>289</ele>
        <time>2017-06-18T09:15:30Z</time>
      </trkpt>
      <trkpt lat="45.967" lon="4.86735">
        <ele>289</ele>
        <time>2017-06-18T09:15:32Z</time>
      </trkpt>
      <trkpt lat="45.96703" lon="4.8673">
        <ele>289</ele>
        <time>2017-06-18T09:15:33Z</time>
      </trkpt>
      <trkpt lat="45.96708" lon="4.86721">
        <ele>289</ele>
        <time>2017-06-18T09:15:35Z</time>
      </trkpt>
      <trkpt lat="45.9671" lon="4.86717">
        <ele>289</ele>
        <time>2017-06-18T09:15:36Z</time>
      </trkpt>
      <trkpt lat="45.96716" lon="4.86708">
        <ele>289</ele>
        <time>2017-06-18T09:15:38Z</time>
      </trkpt>
      <trkpt lat="45.96718" lon="4.86704">
        <ele>289</ele>
        <time>2017-06-18T09:15:39Z</time>
      </trkpt>
      <trkpt lat="45.96723" lon="4.86695">
        <ele>289</ele>
        <time>2017-06-18T09:15:41Z</time>
      </trkpt>
      <trkpt lat="45.96726" lon="4.8669">
        <ele>289</ele>
        <time>2017-06-18T09:15:42Z</time>
      </trkpt>
      <trkpt lat="45.96731" lon="4.86681">
        <ele>290</ele>
        <time>2017-06-18T09:15:44Z</time>
      </trkpt>
      <trkpt lat="45.96734" lon="4.86676">
        <ele>290</ele>
        <time>2017-06-18T09:15:45Z</time>
      </trkpt>
      <trkpt lat="45.9674" lon="4.86667">
        <ele>290</ele>
        <time>2017-06-18T09:15:47Z</time>
      </trkpt>
      <trkpt lat="45.96743" lon="4.86662">
        <ele>290</ele>
        <time>2017-06-18T09:15:48Z</time>
      </trkpt>
      <trkpt lat="45.96748" lon="4.86654">
        <ele>290</ele>
        <time>2017-06-18T09:15:50Z</time>
      </trkpt>
      <trkpt lat="45.96751" lon="4.8665">
        <ele>290</ele>
        <time>2017-06-18T09:15:51Z</time>
      </trkpt>
      <trkpt lat="45.96756" lon="4.86641">
        <ele>290</ele>
        <time>2017-06-18T09:15:53Z</time>
      </trkpt>
      <trkpt lat="45.96759" lon="4.86637">
        <ele>290</ele>
        <time>2017-06-18T09:15:54Z</time>
      </trkpt>
      <trkpt lat="45.96764" lon="4.86628">
        <ele>289</ele>
        <time>2017-06-18T09:15:56Z</time>
      </trkpt>
      <trkpt lat="45.96767" lon="4.86623">
        <ele>289</ele>
        <time>2017-06-18T09:15:57Z</time>
      </trkpt>
      <trkpt lat="45.96772" lon="4.86613">
        <ele>289</ele>
        <time>2017-06-18T09:15:59Z</time>
      </trkpt>
      <trkpt lat="45.96775" lon="4.86609">
        <ele>289</ele>
        <time>2017-06-18T09:16:00Z</time>
      </trkpt>
      <trkpt lat="45.9678" lon="4.866">
        <ele>289</ele>
        <time>2017-06-18T09:16:02Z</time>
      </trkpt>
      <trkpt lat="45.96783" lon="4.86595">
        <ele>289</ele>
        <time>2017-06-18T09:16:03Z</time>
      </trkpt>
      <trkpt lat="45.96788" lon="4.86587">
        <ele>289</ele>
        <time>2017-06-18T09:16:05Z</time>
      </trkpt>
      <trkpt lat="45.9679" lon="4.86583">
        <ele>290</ele>
        <time>2017-06-18T09:16:06Z</time>
      </trkpt>
      <trkpt lat="45.96795" lon="4.86574">
        <ele>290</ele>
        <time>2017-06-18T09:16:08Z</time>
      </trkpt>
      <trkpt lat="45.96798" lon="4.8657">
        <ele>290</ele>
        <time>2017-06-18T09:16:09Z</time>
      </trkpt>
      <trkpt lat="45.96804" lon="4.86561">
        <ele>290</ele>
        <time>2017-06-18T09:16:11Z</time>
      </trkpt>
      <trkpt lat="45.96806" lon="4.86557">
        <ele>290</ele>
        <time>2017-06-18T09:16:12Z</time>
      </trkpt>
      <trkpt lat="45.96812" lon="4.86548">
        <ele>290</ele>
        <time>2017-06-18T09:16:14Z</time>
      </trkpt>
      <trkpt lat="45.96814" lon="4.86543">
        <ele>290</ele>
        <time>2017-06-18T09:16:15Z</time>
      </trkpt>
      <trkpt lat="45.9682" lon="4.86534">
        <ele>290</ele>
        <time>2017-06-18T09:16:17Z</time>
      </trkpt>
      <trkpt lat="45.96822" lon="4.86529">
        <ele>289</ele>
        <time>2017-06-18T09:16:18Z</time>
      </trkpt>
      <trkpt lat="45.96825" lon="4.86525">
        <ele>289</ele>
        <time>2017-06-18T09:16:19Z</time>
      </trkpt>
      <trkpt lat="45.96829" lon="4.8652">
        <ele>289</ele>
        <time>2017-06-18T09:16:20Z</time>
      </trkpt>
      <trkpt lat="45.96832" lon="4.86514">
        <ele>289</ele>
        <time>2017-06-18T09:16:21Z</time>
      </trkpt>
      <trkpt lat="45.96834" lon="4.86508">
        <ele>289</ele>
        <time>2017-06-18T09:16:22Z</time>
      </trkpt>
      <trkpt lat="45.96837" lon="4.86502">
        <ele>289</ele>
        <time>2017-06-18T09:16:23Z</time>
      </trkpt>
      <trkpt lat="45.9684" lon="4.86496">
        <ele>289</ele>
        <time>2017-06-18T09:16:24Z</time>
      </trkpt>
      <trkpt lat="45.96842" lon="4.8649">
        <ele>289</ele>
        <time>2017-06-18T09:16:25Z</time>
      </trkpt>
      <trkpt lat="45.96844" lon="4.86484">
        <ele>289</ele>
        <time>2017-06-18T09:16:26Z</time>
      </trkpt>
      <trkpt lat="45.96846" lon="4.86478">
        <ele>289</ele>
        <time>2017-06-18T09:16:27Z</time>
      </trkpt>
      <trkpt lat="45.96848" lon="4.86472">
        <ele>289</ele>
        <time>2017-06-18T09:16:28Z</time>
      </trkpt>
      <trkpt lat="45.96849" lon="4.86466">
        <ele>289</ele>
        <time>2017-06-18T09:16:29Z</time>
      </trkpt>
      <trkpt lat="45.96851" lon="4.86459">
        <ele>289</ele>
        <time>2017-06-18T09:16:30Z</time>
      </trkpt>
      <trkpt lat="45.96852" lon="4.86453">
        <ele>289</ele>
        <time>2017-06-18T09:16:31Z</time>
      </trkpt>
      <trkpt lat="45.96854" lon="4.86447">
        <ele>289</ele>
        <time>2017-06-18T09:16:32Z</time>
      </trkpt>
      <trkpt lat="45.96855" lon="4.8644">
        <ele>290</ele>
        <time>2017-06-18T09:16:33Z</time>
      </trkpt>
      <trkpt lat="45.96856" lon="4.86434">
        <ele>290</ele>
        <time>2017-06-18T09:16:34Z</time>
      </trkpt>
      <trkpt lat="45.96858" lon="4.86422">
        <ele>290</ele>
        <time>2017-06-18T09:16:36Z</time>
      </trkpt>
      <trkpt lat="45.96859" lon="4.86416">
        <ele>290</ele>
        <time>2017-06-18T09:16:37Z</time>
      </trkpt>
      <trkpt lat="45.96861" lon="4.86404">
        <ele>290</ele>
        <time>2017-06-18T09:16:39Z</time>
      </trkpt>
      <trkpt lat="45.96862" lon="4.86398">
        <ele>290</ele>
        <time>2017-06-18T09:16:40Z</time>
      </trkpt>
      <trkpt lat="45.96863" lon="4.86385">
        <ele>290</ele>
        <time>2017-06-18T09:16:42Z</time>
      </trkpt>
      <trkpt lat="45.96864" lon="4.86379">
        <ele>290</ele>
        <time>2017-06-18T09:16:43Z</time>
      </trkpt>
      <trkpt lat="45.96864" lon="4.86372">
        <ele>290</ele>
        <time>2017-06-18T09:16:44Z</time>
      </trkpt>
      <trkpt lat="45.96865" lon="4.86365">
        <ele>290</ele>
        <time>2017-06-18T09:16:45Z</time>
      </trkpt>
      <trkpt lat="45.96866" lon="4.86358">
        <ele>290</ele>
        <time>2017-06-18T09:16:46Z</time>
      </trkpt>
      <trkpt lat="45.96867" lon="4.86351">
        <ele>290</ele>
        <time>2017-06-18T09:16:47Z</time>
      </trkpt>
      <trkpt lat="45.96868" lon="4.86344">
        <ele>290</ele>
        <time>2017-06-18T09:16:48Z</time>
      </trkpt>
      <trkpt lat="45.96869" lon="4.86337">
        <ele>290</ele>
        <time>2017-06-18T09:16:49Z</time>
      </trkpt>
      <trkpt lat="45.9687" lon="4.8633">
        <ele>289</ele>
        <time>2017-06-18T09:16:50Z</time>
      </trkpt>
      <trkpt lat="45.96871" lon="4.86324">
        <ele>289</ele>
        <time>2017-06-18T09:16:51Z</time>
      </trkpt>
      <trkpt lat="45.96873" lon="4.86312">
        <ele>289</ele>
        <time>2017-06-18T09:16:53Z</time>
      </trkpt>
      <trkpt lat="45.96874" lon="4.86306">
        <ele>289</ele>
        <time>2017-06-18T09:16:54Z</time>
      </trkpt>
      <trkpt lat="45.96876" lon="4.86295">
        <ele>289</ele>
        <time>2017-06-18T09:16:56Z</time>
      </trkpt>
      <trkpt lat="45.96877" lon="4.86289">
        <ele>289</ele>
        <time>2017-06-18T09:16:57Z</time>
      </trkpt>
      <trkpt lat="45.96879" lon="4.86276">
        <ele>289</ele>
        <time>2017-06-18T09:16:59Z</time>
      </trkpt>
      <trkpt lat="45.9688" lon="4.8627">
        <ele>288</ele>
        <time>2017-06-18T09:17:00Z</time>
      </trkpt>
      <trkpt lat="45.96881" lon="4.86258">
        <ele>288</ele>
        <time>2017-06-18T09:17:02Z</time>
      </trkpt>
      <trkpt lat="45.96882" lon="4.86252">
        <ele>288</ele>
        <time>2017-06-18T09:17:03Z</time>
      </trkpt>
      <trkpt lat="45.96884" lon="4.86241">
        <ele>288</ele>
        <time>2017-06-18T09:17:05Z</time>
      </trkpt>
      <trkpt lat="45.96885" lon="4.86235">
        <ele>288</ele>
        <time>2017-06-18T09:17:06Z</time>
      </trkpt>
      <trkpt lat="45.96887" lon="4.86223">
        <ele>289</ele>
        <time>2017-06-18T09:17:08Z</time>
      </trkpt>
      <trkpt lat="45.96888" lon="4.86218">
        <ele>289</ele>
        <time>2017-06-18T09:17:09Z</time>
      </trkpt>
      <trkpt lat="45.96889" lon="4.86206">
        <ele>289</ele>
        <time>2017-06-18T09:17:11Z</time>
      </trkpt>
      <trkpt lat="45.9689" lon="4.862">
        <ele>289</ele>
        <time>2017-06-18T09:17:12Z</time>
      </trkpt>
      <trkpt lat="45.96892" lon="4.86188">
        <ele>289</ele>
        <time>2017-06-18T09:17:14Z</time>
      </trkpt>
      <trkpt lat="45.96893" lon="4.86181">
        <ele>289</ele>
        <time>2017-06-18T09:17:15Z</time>
      </trkpt>
      <trkpt lat="45.96894" lon="4.86174">
        <ele>288</ele>
        <time>2017-06-18T09:17:16Z</time>
      </trkpt>
      <trkpt lat="45.96895" lon="4.86167">
        <ele>289</ele>
        <time>2017-06-18T09:17:17Z</time>
      </trkpt>
      <trkpt lat="45.96895" lon="4.86159">
        <ele>289</ele>
        <time>2017-06-18T09:17:18Z</time>
      </trkpt>
      <trkpt lat="45.96896" lon="4.86152">
        <ele>289</ele>
        <time>2017-06-18T09:17:19Z</time>
      </trkpt>
      <trkpt lat="45.96897" lon="4.86144">
        <ele>289</ele>
        <time>2017-06-18T09:17:20Z</time>
      </trkpt>
      <trkpt lat="45.96898" lon="4.86136">
        <ele>289</ele>
        <time>2017-06-18T09:17:21Z</time>
      </trkpt>
      <trkpt lat="45.96899" lon="4.86128">
        <ele>289</ele>
        <time>2017-06-18T09:17:22Z</time>
      </trkpt>
      <trkpt lat="45.969" lon="4.8612">
        <ele>289</ele>
        <time>2017-06-18T09:17:23Z</time>
      </trkpt>
      <trkpt lat="45.96902" lon="4.86112">
        <ele>289</ele>
        <time>2017-06-18T09:17:24Z</time>
      </trkpt>
      <trkpt lat="45.96903" lon="4.86104">
        <ele>288</ele>
        <time>2017-06-18T09:17:25Z</time>
      </trkpt>
      <trkpt lat="45.96904" lon="4.86095">
        <ele>288</ele>
        <time>2017-06-18T09:17:26Z</time>
      </trkpt>
      <trkpt lat="45.96905" lon="4.86087">
        <ele>288</ele>
        <time>2017-06-18T09:17:27Z</time>
      </trkpt>
      <trkpt lat="45.96905" lon="4.86079">
        <ele>288</ele>
        <time>2017-06-18T09:17:28Z</time>
      </trkpt>
      <trkpt lat="45.96906" lon="4.86071">
        <ele>288</ele>
        <time>2017-06-18T09:17:29Z</time>
      </trkpt>
      <trkpt lat="45.96907" lon="4.86063">
        <ele>288</ele>
        <time>2017-06-18T09:17:30Z</time>
      </trkpt>
      <trkpt lat="45.96908" lon="4.86055">
        <ele>288</ele>
        <time>2017-06-18T09:17:31Z</time>
      </trkpt>
      <trkpt lat="45.96909" lon="4.86047">
        <ele>289</ele>
        <time>2017-06-18T09:17:32Z</time>
      </trkpt>
      <trkpt lat="45.9691" lon="4.86039">
        <ele>289</ele>
        <time>2017-06-18T09:17:33Z</time>
      </trkpt>
      <trkpt lat="45.96911" lon="4.86031">
        <ele>289</ele>
        <time>2017-06-18T09:17:34Z</time>
      </trkpt>
      <trkpt lat="45.96912" lon="4.86023">
        <ele>289</ele>
        <time>2017-06-18T09:17:35Z</time>
      </trkpt>
      <trkpt lat="45.96913" lon="4.86014">
        <ele>288</ele>
        <time>2017-06-18T09:17:36Z</time>
      </trkpt>
      <trkpt lat="45.96915" lon="4.86007">
        <ele>288</ele>
        <time>2017-06-18T09:17:37Z</time>
      </trkpt>
      <trkpt lat="45.96916" lon="4.85999">
        <ele>288</ele>
        <time>2017-06-18T09:17:38Z</time>
      </trkpt>
      <trkpt lat="45.96917" lon="4.85991">
        <ele>288</ele>
        <time>2017-06-18T09:17:39Z</time>
      </trkpt>
      <trkpt lat="45.96918" lon="4.85983">
        <ele>287</ele>
        <time>2017-06-18T09:17:40Z</time>
      </trkpt>
      <trkpt lat="45.9692" lon="4.85976">
        <ele>287</ele>
        <time>2017-06-18T09:17:41Z</time>
      </trkpt>
      <trkpt lat="45.96922" lon="4.85968">
        <ele>287</ele>
        <time>2017-06-18T09:17:42Z</time>
      </trkpt>
      <trkpt lat="45.96924" lon="4.8596">
        <ele>287</ele>
        <time>2017-06-18T09:17:43Z</time>
      </trkpt>
      <trkpt lat="45.96926" lon="4.85954">
        <ele>287</ele>
        <time>2017-06-18T09:17:44Z</time>
      </trkpt>
      <trkpt lat="45.96928" lon="4.85947">
        <ele>286</ele>
        <time>2017-06-18T09:17:45Z</time>
      </trkpt>
      <trkpt lat="45.9693" lon="4.8594">
        <ele>286</ele>
        <time>2017-06-18T09:17:46Z</time>
      </trkpt>
      <trkpt lat="45.96931" lon="4.85932">
        <ele>286</ele>
        <time>2017-06-18T09:17:47Z</time>
      </trkpt>
      <trkpt lat="45.96933" lon="4.85926">
        <ele>286</ele>
        <time>2017-06-18T09:17:48Z</time>
      </trkpt>
      <trkpt lat="45.96935" lon="4.85919">
        <ele>286</ele>
        <time>2017-06-18T09:17:49Z</time>
      </trkpt>
      <trkpt lat="45.96937" lon="4.85912">
        <ele>286</ele>
        <time>2017-06-18T09:17:50Z</time>
      </trkpt>
      <trkpt lat="45.96939" lon="4.85905">
        <ele>285</ele>
        <time>2017-06-18T09:17:51Z</time>
      </trkpt>
      <trkpt lat="45.96941" lon="4.85897">
        <ele>285</ele>
        <time>2017-06-18T09:17:52Z</time>
      </trkpt>
      <trkpt lat="45.96942" lon="4.8589">
        <ele>285</ele>
        <time>2017-06-18T09:17:53Z</time>
      </trkpt>
      <trkpt lat="45.96944" lon="4.85882">
        <ele>285</ele>
        <time>2017-06-18T09:17:54Z</time>
      </trkpt>
      <trkpt lat="45.96946" lon="4.85874">
        <ele>285</ele>
        <time>2017-06-18T09:17:55Z</time>
      </trkpt>
      <trkpt lat="45.96948" lon="4.85867">
        <ele>285</ele>
        <time>2017-06-18T09:17:56Z</time>
      </trkpt>
      <trkpt lat="45.9695" lon="4.8586">
        <ele>285</ele>
        <time>2017-06-18T09:17:57Z</time>
      </trkpt>
      <trkpt lat="45.96952" lon="4.85853">
        <ele>285</ele>
        <time>2017-06-18T09:17:58Z</time>
      </trkpt>
      <trkpt lat="45.96954" lon="4.85845">
        <ele>285</ele>
        <time>2017-06-18T09:17:59Z</time>
      </trkpt>
      <trkpt lat="45.96956" lon="4.85838">
        <ele>285</ele>
        <time>2017-06-18T09:18:00Z</time>
      </trkpt>
      <trkpt lat="45.96958" lon="4.85831">
        <ele>285</ele>
        <time>2017-06-18T09:18:01Z</time>
      </trkpt>
      <trkpt lat="45.9696" lon="4.85823">
        <ele>285</ele>
        <time>2017-06-18T09:18:02Z</time>
      </trkpt>
      <trkpt lat="45.96962" lon="4.85816">
        <ele>285</ele>
        <time>2017-06-18T09:18:03Z</time>
      </trkpt>
      <trkpt lat="45.96964" lon="4.85809">
        <ele>285</ele>
        <time>2017-06-18T09:18:04Z</time>
      </trkpt>
      <trkpt lat="45.96966" lon="4.85802">
        <ele>285</ele>
        <time>2017-06-18T09:18:05Z</time>
      </trkpt>
      <trkpt lat="45.96968" lon="4.85795">
        <ele>285</ele>
        <time>2017-06-18T09:18:06Z</time>
      </trkpt>
      <trkpt lat="45.9697" lon="4.85788">
        <ele>285</ele>
        <time>2017-06-18T09:18:07Z</time>
      </trkpt>
      <trkpt lat="45.96972" lon="4.8578">
        <ele>285</ele>
        <time>2017-06-18T09:18:08Z</time>
      </trkpt>
      <trkpt lat="45.96974" lon="4.85772">
        <ele>285</ele>
        <time>2017-06-18T09:18:09Z</time>
      </trkpt>
      <trkpt lat="45.96977" lon="4.85763">
        <ele>285</ele>
        <time>2017-06-18T09:18:10Z</time>
      </trkpt>
      <trkpt lat="45.96979" lon="4.85754">
        <ele>285</ele>
        <time>2017-06-18T09:18:11Z</time>
      </trkpt>
      <trkpt lat="45.96982" lon="4.85745">
        <ele>285</ele>
        <time>2017-06-18T09:18:12Z</time>
      </trkpt>
      <trkpt lat="45.96984" lon="4.85736">
        <ele>285</ele>
        <time>2017-06-18T09:18:13Z</time>
      </trkpt>
      <trkpt lat="45.96986" lon="4.85729">
        <ele>285</ele>
        <time>2017-06-18T09:18:14Z</time>
      </trkpt>
      <trkpt lat="45.96988" lon="4.85721">
        <ele>285</ele>
        <time>2017-06-18T09:18:15Z</time>
      </trkpt>
      <trkpt lat="45.96989" lon="4.85715">
        <ele>285</ele>
        <time>2017-06-18T09:18:16Z</time>
      </trkpt>
      <trkpt lat="45.96991" lon="4.85708">
        <ele>285</ele>
        <time>2017-06-18T09:18:17Z</time>
      </trkpt>
      <trkpt lat="45.96993" lon="4.85702">
        <ele>285</ele>
        <time>2017-06-18T09:18:18Z</time>
      </trkpt>
      <trkpt lat="45.96995" lon="4.85695">
        <ele>285</ele>
        <time>2017-06-18T09:18:19Z</time>
      </trkpt>
      <trkpt lat="45.96996" lon="4.85689">
        <ele>285</ele>
        <time>2017-06-18T09:18:20Z</time>
      </trkpt>
      <trkpt lat="45.96998" lon="4.85683">
        <ele>286</ele>
        <time>2017-06-18T09:18:21Z</time>
      </trkpt>
      <trkpt lat="45.96999" lon="4.85676">
        <ele>286</ele>
        <time>2017-06-18T09:18:22Z</time>
      </trkpt>
      <trkpt lat="45.97001" lon="4.8567">
        <ele>286</ele>
        <time>2017-06-18T09:18:23Z</time>
      </trkpt>
      <trkpt lat="45.97003" lon="4.85663">
        <ele>286</ele>
        <time>2017-06-18T09:18:24Z</time>
      </trkpt>
      <trkpt lat="45.97004" lon="4.85657">
        <ele>285</ele>
        <time>2017-06-18T09:18:25Z</time>
      </trkpt>
      <trkpt lat="45.97006" lon="4.8565">
        <ele>285</ele>
        <time>2017-06-18T09:18:26Z</time>
      </trkpt>
      <trkpt lat="45.97007" lon="4.85645">
        <ele>284</ele>
        <time>2017-06-18T09:18:27Z</time>
      </trkpt>
      <trkpt lat="45.97009" lon="4.85638">
        <ele>284</ele>
        <time>2017-06-18T09:18:28Z</time>
      </trkpt>
      <trkpt lat="45.97011" lon="4.85631">
        <ele>284</ele>
        <time>2017-06-18T09:18:29Z</time>
      </trkpt>
      <trkpt lat="45.97013" lon="4.85624">
        <ele>284</ele>
        <time>2017-06-18T09:18:30Z</time>
      </trkpt>
      <trkpt lat="45.97015" lon="4.85617">
        <ele>284</ele>
        <time>2017-06-18T09:18:31Z</time>
      </trkpt>
      <trkpt lat="45.97017" lon="4.8561">
        <ele>284</ele>
        <time>2017-06-18T09:18:32Z</time>
      </trkpt>
      <trkpt lat="45.97019" lon="4.85602">
        <ele>284</ele>
        <time>2017-06-18T09:18:33Z</time>
      </trkpt>
      <trkpt lat="45.97021" lon="4.85595">
        <ele>284</ele>
        <time>2017-06-18T09:18:34Z</time>
      </trkpt>
      <trkpt lat="45.97023" lon="4.85588">
        <ele>284</ele>
        <time>2017-06-18T09:18:35Z</time>
      </trkpt>
      <trkpt lat="45.97025" lon="4.8558">
        <ele>283</ele>
        <time>2017-06-18T09:18:36Z</time>
      </trkpt>
      <trkpt lat="45.97028" lon="4.85573">
        <ele>283</ele>
        <time>2017-06-18T09:18:37Z</time>
      </trkpt>
      <trkpt lat="45.9703" lon="4.85565">
        <ele>283</ele>
        <time>2017-06-18T09:18:38Z</time>
      </trkpt>
      <trkpt lat="45.97032" lon="4.85557">
        <ele>283</ele>
        <time>2017-06-18T09:18:39Z</time>
      </trkpt>
      <trkpt lat="45.97034" lon="4.85549">
        <ele>283</ele>
        <time>2017-06-18T09:18:40Z</time>
      </trkpt>
      <trkpt lat="45.97036" lon="4.85542">
        <ele>282</ele>
        <time>2017-06-18T09:18:41Z</time>
      </trkpt>
      <trkpt lat="45.97038" lon="4.85534">
        <ele>282</ele>
        <time>2017-06-18T09:18:42Z</time>
      </trkpt>
      <trkpt lat="45.9704" lon="4.85527">
        <ele>282</ele>
        <time>2017-06-18T09:18:43Z</time>
      </trkpt>
      <trkpt lat="45.97043" lon="4.85519">
        <ele>282</ele>
        <time>2017-06-18T09:18:44Z</time>
      </trkpt>
      <trkpt lat="45.97045" lon="4.85511">
        <ele>282</ele>
        <time>2017-06-18T09:18:45Z</time>
      </trkpt>
      <trkpt lat="45.97047" lon="4.85503">
        <ele>282</ele>
        <time>2017-06-18T09:18:46Z</time>
      </trkpt>
      <trkpt lat="45.97049" lon="4.85496">
        <ele>281</ele>
        <time>2017-06-18T09:18:47Z</time>
      </trkpt>
      <trkpt lat="45.97052" lon="4.85489">
        <ele>281</ele>
        <time>2017-06-18T09:18:48Z</time>
      </trkpt>
      <trkpt lat="45.97055" lon="4.85481">
        <ele>281</ele>
        <time>2017-06-18T09:18:49Z</time>
      </trkpt>
      <trkpt lat="45.97057" lon="4.85472">
        <ele>281</ele>
        <time>2017-06-18T09:18:50Z</time>
      </trkpt>
      <trkpt lat="45.9706" lon="4.85464">
        <ele>281</ele>
        <time>2017-06-18T09:18:51Z</time>
      </trkpt>
      <trkpt lat="45.97063" lon="4.85456">
        <ele>281</ele>
        <time>2017-06-18T09:18:52Z</time>
      </trkpt>
      <trkpt lat="45.97066" lon="4.85447">
        <ele>281</ele>
        <time>2017-06-18T09:18:53Z</time>
      </trkpt>
      <trkpt lat="45.97069" lon="4.85438">
        <ele>281</ele>
        <time>2017-06-18T09:18:54Z</time>
      </trkpt>
      <trkpt lat="45.97072" lon="4.85429">
        <ele>281</ele>
        <time>2017-06-18T09:18:55Z</time>
      </trkpt>
      <trkpt lat="45.97075" lon="4.85419">
        <ele>280</ele>
        <time>2017-06-18T09:18:56Z</time>
      </trkpt>
      <trkpt lat="45.97078" lon="4.85409">
        <ele>280</ele>
        <time>2017-06-18T09:18:57Z</time>
      </trkpt>
      <trkpt lat="45.97082" lon="4.85399">
        <ele>281</ele>
        <time>2017-06-18T09:18:58Z</time>
      </trkpt>
      <trkpt lat="45.97085" lon="4.85389">
        <ele>280</ele>
        <time>2017-06-18T09:18:59Z</time>
      </trkpt>
      <trkpt lat="45.97088" lon="4.85379">
        <ele>280</ele>
        <time>2017-06-18T09:19:00Z</time>
      </trkpt>
      <trkpt lat="45.97092" lon="4.85369">
        <ele>280</ele>
        <time>2017-06-18T09:19:01Z</time>
      </trkpt>
      <trkpt lat="45.97095" lon="4.85359">
        <ele>280</ele>
        <time>2017-06-18T09:19:02Z</time>
      </trkpt>
      <trkpt lat="45.97098" lon="4.8535">
        <ele>280</ele>
        <time>2017-06-18T09:19:03Z</time>
      </trkpt>
      <trkpt lat="45.97102" lon="4.85341">
        <ele>280</ele>
        <time>2017-06-18T09:19:04Z</time>
      </trkpt>
      <trkpt lat="45.97105" lon="4.85331">
        <ele>280</ele>
        <time>2017-06-18T09:19:05Z</time>
      </trkpt>
      <trkpt lat="45.97109" lon="4.85322">
        <ele>280</ele>
        <time>2017-06-18T09:19:06Z</time>
      </trkpt>
      <trkpt lat="45.97112" lon="4.85314">
        <ele>280</ele>
        <time>2017-06-18T09:19:07Z</time>
      </trkpt>
      <trkpt lat="45.97116" lon="4.85305">
        <ele>280</ele>
        <time>2017-06-18T09:19:08Z</time>
      </trkpt>
      <trkpt lat="45.97119" lon="4.85297">
        <ele>280</ele>
        <time>2017-06-18T09:19:09Z</time>
      </trkpt>
      <trkpt lat="45.97122" lon="4.8529">
        <ele>280</ele>
        <time>2017-06-18T09:19:10Z</time>
      </trkpt>
      <trkpt lat="45.97126" lon="4.85283">
        <ele>279</ele>
        <time>2017-06-18T09:19:11Z</time>
      </trkpt>
      <trkpt lat="45.97129" lon="4.85276">
        <ele>279</ele>
        <time>2017-06-18T09:19:12Z</time>
      </trkpt>
      <trkpt lat="45.97132" lon="4.85269">
        <ele>279</ele>
        <time>2017-06-18T09:19:13Z</time>
      </trkpt>
      <trkpt lat="45.97136" lon="4.85262">
        <ele>279</ele>
        <time>2017-06-18T09:19:14Z</time>
      </trkpt>
      <trkpt lat="45.97139" lon="4.85255">
        <ele>279</ele>
        <time>2017-06-18T09:19:15Z</time>
      </trkpt>
      <trkpt lat="45.97142" lon="4.85248">
        <ele>279</ele>
        <time>2017-06-18T09:19:16Z</time>
      </trkpt>
      <trkpt lat="45.97145" lon="4.85242">
        <ele>279</ele>
        <time>2017-06-18T09:19:17Z</time>
      </trkpt>
      <trkpt lat="45.97149" lon="4.85235">
        <ele>279</ele>
        <time>2017-06-18T09:19:18Z</time>
      </trkpt>
      <trkpt lat="45.97153" lon="4.85227">
        <ele>279</ele>
        <time>2017-06-18T09:19:19Z</time>
      </trkpt>
      <trkpt lat="45.97156" lon="4.85219">
        <ele>279</ele>
        <time>2017-06-18T09:19:20Z</time>
      </trkpt>
      <trkpt lat="45.9716" lon="4.85211">
        <ele>279</ele>
        <time>2017-06-18T09:19:21Z</time>
      </trkpt>
      <trkpt lat="45.97164" lon="4.85202">
        <ele>279</ele>
        <time>2017-06-18T09:19:22Z</time>
      </trkpt>
      <trkpt lat="45.97168" lon="4.85194">
        <ele>278</ele>
        <time>2017-06-18T09:19:23Z</time>
      </trkpt>
      <trkpt lat="45.97172" lon="4.85185">
        <ele>278</ele>
        <time>2017-06-18T09:19:24Z</time>
      </trkpt>
      <trkpt lat="45.97177" lon="4.85176">
        <ele>278</ele>
        <time>2017-06-18T09:19:25Z</time>
      </trkpt>
      <trkpt lat="45.97181" lon="4.85167">
        <ele>278</ele>
        <time>2017-06-18T09:19:26Z</time>
      </trkpt>
      <trkpt lat="45.97185" lon="4.85158">
        <ele>278</ele>
        <time>2017-06-18T09:19:27Z</time>
      </trkpt>
      <trkpt lat="45.97189" lon="4.85149">
        <ele>278</ele>
        <time>2017-06-18T09:19:28Z</time>
      </trkpt>
      <trkpt lat="45.97193" lon="4.85141">
        <ele>278</ele>
        <time>2017-06-18T09:19:29Z</time>
      </trkpt>
      <trkpt lat="45.97198" lon="4.85132">
        <ele>278</ele>
        <time>2017-06-18T09:19:30Z</time>
      </trkpt>
      <trkpt lat="45.97202" lon="4.85125">
        <ele>278</ele>
        <time>2017-06-18T09:19:31Z</time>
      </trkpt>
      <trkpt lat="45.97206" lon="4.85117">
        <ele>278</ele>
        <time>2017-06-18T09:19:32Z</time>
      </trkpt>
      <trkpt lat="45.97209" lon="4.8511">
        <ele>278</ele>
        <time>2017-06-18T09:19:33Z</time>
      </trkpt>
      <trkpt lat="45.97212" lon="4.85102">
        <ele>278</ele>
        <time>2017-06-18T09:19:34Z</time>
      </trkpt>
      <trkpt lat="45.97215" lon="4.85095">
        <ele>278</ele>
        <time>2017-06-18T09:19:35Z</time>
      </trkpt>
      <trkpt lat="45.97218" lon="4.85088">
        <ele>278</ele>
        <time>2017-06-18T09:19:36Z</time>
      </trkpt>
      <trkpt lat="45.97222" lon="4.85082">
        <ele>278</ele>
        <time>2017-06-18T09:19:37Z</time>
      </trkpt>
      <trkpt lat="45.97225" lon="4.85076">
        <ele>278</ele>
        <time>2017-06-18T09:19:38Z</time>
      </trkpt>
      <trkpt lat="45.97228" lon="4.8507">
        <ele>278</ele>
        <time>2017-06-18T09:19:39Z</time>
      </trkpt>
      <trkpt lat="45.9723" lon="4.85064">
        <ele>278</ele>
        <time>2017-06-18T09:19:40Z</time>
      </trkpt>
      <trkpt lat="45.97233" lon="4.85058">
        <ele>279</ele>
        <time>2017-06-18T09:19:41Z</time>
      </trkpt>
      <trkpt lat="45.97235" lon="4.85052">
        <ele>279</ele>
        <time>2017-06-18T09:19:42Z</time>
      </trkpt>
      <trkpt lat="45.97238" lon="4.85046">
        <ele>279</ele>
        <time>2017-06-18T09:19:43Z</time>
      </trkpt>
      <trkpt lat="45.97241" lon="4.8504">
        <ele>279</ele>
        <time>2017-06-18T09:19:44Z</time>
      </trkpt>
      <trkpt lat="45.97244" lon="4.85033">
        <ele>279</ele>
        <time>2017-06-18T09:19:45Z</time>
      </trkpt>
      <trkpt lat="45.97247" lon="4.85026">
        <ele>279</ele>
        <time>2017-06-18T09:19:46Z</time>
      </trkpt>
      <trkpt lat="45.9725" lon="4.85019">
        <ele>279</ele>
        <time>2017-06-18T09:19:47Z</time>
      </trkpt>
      <trkpt lat="45.97253" lon="4.85011">
        <ele>279</ele>
        <time>2017-06-18T09:19:48Z</time>
      </trkpt>
      <trkpt lat="45.97257" lon="4.85003">
        <ele>279</ele>
        <time>2017-06-18T09:19:49Z</time>
      </trkpt>
      <trkpt lat="45.97261" lon="4.84996">
        <ele>279</ele>
        <time>2017-06-18T09:19:50Z</time>
      </trkpt>
      <trkpt lat="45.97264" lon="4.84988">
        <ele>279</ele>
        <time>2017-06-18T09:19:51Z</time>
      </trkpt>
      <trkpt lat="45.97268" lon="4.8498">
        <ele>279</ele>
        <time>2017-06-18T09:19:52Z</time>
      </trkpt>
      <trkpt lat="45.97272" lon="4.84972">
        <ele>278</ele>
        <time>2017-06-18T09:19:53Z</time>
      </trkpt>
      <trkpt lat="45.97275" lon="4.84966">
        <ele>278</ele>
        <time>2017-06-18T09:19:54Z</time>
      </trkpt>
      <trkpt lat="45.97279" lon="4.84959">
        <ele>278</ele>
        <time>2017-06-18T09:19:55Z</time>
      </trkpt>
      <trkpt lat="45.97282" lon="4.84952">
        <ele>278</ele>
        <time>2017-06-18T09:19:56Z</time>
      </trkpt>
      <trkpt lat="45.97285" lon="4.84946">
        <ele>278</ele>
        <time>2017-06-18T09:19:57Z</time>
      </trkpt>
      <trkpt lat="45.97289" lon="4.8494">
        <ele>278</ele>
        <time>2017-06-18T09:19:58Z</time>
      </trkpt>
      <trkpt lat="45.97292" lon="4.84934">
        <ele>278</ele>
        <time>2017-06-18T09:19:59Z</time>
      </trkpt>
      <trkpt lat="45.97296" lon="4.84929">
        <ele>278</ele>
        <time>2017-06-18T09:20:00Z</time>
      </trkpt>
      <trkpt lat="45.97299" lon="4.84923">
        <ele>278</ele>
        <time>2017-06-18T09:20:01Z</time>
      </trkpt>
      <trkpt lat="45.97303" lon="4.84918">
        <ele>278</ele>
        <time>2017-06-18T09:20:02Z</time>
      </trkpt>
      <trkpt lat="45.97306" lon="4.84913">
        <ele>278</ele>
        <time>2017-06-18T09:20:03Z</time>
      </trkpt>
      <trkpt lat="45.97309" lon="4.84908">
        <ele>278</ele>
        <time>2017-06-18T09:20:04Z</time>
      </trkpt>
      <trkpt lat="45.97313" lon="4.84902">
        <ele>278</ele>
        <time>2017-06-18T09:20:05Z</time>
      </trkpt>
      <trkpt lat="45.97316" lon="4.84896">
        <ele>278</ele>
        <time>2017-06-18T09:20:06Z</time>
      </trkpt>
      <trkpt lat="45.97319" lon="4.84891">
        <ele>278</ele>
        <time>2017-06-18T09:20:07Z</time>
      </trkpt>
      <trkpt lat="45.97323" lon="4.84886">
        <ele>278</ele>
        <time>2017-06-18T09:20:08Z</time>
      </trkpt>
      <trkpt lat="45.97326" lon="4.8488">
        <ele>278</ele>
        <time>2017-06-18T09:20:09Z</time>
      </trkpt>
      <trkpt lat="45.9733" lon="4.84874">
        <ele>278</ele>
        <time>2017-06-18T09:20:10Z</time>
      </trkpt>
      <trkpt lat="45.97333" lon="4.84867">
        <ele>278</ele>
        <time>2017-06-18T09:20:11Z</time>
      </trkpt>
      <trkpt lat="45.97336" lon="4.84862">
        <ele>277</ele>
        <time>2017-06-18T09:20:12Z</time>
      </trkpt>
      <trkpt lat="45.97339" lon="4.84855">
        <ele>277</ele>
        <time>2017-06-18T09:20:13Z</time>
      </trkpt>
      <trkpt lat="45.97342" lon="4.84849">
        <ele>277</ele>
        <time>2017-06-18T09:20:14Z</time>
      </trkpt>
      <trkpt lat="45.97344" lon="4.84843">
        <ele>277</ele>
        <time>2017-06-18T09:20:15Z</time>
      </trkpt>
      <trkpt lat="45.97347" lon="4.84837">
        <ele>277</ele>
        <time>2017-06-18T09:20:16Z</time>
      </trkpt>
      <trkpt lat="45.9735" lon="4.84831">
        <ele>278</ele>
        <time>2017-06-18T09:20:17Z</time>
      </trkpt>
      <trkpt lat="45.97352" lon="4.84825">
        <ele>278</ele>
        <time>2017-06-18T09:20:18Z</time>
      </trkpt>
      <trkpt lat="45.97355" lon="4.8482">
        <ele>278</ele>
        <time>2017-06-18T09:20:19Z</time>
      </trkpt>
      <trkpt lat="45.97358" lon="4.84814">
        <ele>278</ele>
        <time>2017-06-18T09:20:20Z</time>
      </trkpt>
      <trkpt lat="45.97361" lon="4.84808">
        <ele>278</ele>
        <time>2017-06-18T09:20:21Z</time>
      </trkpt>
      <trkpt lat="45.97364" lon="4.84801">
        <ele>278</ele>
        <time>2017-06-18T09:20:22Z</time>
      </trkpt>
      <trkpt lat="45.97366" lon="4.84794">
        <ele>278</ele>
        <time>2017-06-18T09:20:23Z</time>
      </trkpt>
      <trkpt lat="45.97369" lon="4.84786">
        <ele>278</ele>
        <time>2017-06-18T09:20:24Z</time>
      </trkpt>
      <trkpt lat="45.97371" lon="4.84779">
        <ele>278</ele>
        <time>2017-06-18T09:20:25Z</time>
      </trkpt>
      <trkpt lat="45.97374" lon="4.84772">
        <ele>278</ele>
        <time>2017-06-18T09:20:26Z</time>
      </trkpt>
      <trkpt lat="45.97377" lon="4.84765">
        <ele>278</ele>
        <time>2017-06-18T09:20:27Z</time>
      </trkpt>
      <trkpt lat="45.97381" lon="4.84754">
        <ele>278</ele>
        <time>2017-06-18T09:20:29Z</time>
      </trkpt>
      <trkpt lat="45.97383" lon="4.84749">
        <ele>278</ele>
        <time>2017-06-18T09:20:30Z</time>
      </trkpt>
      <trkpt lat="45.97386" lon="4.84743">
        <ele>278</ele>
        <time>2017-06-18T09:20:31Z</time>
      </trkpt>
      <trkpt lat="45.97389" lon="4.84737">
        <ele>278</ele>
        <time>2017-06-18T09:20:32Z</time>
      </trkpt>
      <trkpt lat="45.97394" lon="4.84732">
        <ele>278</ele>
        <time>2017-06-18T09:20:33Z</time>
      </trkpt>
      <trkpt lat="45.97398" lon="4.84728">
        <ele>278</ele>
        <time>2017-06-18T09:20:34Z</time>
      </trkpt>
      <trkpt lat="45.97403" lon="4.84724">
        <ele>278</ele>
        <time>2017-06-18T09:20:35Z</time>
      </trkpt>
      <trkpt lat="45.97408" lon="4.8472">
        <ele>278</ele>
        <time>2017-06-18T09:20:36Z</time>
      </trkpt>
      <trkpt lat="45.97413" lon="4.84716">
        <ele>278</ele>
        <time>2017-06-18T09:20:37Z</time>
      </trkpt>
      <trkpt lat="45.97417" lon="4.84713">
        <ele>276</ele>
        <time>2017-06-18T09:20:38Z</time>
      </trkpt>
      <trkpt lat="45.97422" lon="4.84709">
        <ele>276</ele>
        <time>2017-06-18T09:20:39Z</time>
      </trkpt>
      <trkpt lat="45.97426" lon="4.84706">
        <ele>276</ele>
        <time>2017-06-18T09:20:40Z</time>
      </trkpt>
      <trkpt lat="45.9743" lon="4.84704">
        <ele>276</ele>
        <time>2017-06-18T09:20:41Z</time>
      </trkpt>
      <trkpt lat="45.97434" lon="4.84701">
        <ele>276</ele>
        <time>2017-06-18T09:20:42Z</time>
      </trkpt>
      <trkpt lat="45.97442" lon="4.84696">
        <ele>276</ele>
        <time>2017-06-18T09:20:44Z</time>
      </trkpt>
      <trkpt lat="45.97446" lon="4.84693">
        <ele>276</ele>
        <time>2017-06-18T09:20:45Z</time>
      </trkpt>
      <trkpt lat="45.97451" lon="4.8469">
        <ele>276</ele>
        <time>2017-06-18T09:20:46Z</time>
      </trkpt>
      <trkpt lat="45.97455" lon="4.84687">
        <ele>276</ele>
        <time>2017-06-18T09:20:47Z</time>
      </trkpt>
      <trkpt lat="45.9746" lon="4.84684">
        <ele>276</ele>
        <time>2017-06-18T09:20:48Z</time>
      </trkpt>
      <trkpt lat="45.97465" lon="4.84681">
        <ele>276</ele>
        <time>2017-06-18T09:20:49Z</time>
      </trkpt>
      <trkpt lat="45.9747" lon="4.84677">
        <ele>276</ele>
        <time>2017-06-18T09:20:50Z</time>
      </trkpt>
      <trkpt lat="45.97475" lon="4.84673">
        <ele>276</ele>
        <time>2017-06-18T09:20:51Z</time>
      </trkpt>
      <trkpt lat="45.9748" lon="4.84669">
        <ele>276</ele>
        <time>2017-06-18T09:20:52Z</time>
      </trkpt>
      <trkpt lat="45.97485" lon="4.84666">
        <ele>275</ele>
        <time>2017-06-18T09:20:53Z</time>
      </trkpt>
      <trkpt lat="45.9749" lon="4.84663">
        <ele>275</ele>
        <time>2017-06-18T09:20:54Z</time>
      </trkpt>
      <trkpt lat="45.97495" lon="4.84659">
        <ele>275</ele>
        <time>2017-06-18T09:20:55Z</time>
      </trkpt>
      <trkpt lat="45.97499" lon="4.84656">
        <ele>275</ele>
        <time>2017-06-18T09:20:56Z</time>
      </trkpt>
      <trkpt lat="45.97504" lon="4.84653">
        <ele>275</ele>
        <time>2017-06-18T09:20:57Z</time>
      </trkpt>
      <trkpt lat="45.97508" lon="4.8465">
        <ele>275</ele>
        <time>2017-06-18T09:20:58Z</time>
      </trkpt>
      <trkpt lat="45.97512" lon="4.84647">
        <ele>275</ele>
        <time>2017-06-18T09:20:59Z</time>
      </trkpt>
      <trkpt lat="45.97517" lon="4.84644">
        <ele>275</ele>
        <time>2017-06-18T09:21:00Z</time>
      </trkpt>
      <trkpt lat="45.97521" lon="4.8464">
        <ele>275</ele>
        <time>2017-06-18T09:21:01Z</time>
      </trkpt>
      <trkpt lat="45.97525" lon="4.84637">
        <ele>275</ele>
        <time>2017-06-18T09:21:02Z</time>
      </trkpt>
      <trkpt lat="45.97529" lon="4.84634">
        <ele>275</ele>
        <time>2017-06-18T09:21:03Z</time>
      </trkpt>
      <trkpt lat="45.97533" lon="4.8463">
        <ele>275</ele>
        <time>2017-06-18T09:21:04Z</time>
      </trkpt>
      <trkpt lat="45.97537" lon="4.84627">
        <ele>275</ele>
        <time>2017-06-18T09:21:05Z</time>
      </trkpt>
      <trkpt lat="45.97545" lon="4.8462">
        <ele>274</ele>
        <time>2017-06-18T09:21:07Z</time>
      </trkpt>
      <trkpt lat="45.97548" lon="4.84617">
        <ele>274</ele>
        <time>2017-06-18T09:21:08Z</time>
      </trkpt>
      <trkpt lat="45.97552" lon="4.84613">
        <ele>274</ele>
        <time>2017-06-18T09:21:09Z</time>
      </trkpt>
      <trkpt lat="45.97556" lon="4.8461">
        <ele>274</ele>
        <time>2017-06-18T09:21:10Z</time>
      </trkpt>
      <trkpt lat="45.9756" lon="4.84606">
        <ele>274</ele>
        <time>2017-06-18T09:21:11Z</time>
      </trkpt>
      <trkpt lat="45.97564" lon="4.84602">
        <ele>274</ele>
        <time>2017-06-18T09:21:12Z</time>
      </trkpt>
      <trkpt lat="45.97567" lon="4.84598">
        <ele>274</ele>
        <time>2017-06-18T09:21:13Z</time>
      </trkpt>
      <trkpt lat="45.97571" lon="4.84594">
        <ele>274</ele>
        <time>2017-06-18T09:21:14Z</time>
      </trkpt>
      <trkpt lat="45.97575" lon="4.84589">
        <ele>274</ele>
        <time>2017-06-18T09:21:15Z</time>
      </trkpt>
      <trkpt lat="45.97579" lon="4.84585">
        <ele>274</ele>
        <time>2017-06-18T09:21:16Z</time>
      </trkpt>
      <trkpt lat="45.97583" lon="4.8458">
        <ele>274</ele>
        <time>2017-06-18T09:21:17Z</time>
      </trkpt>
      <trkpt lat="45.97587" lon="4.84575">
        <ele>274</ele>
        <time>2017-06-18T09:21:18Z</time>
      </trkpt>
      <trkpt lat="45.9759" lon="4.8457">
        <ele>274</ele>
        <time>2017-06-18T09:21:19Z</time>
      </trkpt>
      <trkpt lat="45.97594" lon="4.84566">
        <ele>274</ele>
        <time>2017-06-18T09:21:20Z</time>
      </trkpt>
      <trkpt lat="45.97597" lon="4.84561">
        <ele>275</ele>
        <time>2017-06-18T09:21:21Z</time>
      </trkpt>
      <trkpt lat="45.976" lon="4.84557">
        <ele>275</ele>
        <time>2017-06-18T09:21:22Z</time>
      </trkpt>
      <trkpt lat="45.97604" lon="4.84552">
        <ele>275</ele>
        <time>2017-06-18T09:21:23Z</time>
      </trkpt>
      <trkpt lat="45.97608" lon="4.84548">
        <ele>275</ele>
        <time>2017-06-18T09:21:24Z</time>
      </trkpt>
      <trkpt lat="45.97611" lon="4.84543">
        <ele>275</ele>
        <time>2017-06-18T09:21:25Z</time>
      </trkpt>
      <trkpt lat="45.97615" lon="4.84538">
        <ele>275</ele>
        <time>2017-06-18T09:21:26Z</time>
      </trkpt>
      <trkpt lat="45.97619" lon="4.84533">
        <ele>275</ele>
        <time>2017-06-18T09:21:27Z</time>
      </trkpt>
      <trkpt lat="45.97623" lon="4.84528">
        <ele>275</ele>
        <time>2017-06-18T09:21:28Z</time>
      </trkpt>
      <trkpt lat="45.97627" lon="4.84523">
        <ele>275</ele>
        <time>2017-06-18T09:21:29Z</time>
      </trkpt>
      <trkpt lat="45.97631" lon="4.84518">
        <ele>275</ele>
        <time>2017-06-18T09:21:30Z</time>
      </trkpt>
      <trkpt lat="45.97635" lon="4.84513">
        <ele>275</ele>
        <time>2017-06-18T09:21:31Z</time>
      </trkpt>
      <trkpt lat="45.97639" lon="4.84509">
        <ele>275</ele>
        <time>2017-06-18T09:21:32Z</time>
      </trkpt>
      <trkpt lat="45.97643" lon="4.84504">
        <ele>275</ele>
        <time>2017-06-18T09:21:33Z</time>
      </trkpt>
      <trkpt lat="45.97647" lon="4.845">
        <ele>275</ele>
        <time>2017-06-18T09:21:34Z</time>
      </trkpt>
      <trkpt lat="45.97652" lon="4.84495">
        <ele>275</ele>
        <time>2017-06-18T09:21:35Z</time>
      </trkpt>
      <trkpt lat="45.97657" lon="4.8449">
        <ele>275</ele>
        <time>2017-06-18T09:21:36Z</time>
      </trkpt>
      <trkpt lat="45.97662" lon="4.84485">
        <ele>275</ele>
        <time>2017-06-18T09:21:37Z</time>
      </trkpt>
      <trkpt lat="45.97666" lon="4.84481">
        <ele>276</ele>
        <time>2017-06-18T09:21:38Z</time>
      </trkpt>
      <trkpt lat="45.97672" lon="4.84477">
        <ele>276</ele>
        <time>2017-06-18T09:21:39Z</time>
      </trkpt>
      <trkpt lat="45.97677" lon="4.84474">
        <ele>276</ele>
        <time>2017-06-18T09:21:40Z</time>
      </trkpt>
      <trkpt lat="45.97682" lon="4.84471">
        <ele>277</ele>
        <time>2017-06-18T09:21:41Z</time>
      </trkpt>
      <trkpt lat="45.97687" lon="4.84468">
        <ele>277</ele>
        <time>2017-06-18T09:21:42Z</time>
      </trkpt>
      <trkpt lat="45.97692" lon="4.84465">
        <ele>277</ele>
        <time>2017-06-18T09:21:43Z</time>
      </trkpt>
      <trkpt lat="45.97697" lon="4.84462">
        <ele>277</ele>
        <time>2017-06-18T09:21:44Z</time>
      </trkpt>
      <trkpt lat="45.97701" lon="4.8446">
        <ele>277</ele>
        <time>2017-06-18T09:21:45Z</time>
      </trkpt>
      <trkpt lat="45.97706" lon="4.84457">
        <ele>277</ele>
        <time>2017-06-18T09:21:46Z</time>
      </trkpt>
      <trkpt lat="45.97711" lon="4.84455">
        <ele>277</ele>
        <time>2017-06-18T09:21:47Z</time>
      </trkpt>
      <trkpt lat="45.97715" lon="4.84453">
        <ele>277</ele>
        <time>2017-06-18T09:21:48Z</time>
      </trkpt>
      <trkpt lat="45.97721" lon="4.84451">
        <ele>277</ele>
        <time>2017-06-18T09:21:49Z</time>
      </trkpt>
      <trkpt lat="45.97726" lon="4.84449">
        <ele>277</ele>
        <time>2017-06-18T09:21:50Z</time>
      </trkpt>
      <trkpt lat="45.97731" lon="4.84448">
        <ele>277</ele>
        <time>2017-06-18T09:21:51Z</time>
      </trkpt>
      <trkpt lat="45.97736" lon="4.84446">
        <ele>277</ele>
        <time>2017-06-18T09:21:52Z</time>
      </trkpt>
      <trkpt lat="45.97741" lon="4.84444">
        <ele>277</ele>
        <time>2017-06-18T09:21:53Z</time>
      </trkpt>
      <trkpt lat="45.97746" lon="4.84443">
        <ele>277</ele>
        <time>2017-06-18T09:21:54Z</time>
      </trkpt>
      <trkpt lat="45.97751" lon="4.84441">
        <ele>277</ele>
        <time>2017-06-18T09:21:55Z</time>
      </trkpt>
      <trkpt lat="45.97756" lon="4.84439">
        <ele>277</ele>
        <time>2017-06-18T09:21:56Z</time>
      </trkpt>
      <trkpt lat="45.9776" lon="4.84438">
        <ele>277</ele>
        <time>2017-06-18T09:21:57Z</time>
      </trkpt>
      <trkpt lat="45.97765" lon="4.84436">
        <ele>277</ele>
        <time>2017-06-18T09:21:58Z</time>
      </trkpt>
      <trkpt lat="45.9777" lon="4.84434">
        <ele>277</ele>
        <time>2017-06-18T09:21:59Z</time>
      </trkpt>
      <trkpt lat="45.97775" lon="4.84433">
        <ele>277</ele>
        <time>2017-06-18T09:22:00Z</time>
      </trkpt>
      <trkpt lat="45.97779" lon="4.84431">
        <ele>277</ele>
        <time>2017-06-18T09:22:01Z</time>
      </trkpt>
      <trkpt lat="45.97784" lon="4.84429">
        <ele>277</ele>
        <time>2017-06-18T09:22:02Z</time>
      </trkpt>
      <trkpt lat="45.97788" lon="4.84427">
        <ele>277</ele>
        <time>2017-06-18T09:22:03Z</time>
      </trkpt>
      <trkpt lat="45.97793" lon="4.84425">
        <ele>277</ele>
        <time>2017-06-18T09:22:04Z</time>
      </trkpt>
      <trkpt lat="45.97798" lon="4.84423">
        <ele>277</ele>
        <time>2017-06-18T09:22:05Z</time>
      </trkpt>
      <trkpt lat="45.97802" lon="4.84421">
        <ele>277</ele>
        <time>2017-06-18T09:22:06Z</time>
      </trkpt>
      <trkpt lat="45.97807" lon="4.84418">
        <ele>277</ele>
        <time>2017-06-18T09:22:07Z</time>
      </trkpt>
      <trkpt lat="45.97812" lon="4.84415">
        <ele>276</ele>
        <time>2017-06-18T09:22:08Z</time>
      </trkpt>
      <trkpt lat="45.97817" lon="4.84412">
        <ele>276</ele>
        <time>2017-06-18T09:22:09Z</time>
      </trkpt>
      <trkpt lat="45.97822" lon="4.84408">
        <ele>276</ele>
        <time>2017-06-18T09:22:10Z</time>
      </trkpt>
      <trkpt lat="45.97827" lon="4.84405">
        <ele>276</ele>
        <time>2017-06-18T09:22:11Z</time>
      </trkpt>
      <trkpt lat="45.97831" lon="4.84401">
        <ele>276</ele>
        <time>2017-06-18T09:22:12Z</time>
      </trkpt>
      <trkpt lat="45.97835" lon="4.84398">
        <ele>276</ele>
        <time>2017-06-18T09:22:13Z</time>
      </trkpt>
      <trkpt lat="45.97839" lon="4.84394">
        <ele>276</ele>
        <time>2017-06-18T09:22:14Z</time>
      </trkpt>
      <trkpt lat="45.97843" lon="4.8439">
        <ele>276</ele>
        <time>2017-06-18T09:22:15Z</time>
      </trkpt>
      <trkpt lat="45.97846" lon="4.84386">
        <ele>276</ele>
        <time>2017-06-18T09:22:16Z</time>
      </trkpt>
      <trkpt lat="45.97853" lon="4.84378">
        <ele>276</ele>
        <time>2017-06-18T09:22:18Z</time>
      </trkpt>
      <trkpt lat="45.97857" lon="4.84374">
        <ele>276</ele>
        <time>2017-06-18T09:22:19Z</time>
      </trkpt>
      <trkpt lat="45.9786" lon="4.84369">
        <ele>276</ele>
        <time>2017-06-18T09:22:20Z</time>
      </trkpt>
      <trkpt lat="45.97863" lon="4.84363">
        <ele>276</ele>
        <time>2017-06-18T09:22:21Z</time>
      </trkpt>
      <trkpt lat="45.97867" lon="4.84358">
        <ele>276</ele>
        <time>2017-06-18T09:22:22Z</time>
      </trkpt>
      <trkpt lat="45.9787" lon="4.84353">
        <ele>276</ele>
        <time>2017-06-18T09:22:23Z</time>
      </trkpt>
      <trkpt lat="45.97873" lon="4.84348">
        <ele>276</ele>
        <time>2017-06-18T09:22:24Z</time>
      </trkpt>
      <trkpt lat="45.97876" lon="4.84343">
        <ele>275</ele>
        <time>2017-06-18T09:22:25Z</time>
      </trkpt>
      <trkpt lat="45.9788" lon="4.84338">
        <ele>275</ele>
        <time>2017-06-18T09:22:26Z</time>
      </trkpt>
      <trkpt lat="45.97883" lon="4.84332">
        <ele>275</ele>
        <time>2017-06-18T09:22:27Z</time>
      </trkpt>
      <trkpt lat="45.97886" lon="4.84327">
        <ele>275</ele>
        <time>2017-06-18T09:22:28Z</time>
      </trkpt>
      <trkpt lat="45.9789" lon="4.84322">
        <ele>275</ele>
        <time>2017-06-18T09:22:29Z</time>
      </trkpt>
      <trkpt lat="45.97893" lon="4.84317">
        <ele>275</ele>
        <time>2017-06-18T09:22:30Z</time>
      </trkpt>
      <trkpt lat="45.97897" lon="4.84312">
        <ele>275</ele>
        <time>2017-06-18T09:22:31Z</time>
      </trkpt>
      <trkpt lat="45.979" lon="4.84307">
        <ele>275</ele>
        <time>2017-06-18T09:22:32Z</time>
      </trkpt>
      <trkpt lat="45.97904" lon="4.84302">
        <ele>275</ele>
        <time>2017-06-18T09:22:33Z</time>
      </trkpt>
      <trkpt lat="45.97907" lon="4.84296">
        <ele>275</ele>
        <time>2017-06-18T09:22:34Z</time>
      </trkpt>
      <trkpt lat="45.97911" lon="4.84291">
        <ele>275</ele>
        <time>2017-06-18T09:22:35Z</time>
      </trkpt>
      <trkpt lat="45.97915" lon="4.84286">
        <ele>275</ele>
        <time>2017-06-18T09:22:36Z</time>
      </trkpt>
      <trkpt lat="45.97919" lon="4.84281">
        <ele>275</ele>
        <time>2017-06-18T09:22:37Z</time>
      </trkpt>
      <trkpt lat="45.97924" lon="4.84276">
        <ele>275</ele>
        <time>2017-06-18T09:22:38Z</time>
      </trkpt>
      <trkpt lat="45.97928" lon="4.84272">
        <ele>275</ele>
        <time>2017-06-18T09:22:39Z</time>
      </trkpt>
      <trkpt lat="45.97932" lon="4.84267">
        <ele>275</ele>
        <time>2017-06-18T09:22:40Z</time>
      </trkpt>
      <trkpt lat="45.97936" lon="4.84263">
        <ele>275</ele>
        <time>2017-06-18T09:22:41Z</time>
      </trkpt>
      <trkpt lat="45.9794" lon="4.84259">
        <ele>275</ele>
        <time>2017-06-18T09:22:42Z</time>
      </trkpt>
      <trkpt lat="45.97944" lon="4.84254">
        <ele>275</ele>
        <time>2017-06-18T09:22:43Z</time>
      </trkpt>
      <trkpt lat="45.97948" lon="4.8425">
        <ele>275</ele>
        <time>2017-06-18T09:22:44Z</time>
      </trkpt>
      <trkpt lat="45.97953" lon="4.84245">
        <ele>275</ele>
        <time>2017-06-18T09:22:45Z</time>
      </trkpt>
      <trkpt lat="45.97957" lon="4.84241">
        <ele>275</ele>
        <time>2017-06-18T09:22:46Z</time>
      </trkpt>
      <trkpt lat="45.97962" lon="4.84236">
        <ele>274</ele>
        <time>2017-06-18T09:22:47Z</time>
      </trkpt>
      <trkpt lat="45.97967" lon="4.84232">
        <ele>274</ele>
        <time>2017-06-18T09:22:48Z</time>
      </trkpt>
      <trkpt lat="45.97972" lon="4.84227">
        <ele>274</ele>
        <time>2017-06-18T09:22:49Z</time>
      </trkpt>
      <trkpt lat="45.97977" lon="4.84223">
        <ele>274</ele>
        <time>2017-06-18T09:22:50Z</time>
      </trkpt>
      <trkpt lat="45.97982" lon="4.84218">
        <ele>274</ele>
        <time>2017-06-18T09:22:51Z</time>
      </trkpt>
      <trkpt lat="45.97987" lon="4.84213">
        <ele>274</ele>
        <time>2017-06-18T09:22:52Z</time>
      </trkpt>
      <trkpt lat="45.97992" lon="4.84209">
        <ele>274</ele>
        <time>2017-06-18T09:22:53Z</time>
      </trkpt>
      <trkpt lat="45.97997" lon="4.84205">
        <ele>274</ele>
        <time>2017-06-18T09:22:54Z</time>
      </trkpt>
      <trkpt lat="45.98001" lon="4.84201">
        <ele>274</ele>
        <time>2017-06-18T09:22:55Z</time>
      </trkpt>
      <trkpt lat="45.98005" lon="4.84197">
        <ele>274</ele>
        <time>2017-06-18T09:22:56Z</time>
      </trkpt>
      <trkpt lat="45.9801" lon="4.84193">
        <ele>274</ele>
        <time>2017-06-18T09:22:57Z</time>
      </trkpt>
      <trkpt lat="45.98014" lon="4.84189">
        <ele>274</ele>
        <time>2017-06-18T09:22:58Z</time>
      </trkpt>
      <trkpt lat="45.98018" lon="4.84185">
        <ele>274</ele>
        <time>2017-06-18T09:22:59Z</time>
      </trkpt>
      <trkpt lat="45.98022" lon="4.84181">
        <ele>274</ele>
        <time>2017-06-18T09:23:00Z</time>
      </trkpt>
      <trkpt lat="45.98026" lon="4.84178">
        <ele>274</ele>
        <time>2017-06-18T09:23:01Z</time>
      </trkpt>
      <trkpt lat="45.98034" lon="4.84171">
        <ele>273</ele>
        <time>2017-06-18T09:23:03Z</time>
      </trkpt>
      <trkpt lat="45.98037" lon="4.84168">
        <ele>273</ele>
        <time>2017-06-18T09:23:04Z</time>
      </trkpt>
      <trkpt lat="45.98041" lon="4.84165">
        <ele>273</ele>
        <time>2017-06-18T09:23:05Z</time>
      </trkpt>
      <trkpt lat="45.98045" lon="4.8416">
        <ele>273</ele>
        <time>2017-06-18T09:23:06Z</time>
      </trkpt>
      <trkpt lat="45.98049" lon="4.84156">
        <ele>273</ele>
        <time>2017-06-18T09:23:07Z</time>
      </trkpt>
      <trkpt lat="45.98054" lon="4.84151">
        <ele>273</ele>
        <time>2017-06-18T09:23:08Z</time>
      </trkpt>
      <trkpt lat="45.98058" lon="4.84147">
        <ele>273</ele>
        <time>2017-06-18T09:23:09Z</time>
      </trkpt>
      <trkpt lat="45.98063" lon="4.84142">
        <ele>273</ele>
        <time>2017-06-18T09:23:10Z</time>
      </trkpt>
      <trkpt lat="45.98068" lon="4.84137">
        <ele>273</ele>
        <time>2017-06-18T09:23:11Z</time>
      </trkpt>
      <trkpt lat="45.98073" lon="4.84132">
        <ele>273</ele>
        <time>2017-06-18T09:23:12Z</time>
      </trkpt>
      <trkpt lat="45.98078" lon="4.84128">
        <ele>273</ele>
        <time>2017-06-18T09:23:13Z</time>
      </trkpt>
      <trkpt lat="45.98082" lon="4.84124">
        <ele>273</ele>
        <time>2017-06-18T09:23:14Z</time>
      </trkpt>
      <trkpt lat="45.98087" lon="4.8412">
        <ele>273</ele>
        <time>2017-06-18T09:23:15Z</time>
      </trkpt>
      <trkpt lat="45.98091" lon="4.84116">
        <ele>273</ele>
        <time>2017-06-18T09:23:16Z</time>
      </trkpt>
      <trkpt lat="45.98095" lon="4.84112">
        <ele>273</ele>
        <time>2017-06-18T09:23:17Z</time>
      </trkpt>
      <trkpt lat="45.98099" lon="4.84107">
        <ele>273</ele>
        <time>2017-06-18T09:23:18Z</time>
      </trkpt>
      <trkpt lat="45.98104" lon="4.84103">
        <ele>273</ele>
        <time>2017-06-18T09:23:19Z</time>
      </trkpt>
      <trkpt lat="45.98108" lon="4.84099">
        <ele>273</ele>
        <time>2017-06-18T09:23:20Z</time>
      </trkpt>
      <trkpt lat="45.98113" lon="4.84094">
        <ele>273</ele>
        <time>2017-06-18T09:23:21Z</time>
      </trkpt>
      <trkpt lat="45.98117" lon="4.8409">
        <ele>273</ele>
        <time>2017-06-18T09:23:22Z</time>
      </trkpt>
      <trkpt lat="45.98121" lon="4.84085">
        <ele>273</ele>
        <time>2017-06-18T09:23:23Z</time>
      </trkpt>
      <trkpt lat="45.98125" lon="4.8408">
        <ele>273</ele>
        <time>2017-06-18T09:23:24Z</time>
      </trkpt>
      <trkpt lat="45.98129" lon="4.84076">
        <ele>273</ele>
        <time>2017-06-18T09:23:25Z</time>
      </trkpt>
      <trkpt lat="45.98134" lon="4.84071">
        <ele>273</ele>
        <time>2017-06-18T09:23:26Z</time>
      </trkpt>
      <trkpt lat="45.98138" lon="4.84066">
        <ele>273</ele>
        <time>2017-06-18T09:23:27Z</time>
      </trkpt>
      <trkpt lat="45.98142" lon="4.84061">
        <ele>273</ele>
        <time>2017-06-18T09:23:28Z</time>
      </trkpt>
      <trkpt lat="45.98146" lon="4.84055">
        <ele>273</ele>
        <time>2017-06-18T09:23:29Z</time>
      </trkpt>
      <trkpt lat="45.9815" lon="4.84049">
        <ele>273</ele>
        <time>2017-06-18T09:23:30Z</time>
      </trkpt>
      <trkpt lat="45.98153" lon="4.84043">
        <ele>273</ele>
        <time>2017-06-18T09:23:31Z</time>
      </trkpt>
      <trkpt lat="45.98157" lon="4.84038">
        <ele>273</ele>
        <time>2017-06-18T09:23:32Z</time>
      </trkpt>
      <trkpt lat="45.9816" lon="4.84032">
        <ele>273</ele>
        <time>2017-06-18T09:23:33Z</time>
      </trkpt>
      <trkpt lat="45.98163" lon="4.84026">
        <ele>273</ele>
        <time>2017-06-18T09:23:34Z</time>
      </trkpt>
      <trkpt lat="45.98167" lon="4.8402">
        <ele>273</ele>
        <time>2017-06-18T09:23:35Z</time>
      </trkpt>
      <trkpt lat="45.9817" lon="4.84013">
        <ele>273</ele>
        <time>2017-06-18T09:23:36Z</time>
      </trkpt>
      <trkpt lat="45.98173" lon="4.84006">
        <ele>273</ele>
        <time>2017-06-18T09:23:37Z</time>
      </trkpt>
      <trkpt lat="45.98177" lon="4.83999">
        <ele>273</ele>
        <time>2017-06-18T09:23:38Z</time>
      </trkpt>
      <trkpt lat="45.9818" lon="4.83992">
        <ele>273</ele>
        <time>2017-06-18T09:23:39Z</time>
      </trkpt>
      <trkpt lat="45.98183" lon="4.83985">
        <ele>273</ele>
        <time>2017-06-18T09:23:40Z</time>
      </trkpt>
      <trkpt lat="45.98185" lon="4.83978">
        <ele>273</ele>
        <time>2017-06-18T09:23:41Z</time>
      </trkpt>
      <trkpt lat="45.98188" lon="4.83972">
        <ele>273</ele>
        <time>2017-06-18T09:23:42Z</time>
      </trkpt>
      <trkpt lat="45.9819" lon="4.83965">
        <ele>273</ele>
        <time>2017-06-18T09:23:43Z</time>
      </trkpt>
      <trkpt lat="45.98193" lon="4.83958">
        <ele>273</ele>
        <time>2017-06-18T09:23:44Z</time>
      </trkpt>
      <trkpt lat="45.98195" lon="4.83952">
        <ele>273</ele>
        <time>2017-06-18T09:23:45Z</time>
      </trkpt>
      <trkpt lat="45.98197" lon="4.83945">
        <ele>273</ele>
        <time>2017-06-18T09:23:46Z</time>
      </trkpt>
      <trkpt lat="45.98199" lon="4.83939">
        <ele>273</ele>
        <time>2017-06-18T09:23:47Z</time>
      </trkpt>
      <trkpt lat="45.98202" lon="4.83933">
        <ele>273</ele>
        <time>2017-06-18T09:23:48Z</time>
      </trkpt>
      <trkpt lat="45.98204" lon="4.83926">
        <ele>273</ele>
        <time>2017-06-18T09:23:49Z</time>
      </trkpt>
      <trkpt lat="45.98206" lon="4.83919">
        <ele>273</ele>
        <time>2017-06-18T09:23:50Z</time>
      </trkpt>
      <trkpt lat="45.98208" lon="4.83912">
        <ele>273</ele>
        <time>2017-06-18T09:23:51Z</time>
      </trkpt>
      <trkpt lat="45.98211" lon="4.83905">
        <ele>273</ele>
        <time>2017-06-18T09:23:52Z</time>
      </trkpt>
      <trkpt lat="45.98213" lon="4.83898">
        <ele>273</ele>
        <time>2017-06-18T09:23:53Z</time>
      </trkpt>
      <trkpt lat="45.98216" lon="4.83891">
        <ele>273</ele>
        <time>2017-06-18T09:23:54Z</time>
      </trkpt>
      <trkpt lat="45.98219" lon="4.83883">
        <ele>272</ele>
        <time>2017-06-18T09:23:55Z</time>
      </trkpt>
      <trkpt lat="45.98222" lon="4.83876">
        <ele>272</ele>
        <time>2017-06-18T09:23:56Z</time>
      </trkpt>
      <trkpt lat="45.98225" lon="4.83868">
        <ele>272</ele>
        <time>2017-06-18T09:23:57Z</time>
      </trkpt>
      <trkpt lat="45.98227" lon="4.8386">
        <ele>272</ele>
        <time>2017-06-18T09:23:58Z</time>
      </trkpt>
      <trkpt lat="45.9823" lon="4.83853">
        <ele>272</ele>
        <time>2017-06-18T09:23:59Z</time>
      </trkpt>
      <trkpt lat="45.98232" lon="4.83845">
        <ele>272</ele>
        <time>2017-06-18T09:24:00Z</time>
      </trkpt>
      <trkpt lat="45.98235" lon="4.83838">
        <ele>272</ele>
        <time>2017-06-18T09:24:01Z</time>
      </trkpt>
      <trkpt lat="45.98237" lon="4.83831">
        <ele>272</ele>
        <time>2017-06-18T09:24:02Z</time>
      </trkpt>
      <trkpt lat="45.9824" lon="4.83824">
        <ele>272</ele>
        <time>2017-06-18T09:24:03Z</time>
      </trkpt>
      <trkpt lat="45.98242" lon="4.83816">
        <ele>272</ele>
        <time>2017-06-18T09:24:04Z</time>
      </trkpt>
      <trkpt lat="45.98245" lon="4.83808">
        <ele>272</ele>
        <time>2017-06-18T09:24:05Z</time>
      </trkpt>
      <trkpt lat="45.98247" lon="4.838">
        <ele>272</ele>
        <time>2017-06-18T09:24:06Z</time>
      </trkpt>
      <trkpt lat="45.98251" lon="4.83792">
        <ele>272</ele>
        <time>2017-06-18T09:24:07Z</time>
      </trkpt>
      <trkpt lat="45.98254" lon="4.83784">
        <ele>272</ele>
        <time>2017-06-18T09:24:08Z</time>
      </trkpt>
      <trkpt lat="45.98257" lon="4.83775">
        <ele>272</ele>
        <time>2017-06-18T09:24:09Z</time>
      </trkpt>
      <trkpt lat="45.9826" lon="4.83766">
        <ele>272</ele>
        <time>2017-06-18T09:24:10Z</time>
      </trkpt>
      <trkpt lat="45.98263" lon="4.83758">
        <ele>272</ele>
        <time>2017-06-18T09:24:11Z</time>
      </trkpt>
      <trkpt lat="45.98265" lon="4.8375">
        <ele>272</ele>
        <time>2017-06-18T09:24:12Z</time>
      </trkpt>
      <trkpt lat="45.98268" lon="4.83743">
        <ele>272</ele>
        <time>2017-06-18T09:24:13Z</time>
      </trkpt>
      <trkpt lat="45.98271" lon="4.83735">
        <ele>272</ele>
        <time>2017-06-18T09:24:14Z</time>
      </trkpt>
      <trkpt lat="45.98273" lon="4.83728">
        <ele>272</ele>
        <time>2017-06-18T09:24:15Z</time>
      </trkpt>
      <trkpt lat="45.98276" lon="4.83721">
        <ele>272</ele>
        <time>2017-06-18T09:24:16Z</time>
      </trkpt>
      <trkpt lat="45.98278" lon="4.83713">
        <ele>272</ele>
        <time>2017-06-18T09:24:17Z</time>
      </trkpt>
      <trkpt lat="45.98281" lon="4.83706">
        <ele>272</ele>
        <time>2017-06-18T09:24:18Z</time>
      </trkpt>
      <trkpt lat="45.98283" lon="4.83699">
        <ele>272</ele>
        <time>2017-06-18T09:24:19Z</time>
      </trkpt>
      <trkpt lat="45.98286" lon="4.83692">
        <ele>272</ele>
        <time>2017-06-18T09:24:20Z</time>
      </trkpt>
      <trkpt lat="45.98289" lon="4.83686">
        <ele>272</ele>
        <time>2017-06-18T09:24:21Z</time>
      </trkpt>
      <trkpt lat="45.98291" lon="4.8368">
        <ele>272</ele>
        <time>2017-06-18T09:24:22Z</time>
      </trkpt>
      <trkpt lat="45.98293" lon="4.83673">
        <ele>272</ele>
        <time>2017-06-18T09:24:23Z</time>
      </trkpt>
      <trkpt lat="45.98296" lon="4.83665">
        <ele>271</ele>
        <time>2017-06-18T09:24:24Z</time>
      </trkpt>
      <trkpt lat="45.98299" lon="4.83659">
        <ele>271</ele>
        <time>2017-06-18T09:24:25Z</time>
      </trkpt>
      <trkpt lat="45.98302" lon="4.83652">
        <ele>271</ele>
        <time>2017-06-18T09:24:26Z</time>
      </trkpt>
      <trkpt lat="45.98304" lon="4.83647">
        <ele>271</ele>
        <time>2017-06-18T09:24:27Z</time>
      </trkpt>
      <trkpt lat="45.98307" lon="4.83641">
        <ele>271</ele>
        <time>2017-06-18T09:24:28Z</time>
      </trkpt>
      <trkpt lat="45.9831" lon="4.83635">
        <ele>271</ele>
        <time>2017-06-18T09:24:29Z</time>
      </trkpt>
      <trkpt lat="45.98313" lon="4.83629">
        <ele>271</ele>
        <time>2017-06-18T09:24:30Z</time>
      </trkpt>
      <trkpt lat="45.98315" lon="4.83624">
        <ele>271</ele>
        <time>2017-06-18T09:24:31Z</time>
      </trkpt>
      <trkpt lat="45.98318" lon="4.83619">
        <ele>271</ele>
        <time>2017-06-18T09:24:32Z</time>
      </trkpt>
      <trkpt lat="45.98322" lon="4.83613">
        <ele>271</ele>
        <time>2017-06-18T09:24:33Z</time>
      </trkpt>
      <trkpt lat="45.98326" lon="4.83607">
        <ele>271</ele>
        <time>2017-06-18T09:24:34Z</time>
      </trkpt>
      <trkpt lat="45.98329" lon="4.83601">
        <ele>271</ele>
        <time>2017-06-18T09:24:35Z</time>
      </trkpt>
      <trkpt lat="45.98334" lon="4.83595">
        <ele>270</ele>
        <time>2017-06-18T09:24:36Z</time>
      </trkpt>
      <trkpt lat="45.98338" lon="4.83589">
        <ele>270</ele>
        <time>2017-06-18T09:24:37Z</time>
      </trkpt>
      <trkpt lat="45.98343" lon="4.83582">
        <ele>270</ele>
        <time>2017-06-18T09:24:38Z</time>
      </trkpt>
      <trkpt lat="45.98348" lon="4.83575">
        <ele>269</ele>
        <time>2017-06-18T09:24:39Z</time>
      </trkpt>
      <trkpt lat="45.98353" lon="4.83569">
        <ele>269</ele>
        <time>2017-06-18T09:24:40Z</time>
      </trkpt>
      <trkpt lat="45.98358" lon="4.83562">
        <ele>269</ele>
        <time>2017-06-18T09:24:41Z</time>
      </trkpt>
      <trkpt lat="45.98363" lon="4.83556">
        <ele>269</ele>
        <time>2017-06-18T09:24:42Z</time>
      </trkpt>
      <trkpt lat="45.98368" lon="4.8355">
        <ele>269</ele>
        <time>2017-06-18T09:24:43Z</time>
      </trkpt>
      <trkpt lat="45.98372" lon="4.83544">
        <ele>269</ele>
        <time>2017-06-18T09:24:44Z</time>
      </trkpt>
      <trkpt lat="45.98376" lon="4.83538">
        <ele>269</ele>
        <time>2017-06-18T09:24:45Z</time>
      </trkpt>
      <trkpt lat="45.98381" lon="4.83532">
        <ele>269</ele>
        <time>2017-06-18T09:24:46Z</time>
      </trkpt>
      <trkpt lat="45.98385" lon="4.83526">
        <ele>269</ele>
        <time>2017-06-18T09:24:47Z</time>
      </trkpt>
      <trkpt lat="45.98389" lon="4.83521">
        <ele>269</ele>
        <time>2017-06-18T09:24:48Z</time>
      </trkpt>
      <trkpt lat="45.98393" lon="4.83515">
        <ele>269</ele>
        <time>2017-06-18T09:24:49Z</time>
      </trkpt>
      <trkpt lat="45.98398" lon="4.8351">
        <ele>269</ele>
        <time>2017-06-18T09:24:50Z</time>
      </trkpt>
      <trkpt lat="45.98402" lon="4.83504">
        <ele>268</ele>
        <time>2017-06-18T09:24:51Z</time>
      </trkpt>
      <trkpt lat="45.98406" lon="4.83498">
        <ele>268</ele>
        <time>2017-06-18T09:24:52Z</time>
      </trkpt>
      <trkpt lat="45.9841" lon="4.83493">
        <ele>268</ele>
        <time>2017-06-18T09:24:53Z</time>
      </trkpt>
      <trkpt lat="45.98414" lon="4.83488">
        <ele>269</ele>
        <time>2017-06-18T09:24:54Z</time>
      </trkpt>
      <trkpt lat="45.98417" lon="4.83483">
        <ele>268</ele>
        <time>2017-06-18T09:24:55Z</time>
      </trkpt>
      <trkpt lat="45.98421" lon="4.83478">
        <ele>268</ele>
        <time>2017-06-18T09:24:56Z</time>
      </trkpt>
      <trkpt lat="45.98424" lon="4.83473">
        <ele>268</ele>
        <time>2017-06-18T09:24:57Z</time>
      </trkpt>
      <trkpt lat="45.98428" lon="4.83468">
        <ele>268</ele>
        <time>2017-06-18T09:24:58Z</time>
      </trkpt>
      <trkpt lat="45.98432" lon="4.83463">
        <ele>268</ele>
        <time>2017-06-18T09:24:59Z</time>
      </trkpt>
      <trkpt lat="45.98435" lon="4.83458">
        <ele>268</ele>
        <time>2017-06-18T09:25:00Z</time>
      </trkpt>
      <trkpt lat="45.9844" lon="4.83453">
        <ele>268</ele>
        <time>2017-06-18T09:25:01Z</time>
      </trkpt>
      <trkpt lat="45.98444" lon="4.83447">
        <ele>268</ele>
        <time>2017-06-18T09:25:02Z</time>
      </trkpt>
      <trkpt lat="45.98448" lon="4.83442">
        <ele>268</ele>
        <time>2017-06-18T09:25:03Z</time>
      </trkpt>
      <trkpt lat="45.98453" lon="4.83435">
        <ele>268</ele>
        <time>2017-06-18T09:25:04Z</time>
      </trkpt>
      <trkpt lat="45.98457" lon="4.83429">
        <ele>268</ele>
        <time>2017-06-18T09:25:05Z</time>
      </trkpt>
      <trkpt lat="45.98462" lon="4.83423">
        <ele>269</ele>
        <time>2017-06-18T09:25:06Z</time>
      </trkpt>
      <trkpt lat="45.98467" lon="4.83416">
        <ele>269</ele>
        <time>2017-06-18T09:25:07Z</time>
      </trkpt>
      <trkpt lat="45.98471" lon="4.8341">
        <ele>269</ele>
        <time>2017-06-18T09:25:08Z</time>
      </trkpt>
      <trkpt lat="45.98476" lon="4.83404">
        <ele>269</ele>
        <time>2017-06-18T09:25:09Z</time>
      </trkpt>
      <trkpt lat="45.9848" lon="4.83398">
        <ele>269</ele>
        <time>2017-06-18T09:25:10Z</time>
      </trkpt>
      <trkpt lat="45.98484" lon="4.83392">
        <ele>269</ele>
        <time>2017-06-18T09:25:11Z</time>
      </trkpt>
      <trkpt lat="45.98488" lon="4.83386">
        <ele>269</ele>
        <time>2017-06-18T09:25:12Z</time>
      </trkpt>
      <trkpt lat="45.98492" lon="4.83381">
        <ele>269</ele>
        <time>2017-06-18T09:25:13Z</time>
      </trkpt>
      <trkpt lat="45.98496" lon="4.83376">
        <ele>269</ele>
        <time>2017-06-18T09:25:14Z</time>
      </trkpt>
      <trkpt lat="45.985" lon="4.8337">
        <ele>270</ele>
        <time>2017-06-18T09:25:15Z</time>
      </trkpt>
      <trkpt lat="45.98504" lon="4.83365">
        <ele>269</ele>
        <time>2017-06-18T09:25:16Z</time>
      </trkpt>
      <trkpt lat="45.98507" lon="4.8336">
        <ele>269</ele>
        <time>2017-06-18T09:25:17Z</time>
      </trkpt>
      <trkpt lat="45.98511" lon="4.83355">
        <ele>270</ele>
        <time>2017-06-18T09:25:18Z</time>
      </trkpt>
      <trkpt lat="45.98515" lon="4.8335">
        <ele>270</ele>
        <time>2017-06-18T09:25:19Z</time>
      </trkpt>
      <trkpt lat="45.98519" lon="4.83345">
        <ele>270</ele>
        <time>2017-06-18T09:25:20Z</time>
      </trkpt>
      <trkpt lat="45.98523" lon="4.8334">
        <ele>270</ele>
        <time>2017-06-18T09:25:21Z</time>
      </trkpt>
      <trkpt lat="45.98527" lon="4.83335">
        <ele>269</ele>
        <time>2017-06-18T09:25:22Z</time>
      </trkpt>
      <trkpt lat="45.9853" lon="4.8333">
        <ele>269</ele>
        <time>2017-06-18T09:25:23Z</time>
      </trkpt>
      <trkpt lat="45.98534" lon="4.83325">
        <ele>269</ele>
        <time>2017-06-18T09:25:24Z</time>
      </trkpt>
      <trkpt lat="45.98537" lon="4.8332">
        <ele>269</ele>
        <time>2017-06-18T09:25:25Z</time>
      </trkpt>
      <trkpt lat="45.98541" lon="4.83315">
        <ele>269</ele>
        <time>2017-06-18T09:25:26Z</time>
      </trkpt>
      <trkpt lat="45.98547" lon="4.83307">
        <ele>269</ele>
        <time>2017-06-18T09:25:28Z</time>
      </trkpt>
      <trkpt lat="45.9855" lon="4.83304">
        <ele>269</ele>
        <time>2017-06-18T09:25:29Z</time>
      </trkpt>
      <trkpt lat="45.98557" lon="4.83295">
        <ele>269</ele>
        <time>2017-06-18T09:25:31Z</time>
      </trkpt>
      <trkpt lat="45.9856" lon="4.83291">
        <ele>269</ele>
        <time>2017-06-18T09:25:32Z</time>
      </trkpt>
      <trkpt lat="45.98563" lon="4.83287">
        <ele>269</ele>
        <time>2017-06-18T09:25:33Z</time>
      </trkpt>
      <trkpt lat="45.98567" lon="4.83282">
        <ele>269</ele>
        <time>2017-06-18T09:25:34Z</time>
      </trkpt>
      <trkpt lat="45.9857" lon="4.83277">
        <ele>269</ele>
        <time>2017-06-18T09:25:35Z</time>
      </trkpt>
      <trkpt lat="45.98574" lon="4.83271">
        <ele>269</ele>
        <time>2017-06-18T09:25:36Z</time>
      </trkpt>
      <trkpt lat="45.98578" lon="4.83266">
        <ele>269</ele>
        <time>2017-06-18T09:25:37Z</time>
      </trkpt>
      <trkpt lat="45.98582" lon="4.8326">
        <ele>268</ele>
        <time>2017-06-18T09:25:38Z</time>
      </trkpt>
      <trkpt lat="45.98586" lon="4.83254">
        <ele>268</ele>
        <time>2017-06-18T09:25:39Z</time>
      </trkpt>
      <trkpt lat="45.9859" lon="4.83249">
        <ele>268</ele>
        <time>2017-06-18T09:25:40Z</time>
      </trkpt>
      <trkpt lat="45.98594" lon="4.83243">
        <ele>268</ele>
        <time>2017-06-18T09:25:41Z</time>
      </trkpt>
      <trkpt lat="45.98597" lon="4.83238">
        <ele>268</ele>
        <time>2017-06-18T09:25:42Z</time>
      </trkpt>
      <trkpt lat="45.98601" lon="4.83233">
        <ele>268</ele>
        <time>2017-06-18T09:25:43Z</time>
      </trkpt>
      <trkpt lat="45.98605" lon="4.83228">
        <ele>267</ele>
        <time>2017-06-18T09:25:44Z</time>
      </trkpt>
      <trkpt lat="45.98609" lon="4.83223">
        <ele>267</ele>
        <time>2017-06-18T09:25:45Z</time>
      </trkpt>
      <trkpt lat="45.98613" lon="4.83218">
        <ele>267</ele>
        <time>2017-06-18T09:25:46Z</time>
      </trkpt>
      <trkpt lat="45.98617" lon="4.83213">
        <ele>267</ele>
        <time>2017-06-18T09:25:47Z</time>
      </trkpt>
      <trkpt lat="45.98622" lon="4.83208">
        <ele>267</ele>
        <time>2017-06-18T09:25:48Z</time>
      </trkpt>
      <trkpt lat="45.98626" lon="4.83202">
        <ele>267</ele>
        <time>2017-06-18T09:25:49Z</time>
      </trkpt>
      <trkpt lat="45.98631" lon="4.83196">
        <ele>267</ele>
        <time>2017-06-18T09:25:50Z</time>
      </trkpt>
      <trkpt lat="45.98637" lon="4.8319">
        <ele>267</ele>
        <time>2017-06-18T09:25:51Z</time>
      </trkpt>
      <trkpt lat="45.98642" lon="4.83185">
        <ele>267</ele>
        <time>2017-06-18T09:25:52Z</time>
      </trkpt>
      <trkpt lat="45.98647" lon="4.8318">
        <ele>267</ele>
        <time>2017-06-18T09:25:53Z</time>
      </trkpt>
      <trkpt lat="45.98653" lon="4.83175">
        <ele>267</ele>
        <time>2017-06-18T09:25:54Z</time>
      </trkpt>
      <trkpt lat="45.98658" lon="4.83171">
        <ele>266</ele>
        <time>2017-06-18T09:25:55Z</time>
      </trkpt>
      <trkpt lat="45.98663" lon="4.83167">
        <ele>266</ele>
        <time>2017-06-18T09:25:56Z</time>
      </trkpt>
      <trkpt lat="45.98669" lon="4.83163">
        <ele>266</ele>
        <time>2017-06-18T09:25:57Z</time>
      </trkpt>
      <trkpt lat="45.98674" lon="4.83159">
        <ele>266</ele>
        <time>2017-06-18T09:25:58Z</time>
      </trkpt>
      <trkpt lat="45.98679" lon="4.83155">
        <ele>266</ele>
        <time>2017-06-18T09:25:59Z</time>
      </trkpt>
      <trkpt lat="45.98683" lon="4.83152">
        <ele>266</ele>
        <time>2017-06-18T09:26:00Z</time>
      </trkpt>
      <trkpt lat="45.98688" lon="4.83148">
        <ele>266</ele>
        <time>2017-06-18T09:26:01Z</time>
      </trkpt>
      <trkpt lat="45.98693" lon="4.83145">
        <ele>266</ele>
        <time>2017-06-18T09:26:02Z</time>
      </trkpt>
      <trkpt lat="45.98698" lon="4.83142">
        <ele>266</ele>
        <time>2017-06-18T09:26:03Z</time>
      </trkpt>
      <trkpt lat="45.98703" lon="4.83138">
        <ele>266</ele>
        <time>2017-06-18T09:26:04Z</time>
      </trkpt>
      <trkpt lat="45.98708" lon="4.83133">
        <ele>266</ele>
        <time>2017-06-18T09:26:05Z</time>
      </trkpt>
      <trkpt lat="45.98713" lon="4.83128">
        <ele>266</ele>
        <time>2017-06-18T09:26:06Z</time>
      </trkpt>
      <trkpt lat="45.98719" lon="4.83123">
        <ele>266</ele>
        <time>2017-06-18T09:26:07Z</time>
      </trkpt>
      <trkpt lat="45.98724" lon="4.83117">
        <ele>267</ele>
        <time>2017-06-18T09:26:08Z</time>
      </trkpt>
      <trkpt lat="45.98729" lon="4.83113">
        <ele>267</ele>
        <time>2017-06-18T09:26:09Z</time>
      </trkpt>
      <trkpt lat="45.98735" lon="4.83108">
        <ele>267</ele>
        <time>2017-06-18T09:26:10Z</time>
      </trkpt>
      <trkpt lat="45.9874" lon="4.83103">
        <ele>267</ele>
        <time>2017-06-18T09:26:11Z</time>
      </trkpt>
      <trkpt lat="45.98745" lon="4.83098">
        <ele>267</ele>
        <time>2017-06-18T09:26:12Z</time>
      </trkpt>
      <trkpt lat="45.9875" lon="4.83094">
        <ele>266</ele>
        <time>2017-06-18T09:26:13Z</time>
      </trkpt>
      <trkpt lat="45.98756" lon="4.83089">
        <ele>266</ele>
        <time>2017-06-18T09:26:14Z</time>
      </trkpt>
      <trkpt lat="45.98761" lon="4.83085">
        <ele>266</ele>
        <time>2017-06-18T09:26:15Z</time>
      </trkpt>
      <trkpt lat="45.98766" lon="4.8308">
        <ele>266</ele>
        <time>2017-06-18T09:26:16Z</time>
      </trkpt>
      <trkpt lat="45.98771" lon="4.83075">
        <ele>266</ele>
        <time>2017-06-18T09:26:17Z</time>
      </trkpt>
      <trkpt lat="45.98777" lon="4.8307">
        <ele>265</ele>
        <time>2017-06-18T09:26:18Z</time>
      </trkpt>
      <trkpt lat="45.98782" lon="4.83065">
        <ele>265</ele>
        <time>2017-06-18T09:26:19Z</time>
      </trkpt>
      <trkpt lat="45.98788" lon="4.8306">
        <ele>265</ele>
        <time>2017-06-18T09:26:20Z</time>
      </trkpt>
      <trkpt lat="45.98793" lon="4.83056">
        <ele>265</ele>
        <time>2017-06-18T09:26:21Z</time>
      </trkpt>
      <trkpt lat="45.98799" lon="4.83051">
        <ele>264</ele>
        <time>2017-06-18T09:26:22Z</time>
      </trkpt>
      <trkpt lat="45.98805" lon="4.83047">
        <ele>264</ele>
        <time>2017-06-18T09:26:23Z</time>
      </trkpt>
      <trkpt lat="45.98811" lon="4.83043">
        <ele>264</ele>
        <time>2017-06-18T09:26:24Z</time>
      </trkpt>
      <trkpt lat="45.98817" lon="4.83038">
        <ele>264</ele>
        <time>2017-06-18T09:26:25Z</time>
      </trkpt>
      <trkpt lat="45.98823" lon="4.83033">
        <ele>264</ele>
        <time>2017-06-18T09:26:26Z</time>
      </trkpt>
      <trkpt lat="45.98829" lon="4.83028">
        <ele>264</ele>
        <time>2017-06-18T09:26:27Z</time>
      </trkpt>
      <trkpt lat="45.98835" lon="4.83024">
        <ele>261</ele>
        <time>2017-06-18T09:26:28Z</time>
      </trkpt>
      <trkpt lat="45.98842" lon="4.83019">
        <ele>261</ele>
        <time>2017-06-18T09:26:29Z</time>
      </trkpt>
      <trkpt lat="45.98849" lon="4.83015">
        <ele>261</ele>
        <time>2017-06-18T09:26:30Z</time>
      </trkpt>
      <trkpt lat="45.98856" lon="4.83011">
        <ele>261</ele>
        <time>2017-06-18T09:26:31Z</time>
      </trkpt>
      <trkpt lat="45.98863" lon="4.83006">
        <ele>260</ele>
        <time>2017-06-18T09:26:32Z</time>
      </trkpt>
      <trkpt lat="45.9887" lon="4.83001">
        <ele>260</ele>
        <time>2017-06-18T09:26:33Z</time>
      </trkpt>
      <trkpt lat="45.98878" lon="4.82996">
        <ele>260</ele>
        <time>2017-06-18T09:26:34Z</time>
      </trkpt>
      <trkpt lat="45.98886" lon="4.8299">
        <ele>259</ele>
        <time>2017-06-18T09:26:35Z</time>
      </trkpt>
      <trkpt lat="45.98894" lon="4.82983">
        <ele>259</ele>
        <time>2017-06-18T09:26:36Z</time>
      </trkpt>
      <trkpt lat="45.98902" lon="4.82976">
        <ele>259</ele>
        <time>2017-06-18T09:26:37Z</time>
      </trkpt>
      <trkpt lat="45.9891" lon="4.82967">
        <ele>259</ele>
        <time>2017-06-18T09:26:38Z</time>
      </trkpt>
      <trkpt lat="45.98917" lon="4.82957">
        <ele>255</ele>
        <time>2017-06-18T09:26:39Z</time>
      </trkpt>
      <trkpt lat="45.98924" lon="4.82945">
        <ele>255</ele>
        <time>2017-06-18T09:26:40Z</time>
      </trkpt>
      <trkpt lat="45.9893" lon="4.82932">
        <ele>255</ele>
        <time>2017-06-18T09:26:41Z</time>
      </trkpt>
      <trkpt lat="45.98937" lon="4.82918">
        <ele>255</ele>
        <time>2017-06-18T09:26:42Z</time>
      </trkpt>
      <trkpt lat="45.98943" lon="4.82904">
        <ele>253</ele>
        <time>2017-06-18T09:26:43Z</time>
      </trkpt>
      <trkpt lat="45.98949" lon="4.82889">
        <ele>253</ele>
        <time>2017-06-18T09:26:44Z</time>
      </trkpt>
      <trkpt lat="45.98956" lon="4.82874">
        <ele>253</ele>
        <time>2017-06-18T09:26:45Z</time>
      </trkpt>
      <trkpt lat="45.98962" lon="4.82859">
        <ele>252</ele>
        <time>2017-06-18T09:26:46Z</time>
      </trkpt>
      <trkpt lat="45.98969" lon="4.82843">
        <ele>251</ele>
        <time>2017-06-18T09:26:47Z</time>
      </trkpt>
      <trkpt lat="45.98975" lon="4.82826">
        <ele>249</ele>
        <time>2017-06-18T09:26:48Z</time>
      </trkpt>
      <trkpt lat="45.98982" lon="4.8281">
        <ele>248</ele>
        <time>2017-06-18T09:26:49Z</time>
      </trkpt>
      <trkpt lat="45.9899" lon="4.82793">
        <ele>247</ele>
        <time>2017-06-18T09:26:50Z</time>
      </trkpt>
      <trkpt lat="45.98997" lon="4.82777">
        <ele>246</ele>
        <time>2017-06-18T09:26:51Z</time>
      </trkpt>
      <trkpt lat="45.99003" lon="4.8276">
        <ele>241</ele>
        <time>2017-06-18T09:26:52Z</time>
      </trkpt>
      <trkpt lat="45.9901" lon="4.82744">
        <ele>240</ele>
        <time>2017-06-18T09:26:53Z</time>
      </trkpt>
      <trkpt lat="45.99017" lon="4.82727">
        <ele>239</ele>
        <time>2017-06-18T09:26:54Z</time>
      </trkpt>
      <trkpt lat="45.99024" lon="4.82711">
        <ele>238</ele>
        <time>2017-06-18T09:26:55Z</time>
      </trkpt>
      <trkpt lat="45.99031" lon="4.82695">
        <ele>238</ele>
        <time>2017-06-18T09:26:56Z</time>
      </trkpt>
      <trkpt lat="45.99037" lon="4.8268">
        <ele>238</ele>
        <time>2017-06-18T09:26:57Z</time>
      </trkpt>
      <trkpt lat="45.99043" lon="4.82666">
        <ele>236</ele>
        <time>2017-06-18T09:26:58Z</time>
      </trkpt>
      <trkpt lat="45.99049" lon="4.82652">
        <ele>236</ele>
        <time>2017-06-18T09:26:59Z</time>
      </trkpt>
      <trkpt lat="45.99055" lon="4.8264">
        <ele>236</ele>
        <time>2017-06-18T09:27:00Z</time>
      </trkpt>
      <trkpt lat="45.9906" lon="4.82628">
        <ele>236</ele>
        <time>2017-06-18T09:27:01Z</time>
      </trkpt>
      <trkpt lat="45.99065" lon="4.82617">
        <ele>236</ele>
        <time>2017-06-18T09:27:02Z</time>
      </trkpt>
      <trkpt lat="45.99069" lon="4.82608">
        <ele>236</ele>
        <time>2017-06-18T09:27:03Z</time>
      </trkpt>
      <trkpt lat="45.99073" lon="4.82599">
        <ele>235</ele>
        <time>2017-06-18T09:27:04Z</time>
      </trkpt>
      <trkpt lat="45.99076" lon="4.82593">
        <ele>235</ele>
        <time>2017-06-18T09:27:05Z</time>
      </trkpt>
      <trkpt lat="45.99079" lon="4.82587">
        <ele>235</ele>
        <time>2017-06-18T09:27:06Z</time>
      </trkpt>
      <trkpt lat="45.9908" lon="4.8258">
        <ele>235</ele>
        <time>2017-06-18T09:27:07Z</time>
      </trkpt>
      <trkpt lat="45.99078" lon="4.82569">
        <ele>235</ele>
        <time>2017-06-18T09:27:09Z</time>
      </trkpt>
      <trkpt lat="45.99074" lon="4.82566">
        <ele>235</ele>
        <time>2017-06-18T09:27:10Z</time>
      </trkpt>
      <trkpt lat="45.99069" lon="4.82566">
        <ele>235</ele>
        <time>2017-06-18T09:27:11Z</time>
      </trkpt>
      <trkpt lat="45.99064" lon="4.82566">
        <ele>235</ele>
        <time>2017-06-18T09:27:12Z</time>
      </trkpt>
      <trkpt lat="45.99059" lon="4.82566">
        <ele>235</ele>
        <time>2017-06-18T09:27:13Z</time>
      </trkpt>
      <trkpt lat="45.99054" lon="4.82565">
        <ele>235</ele>
        <time>2017-06-18T09:27:14Z</time>
      </trkpt>
      <trkpt lat="45.99046" lon="4.8256">
        <ele>235</ele>
        <time>2017-06-18T09:27:16Z</time>
      </trkpt>
      <trkpt lat="45.99042" lon="4.82557">
        <ele>235</ele>
        <time>2017-06-18T09:27:17Z</time>
      </trkpt>
      <trkpt lat="45.99035" lon="4.82552">
        <ele>235</ele>
        <time>2017-06-18T09:27:19Z</time>
      </trkpt>
      <trkpt lat="45.99031" lon="4.82548">
        <ele>235</ele>
        <time>2017-06-18T09:27:20Z</time>
      </trkpt>
      <trkpt lat="45.99027" lon="4.82545">
        <ele>235</ele>
        <time>2017-06-18T09:27:21Z</time>
      </trkpt>
      <trkpt lat="45.99024" lon="4.82541">
        <ele>235</ele>
        <time>2017-06-18T09:27:22Z</time>
      </trkpt>
      <trkpt lat="45.99017" lon="4.82532">
        <ele>235</ele>
        <time>2017-06-18T09:27:24Z</time>
      </trkpt>
      <trkpt lat="45.99014" lon="4.82527">
        <ele>235</ele>
        <time>2017-06-18T09:27:25Z</time>
      </trkpt>
      <trkpt lat="45.99012" lon="4.82522">
        <ele>235</ele>
        <time>2017-06-18T09:27:26Z</time>
      </trkpt>
      <trkpt lat="45.99009" lon="4.82517">
        <ele>235</ele>
        <time>2017-06-18T09:27:27Z</time>
      </trkpt>
      <trkpt lat="45.99007" lon="4.82511">
        <ele>235</ele>
        <time>2017-06-18T09:27:28Z</time>
      </trkpt>
      <trkpt lat="45.99004" lon="4.82505">
        <ele>235</ele>
        <time>2017-06-18T09:27:29Z</time>
      </trkpt>
      <trkpt lat="45.99001" lon="4.825">
        <ele>235</ele>
        <time>2017-06-18T09:27:30Z</time>
      </trkpt>
      <trkpt lat="45.98999" lon="4.82493">
        <ele>235</ele>
        <time>2017-06-18T09:27:31Z</time>
      </trkpt>
      <trkpt lat="45.98997" lon="4.82487">
        <ele>236</ele>
        <time>2017-06-18T09:27:32Z</time>
      </trkpt>
      <trkpt lat="45.98996" lon="4.8248">
        <ele>236</ele>
        <time>2017-06-18T09:27:33Z</time>
      </trkpt>
      <trkpt lat="45.98994" lon="4.82473">
        <ele>236</ele>
        <time>2017-06-18T09:27:34Z</time>
      </trkpt>
      <trkpt lat="45.98992" lon="4.82467">
        <ele>236</ele>
        <time>2017-06-18T09:27:35Z</time>
      </trkpt>
      <trkpt lat="45.98991" lon="4.8246">
        <ele>236</ele>
        <time>2017-06-18T09:27:36Z</time>
      </trkpt>
      <trkpt lat="45.9899" lon="4.82454">
        <ele>236</ele>
        <time>2017-06-18T09:27:37Z</time>
      </trkpt>
      <trkpt lat="45.98988" lon="4.82447">
        <ele>236</ele>
        <time>2017-06-18T09:27:38Z</time>
      </trkpt>
      <trkpt lat="45.98986" lon="4.82439">
        <ele>236</ele>
        <time>2017-06-18T09:27:39Z</time>
      </trkpt>
      <trkpt lat="45.98984" lon="4.82432">
        <ele>236</ele>
        <time>2017-06-18T09:27:40Z</time>
      </trkpt>
      <trkpt lat="45.98982" lon="4.82424">
        <ele>235</ele>
        <time>2017-06-18T09:27:41Z</time>
      </trkpt>
      <trkpt lat="45.9898" lon="4.82417">
        <ele>235</ele>
        <time>2017-06-18T09:27:42Z</time>
      </trkpt>
      <trkpt lat="45.98978" lon="4.8241">
        <ele>235</ele>
        <time>2017-06-18T09:27:43Z</time>
      </trkpt>
      <trkpt lat="45.98976" lon="4.82403">
        <ele>235</ele>
        <time>2017-06-18T09:27:44Z</time>
      </trkpt>
      <trkpt lat="45.98975" lon="4.82397">
        <ele>235</ele>
        <time>2017-06-18T09:27:45Z</time>
      </trkpt>
      <trkpt lat="45.98973" lon="4.8239">
        <ele>235</ele>
        <time>2017-06-18T09:27:46Z</time>
      </trkpt>
      <trkpt lat="45.98971" lon="4.82383">
        <ele>235</ele>
        <time>2017-06-18T09:27:47Z</time>
      </trkpt>
      <trkpt lat="45.98969" lon="4.82376">
        <ele>235</ele>
        <time>2017-06-18T09:27:48Z</time>
      </trkpt>
      <trkpt lat="45.98966" lon="4.82369">
        <ele>235</ele>
        <time>2017-06-18T09:27:49Z</time>
      </trkpt>
      <trkpt lat="45.98964" lon="4.82361">
        <ele>235</ele>
        <time>2017-06-18T09:27:50Z</time>
      </trkpt>
      <trkpt lat="45.98962" lon="4.82353">
        <ele>235</ele>
        <time>2017-06-18T09:27:51Z</time>
      </trkpt>
      <trkpt lat="45.98958" lon="4.82346">
        <ele>235</ele>
        <time>2017-06-18T09:27:52Z</time>
      </trkpt>
      <trkpt lat="45.98954" lon="4.82339">
        <ele>235</ele>
        <time>2017-06-18T09:27:53Z</time>
      </trkpt>
      <trkpt lat="45.98951" lon="4.82333">
        <ele>234</ele>
        <time>2017-06-18T09:27:54Z</time>
      </trkpt>
      <trkpt lat="45.98947" lon="4.82327">
        <ele>234</ele>
        <time>2017-06-18T09:27:55Z</time>
      </trkpt>
      <trkpt lat="45.98943" lon="4.82322">
        <ele>234</ele>
        <time>2017-06-18T09:27:56Z</time>
      </trkpt>
      <trkpt lat="45.98939" lon="4.82317">
        <ele>234</ele>
        <time>2017-06-18T09:27:57Z</time>
      </trkpt>
      <trkpt lat="45.98932" lon="4.82309">
        <ele>234</ele>
        <time>2017-06-18T09:27:59Z</time>
      </trkpt>
      <trkpt lat="45.98929" lon="4.82305">
        <ele>234</ele>
        <time>2017-06-18T09:28:00Z</time>
      </trkpt>
      <trkpt lat="45.98925" lon="4.82301">
        <ele>234</ele>
        <time>2017-06-18T09:28:01Z</time>
      </trkpt>
      <trkpt lat="45.98921" lon="4.82297">
        <ele>234</ele>
        <time>2017-06-18T09:28:02Z</time>
      </trkpt>
      <trkpt lat="45.98917" lon="4.82294">
        <ele>234</ele>
        <time>2017-06-18T09:28:03Z</time>
      </trkpt>
      <trkpt lat="45.98913" lon="4.82289">
        <ele>236</ele>
        <time>2017-06-18T09:28:04Z</time>
      </trkpt>
      <trkpt lat="45.9891" lon="4.82285">
        <ele>236</ele>
        <time>2017-06-18T09:28:05Z</time>
      </trkpt>
      <trkpt lat="45.98906" lon="4.8228">
        <ele>236</ele>
        <time>2017-06-18T09:28:06Z</time>
      </trkpt>
      <trkpt lat="45.98903" lon="4.82274">
        <ele>236</ele>
        <time>2017-06-18T09:28:07Z</time>
      </trkpt>
      <trkpt lat="45.989" lon="4.82268">
        <ele>236</ele>
        <time>2017-06-18T09:28:08Z</time>
      </trkpt>
      <trkpt lat="45.98897" lon="4.82262">
        <ele>236</ele>
        <time>2017-06-18T09:28:09Z</time>
      </trkpt>
      <trkpt lat="45.98893" lon="4.82256">
        <ele>236</ele>
        <time>2017-06-18T09:28:10Z</time>
      </trkpt>
      <trkpt lat="45.98889" lon="4.8225">
        <ele>235</ele>
        <time>2017-06-18T09:28:11Z</time>
      </trkpt>
      <trkpt lat="45.98886" lon="4.82244">
        <ele>235</ele>
        <time>2017-06-18T09:28:12Z</time>
      </trkpt>
      <trkpt lat="45.98882" lon="4.82237">
        <ele>236</ele>
        <time>2017-06-18T09:28:13Z</time>
      </trkpt>
      <trkpt lat="45.9888" lon="4.82231">
        <ele>236</ele>
        <time>2017-06-18T09:28:14Z</time>
      </trkpt>
      <trkpt lat="45.98877" lon="4.82225">
        <ele>236</ele>
        <time>2017-06-18T09:28:15Z</time>
      </trkpt>
      <trkpt lat="45.98874" lon="4.82218">
        <ele>236</ele>
        <time>2017-06-18T09:28:16Z</time>
      </trkpt>
      <trkpt lat="45.98871" lon="4.82212">
        <ele>236</ele>
        <time>2017-06-18T09:28:17Z</time>
      </trkpt>
      <trkpt lat="45.98868" lon="4.82205">
        <ele>236</ele>
        <time>2017-06-18T09:28:18Z</time>
      </trkpt>
      <trkpt lat="45.98865" lon="4.82198">
        <ele>236</ele>
        <time>2017-06-18T09:28:19Z</time>
      </trkpt>
      <trkpt lat="45.98863" lon="4.82191">
        <ele>236</ele>
        <time>2017-06-18T09:28:20Z</time>
      </trkpt>
      <trkpt lat="45.9886" lon="4.82185">
        <ele>236</ele>
        <time>2017-06-18T09:28:21Z</time>
      </trkpt>
      <trkpt lat="45.98857" lon="4.82178">
        <ele>236</ele>
        <time>2017-06-18T09:28:22Z</time>
      </trkpt>
      <trkpt lat="45.98855" lon="4.82171">
        <ele>236</ele>
        <time>2017-06-18T09:28:23Z</time>
      </trkpt>
      <trkpt lat="45.98853" lon="4.82164">
        <ele>236</ele>
        <time>2017-06-18T09:28:24Z</time>
      </trkpt>
      <trkpt lat="45.98851" lon="4.82157">
        <ele>236</ele>
        <time>2017-06-18T09:28:25Z</time>
      </trkpt>
      <trkpt lat="45.98848" lon="4.8215">
        <ele>236</ele>
        <time>2017-06-18T09:28:26Z</time>
      </trkpt>
      <trkpt lat="45.98847" lon="4.82143">
        <ele>236</ele>
        <time>2017-06-18T09:28:27Z</time>
      </trkpt>
      <trkpt lat="45.98845" lon="4.82135">
        <ele>236</ele>
        <time>2017-06-18T09:28:28Z</time>
      </trkpt>
      <trkpt lat="45.98843" lon="4.82127">
        <ele>236</ele>
        <time>2017-06-18T09:28:29Z</time>
      </trkpt>
      <trkpt lat="45.98841" lon="4.82119">
        <ele>235</ele>
        <time>2017-06-18T09:28:30Z</time>
      </trkpt>
      <trkpt lat="45.98839" lon="4.82112">
        <ele>235</ele>
        <time>2017-06-18T09:28:31Z</time>
      </trkpt>
      <trkpt lat="45.98838" lon="4.82104">
        <ele>236</ele>
        <time>2017-06-18T09:28:32Z</time>
      </trkpt>
      <trkpt lat="45.98836" lon="4.82097">
        <ele>236</ele>
        <time>2017-06-18T09:28:33Z</time>
      </trkpt>
      <trkpt lat="45.98835" lon="4.82089">
        <ele>236</ele>
        <time>2017-06-18T09:28:34Z</time>
      </trkpt>
      <trkpt lat="45.98834" lon="4.82083">
        <ele>236</ele>
        <time>2017-06-18T09:28:35Z</time>
      </trkpt>
      <trkpt lat="45.98833" lon="4.82076">
        <ele>237</ele>
        <time>2017-06-18T09:28:36Z</time>
      </trkpt>
      <trkpt lat="45.98832" lon="4.82069">
        <ele>237</ele>
        <time>2017-06-18T09:28:37Z</time>
      </trkpt>
      <trkpt lat="45.98831" lon="4.82062">
        <ele>237</ele>
        <time>2017-06-18T09:28:38Z</time>
      </trkpt>
      <trkpt lat="45.98829" lon="4.82055">
        <ele>237</ele>
        <time>2017-06-18T09:28:39Z</time>
      </trkpt>
      <trkpt lat="45.98828" lon="4.82048">
        <ele>238</ele>
        <time>2017-06-18T09:28:40Z</time>
      </trkpt>
      <trkpt lat="45.98827" lon="4.8204">
        <ele>238</ele>
        <time>2017-06-18T09:28:41Z</time>
      </trkpt>
      <trkpt lat="45.98826" lon="4.82033">
        <ele>238</ele>
        <time>2017-06-18T09:28:42Z</time>
      </trkpt>
      <trkpt lat="45.98824" lon="4.82027">
        <ele>238</ele>
        <time>2017-06-18T09:28:43Z</time>
      </trkpt>
      <trkpt lat="45.98823" lon="4.82019">
        <ele>238</ele>
        <time>2017-06-18T09:28:44Z</time>
      </trkpt>
      <trkpt lat="45.98822" lon="4.82012">
        <ele>238</ele>
        <time>2017-06-18T09:28:45Z</time>
      </trkpt>
      <trkpt lat="45.98821" lon="4.82005">
        <ele>238</ele>
        <time>2017-06-18T09:28:46Z</time>
      </trkpt>
      <trkpt lat="45.98819" lon="4.81999">
        <ele>238</ele>
        <time>2017-06-18T09:28:47Z</time>
      </trkpt>
      <trkpt lat="45.98818" lon="4.81992">
        <ele>238</ele>
        <time>2017-06-18T09:28:48Z</time>
      </trkpt>
      <trkpt lat="45.98817" lon="4.81985">
        <ele>238</ele>
        <time>2017-06-18T09:28:49Z</time>
      </trkpt>
      <trkpt lat="45.98817" lon="4.81979">
        <ele>239</ele>
        <time>2017-06-18T09:28:50Z</time>
      </trkpt>
      <trkpt lat="45.98815" lon="4.81966">
        <ele>239</ele>
        <time>2017-06-18T09:28:52Z</time>
      </trkpt>
      <trkpt lat="45.98815" lon="4.8196">
        <ele>239</ele>
        <time>2017-06-18T09:28:53Z</time>
      </trkpt>
      <trkpt lat="45.98814" lon="4.81949">
        <ele>239</ele>
        <time>2017-06-18T09:28:55Z</time>
      </trkpt>
      <trkpt lat="45.98813" lon="4.81943">
        <ele>239</ele>
        <time>2017-06-18T09:28:56Z</time>
      </trkpt>
      <trkpt lat="45.98812" lon="4.8193">
        <ele>239</ele>
        <time>2017-06-18T09:28:58Z</time>
      </trkpt>
      <trkpt lat="45.98811" lon="4.81924">
        <ele>239</ele>
        <time>2017-06-18T09:28:59Z</time>
      </trkpt>
      <trkpt lat="45.9881" lon="4.81917">
        <ele>239</ele>
        <time>2017-06-18T09:29:00Z</time>
      </trkpt>
      <trkpt lat="45.98808" lon="4.8191">
        <ele>239</ele>
        <time>2017-06-18T09:29:01Z</time>
      </trkpt>
      <trkpt lat="45.98807" lon="4.81903">
        <ele>239</ele>
        <time>2017-06-18T09:29:02Z</time>
      </trkpt>
      <trkpt lat="45.98805" lon="4.81896">
        <ele>239</ele>
        <time>2017-06-18T09:29:03Z</time>
      </trkpt>
      <trkpt lat="45.98803" lon="4.81889">
        <ele>239</ele>
        <time>2017-06-18T09:29:04Z</time>
      </trkpt>
      <trkpt lat="45.98801" lon="4.81884">
        <ele>239</ele>
        <time>2017-06-18T09:29:05Z</time>
      </trkpt>
      <trkpt lat="45.98799" lon="4.81878">
        <ele>239</ele>
        <time>2017-06-18T09:29:06Z</time>
      </trkpt>
      <trkpt lat="45.98797" lon="4.81872">
        <ele>239</ele>
        <time>2017-06-18T09:29:07Z</time>
      </trkpt>
      <trkpt lat="45.98792" lon="4.81861">
        <ele>239</ele>
        <time>2017-06-18T09:29:09Z</time>
      </trkpt>
      <trkpt lat="45.9879" lon="4.81857">
        <ele>239</ele>
        <time>2017-06-18T09:29:10Z</time>
      </trkpt>
      <trkpt lat="45.98787" lon="4.8185">
        <ele>239</ele>
        <time>2017-06-18T09:29:12Z</time>
      </trkpt>
      <trkpt lat="45.98784" lon="4.81846">
        <ele>239</ele>
        <time>2017-06-18T09:29:13Z</time>
      </trkpt>
      <trkpt lat="45.98782" lon="4.8184">
        <ele>239</ele>
        <time>2017-06-18T09:29:14Z</time>
      </trkpt>
      <trkpt lat="45.9878" lon="4.81833">
        <ele>240</ele>
        <time>2017-06-18T09:29:15Z</time>
      </trkpt>
      <trkpt lat="45.98776" lon="4.81823">
        <ele>240</ele>
        <time>2017-06-18T09:29:17Z</time>
      </trkpt>
      <trkpt lat="45.98774" lon="4.81817">
        <ele>240</ele>
        <time>2017-06-18T09:29:18Z</time>
      </trkpt>
      <trkpt lat="45.98769" lon="4.81808">
        <ele>240</ele>
        <time>2017-06-18T09:29:20Z</time>
      </trkpt>
      <trkpt lat="45.98767" lon="4.81803">
        <ele>240</ele>
        <time>2017-06-18T09:29:21Z</time>
      </trkpt>
      <trkpt lat="45.98763" lon="4.81793">
        <ele>240</ele>
        <time>2017-06-18T09:29:23Z</time>
      </trkpt>
      <trkpt lat="45.9876" lon="4.81789">
        <ele>241</ele>
        <time>2017-06-18T09:29:24Z</time>
      </trkpt>
      <trkpt lat="45.98756" lon="4.8178">
        <ele>241</ele>
        <time>2017-06-18T09:29:26Z</time>
      </trkpt>
      <trkpt lat="45.98755" lon="4.81777">
        <ele>241</ele>
        <time>2017-06-18T09:29:27Z</time>
      </trkpt>
      <trkpt lat="45.98751" lon="4.81765">
        <ele>241</ele>
        <time>2017-06-18T09:29:30Z</time>
      </trkpt>
      <trkpt lat="45.98749" lon="4.81761">
        <ele>240</ele>
        <time>2017-06-18T09:29:31Z</time>
      </trkpt>
      <trkpt lat="45.98747" lon="4.81754">
        <ele>241</ele>
        <time>2017-06-18T09:29:32Z</time>
      </trkpt>
      <trkpt lat="45.98744" lon="4.81749">
        <ele>240</ele>
        <time>2017-06-18T09:29:33Z</time>
      </trkpt>
      <trkpt lat="45.98738" lon="4.81742">
        <ele>240</ele>
        <time>2017-06-18T09:29:35Z</time>
      </trkpt>
      <trkpt lat="45.98734" lon="4.8174">
        <ele>240</ele>
        <time>2017-06-18T09:29:36Z</time>
      </trkpt>
      <trkpt lat="45.98728" lon="4.81739">
        <ele>239</ele>
        <time>2017-06-18T09:29:38Z</time>
      </trkpt>
      <trkpt lat="45.98724" lon="4.81738">
        <ele>239</ele>
        <time>2017-06-18T09:29:39Z</time>
      </trkpt>
      <trkpt lat="45.98715" lon="4.81739">
        <ele>239</ele>
        <time>2017-06-18T09:29:41Z</time>
      </trkpt>
      <trkpt lat="45.98712" lon="4.81739">
        <ele>239</ele>
        <time>2017-06-18T09:29:42Z</time>
      </trkpt>
      <trkpt lat="45.98703" lon="4.8174">
        <ele>239</ele>
        <time>2017-06-18T09:29:45Z</time>
      </trkpt>
      <trkpt lat="45.987" lon="4.8174">
        <ele>239</ele>
        <time>2017-06-18T09:29:46Z</time>
      </trkpt>
      <trkpt lat="45.98693" lon="4.81741">
        <ele>238</ele>
        <time>2017-06-18T09:29:48Z</time>
      </trkpt>
      <trkpt lat="45.98689" lon="4.81741">
        <ele>238</ele>
        <time>2017-06-18T09:29:49Z</time>
      </trkpt>
      <trkpt lat="45.98683" lon="4.81742">
        <ele>238</ele>
        <time>2017-06-18T09:29:50Z</time>
      </trkpt>
      <trkpt lat="45.98678" lon="4.81744">
        <ele>238</ele>
        <time>2017-06-18T09:29:51Z</time>
      </trkpt>
      <trkpt lat="45.98674" lon="4.81745">
        <ele>238</ele>
        <time>2017-06-18T09:29:52Z</time>
      </trkpt>
      <trkpt lat="45.98669" lon="4.81746">
        <ele>238</ele>
        <time>2017-06-18T09:29:53Z</time>
      </trkpt>
      <trkpt lat="45.98664" lon="4.81746">
        <ele>238</ele>
        <time>2017-06-18T09:29:54Z</time>
      </trkpt>
      <trkpt lat="45.98657" lon="4.81747">
        <ele>238</ele>
        <time>2017-06-18T09:29:55Z</time>
      </trkpt>
      <trkpt lat="45.98649" lon="4.81747">
        <ele>237</ele>
        <time>2017-06-18T09:29:56Z</time>
      </trkpt>
      <trkpt lat="45.98644" lon="4.81748">
        <ele>237</ele>
        <time>2017-06-18T09:29:57Z</time>
      </trkpt>
      <trkpt lat="45.98639" lon="4.8175">
        <ele>237</ele>
        <time>2017-06-18T09:29:58Z</time>
      </trkpt>
      <trkpt lat="45.98635" lon="4.81751">
        <ele>238</ele>
        <time>2017-06-18T09:29:59Z</time>
      </trkpt>
      <trkpt lat="45.98628" lon="4.81752">
        <ele>238</ele>
        <time>2017-06-18T09:30:00Z</time>
      </trkpt>
      <trkpt lat="45.98624" lon="4.81754">
        <ele>238</ele>
        <time>2017-06-18T09:30:01Z</time>
      </trkpt>
      <trkpt lat="45.98617" lon="4.81757">
        <ele>238</ele>
        <time>2017-06-18T09:30:03Z</time>
      </trkpt>
      <trkpt lat="45.98612" lon="4.81759">
        <ele>238</ele>
        <time>2017-06-18T09:30:04Z</time>
      </trkpt>
      <trkpt lat="45.98607" lon="4.81761">
        <ele>238</ele>
        <time>2017-06-18T09:30:05Z</time>
      </trkpt>
      <trkpt lat="45.98602" lon="4.81764">
        <ele>238</ele>
        <time>2017-06-18T09:30:06Z</time>
      </trkpt>
      <trkpt lat="45.98595" lon="4.81767">
        <ele>238</ele>
        <time>2017-06-18T09:30:07Z</time>
      </trkpt>
      <trkpt lat="45.98589" lon="4.8177">
        <ele>238</ele>
        <time>2017-06-18T09:30:08Z</time>
      </trkpt>
      <trkpt lat="45.98584" lon="4.81774">
        <ele>238</ele>
        <time>2017-06-18T09:30:09Z</time>
      </trkpt>
      <trkpt lat="45.98579" lon="4.81779">
        <ele>238</ele>
        <time>2017-06-18T09:30:10Z</time>
      </trkpt>
      <trkpt lat="45.98574" lon="4.81784">
        <ele>238</ele>
        <time>2017-06-18T09:30:11Z</time>
      </trkpt>
      <trkpt lat="45.9857" lon="4.8179">
        <ele>238</ele>
        <time>2017-06-18T09:30:12Z</time>
      </trkpt>
      <trkpt lat="45.98566" lon="4.81795">
        <ele>238</ele>
        <time>2017-06-18T09:30:13Z</time>
      </trkpt>
      <trkpt lat="45.98561" lon="4.81797">
        <ele>238</ele>
        <time>2017-06-18T09:30:14Z</time>
      </trkpt>
      <trkpt lat="45.98556" lon="4.81799">
        <ele>238</ele>
        <time>2017-06-18T09:30:15Z</time>
      </trkpt>
      <trkpt lat="45.98551" lon="4.81802">
        <ele>238</ele>
        <time>2017-06-18T09:30:16Z</time>
      </trkpt>
      <trkpt lat="45.98543" lon="4.81801">
        <ele>238</ele>
        <time>2017-06-18T09:30:18Z</time>
      </trkpt>
      <trkpt lat="45.9854" lon="4.81797">
        <ele>238</ele>
        <time>2017-06-18T09:30:19Z</time>
      </trkpt>
      <trkpt lat="45.98536" lon="4.81793">
        <ele>238</ele>
        <time>2017-06-18T09:30:20Z</time>
      </trkpt>
      <trkpt lat="45.98533" lon="4.81788">
        <ele>238</ele>
        <time>2017-06-18T09:30:21Z</time>
      </trkpt>
      <trkpt lat="45.98529" lon="4.81783">
        <ele>238</ele>
        <time>2017-06-18T09:30:22Z</time>
      </trkpt>
      <trkpt lat="45.98525" lon="4.81779">
        <ele>238</ele>
        <time>2017-06-18T09:30:23Z</time>
      </trkpt>
      <trkpt lat="45.98522" lon="4.81774">
        <ele>238</ele>
        <time>2017-06-18T09:30:24Z</time>
      </trkpt>
      <trkpt lat="45.98518" lon="4.81768">
        <ele>238</ele>
        <time>2017-06-18T09:30:25Z</time>
      </trkpt>
      <trkpt lat="45.98515" lon="4.81764">
        <ele>237</ele>
        <time>2017-06-18T09:30:26Z</time>
      </trkpt>
      <trkpt lat="45.98511" lon="4.81759">
        <ele>237</ele>
        <time>2017-06-18T09:30:27Z</time>
      </trkpt>
      <trkpt lat="45.98508" lon="4.81755">
        <ele>237</ele>
        <time>2017-06-18T09:30:28Z</time>
      </trkpt>
      <trkpt lat="45.98505" lon="4.8175">
        <ele>237</ele>
        <time>2017-06-18T09:30:29Z</time>
      </trkpt>
      <trkpt lat="45.98501" lon="4.81746">
        <ele>237</ele>
        <time>2017-06-18T09:30:30Z</time>
      </trkpt>
      <trkpt lat="45.98497" lon="4.81743">
        <ele>238</ele>
        <time>2017-06-18T09:30:31Z</time>
      </trkpt>
      <trkpt lat="45.98493" lon="4.81739">
        <ele>238</ele>
        <time>2017-06-18T09:30:32Z</time>
      </trkpt>
      <trkpt lat="45.98489" lon="4.81736">
        <ele>238</ele>
        <time>2017-06-18T09:30:33Z</time>
      </trkpt>
      <trkpt lat="45.98485" lon="4.81732">
        <ele>238</ele>
        <time>2017-06-18T09:30:34Z</time>
      </trkpt>
      <trkpt lat="45.98481" lon="4.81728">
        <ele>238</ele>
        <time>2017-06-18T09:30:35Z</time>
      </trkpt>
      <trkpt lat="45.98477" lon="4.81724">
        <ele>238</ele>
        <time>2017-06-18T09:30:36Z</time>
      </trkpt>
      <trkpt lat="45.98473" lon="4.81719">
        <ele>239</ele>
        <time>2017-06-18T09:30:37Z</time>
      </trkpt>
      <trkpt lat="45.98469" lon="4.81714">
        <ele>239</ele>
        <time>2017-06-18T09:30:38Z</time>
      </trkpt>
      <trkpt lat="45.98466" lon="4.81711">
        <ele>239</ele>
        <time>2017-06-18T09:30:39Z</time>
      </trkpt>
      <trkpt lat="45.9846" lon="4.81702">
        <ele>239</ele>
        <time>2017-06-18T09:30:41Z</time>
      </trkpt>
      <trkpt lat="45.98458" lon="4.81698">
        <ele>239</ele>
        <time>2017-06-18T09:30:42Z</time>
      </trkpt>
      <trkpt lat="45.98452" lon="4.81688">
        <ele>239</ele>
        <time>2017-06-18T09:30:44Z</time>
      </trkpt>
      <trkpt lat="45.98449" lon="4.81683">
        <ele>239</ele>
        <time>2017-06-18T09:30:45Z</time>
      </trkpt>
      <trkpt lat="45.98446" lon="4.81678">
        <ele>239</ele>
        <time>2017-06-18T09:30:46Z</time>
      </trkpt>
      <trkpt lat="45.98442" lon="4.81673">
        <ele>239</ele>
        <time>2017-06-18T09:30:47Z</time>
      </trkpt>
      <trkpt lat="45.98438" lon="4.81668">
        <ele>240</ele>
        <time>2017-06-18T09:30:48Z</time>
      </trkpt>
      <trkpt lat="45.98433" lon="4.81665">
        <ele>239</ele>
        <time>2017-06-18T09:30:49Z</time>
      </trkpt>
      <trkpt lat="45.98428" lon="4.81663">
        <ele>239</ele>
        <time>2017-06-18T09:30:50Z</time>
      </trkpt>
      <trkpt lat="45.98423" lon="4.81662">
        <ele>240</ele>
        <time>2017-06-18T09:30:51Z</time>
      </trkpt>
      <trkpt lat="45.98417" lon="4.81662">
        <ele>240</ele>
        <time>2017-06-18T09:30:52Z</time>
      </trkpt>
      <trkpt lat="45.98411" lon="4.81662">
        <ele>241</ele>
        <time>2017-06-18T09:30:53Z</time>
      </trkpt>
      <trkpt lat="45.98406" lon="4.81663">
        <ele>241</ele>
        <time>2017-06-18T09:30:54Z</time>
      </trkpt>
      <trkpt lat="45.984" lon="4.81664">
        <ele>242</ele>
        <time>2017-06-18T09:30:55Z</time>
      </trkpt>
      <trkpt lat="45.98395" lon="4.81665">
        <ele>242</ele>
        <time>2017-06-18T09:30:56Z</time>
      </trkpt>
      <trkpt lat="45.9839" lon="4.81666">
        <ele>242</ele>
        <time>2017-06-18T09:30:57Z</time>
      </trkpt>
      <trkpt lat="45.98386" lon="4.81667">
        <ele>243</ele>
        <time>2017-06-18T09:30:58Z</time>
      </trkpt>
      <trkpt lat="45.98381" lon="4.81669">
        <ele>244</ele>
        <time>2017-06-18T09:30:59Z</time>
      </trkpt>
      <trkpt lat="45.98377" lon="4.8167">
        <ele>244</ele>
        <time>2017-06-18T09:31:00Z</time>
      </trkpt>
      <trkpt lat="45.98372" lon="4.81671">
        <ele>244</ele>
        <time>2017-06-18T09:31:01Z</time>
      </trkpt>
      <trkpt lat="45.98367" lon="4.81671">
        <ele>244</ele>
        <time>2017-06-18T09:31:02Z</time>
      </trkpt>
      <trkpt lat="45.98363" lon="4.81672">
        <ele>244</ele>
        <time>2017-06-18T09:31:03Z</time>
      </trkpt>
      <trkpt lat="45.98358" lon="4.81673">
        <ele>245</ele>
        <time>2017-06-18T09:31:04Z</time>
      </trkpt>
      <trkpt lat="45.98353" lon="4.81673">
        <ele>245</ele>
        <time>2017-06-18T09:31:05Z</time>
      </trkpt>
      <trkpt lat="45.98345" lon="4.81672">
        <ele>245</ele>
        <time>2017-06-18T09:31:07Z</time>
      </trkpt>
      <trkpt lat="45.98341" lon="4.81671">
        <ele>245</ele>
        <time>2017-06-18T09:31:08Z</time>
      </trkpt>
      <trkpt lat="45.98334" lon="4.81668">
        <ele>246</ele>
        <time>2017-06-18T09:31:10Z</time>
      </trkpt>
      <trkpt lat="45.98331" lon="4.81666">
        <ele>246</ele>
        <time>2017-06-18T09:31:11Z</time>
      </trkpt>
      <trkpt lat="45.98324" lon="4.81662">
        <ele>246</ele>
        <time>2017-06-18T09:31:13Z</time>
      </trkpt>
      <trkpt lat="45.9832" lon="4.81659">
        <ele>246</ele>
        <time>2017-06-18T09:31:14Z</time>
      </trkpt>
      <trkpt lat="45.98312" lon="4.81653">
        <ele>246</ele>
        <time>2017-06-18T09:31:16Z</time>
      </trkpt>
      <trkpt lat="45.98309" lon="4.81649">
        <ele>246</ele>
        <time>2017-06-18T09:31:17Z</time>
      </trkpt>
      <trkpt lat="45.98301" lon="4.81642">
        <ele>246</ele>
        <time>2017-06-18T09:31:19Z</time>
      </trkpt>
      <trkpt lat="45.98298" lon="4.81639">
        <ele>247</ele>
        <time>2017-06-18T09:31:20Z</time>
      </trkpt>
      <trkpt lat="45.98291" lon="4.8163">
        <ele>247</ele>
        <time>2017-06-18T09:31:22Z</time>
      </trkpt>
      <trkpt lat="45.98288" lon="4.81627">
        <ele>247</ele>
        <time>2017-06-18T09:31:23Z</time>
      </trkpt>
      <trkpt lat="45.98283" lon="4.81619">
        <ele>247</ele>
        <time>2017-06-18T09:31:25Z</time>
      </trkpt>
      <trkpt lat="45.9828" lon="4.81615">
        <ele>247</ele>
        <time>2017-06-18T09:31:26Z</time>
      </trkpt>
      <trkpt lat="45.98276" lon="4.81605">
        <ele>247</ele>
        <time>2017-06-18T09:31:28Z</time>
      </trkpt>
      <trkpt lat="45.98275" lon="4.816">
        <ele>247</ele>
        <time>2017-06-18T09:31:29Z</time>
      </trkpt>
      <trkpt lat="45.98271" lon="4.81589">
        <ele>247</ele>
        <time>2017-06-18T09:31:31Z</time>
      </trkpt>
      <trkpt lat="45.98269" lon="4.81584">
        <ele>247</ele>
        <time>2017-06-18T09:31:32Z</time>
      </trkpt>
      <trkpt lat="45.98267" lon="4.81573">
        <ele>247</ele>
        <time>2017-06-18T09:31:34Z</time>
      </trkpt>
      <trkpt lat="45.98265" lon="4.81567">
        <ele>247</ele>
        <time>2017-06-18T09:31:35Z</time>
      </trkpt>
      <trkpt lat="45.98262" lon="4.81556">
        <ele>247</ele>
        <time>2017-06-18T09:31:37Z</time>
      </trkpt>
      <trkpt lat="45.9826" lon="4.8155">
        <ele>247</ele>
        <time>2017-06-18T09:31:38Z</time>
      </trkpt>
      <trkpt lat="45.98258" lon="4.81544">
        <ele>247</ele>
        <time>2017-06-18T09:31:39Z</time>
      </trkpt>
      <trkpt lat="45.98256" lon="4.81538">
        <ele>247</ele>
        <time>2017-06-18T09:31:40Z</time>
      </trkpt>
      <trkpt lat="45.98254" lon="4.81532">
        <ele>247</ele>
        <time>2017-06-18T09:31:41Z</time>
      </trkpt>
      <trkpt lat="45.98253" lon="4.81526">
        <ele>247</ele>
        <time>2017-06-18T09:31:42Z</time>
      </trkpt>
      <trkpt lat="45.98249" lon="4.81515">
        <ele>249</ele>
        <time>2017-06-18T09:31:44Z</time>
      </trkpt>
      <trkpt lat="45.98247" lon="4.81509">
        <ele>249</ele>
        <time>2017-06-18T09:31:45Z</time>
      </trkpt>
      <trkpt lat="45.98245" lon="4.81503">
        <ele>249</ele>
        <time>2017-06-18T09:31:46Z</time>
      </trkpt>
      <trkpt lat="45.98243" lon="4.81497">
        <ele>249</ele>
        <time>2017-06-18T09:31:47Z</time>
      </trkpt>
      <trkpt lat="45.9824" lon="4.81486">
        <ele>249</ele>
        <time>2017-06-18T09:31:49Z</time>
      </trkpt>
      <trkpt lat="45.98239" lon="4.81481">
        <ele>249</ele>
        <time>2017-06-18T09:31:50Z</time>
      </trkpt>
      <trkpt lat="45.98235" lon="4.81471">
        <ele>249</ele>
        <time>2017-06-18T09:31:52Z</time>
      </trkpt>
      <trkpt lat="45.98233" lon="4.81465">
        <ele>249</ele>
        <time>2017-06-18T09:31:53Z</time>
      </trkpt>
      <trkpt lat="45.98229" lon="4.81454">
        <ele>249</ele>
        <time>2017-06-18T09:31:55Z</time>
      </trkpt>
      <trkpt lat="45.98227" lon="4.81448">
        <ele>249</ele>
        <time>2017-06-18T09:31:56Z</time>
      </trkpt>
      <trkpt lat="45.98224" lon="4.81436">
        <ele>249</ele>
        <time>2017-06-18T09:31:58Z</time>
      </trkpt>
      <trkpt lat="45.98222" lon="4.81431">
        <ele>249</ele>
        <time>2017-06-18T09:31:59Z</time>
      </trkpt>
      <trkpt lat="45.98218" lon="4.81419">
        <ele>249</ele>
        <time>2017-06-18T09:32:01Z</time>
      </trkpt>
      <trkpt lat="45.98216" lon="4.81414">
        <ele>248</ele>
        <time>2017-06-18T09:32:02Z</time>
      </trkpt>
      <trkpt lat="45.98213" lon="4.81402">
        <ele>248</ele>
        <time>2017-06-18T09:32:04Z</time>
      </trkpt>
      <trkpt lat="45.98211" lon="4.81396">
        <ele>248</ele>
        <time>2017-06-18T09:32:05Z</time>
      </trkpt>
      <trkpt lat="45.98208" lon="4.81385">
        <ele>248</ele>
        <time>2017-06-18T09:32:07Z</time>
      </trkpt>
      <trkpt lat="45.98206" lon="4.81379">
        <ele>248</ele>
        <time>2017-06-18T09:32:08Z</time>
      </trkpt>
      <trkpt lat="45.98203" lon="4.81367">
        <ele>248</ele>
        <time>2017-06-18T09:32:10Z</time>
      </trkpt>
      <trkpt lat="45.98203" lon="4.81361">
        <ele>248</ele>
        <time>2017-06-18T09:32:11Z</time>
      </trkpt>
      <trkpt lat="45.98201" lon="4.81355">
        <ele>248</ele>
        <time>2017-06-18T09:32:12Z</time>
      </trkpt>
      <trkpt lat="45.982" lon="4.81348">
        <ele>248</ele>
        <time>2017-06-18T09:32:13Z</time>
      </trkpt>
      <trkpt lat="45.98199" lon="4.81342">
        <ele>248</ele>
        <time>2017-06-18T09:32:14Z</time>
      </trkpt>
      <trkpt lat="45.982" lon="4.81335">
        <ele>248</ele>
        <time>2017-06-18T09:32:15Z</time>
      </trkpt>
      <trkpt lat="45.98198" lon="4.81328">
        <ele>247</ele>
        <time>2017-06-18T09:32:16Z</time>
      </trkpt>
      <trkpt lat="45.98196" lon="4.81321">
        <ele>247</ele>
        <time>2017-06-18T09:32:17Z</time>
      </trkpt>
      <trkpt lat="45.98193" lon="4.81309">
        <ele>247</ele>
        <time>2017-06-18T09:32:19Z</time>
      </trkpt>
      <trkpt lat="45.98191" lon="4.81302">
        <ele>247</ele>
        <time>2017-06-18T09:32:20Z</time>
      </trkpt>
      <trkpt lat="45.98189" lon="4.81295">
        <ele>247</ele>
        <time>2017-06-18T09:32:21Z</time>
      </trkpt>
      <trkpt lat="45.98188" lon="4.81287">
        <ele>247</ele>
        <time>2017-06-18T09:32:22Z</time>
      </trkpt>
      <trkpt lat="45.98187" lon="4.8128">
        <ele>247</ele>
        <time>2017-06-18T09:32:23Z</time>
      </trkpt>
      <trkpt lat="45.98185" lon="4.81272">
        <ele>247</ele>
        <time>2017-06-18T09:32:24Z</time>
      </trkpt>
      <trkpt lat="45.98184" lon="4.81264">
        <ele>247</ele>
        <time>2017-06-18T09:32:25Z</time>
      </trkpt>
      <trkpt lat="45.98182" lon="4.81256">
        <ele>247</ele>
        <time>2017-06-18T09:32:26Z</time>
      </trkpt>
      <trkpt lat="45.98181" lon="4.81248">
        <ele>247</ele>
        <time>2017-06-18T09:32:27Z</time>
      </trkpt>
      <trkpt lat="45.98179" lon="4.81239">
        <ele>247</ele>
        <time>2017-06-18T09:32:28Z</time>
      </trkpt>
      <trkpt lat="45.98179" lon="4.81231">
        <ele>246</ele>
        <time>2017-06-18T09:32:29Z</time>
      </trkpt>
      <trkpt lat="45.98178" lon="4.81223">
        <ele>246</ele>
        <time>2017-06-18T09:32:30Z</time>
      </trkpt>
      <trkpt lat="45.98177" lon="4.81214">
        <ele>246</ele>
        <time>2017-06-18T09:32:31Z</time>
      </trkpt>
      <trkpt lat="45.98174" lon="4.81206">
        <ele>245</ele>
        <time>2017-06-18T09:32:32Z</time>
      </trkpt>
      <trkpt lat="45.98173" lon="4.81197">
        <ele>245</ele>
        <time>2017-06-18T09:32:33Z</time>
      </trkpt>
      <trkpt lat="45.98172" lon="4.81189">
        <ele>245</ele>
        <time>2017-06-18T09:32:34Z</time>
      </trkpt>
      <trkpt lat="45.9817" lon="4.81182">
        <ele>245</ele>
        <time>2017-06-18T09:32:35Z</time>
      </trkpt>
      <trkpt lat="45.98168" lon="4.81173">
        <ele>245</ele>
        <time>2017-06-18T09:32:36Z</time>
      </trkpt>
      <trkpt lat="45.98167" lon="4.81165">
        <ele>245</ele>
        <time>2017-06-18T09:32:37Z</time>
      </trkpt>
      <trkpt lat="45.98164" lon="4.81157">
        <ele>245</ele>
        <time>2017-06-18T09:32:38Z</time>
      </trkpt>
      <trkpt lat="45.98162" lon="4.8115">
        <ele>245</ele>
        <time>2017-06-18T09:32:39Z</time>
      </trkpt>
      <trkpt lat="45.9816" lon="4.81143">
        <ele>245</ele>
        <time>2017-06-18T09:32:40Z</time>
      </trkpt>
      <trkpt lat="45.98157" lon="4.81137">
        <ele>245</ele>
        <time>2017-06-18T09:32:41Z</time>
      </trkpt>
      <trkpt lat="45.98154" lon="4.81131">
        <ele>245</ele>
        <time>2017-06-18T09:32:42Z</time>
      </trkpt>
      <trkpt lat="45.98151" lon="4.81123">
        <ele>245</ele>
        <time>2017-06-18T09:32:43Z</time>
      </trkpt>
      <trkpt lat="45.98148" lon="4.81116">
        <ele>245</ele>
        <time>2017-06-18T09:32:44Z</time>
      </trkpt>
      <trkpt lat="45.98145" lon="4.81109">
        <ele>245</ele>
        <time>2017-06-18T09:32:45Z</time>
      </trkpt>
      <trkpt lat="45.9814" lon="4.81102">
        <ele>245</ele>
        <time>2017-06-18T09:32:46Z</time>
      </trkpt>
      <trkpt lat="45.98137" lon="4.81094">
        <ele>245</ele>
        <time>2017-06-18T09:32:47Z</time>
      </trkpt>
      <trkpt lat="45.98134" lon="4.81086">
        <ele>245</ele>
        <time>2017-06-18T09:32:48Z</time>
      </trkpt>
      <trkpt lat="45.98131" lon="4.81079">
        <ele>243</ele>
        <time>2017-06-18T09:32:49Z</time>
      </trkpt>
      <trkpt lat="45.98128" lon="4.81072">
        <ele>243</ele>
        <time>2017-06-18T09:32:50Z</time>
      </trkpt>
      <trkpt lat="45.98125" lon="4.81065">
        <ele>243</ele>
        <time>2017-06-18T09:32:51Z</time>
      </trkpt>
      <trkpt lat="45.98125" lon="4.81056">
        <ele>243</ele>
        <time>2017-06-18T09:32:52Z</time>
      </trkpt>
      <trkpt lat="45.98122" lon="4.81048">
        <ele>242</ele>
        <time>2017-06-18T09:32:53Z</time>
      </trkpt>
      <trkpt lat="45.98119" lon="4.81042">
        <ele>242</ele>
        <time>2017-06-18T09:32:54Z</time>
      </trkpt>
      <trkpt lat="45.98117" lon="4.81034">
        <ele>242</ele>
        <time>2017-06-18T09:32:55Z</time>
      </trkpt>
      <trkpt lat="45.98115" lon="4.81027">
        <ele>242</ele>
        <time>2017-06-18T09:32:56Z</time>
      </trkpt>
      <trkpt lat="45.98113" lon="4.8102">
        <ele>242</ele>
        <time>2017-06-18T09:32:57Z</time>
      </trkpt>
      <trkpt lat="45.98111" lon="4.81012">
        <ele>242</ele>
        <time>2017-06-18T09:32:58Z</time>
      </trkpt>
      <trkpt lat="45.98109" lon="4.81005">
        <ele>242</ele>
        <time>2017-06-18T09:32:59Z</time>
      </trkpt>
      <trkpt lat="45.98107" lon="4.80998">
        <ele>239</ele>
        <time>2017-06-18T09:33:00Z</time>
      </trkpt>
      <trkpt lat="45.98105" lon="4.80992">
        <ele>239</ele>
        <time>2017-06-18T09:33:01Z</time>
      </trkpt>
      <trkpt lat="45.98103" lon="4.80986">
        <ele>239</ele>
        <time>2017-06-18T09:33:02Z</time>
      </trkpt>
      <trkpt lat="45.98101" lon="4.80978">
        <ele>239</ele>
        <time>2017-06-18T09:33:03Z</time>
      </trkpt>
      <trkpt lat="45.981" lon="4.80971">
        <ele>239</ele>
        <time>2017-06-18T09:33:04Z</time>
      </trkpt>
      <trkpt lat="45.98098" lon="4.80963">
        <ele>239</ele>
        <time>2017-06-18T09:33:05Z</time>
      </trkpt>
      <trkpt lat="45.98096" lon="4.80954">
        <ele>238</ele>
        <time>2017-06-18T09:33:06Z</time>
      </trkpt>
      <trkpt lat="45.98094" lon="4.80945">
        <ele>238</ele>
        <time>2017-06-18T09:33:07Z</time>
      </trkpt>
      <trkpt lat="45.98091" lon="4.80934">
        <ele>238</ele>
        <time>2017-06-18T09:33:08Z</time>
      </trkpt>
      <trkpt lat="45.98088" lon="4.80924">
        <ele>239</ele>
        <time>2017-06-18T09:33:09Z</time>
      </trkpt>
      <trkpt lat="45.98086" lon="4.80912">
        <ele>238</ele>
        <time>2017-06-18T09:33:10Z</time>
      </trkpt>
      <trkpt lat="45.98082" lon="4.80901">
        <ele>238</ele>
        <time>2017-06-18T09:33:11Z</time>
      </trkpt>
      <trkpt lat="45.98079" lon="4.80889">
        <ele>238</ele>
        <time>2017-06-18T09:33:12Z</time>
      </trkpt>
      <trkpt lat="45.98077" lon="4.80877">
        <ele>237</ele>
        <time>2017-06-18T09:33:13Z</time>
      </trkpt>
      <trkpt lat="45.98074" lon="4.80864">
        <ele>237</ele>
        <time>2017-06-18T09:33:14Z</time>
      </trkpt>
      <trkpt lat="45.98071" lon="4.80851">
        <ele>236</ele>
        <time>2017-06-18T09:33:15Z</time>
      </trkpt>
      <trkpt lat="45.98067" lon="4.80838">
        <ele>236</ele>
        <time>2017-06-18T09:33:16Z</time>
      </trkpt>
      <trkpt lat="45.98064" lon="4.80826">
        <ele>234</ele>
        <time>2017-06-18T09:33:17Z</time>
      </trkpt>
      <trkpt lat="45.98061" lon="4.80814">
        <ele>234</ele>
        <time>2017-06-18T09:33:18Z</time>
      </trkpt>
      <trkpt lat="45.98058" lon="4.80803">
        <ele>234</ele>
        <time>2017-06-18T09:33:19Z</time>
      </trkpt>
      <trkpt lat="45.98055" lon="4.80791">
        <ele>233</ele>
        <time>2017-06-18T09:33:20Z</time>
      </trkpt>
      <trkpt lat="45.98053" lon="4.8078">
        <ele>233</ele>
        <time>2017-06-18T09:33:21Z</time>
      </trkpt>
      <trkpt lat="45.9805" lon="4.80769">
        <ele>233</ele>
        <time>2017-06-18T09:33:22Z</time>
      </trkpt>
      <trkpt lat="45.98047" lon="4.8076">
        <ele>233</ele>
        <time>2017-06-18T09:33:23Z</time>
      </trkpt>
      <trkpt lat="45.98045" lon="4.80751">
        <ele>233</ele>
        <time>2017-06-18T09:33:24Z</time>
      </trkpt>
      <trkpt lat="45.98042" lon="4.80743">
        <ele>231</ele>
        <time>2017-06-18T09:33:25Z</time>
      </trkpt>
      <trkpt lat="45.9804" lon="4.80735">
        <ele>231</ele>
        <time>2017-06-18T09:33:26Z</time>
      </trkpt>
      <trkpt lat="45.98039" lon="4.80728">
        <ele>231</ele>
        <time>2017-06-18T09:33:27Z</time>
      </trkpt>
      <trkpt lat="45.98037" lon="4.80716">
        <ele>231</ele>
        <time>2017-06-18T09:33:29Z</time>
      </trkpt>
      <trkpt lat="45.98035" lon="4.8071">
        <ele>231</ele>
        <time>2017-06-18T09:33:30Z</time>
      </trkpt>
      <trkpt lat="45.98037" lon="4.807">
        <ele>230</ele>
        <time>2017-06-18T09:33:32Z</time>
      </trkpt>
      <trkpt lat="45.9804" lon="4.80698">
        <ele>230</ele>
        <time>2017-06-18T09:33:33Z</time>
      </trkpt>
      <trkpt lat="45.98048" lon="4.80696">
        <ele>230</ele>
        <time>2017-06-18T09:33:35Z</time>
      </trkpt>
      <trkpt lat="45.98054" lon="4.80695">
        <ele>230</ele>
        <time>2017-06-18T09:33:36Z</time>
      </trkpt>
      <trkpt lat="45.98059" lon="4.80694">
        <ele>230</ele>
        <time>2017-06-18T09:33:37Z</time>
      </trkpt>
      <trkpt lat="45.98065" lon="4.80693">
        <ele>230</ele>
        <time>2017-06-18T09:33:38Z</time>
      </trkpt>
      <trkpt lat="45.98071" lon="4.80693">
        <ele>230</ele>
        <time>2017-06-18T09:33:39Z</time>
      </trkpt>
      <trkpt lat="45.98078" lon="4.80693">
        <ele>230</ele>
        <time>2017-06-18T09:33:40Z</time>
      </trkpt>
      <trkpt lat="45.98085" lon="4.80693">
        <ele>228</ele>
        <time>2017-06-18T09:33:41Z</time>
      </trkpt>
      <trkpt lat="45.98092" lon="4.80693">
        <ele>228</ele>
        <time>2017-06-18T09:33:42Z</time>
      </trkpt>
      <trkpt lat="45.981" lon="4.80693">
        <ele>228</ele>
        <time>2017-06-18T09:33:43Z</time>
      </trkpt>
      <trkpt lat="45.98107" lon="4.80693">
        <ele>228</ele>
        <time>2017-06-18T09:33:44Z</time>
      </trkpt>
      <trkpt lat="45.98114" lon="4.80694">
        <ele>228</ele>
        <time>2017-06-18T09:33:45Z</time>
      </trkpt>
      <trkpt lat="45.98122" lon="4.80694">
        <ele>228</ele>
        <time>2017-06-18T09:33:46Z</time>
      </trkpt>
      <trkpt lat="45.98129" lon="4.80694">
        <ele>228</ele>
        <time>2017-06-18T09:33:47Z</time>
      </trkpt>
      <trkpt lat="45.98136" lon="4.80695">
        <ele>228</ele>
        <time>2017-06-18T09:33:48Z</time>
      </trkpt>
      <trkpt lat="45.98144" lon="4.80695">
        <ele>228</ele>
        <time>2017-06-18T09:33:49Z</time>
      </trkpt>
      <trkpt lat="45.98151" lon="4.80694">
        <ele>228</ele>
        <time>2017-06-18T09:33:50Z</time>
      </trkpt>
      <trkpt lat="45.98159" lon="4.80693">
        <ele>227</ele>
        <time>2017-06-18T09:33:51Z</time>
      </trkpt>
      <trkpt lat="45.98166" lon="4.80692">
        <ele>227</ele>
        <time>2017-06-18T09:33:52Z</time>
      </trkpt>
      <trkpt lat="45.98173" lon="4.8069">
        <ele>225</ele>
        <time>2017-06-18T09:33:53Z</time>
      </trkpt>
      <trkpt lat="45.9818" lon="4.80688">
        <ele>225</ele>
        <time>2017-06-18T09:33:54Z</time>
      </trkpt>
      <trkpt lat="45.98187" lon="4.80688">
        <ele>225</ele>
        <time>2017-06-18T09:33:55Z</time>
      </trkpt>
      <trkpt lat="45.98194" lon="4.80685">
        <ele>225</ele>
        <time>2017-06-18T09:33:56Z</time>
      </trkpt>
      <trkpt lat="45.98201" lon="4.80683">
        <ele>225</ele>
        <time>2017-06-18T09:33:57Z</time>
      </trkpt>
      <trkpt lat="45.98208" lon="4.80679">
        <ele>224</ele>
        <time>2017-06-18T09:33:58Z</time>
      </trkpt>
      <trkpt lat="45.98215" lon="4.80674">
        <ele>224</ele>
        <time>2017-06-18T09:33:59Z</time>
      </trkpt>
      <trkpt lat="45.98221" lon="4.80667">
        <ele>224</ele>
        <time>2017-06-18T09:34:00Z</time>
      </trkpt>
      <trkpt lat="45.98227" lon="4.80659">
        <ele>223</ele>
        <time>2017-06-18T09:34:01Z</time>
      </trkpt>
      <trkpt lat="45.98231" lon="4.8065">
        <ele>223</ele>
        <time>2017-06-18T09:34:02Z</time>
      </trkpt>
      <trkpt lat="45.98235" lon="4.80639">
        <ele>224</ele>
        <time>2017-06-18T09:34:03Z</time>
      </trkpt>
      <trkpt lat="45.98238" lon="4.80629">
        <ele>224</ele>
        <time>2017-06-18T09:34:04Z</time>
      </trkpt>
      <trkpt lat="45.98241" lon="4.80618">
        <ele>224</ele>
        <time>2017-06-18T09:34:05Z</time>
      </trkpt>
      <trkpt lat="45.98244" lon="4.80607">
        <ele>224</ele>
        <time>2017-06-18T09:34:06Z</time>
      </trkpt>
      <trkpt lat="45.98247" lon="4.80596">
        <ele>224</ele>
        <time>2017-06-18T09:34:07Z</time>
      </trkpt>
      <trkpt lat="45.9825" lon="4.80586">
        <ele>224</ele>
        <time>2017-06-18T09:34:08Z</time>
      </trkpt>
      <trkpt lat="45.98252" lon="4.80575">
        <ele>224</ele>
        <time>2017-06-18T09:34:09Z</time>
      </trkpt>
      <trkpt lat="45.98255" lon="4.80565">
        <ele>224</ele>
        <time>2017-06-18T09:34:10Z</time>
      </trkpt>
      <trkpt lat="45.98258" lon="4.80555">
        <ele>224</ele>
        <time>2017-06-18T09:34:11Z</time>
      </trkpt>
      <trkpt lat="45.98261" lon="4.80546">
        <ele>224</ele>
        <time>2017-06-18T09:34:12Z</time>
      </trkpt>
      <trkpt lat="45.98264" lon="4.80537">
        <ele>224</ele>
        <time>2017-06-18T09:34:13Z</time>
      </trkpt>
      <trkpt lat="45.98268" lon="4.80528">
        <ele>224</ele>
        <time>2017-06-18T09:34:14Z</time>
      </trkpt>
      <trkpt lat="45.9827" lon="4.80519">
        <ele>224</ele>
        <time>2017-06-18T09:34:15Z</time>
      </trkpt>
      <trkpt lat="45.98272" lon="4.8051">
        <ele>223</ele>
        <time>2017-06-18T09:34:16Z</time>
      </trkpt>
      <trkpt lat="45.98274" lon="4.80501">
        <ele>223</ele>
        <time>2017-06-18T09:34:17Z</time>
      </trkpt>
      <trkpt lat="45.98277" lon="4.80494">
        <ele>223</ele>
        <time>2017-06-18T09:34:18Z</time>
      </trkpt>
      <trkpt lat="45.98279" lon="4.80487">
        <ele>223</ele>
        <time>2017-06-18T09:34:19Z</time>
      </trkpt>
      <trkpt lat="45.98281" lon="4.80479">
        <ele>223</ele>
        <time>2017-06-18T09:34:20Z</time>
      </trkpt>
      <trkpt lat="45.98282" lon="4.80471">
        <ele>223</ele>
        <time>2017-06-18T09:34:21Z</time>
      </trkpt>
      <trkpt lat="45.98284" lon="4.80464">
        <ele>223</ele>
        <time>2017-06-18T09:34:22Z</time>
      </trkpt>
      <trkpt lat="45.98286" lon="4.80458">
        <ele>224</ele>
        <time>2017-06-18T09:34:23Z</time>
      </trkpt>
      <trkpt lat="45.98287" lon="4.80451">
        <ele>224</ele>
        <time>2017-06-18T09:34:24Z</time>
      </trkpt>
      <trkpt lat="45.98287" lon="4.80443">
        <ele>224</ele>
        <time>2017-06-18T09:34:25Z</time>
      </trkpt>
      <trkpt lat="45.98288" lon="4.80434">
        <ele>224</ele>
        <time>2017-06-18T09:34:26Z</time>
      </trkpt>
      <trkpt lat="45.98289" lon="4.80425">
        <ele>224</ele>
        <time>2017-06-18T09:34:27Z</time>
      </trkpt>
      <trkpt lat="45.9829" lon="4.80419">
        <ele>224</ele>
        <time>2017-06-18T09:34:28Z</time>
      </trkpt>
      <trkpt lat="45.98292" lon="4.80412">
        <ele>224</ele>
        <time>2017-06-18T09:34:29Z</time>
      </trkpt>
      <trkpt lat="45.98294" lon="4.80406">
        <ele>224</ele>
        <time>2017-06-18T09:34:30Z</time>
      </trkpt>
      <trkpt lat="45.98297" lon="4.80394">
        <ele>224</ele>
        <time>2017-06-18T09:34:32Z</time>
      </trkpt>
      <trkpt lat="45.98299" lon="4.80387">
        <ele>225</ele>
        <time>2017-06-18T09:34:33Z</time>
      </trkpt>
      <trkpt lat="45.983" lon="4.8038">
        <ele>225</ele>
        <time>2017-06-18T09:34:34Z</time>
      </trkpt>
      <trkpt lat="45.98302" lon="4.80373">
        <ele>225</ele>
        <time>2017-06-18T09:34:35Z</time>
      </trkpt>
      <trkpt lat="45.98304" lon="4.80366">
        <ele>225</ele>
        <time>2017-06-18T09:34:36Z</time>
      </trkpt>
      <trkpt lat="45.98306" lon="4.80358">
        <ele>225</ele>
        <time>2017-06-18T09:34:37Z</time>
      </trkpt>
      <trkpt lat="45.98308" lon="4.8035">
        <ele>226</ele>
        <time>2017-06-18T09:34:38Z</time>
      </trkpt>
      <trkpt lat="45.9831" lon="4.80342">
        <ele>226</ele>
        <time>2017-06-18T09:34:39Z</time>
      </trkpt>
      <trkpt lat="45.98312" lon="4.80333">
        <ele>227</ele>
        <time>2017-06-18T09:34:40Z</time>
      </trkpt>
      <trkpt lat="45.98314" lon="4.80324">
        <ele>227</ele>
        <time>2017-06-18T09:34:41Z</time>
      </trkpt>
      <trkpt lat="45.98316" lon="4.80316">
        <ele>227</ele>
        <time>2017-06-18T09:34:42Z</time>
      </trkpt>
      <trkpt lat="45.98317" lon="4.80308">
        <ele>227</ele>
        <time>2017-06-18T09:34:43Z</time>
      </trkpt>
      <trkpt lat="45.98318" lon="4.80301">
        <ele>226</ele>
        <time>2017-06-18T09:34:44Z</time>
      </trkpt>
      <trkpt lat="45.9832" lon="4.80295">
        <ele>226</ele>
        <time>2017-06-18T09:34:45Z</time>
      </trkpt>
      <trkpt lat="45.98321" lon="4.80288">
        <ele>227</ele>
        <time>2017-06-18T09:34:46Z</time>
      </trkpt>
      <trkpt lat="45.98322" lon="4.80282">
        <ele>227</ele>
        <time>2017-06-18T09:34:47Z</time>
      </trkpt>
      <trkpt lat="45.98326" lon="4.8027">
        <ele>227</ele>
        <time>2017-06-18T09:34:49Z</time>
      </trkpt>
      <trkpt lat="45.98327" lon="4.80264">
        <ele>228</ele>
        <time>2017-06-18T09:34:50Z</time>
      </trkpt>
      <trkpt lat="45.98329" lon="4.80254">
        <ele>229</ele>
        <time>2017-06-18T09:34:52Z</time>
      </trkpt>
      <trkpt lat="45.9833" lon="4.8025">
        <ele>229</ele>
        <time>2017-06-18T09:34:53Z</time>
      </trkpt>
      <trkpt lat="45.98332" lon="4.80242">
        <ele>229</ele>
        <time>2017-06-18T09:34:55Z</time>
      </trkpt>
      <trkpt lat="45.98334" lon="4.80236">
        <ele>230</ele>
        <time>2017-06-18T09:34:56Z</time>
      </trkpt>
      <trkpt lat="45.98335" lon="4.80224">
        <ele>230</ele>
        <time>2017-06-18T09:34:58Z</time>
      </trkpt>
      <trkpt lat="45.98336" lon="4.80219">
        <ele>230</ele>
        <time>2017-06-18T09:34:59Z</time>
      </trkpt>
      <trkpt lat="45.98336" lon="4.80209">
        <ele>230</ele>
        <time>2017-06-18T09:35:01Z</time>
      </trkpt>
      <trkpt lat="45.98335" lon="4.80204">
        <ele>230</ele>
        <time>2017-06-18T09:35:02Z</time>
      </trkpt>
      <trkpt lat="45.98331" lon="4.80193">
        <ele>227</ele>
        <time>2017-06-18T09:35:04Z</time>
      </trkpt>
      <trkpt lat="45.98329" lon="4.80187">
        <ele>227</ele>
        <time>2017-06-18T09:35:05Z</time>
      </trkpt>
      <trkpt lat="45.98326" lon="4.80181">
        <ele>227</ele>
        <time>2017-06-18T09:35:06Z</time>
      </trkpt>
      <trkpt lat="45.98324" lon="4.80175">
        <ele>227</ele>
        <time>2017-06-18T09:35:07Z</time>
      </trkpt>
      <trkpt lat="45.9832" lon="4.80164">
        <ele>228</ele>
        <time>2017-06-18T09:35:09Z</time>
      </trkpt>
      <trkpt lat="45.98318" lon="4.80159">
        <ele>228</ele>
        <time>2017-06-18T09:35:10Z</time>
      </trkpt>
      <trkpt lat="45.98314" lon="4.80148">
        <ele>228</ele>
        <time>2017-06-18T09:35:12Z</time>
      </trkpt>
      <trkpt lat="45.9831" lon="4.8014">
        <ele>228</ele>
        <time>2017-06-18T09:35:13Z</time>
      </trkpt>
      <trkpt lat="45.98308" lon="4.80134">
        <ele>228</ele>
        <time>2017-06-18T09:35:14Z</time>
      </trkpt>
      <trkpt lat="45.98304" lon="4.80127">
        <ele>228</ele>
        <time>2017-06-18T09:35:15Z</time>
      </trkpt>
      <trkpt lat="45.98301" lon="4.8012">
        <ele>228</ele>
        <time>2017-06-18T09:35:16Z</time>
      </trkpt>
      <trkpt lat="45.98298" lon="4.80113">
        <ele>228</ele>
        <time>2017-06-18T09:35:17Z</time>
      </trkpt>
      <trkpt lat="45.98295" lon="4.80107">
        <ele>228</ele>
        <time>2017-06-18T09:35:18Z</time>
      </trkpt>
      <trkpt lat="45.98293" lon="4.80101">
        <ele>228</ele>
        <time>2017-06-18T09:35:19Z</time>
      </trkpt>
      <trkpt lat="45.9829" lon="4.80095">
        <ele>228</ele>
        <time>2017-06-18T09:35:20Z</time>
      </trkpt>
      <trkpt lat="45.98288" lon="4.80089">
        <ele>228</ele>
        <time>2017-06-18T09:35:21Z</time>
      </trkpt>
      <trkpt lat="45.98286" lon="4.80082">
        <ele>229</ele>
        <time>2017-06-18T09:35:22Z</time>
      </trkpt>
      <trkpt lat="45.98284" lon="4.80076">
        <ele>229</ele>
        <time>2017-06-18T09:35:23Z</time>
      </trkpt>
      <trkpt lat="45.98282" lon="4.8007">
        <ele>229</ele>
        <time>2017-06-18T09:35:24Z</time>
      </trkpt>
      <trkpt lat="45.9828" lon="4.80063">
        <ele>229</ele>
        <time>2017-06-18T09:35:25Z</time>
      </trkpt>
      <trkpt lat="45.98277" lon="4.80056">
        <ele>229</ele>
        <time>2017-06-18T09:35:26Z</time>
      </trkpt>
      <trkpt lat="45.98275" lon="4.8005">
        <ele>229</ele>
        <time>2017-06-18T09:35:27Z</time>
      </trkpt>
      <trkpt lat="45.98273" lon="4.80044">
        <ele>229</ele>
        <time>2017-06-18T09:35:28Z</time>
      </trkpt>
      <trkpt lat="45.98271" lon="4.80038">
        <ele>229</ele>
        <time>2017-06-18T09:35:29Z</time>
      </trkpt>
      <trkpt lat="45.98269" lon="4.80032">
        <ele>229</ele>
        <time>2017-06-18T09:35:30Z</time>
      </trkpt>
      <trkpt lat="45.98266" lon="4.80026">
        <ele>228</ele>
        <time>2017-06-18T09:35:31Z</time>
      </trkpt>
      <trkpt lat="45.98262" lon="4.80015">
        <ele>228</ele>
        <time>2017-06-18T09:35:33Z</time>
      </trkpt>
      <trkpt lat="45.9826" lon="4.8001">
        <ele>228</ele>
        <time>2017-06-18T09:35:34Z</time>
      </trkpt>
      <trkpt lat="45.98258" lon="4.80004">
        <ele>227</ele>
        <time>2017-06-18T09:35:35Z</time>
      </trkpt>
      <trkpt lat="45.98255" lon="4.79998">
        <ele>227</ele>
        <time>2017-06-18T09:35:36Z</time>
      </trkpt>
      <trkpt lat="45.98253" lon="4.79991">
        <ele>227</ele>
        <time>2017-06-18T09:35:37Z</time>
      </trkpt>
      <trkpt lat="45.98251" lon="4.79985">
        <ele>228</ele>
        <time>2017-06-18T09:35:38Z</time>
      </trkpt>
      <trkpt lat="45.98248" lon="4.79979">
        <ele>225</ele>
        <time>2017-06-18T09:35:39Z</time>
      </trkpt>
      <trkpt lat="45.98246" lon="4.79972">
        <ele>225</ele>
        <time>2017-06-18T09:35:40Z</time>
      </trkpt>
      <trkpt lat="45.98243" lon="4.79965">
        <ele>225</ele>
        <time>2017-06-18T09:35:41Z</time>
      </trkpt>
      <trkpt lat="45.98241" lon="4.79959">
        <ele>225</ele>
        <time>2017-06-18T09:35:42Z</time>
      </trkpt>
      <trkpt lat="45.98238" lon="4.79947">
        <ele>225</ele>
        <time>2017-06-18T09:35:44Z</time>
      </trkpt>
      <trkpt lat="45.98236" lon="4.79941">
        <ele>225</ele>
        <time>2017-06-18T09:35:45Z</time>
      </trkpt>
      <trkpt lat="45.98233" lon="4.79929">
        <ele>225</ele>
        <time>2017-06-18T09:35:47Z</time>
      </trkpt>
      <trkpt lat="45.98231" lon="4.79924">
        <ele>225</ele>
        <time>2017-06-18T09:35:48Z</time>
      </trkpt>
      <trkpt lat="45.98227" lon="4.79913">
        <ele>225</ele>
        <time>2017-06-18T09:35:50Z</time>
      </trkpt>
      <trkpt lat="45.98226" lon="4.79907">
        <ele>225</ele>
        <time>2017-06-18T09:35:51Z</time>
      </trkpt>
      <trkpt lat="45.98222" lon="4.79897">
        <ele>225</ele>
        <time>2017-06-18T09:35:53Z</time>
      </trkpt>
      <trkpt lat="45.9822" lon="4.79891">
        <ele>225</ele>
        <time>2017-06-18T09:35:54Z</time>
      </trkpt>
      <trkpt lat="45.98216" lon="4.7988">
        <ele>225</ele>
        <time>2017-06-18T09:35:56Z</time>
      </trkpt>
      <trkpt lat="45.98215" lon="4.79874">
        <ele>225</ele>
        <time>2017-06-18T09:35:57Z</time>
      </trkpt>
      <trkpt lat="45.98213" lon="4.79868">
        <ele>225</ele>
        <time>2017-06-18T09:35:58Z</time>
      </trkpt>
      <trkpt lat="45.9821" lon="4.79861">
        <ele>225</ele>
        <time>2017-06-18T09:35:59Z</time>
      </trkpt>
      <trkpt lat="45.98208" lon="4.79854">
        <ele>225</ele>
        <time>2017-06-18T09:36:00Z</time>
      </trkpt>
      <trkpt lat="45.98205" lon="4.79847">
        <ele>225</ele>
        <time>2017-06-18T09:36:01Z</time>
      </trkpt>
      <trkpt lat="45.98203" lon="4.79841">
        <ele>225</ele>
        <time>2017-06-18T09:36:02Z</time>
      </trkpt>
      <trkpt lat="45.98201" lon="4.79835">
        <ele>225</ele>
        <time>2017-06-18T09:36:03Z</time>
      </trkpt>
      <trkpt lat="45.98199" lon="4.79828">
        <ele>225</ele>
        <time>2017-06-18T09:36:04Z</time>
      </trkpt>
      <trkpt lat="45.98196" lon="4.79822">
        <ele>225</ele>
        <time>2017-06-18T09:36:05Z</time>
      </trkpt>
      <trkpt lat="45.98194" lon="4.79815">
        <ele>225</ele>
        <time>2017-06-18T09:36:06Z</time>
      </trkpt>
      <trkpt lat="45.98192" lon="4.79809">
        <ele>226</ele>
        <time>2017-06-18T09:36:07Z</time>
      </trkpt>
      <trkpt lat="45.98189" lon="4.79797">
        <ele>226</ele>
        <time>2017-06-18T09:36:09Z</time>
      </trkpt>
      <trkpt lat="45.98188" lon="4.79792">
        <ele>226</ele>
        <time>2017-06-18T09:36:10Z</time>
      </trkpt>
      <trkpt lat="45.98186" lon="4.7978">
        <ele>226</ele>
        <time>2017-06-18T09:36:13Z</time>
      </trkpt>
      <trkpt lat="45.98186" lon="4.79776">
        <ele>226</ele>
        <time>2017-06-18T09:36:14Z</time>
      </trkpt>
      <trkpt lat="45.98186" lon="4.79767">
        <ele>226</ele>
        <time>2017-06-18T09:36:16Z</time>
      </trkpt>
      <trkpt lat="45.98186" lon="4.79762">
        <ele>226</ele>
        <time>2017-06-18T09:36:17Z</time>
      </trkpt>
      <trkpt lat="45.98184" lon="4.7975">
        <ele>226</ele>
        <time>2017-06-18T09:36:19Z</time>
      </trkpt>
      <trkpt lat="45.98182" lon="4.79745">
        <ele>227</ele>
        <time>2017-06-18T09:36:20Z</time>
      </trkpt>
      <trkpt lat="45.98178" lon="4.79741">
        <ele>227</ele>
        <time>2017-06-18T09:36:21Z</time>
      </trkpt>
      <trkpt lat="45.98172" lon="4.7974">
        <ele>227</ele>
        <time>2017-06-18T09:36:22Z</time>
      </trkpt>
      <trkpt lat="45.98166" lon="4.79741">
        <ele>226</ele>
        <time>2017-06-18T09:36:23Z</time>
      </trkpt>
      <trkpt lat="45.98161" lon="4.79744">
        <ele>226</ele>
        <time>2017-06-18T09:36:24Z</time>
      </trkpt>
      <trkpt lat="45.98156" lon="4.79748">
        <ele>226</ele>
        <time>2017-06-18T09:36:25Z</time>
      </trkpt>
      <trkpt lat="45.98151" lon="4.79751">
        <ele>225</ele>
        <time>2017-06-18T09:36:26Z</time>
      </trkpt>
      <trkpt lat="45.98145" lon="4.79753">
        <ele>225</ele>
        <time>2017-06-18T09:36:27Z</time>
      </trkpt>
      <trkpt lat="45.98139" lon="4.79754">
        <ele>224</ele>
        <time>2017-06-18T09:36:28Z</time>
      </trkpt>
      <trkpt lat="45.98132" lon="4.79755">
        <ele>224</ele>
        <time>2017-06-18T09:36:29Z</time>
      </trkpt>
      <trkpt lat="45.98126" lon="4.79756">
        <ele>224</ele>
        <time>2017-06-18T09:36:30Z</time>
      </trkpt>
      <trkpt lat="45.9812" lon="4.79757">
        <ele>224</ele>
        <time>2017-06-18T09:36:31Z</time>
      </trkpt>
      <trkpt lat="45.98113" lon="4.79758">
        <ele>224</ele>
        <time>2017-06-18T09:36:32Z</time>
      </trkpt>
      <trkpt lat="45.98106" lon="4.79759">
        <ele>224</ele>
        <time>2017-06-18T09:36:33Z</time>
      </trkpt>
      <trkpt lat="45.98098" lon="4.79761">
        <ele>223</ele>
        <time>2017-06-18T09:36:34Z</time>
      </trkpt>
      <trkpt lat="45.98091" lon="4.79762">
        <ele>223</ele>
        <time>2017-06-18T09:36:35Z</time>
      </trkpt>
      <trkpt lat="45.98084" lon="4.79763">
        <ele>223</ele>
        <time>2017-06-18T09:36:36Z</time>
      </trkpt>
      <trkpt lat="45.98076" lon="4.79764">
        <ele>223</ele>
        <time>2017-06-18T09:36:37Z</time>
      </trkpt>
      <trkpt lat="45.98069" lon="4.79765">
        <ele>223</ele>
        <time>2017-06-18T09:36:38Z</time>
      </trkpt>
      <trkpt lat="45.98062" lon="4.79766">
        <ele>223</ele>
        <time>2017-06-18T09:36:39Z</time>
      </trkpt>
      <trkpt lat="45.98055" lon="4.79767">
        <ele>223</ele>
        <time>2017-06-18T09:36:40Z</time>
      </trkpt>
      <trkpt lat="45.98048" lon="4.79768">
        <ele>223</ele>
        <time>2017-06-18T09:36:41Z</time>
      </trkpt>
      <trkpt lat="45.98041" lon="4.79768">
        <ele>223</ele>
        <time>2017-06-18T09:36:42Z</time>
      </trkpt>
      <trkpt lat="45.98035" lon="4.79769">
        <ele>223</ele>
        <time>2017-06-18T09:36:43Z</time>
      </trkpt>
      <trkpt lat="45.98028" lon="4.7977">
        <ele>223</ele>
        <time>2017-06-18T09:36:44Z</time>
      </trkpt>
      <trkpt lat="45.98021" lon="4.79771">
        <ele>223</ele>
        <time>2017-06-18T09:36:45Z</time>
      </trkpt>
      <trkpt lat="45.98015" lon="4.79772">
        <ele>223</ele>
        <time>2017-06-18T09:36:46Z</time>
      </trkpt>
      <trkpt lat="45.98008" lon="4.79773">
        <ele>223</ele>
        <time>2017-06-18T09:36:47Z</time>
      </trkpt>
      <trkpt lat="45.98002" lon="4.79774">
        <ele>223</ele>
        <time>2017-06-18T09:36:48Z</time>
      </trkpt>
      <trkpt lat="45.97996" lon="4.79775">
        <ele>224</ele>
        <time>2017-06-18T09:36:49Z</time>
      </trkpt>
      <trkpt lat="45.97989" lon="4.79776">
        <ele>224</ele>
        <time>2017-06-18T09:36:50Z</time>
      </trkpt>
      <trkpt lat="45.97984" lon="4.79776">
        <ele>224</ele>
        <time>2017-06-18T09:36:51Z</time>
      </trkpt>
      <trkpt lat="45.97978" lon="4.79777">
        <ele>224</ele>
        <time>2017-06-18T09:36:52Z</time>
      </trkpt>
      <trkpt lat="45.97972" lon="4.79778">
        <ele>224</ele>
        <time>2017-06-18T09:36:53Z</time>
      </trkpt>
      <trkpt lat="45.97966" lon="4.79778">
        <ele>224</ele>
        <time>2017-06-18T09:36:54Z</time>
      </trkpt>
      <trkpt lat="45.9796" lon="4.79779">
        <ele>224</ele>
        <time>2017-06-18T09:36:55Z</time>
      </trkpt>
      <trkpt lat="45.97955" lon="4.7978">
        <ele>224</ele>
        <time>2017-06-18T09:36:56Z</time>
      </trkpt>
      <trkpt lat="45.9795" lon="4.79781">
        <ele>224</ele>
        <time>2017-06-18T09:36:57Z</time>
      </trkpt>
      <trkpt lat="45.97944" lon="4.79781">
        <ele>224</ele>
        <time>2017-06-18T09:36:58Z</time>
      </trkpt>
      <trkpt lat="45.97938" lon="4.79782">
        <ele>225</ele>
        <time>2017-06-18T09:36:59Z</time>
      </trkpt>
      <trkpt lat="45.97932" lon="4.79782">
        <ele>225</ele>
        <time>2017-06-18T09:37:00Z</time>
      </trkpt>
      <trkpt lat="45.97926" lon="4.79783">
        <ele>225</ele>
        <time>2017-06-18T09:37:01Z</time>
      </trkpt>
      <trkpt lat="45.97921" lon="4.79785">
        <ele>225</ele>
        <time>2017-06-18T09:37:02Z</time>
      </trkpt>
      <trkpt lat="45.97915" lon="4.79786">
        <ele>225</ele>
        <time>2017-06-18T09:37:03Z</time>
      </trkpt>
      <trkpt lat="45.97908" lon="4.79787">
        <ele>225</ele>
        <time>2017-06-18T09:37:04Z</time>
      </trkpt>
      <trkpt lat="45.97901" lon="4.79789">
        <ele>225</ele>
        <time>2017-06-18T09:37:05Z</time>
      </trkpt>
      <trkpt lat="45.97895" lon="4.7979">
        <ele>224</ele>
        <time>2017-06-18T09:37:06Z</time>
      </trkpt>
      <trkpt lat="45.97888" lon="4.79791">
        <ele>224</ele>
        <time>2017-06-18T09:37:07Z</time>
      </trkpt>
      <trkpt lat="45.97881" lon="4.79792">
        <ele>224</ele>
        <time>2017-06-18T09:37:08Z</time>
      </trkpt>
      <trkpt lat="45.97874" lon="4.79793">
        <ele>224</ele>
        <time>2017-06-18T09:37:09Z</time>
      </trkpt>
      <trkpt lat="45.97866" lon="4.79794">
        <ele>224</ele>
        <time>2017-06-18T09:37:10Z</time>
      </trkpt>
      <trkpt lat="45.97859" lon="4.79795">
        <ele>224</ele>
        <time>2017-06-18T09:37:11Z</time>
      </trkpt>
      <trkpt lat="45.97852" lon="4.79797">
        <ele>224</ele>
        <time>2017-06-18T09:37:12Z</time>
      </trkpt>
      <trkpt lat="45.97844" lon="4.79798">
        <ele>224</ele>
        <time>2017-06-18T09:37:13Z</time>
      </trkpt>
      <trkpt lat="45.97837" lon="4.79799">
        <ele>224</ele>
        <time>2017-06-18T09:37:14Z</time>
      </trkpt>
      <trkpt lat="45.9783" lon="4.798">
        <ele>223</ele>
        <time>2017-06-18T09:37:15Z</time>
      </trkpt>
      <trkpt lat="45.97822" lon="4.79802">
        <ele>223</ele>
        <time>2017-06-18T09:37:16Z</time>
      </trkpt>
      <trkpt lat="45.97815" lon="4.79803">
        <ele>223</ele>
        <time>2017-06-18T09:37:17Z</time>
      </trkpt>
      <trkpt lat="45.97809" lon="4.79804">
        <ele>223</ele>
        <time>2017-06-18T09:37:18Z</time>
      </trkpt>
      <trkpt lat="45.97802" lon="4.79805">
        <ele>223</ele>
        <time>2017-06-18T09:37:19Z</time>
      </trkpt>
      <trkpt lat="45.97795" lon="4.79807">
        <ele>223</ele>
        <time>2017-06-18T09:37:20Z</time>
      </trkpt>
      <trkpt lat="45.97789" lon="4.79807">
        <ele>223</ele>
        <time>2017-06-18T09:37:21Z</time>
      </trkpt>
      <trkpt lat="45.97782" lon="4.79808">
        <ele>223</ele>
        <time>2017-06-18T09:37:22Z</time>
      </trkpt>
      <trkpt lat="45.97776" lon="4.79809">
        <ele>223</ele>
        <time>2017-06-18T09:37:23Z</time>
      </trkpt>
      <trkpt lat="45.97769" lon="4.7981">
        <ele>223</ele>
        <time>2017-06-18T09:37:24Z</time>
      </trkpt>
      <trkpt lat="45.97762" lon="4.79811">
        <ele>223</ele>
        <time>2017-06-18T09:37:25Z</time>
      </trkpt>
      <trkpt lat="45.97754" lon="4.79812">
        <ele>223</ele>
        <time>2017-06-18T09:37:26Z</time>
      </trkpt>
      <trkpt lat="45.97747" lon="4.79813">
        <ele>223</ele>
        <time>2017-06-18T09:37:27Z</time>
      </trkpt>
      <trkpt lat="45.9774" lon="4.79814">
        <ele>223</ele>
        <time>2017-06-18T09:37:28Z</time>
      </trkpt>
      <trkpt lat="45.97733" lon="4.79815">
        <ele>223</ele>
        <time>2017-06-18T09:37:29Z</time>
      </trkpt>
      <trkpt lat="45.97725" lon="4.79817">
        <ele>223</ele>
        <time>2017-06-18T09:37:30Z</time>
      </trkpt>
      <trkpt lat="45.97718" lon="4.79819">
        <ele>223</ele>
        <time>2017-06-18T09:37:31Z</time>
      </trkpt>
      <trkpt lat="45.97712" lon="4.79821">
        <ele>223</ele>
        <time>2017-06-18T09:37:32Z</time>
      </trkpt>
      <trkpt lat="45.97705" lon="4.79822">
        <ele>223</ele>
        <time>2017-06-18T09:37:33Z</time>
      </trkpt>
      <trkpt lat="45.97699" lon="4.79823">
        <ele>223</ele>
        <time>2017-06-18T09:37:34Z</time>
      </trkpt>
      <trkpt lat="45.97693" lon="4.79825">
        <ele>223</ele>
        <time>2017-06-18T09:37:35Z</time>
      </trkpt>
      <trkpt lat="45.97687" lon="4.79826">
        <ele>223</ele>
        <time>2017-06-18T09:37:36Z</time>
      </trkpt>
      <trkpt lat="45.97681" lon="4.79828">
        <ele>223</ele>
        <time>2017-06-18T09:37:37Z</time>
      </trkpt>
      <trkpt lat="45.97676" lon="4.7983">
        <ele>222</ele>
        <time>2017-06-18T09:37:38Z</time>
      </trkpt>
      <trkpt lat="45.9767" lon="4.79831">
        <ele>222</ele>
        <time>2017-06-18T09:37:39Z</time>
      </trkpt>
      <trkpt lat="45.97664" lon="4.79833">
        <ele>222</ele>
        <time>2017-06-18T09:37:40Z</time>
      </trkpt>
      <trkpt lat="45.97658" lon="4.79834">
        <ele>222</ele>
        <time>2017-06-18T09:37:41Z</time>
      </trkpt>
      <trkpt lat="45.97653" lon="4.79836">
        <ele>221</ele>
        <time>2017-06-18T09:37:42Z</time>
      </trkpt>
      <trkpt lat="45.97647" lon="4.79838">
        <ele>221</ele>
        <time>2017-06-18T09:37:43Z</time>
      </trkpt>
      <trkpt lat="45.97641" lon="4.7984">
        <ele>221</ele>
        <time>2017-06-18T09:37:44Z</time>
      </trkpt>
      <trkpt lat="45.97636" lon="4.79842">
        <ele>221</ele>
        <time>2017-06-18T09:37:45Z</time>
      </trkpt>
      <trkpt lat="45.9763" lon="4.79843">
        <ele>221</ele>
        <time>2017-06-18T09:37:46Z</time>
      </trkpt>
      <trkpt lat="45.97624" lon="4.79846">
        <ele>221</ele>
        <time>2017-06-18T09:37:47Z</time>
      </trkpt>
      <trkpt lat="45.97619" lon="4.79848">
        <ele>221</ele>
        <time>2017-06-18T09:37:48Z</time>
      </trkpt>
      <trkpt lat="45.97613" lon="4.79851">
        <ele>221</ele>
        <time>2017-06-18T09:37:49Z</time>
      </trkpt>
      <trkpt lat="45.97608" lon="4.79853">
        <ele>221</ele>
        <time>2017-06-18T09:37:50Z</time>
      </trkpt>
      <trkpt lat="45.97602" lon="4.79855">
        <ele>221</ele>
        <time>2017-06-18T09:37:51Z</time>
      </trkpt>
      <trkpt lat="45.97597" lon="4.79857">
        <ele>221</ele>
        <time>2017-06-18T09:37:52Z</time>
      </trkpt>
      <trkpt lat="45.97591" lon="4.7986">
        <ele>221</ele>
        <time>2017-06-18T09:37:53Z</time>
      </trkpt>
      <trkpt lat="45.97585" lon="4.79861">
        <ele>221</ele>
        <time>2017-06-18T09:37:54Z</time>
      </trkpt>
      <trkpt lat="45.97579" lon="4.79863">
        <ele>222</ele>
        <time>2017-06-18T09:37:55Z</time>
      </trkpt>
      <trkpt lat="45.97573" lon="4.79865">
        <ele>222</ele>
        <time>2017-06-18T09:37:56Z</time>
      </trkpt>
      <trkpt lat="45.97567" lon="4.79867">
        <ele>222</ele>
        <time>2017-06-18T09:37:57Z</time>
      </trkpt>
      <trkpt lat="45.97561" lon="4.7987">
        <ele>222</ele>
        <time>2017-06-18T09:37:58Z</time>
      </trkpt>
      <trkpt lat="45.97555" lon="4.79872">
        <ele>222</ele>
        <time>2017-06-18T09:37:59Z</time>
      </trkpt>
      <trkpt lat="45.97548" lon="4.79873">
        <ele>222</ele>
        <time>2017-06-18T09:38:00Z</time>
      </trkpt>
      <trkpt lat="45.97541" lon="4.79875">
        <ele>222</ele>
        <time>2017-06-18T09:38:01Z</time>
      </trkpt>
      <trkpt lat="45.97534" lon="4.79878">
        <ele>222</ele>
        <time>2017-06-18T09:38:02Z</time>
      </trkpt>
      <trkpt lat="45.97526" lon="4.7988">
        <ele>222</ele>
        <time>2017-06-18T09:38:03Z</time>
      </trkpt>
      <trkpt lat="45.97519" lon="4.79881">
        <ele>222</ele>
        <time>2017-06-18T09:38:04Z</time>
      </trkpt>
      <trkpt lat="45.97511" lon="4.79882">
        <ele>222</ele>
        <time>2017-06-18T09:38:05Z</time>
      </trkpt>
      <trkpt lat="45.97502" lon="4.79883">
        <ele>222</ele>
        <time>2017-06-18T09:38:06Z</time>
      </trkpt>
      <trkpt lat="45.97493" lon="4.79884">
        <ele>221</ele>
        <time>2017-06-18T09:38:07Z</time>
      </trkpt>
      <trkpt lat="45.97484" lon="4.79885">
        <ele>221</ele>
        <time>2017-06-18T09:38:08Z</time>
      </trkpt>
      <trkpt lat="45.97474" lon="4.79884">
        <ele>221</ele>
        <time>2017-06-18T09:38:09Z</time>
      </trkpt>
      <trkpt lat="45.97465" lon="4.79883">
        <ele>221</ele>
        <time>2017-06-18T09:38:10Z</time>
      </trkpt>
      <trkpt lat="45.97455" lon="4.79883">
        <ele>221</ele>
        <time>2017-06-18T09:38:11Z</time>
      </trkpt>
      <trkpt lat="45.97446" lon="4.79883">
        <ele>221</ele>
        <time>2017-06-18T09:38:12Z</time>
      </trkpt>
      <trkpt lat="45.97436" lon="4.79882">
        <ele>221</ele>
        <time>2017-06-18T09:38:13Z</time>
      </trkpt>
      <trkpt lat="45.97427" lon="4.79884">
        <ele>220</ele>
        <time>2017-06-18T09:38:14Z</time>
      </trkpt>
      <trkpt lat="45.97418" lon="4.79885">
        <ele>220</ele>
        <time>2017-06-18T09:38:15Z</time>
      </trkpt>
      <trkpt lat="45.97408" lon="4.79887">
        <ele>218</ele>
        <time>2017-06-18T09:38:16Z</time>
      </trkpt>
      <trkpt lat="45.97399" lon="4.79888">
        <ele>218</ele>
        <time>2017-06-18T09:38:17Z</time>
      </trkpt>
      <trkpt lat="45.9739" lon="4.7989">
        <ele>217</ele>
        <time>2017-06-18T09:38:18Z</time>
      </trkpt>
      <trkpt lat="45.9738" lon="4.79892">
        <ele>217</ele>
        <time>2017-06-18T09:38:19Z</time>
      </trkpt>
      <trkpt lat="45.97371" lon="4.79894">
        <ele>217</ele>
        <time>2017-06-18T09:38:20Z</time>
      </trkpt>
      <trkpt lat="45.97362" lon="4.79897">
        <ele>217</ele>
        <time>2017-06-18T09:38:21Z</time>
      </trkpt>
      <trkpt lat="45.97352" lon="4.79898">
        <ele>216</ele>
        <time>2017-06-18T09:38:22Z</time>
      </trkpt>
      <trkpt lat="45.97343" lon="4.799">
        <ele>215</ele>
        <time>2017-06-18T09:38:23Z</time>
      </trkpt>
      <trkpt lat="45.97334" lon="4.79901">
        <ele>215</ele>
        <time>2017-06-18T09:38:24Z</time>
      </trkpt>
      <trkpt lat="45.97326" lon="4.79903">
        <ele>213</ele>
        <time>2017-06-18T09:38:25Z</time>
      </trkpt>
      <trkpt lat="45.97317" lon="4.79904">
        <ele>214</ele>
        <time>2017-06-18T09:38:26Z</time>
      </trkpt>
      <trkpt lat="45.97308" lon="4.79906">
        <ele>213</ele>
        <time>2017-06-18T09:38:27Z</time>
      </trkpt>
      <trkpt lat="45.973" lon="4.79908">
        <ele>213</ele>
        <time>2017-06-18T09:38:28Z</time>
      </trkpt>
      <trkpt lat="45.97291" lon="4.79908">
        <ele>213</ele>
        <time>2017-06-18T09:38:29Z</time>
      </trkpt>
      <trkpt lat="45.97283" lon="4.79909">
        <ele>213</ele>
        <time>2017-06-18T09:38:30Z</time>
      </trkpt>
      <trkpt lat="45.97276" lon="4.7991">
        <ele>213</ele>
        <time>2017-06-18T09:38:31Z</time>
      </trkpt>
      <trkpt lat="45.9727" lon="4.79911">
        <ele>213</ele>
        <time>2017-06-18T09:38:32Z</time>
      </trkpt>
      <trkpt lat="45.97265" lon="4.79911">
        <ele>213</ele>
        <time>2017-06-18T09:38:33Z</time>
      </trkpt>
      <trkpt lat="45.9726" lon="4.79911">
        <ele>213</ele>
        <time>2017-06-18T09:38:34Z</time>
      </trkpt>
      <trkpt lat="45.97253" lon="4.79905">
        <ele>213</ele>
        <time>2017-06-18T09:38:36Z</time>
      </trkpt>
      <trkpt lat="45.97251" lon="4.79899">
        <ele>213</ele>
        <time>2017-06-18T09:38:37Z</time>
      </trkpt>
      <trkpt lat="45.97249" lon="4.79893">
        <ele>211</ele>
        <time>2017-06-18T09:38:38Z</time>
      </trkpt>
      <trkpt lat="45.97247" lon="4.79885">
        <ele>211</ele>
        <time>2017-06-18T09:38:39Z</time>
      </trkpt>
      <trkpt lat="45.97244" lon="4.79878">
        <ele>211</ele>
        <time>2017-06-18T09:38:40Z</time>
      </trkpt>
      <trkpt lat="45.97242" lon="4.7987">
        <ele>211</ele>
        <time>2017-06-18T09:38:41Z</time>
      </trkpt>
      <trkpt lat="45.9724" lon="4.79862">
        <ele>211</ele>
        <time>2017-06-18T09:38:42Z</time>
      </trkpt>
      <trkpt lat="45.97239" lon="4.79853">
        <ele>211</ele>
        <time>2017-06-18T09:38:43Z</time>
      </trkpt>
      <trkpt lat="45.97239" lon="4.79845">
        <ele>211</ele>
        <time>2017-06-18T09:38:44Z</time>
      </trkpt>
      <trkpt lat="45.9724" lon="4.79837">
        <ele>212</ele>
        <time>2017-06-18T09:38:45Z</time>
      </trkpt>
      <trkpt lat="45.9724" lon="4.79828">
        <ele>211</ele>
        <time>2017-06-18T09:38:46Z</time>
      </trkpt>
      <trkpt lat="45.97241" lon="4.79819">
        <ele>211</ele>
        <time>2017-06-18T09:38:47Z</time>
      </trkpt>
      <trkpt lat="45.97242" lon="4.7981">
        <ele>211</ele>
        <time>2017-06-18T09:38:48Z</time>
      </trkpt>
      <trkpt lat="45.97243" lon="4.79802">
        <ele>210</ele>
        <time>2017-06-18T09:38:49Z</time>
      </trkpt>
      <trkpt lat="45.97244" lon="4.79794">
        <ele>210</ele>
        <time>2017-06-18T09:38:50Z</time>
      </trkpt>
      <trkpt lat="45.97244" lon="4.79785">
        <ele>210</ele>
        <time>2017-06-18T09:38:51Z</time>
      </trkpt>
      <trkpt lat="45.97244" lon="4.79776">
        <ele>210</ele>
        <time>2017-06-18T09:38:52Z</time>
      </trkpt>
      <trkpt lat="45.97245" lon="4.79768">
        <ele>210</ele>
        <time>2017-06-18T09:38:53Z</time>
      </trkpt>
      <trkpt lat="45.97245" lon="4.79761">
        <ele>209</ele>
        <time>2017-06-18T09:38:54Z</time>
      </trkpt>
      <trkpt lat="45.97246" lon="4.79753">
        <ele>209</ele>
        <time>2017-06-18T09:38:55Z</time>
      </trkpt>
      <trkpt lat="45.97247" lon="4.79745">
        <ele>209</ele>
        <time>2017-06-18T09:38:56Z</time>
      </trkpt>
      <trkpt lat="45.97248" lon="4.79737">
        <ele>209</ele>
        <time>2017-06-18T09:38:57Z</time>
      </trkpt>
      <trkpt lat="45.97248" lon="4.79729">
        <ele>209</ele>
        <time>2017-06-18T09:38:58Z</time>
      </trkpt>
      <trkpt lat="45.9725" lon="4.79721">
        <ele>209</ele>
        <time>2017-06-18T09:38:59Z</time>
      </trkpt>
      <trkpt lat="45.97251" lon="4.79713">
        <ele>212</ele>
        <time>2017-06-18T09:39:00Z</time>
      </trkpt>
      <trkpt lat="45.97253" lon="4.79704">
        <ele>212</ele>
        <time>2017-06-18T09:39:01Z</time>
      </trkpt>
      <trkpt lat="45.97254" lon="4.79697">
        <ele>212</ele>
        <time>2017-06-18T09:39:02Z</time>
      </trkpt>
      <trkpt lat="45.97255" lon="4.79689">
        <ele>211</ele>
        <time>2017-06-18T09:39:03Z</time>
      </trkpt>
      <trkpt lat="45.97255" lon="4.79681">
        <ele>211</ele>
        <time>2017-06-18T09:39:04Z</time>
      </trkpt>
      <trkpt lat="45.97256" lon="4.79674">
        <ele>210</ele>
        <time>2017-06-18T09:39:05Z</time>
      </trkpt>
      <trkpt lat="45.97257" lon="4.79667">
        <ele>210</ele>
        <time>2017-06-18T09:39:06Z</time>
      </trkpt>
      <trkpt lat="45.97258" lon="4.7966">
        <ele>210</ele>
        <time>2017-06-18T09:39:07Z</time>
      </trkpt>
      <trkpt lat="45.97258" lon="4.79652">
        <ele>211</ele>
        <time>2017-06-18T09:39:08Z</time>
      </trkpt>
      <trkpt lat="45.97258" lon="4.79643">
        <ele>212</ele>
        <time>2017-06-18T09:39:09Z</time>
      </trkpt>
      <trkpt lat="45.97258" lon="4.79635">
        <ele>213</ele>
        <time>2017-06-18T09:39:10Z</time>
      </trkpt>
      <trkpt lat="45.97258" lon="4.79627">
        <ele>213</ele>
        <time>2017-06-18T09:39:11Z</time>
      </trkpt>
      <trkpt lat="45.97258" lon="4.7962">
        <ele>213</ele>
        <time>2017-06-18T09:39:12Z</time>
      </trkpt>
      <trkpt lat="45.97258" lon="4.79612">
        <ele>213</ele>
        <time>2017-06-18T09:39:13Z</time>
      </trkpt>
      <trkpt lat="45.97258" lon="4.79604">
        <ele>213</ele>
        <time>2017-06-18T09:39:14Z</time>
      </trkpt>
      <trkpt lat="45.97257" lon="4.79597">
        <ele>212</ele>
        <time>2017-06-18T09:39:15Z</time>
      </trkpt>
      <trkpt lat="45.97257" lon="4.7959">
        <ele>212</ele>
        <time>2017-06-18T09:39:16Z</time>
      </trkpt>
      <trkpt lat="45.97257" lon="4.79583">
        <ele>211</ele>
        <time>2017-06-18T09:39:17Z</time>
      </trkpt>
      <trkpt lat="45.97257" lon="4.79577">
        <ele>212</ele>
        <time>2017-06-18T09:39:18Z</time>
      </trkpt>
      <trkpt lat="45.97257" lon="4.7957">
        <ele>213</ele>
        <time>2017-06-18T09:39:19Z</time>
      </trkpt>
      <trkpt lat="45.97256" lon="4.79563">
        <ele>213</ele>
        <time>2017-06-18T09:39:20Z</time>
      </trkpt>
      <trkpt lat="45.97255" lon="4.79555">
        <ele>214</ele>
        <time>2017-06-18T09:39:21Z</time>
      </trkpt>
      <trkpt lat="45.97255" lon="4.79547">
        <ele>214</ele>
        <time>2017-06-18T09:39:22Z</time>
      </trkpt>
      <trkpt lat="45.97254" lon="4.79539">
        <ele>214</ele>
        <time>2017-06-18T09:39:23Z</time>
      </trkpt>
      <trkpt lat="45.97252" lon="4.79531">
        <ele>214</ele>
        <time>2017-06-18T09:39:24Z</time>
      </trkpt>
      <trkpt lat="45.97251" lon="4.79524">
        <ele>213</ele>
        <time>2017-06-18T09:39:25Z</time>
      </trkpt>
      <trkpt lat="45.97249" lon="4.79516">
        <ele>210</ele>
        <time>2017-06-18T09:39:26Z</time>
      </trkpt>
      <trkpt lat="45.97248" lon="4.79509">
        <ele>210</ele>
        <time>2017-06-18T09:39:27Z</time>
      </trkpt>
      <trkpt lat="45.97247" lon="4.79501">
        <ele>211</ele>
        <time>2017-06-18T09:39:28Z</time>
      </trkpt>
      <trkpt lat="45.97246" lon="4.79493">
        <ele>210</ele>
        <time>2017-06-18T09:39:29Z</time>
      </trkpt>
      <trkpt lat="45.97245" lon="4.79485">
        <ele>210</ele>
        <time>2017-06-18T09:39:30Z</time>
      </trkpt>
      <trkpt lat="45.97242" lon="4.79477">
        <ele>209</ele>
        <time>2017-06-18T09:39:31Z</time>
      </trkpt>
      <trkpt lat="45.9724" lon="4.79469">
        <ele>209</ele>
        <time>2017-06-18T09:39:32Z</time>
      </trkpt>
      <trkpt lat="45.97238" lon="4.79462">
        <ele>209</ele>
        <time>2017-06-18T09:39:33Z</time>
      </trkpt>
      <trkpt lat="45.97236" lon="4.79454">
        <ele>209</ele>
        <time>2017-06-18T09:39:34Z</time>
      </trkpt>
      <trkpt lat="45.97233" lon="4.79446">
        <ele>209</ele>
        <time>2017-06-18T09:39:35Z</time>
      </trkpt>
      <trkpt lat="45.97231" lon="4.79438">
        <ele>209</ele>
        <time>2017-06-18T09:39:36Z</time>
      </trkpt>
      <trkpt lat="45.97228" lon="4.7943">
        <ele>209</ele>
        <time>2017-06-18T09:39:37Z</time>
      </trkpt>
      <trkpt lat="45.97224" lon="4.79422">
        <ele>209</ele>
        <time>2017-06-18T09:39:38Z</time>
      </trkpt>
      <trkpt lat="45.97221" lon="4.79415">
        <ele>208</ele>
        <time>2017-06-18T09:39:39Z</time>
      </trkpt>
      <trkpt lat="45.97218" lon="4.79408">
        <ele>208</ele>
        <time>2017-06-18T09:39:40Z</time>
      </trkpt>
      <trkpt lat="45.97215" lon="4.794">
        <ele>208</ele>
        <time>2017-06-18T09:39:41Z</time>
      </trkpt>
      <trkpt lat="45.97212" lon="4.79392">
        <ele>208</ele>
        <time>2017-06-18T09:39:42Z</time>
      </trkpt>
      <trkpt lat="45.97209" lon="4.79385">
        <ele>208</ele>
        <time>2017-06-18T09:39:43Z</time>
      </trkpt>
      <trkpt lat="45.97206" lon="4.79377">
        <ele>208</ele>
        <time>2017-06-18T09:39:44Z</time>
      </trkpt>
      <trkpt lat="45.97202" lon="4.79371">
        <ele>208</ele>
        <time>2017-06-18T09:39:45Z</time>
      </trkpt>
      <trkpt lat="45.972" lon="4.79364">
        <ele>207</ele>
        <time>2017-06-18T09:39:46Z</time>
      </trkpt>
      <trkpt lat="45.97196" lon="4.79357">
        <ele>207</ele>
        <time>2017-06-18T09:39:47Z</time>
      </trkpt>
      <trkpt lat="45.97193" lon="4.79348">
        <ele>207</ele>
        <time>2017-06-18T09:39:48Z</time>
      </trkpt>
      <trkpt lat="45.9719" lon="4.7934">
        <ele>207</ele>
        <time>2017-06-18T09:39:49Z</time>
      </trkpt>
      <trkpt lat="45.97186" lon="4.79333">
        <ele>207</ele>
        <time>2017-06-18T09:39:50Z</time>
      </trkpt>
      <trkpt lat="45.97183" lon="4.79325">
        <ele>207</ele>
        <time>2017-06-18T09:39:51Z</time>
      </trkpt>
      <trkpt lat="45.97179" lon="4.79318">
        <ele>207</ele>
        <time>2017-06-18T09:39:52Z</time>
      </trkpt>
      <trkpt lat="45.97176" lon="4.7931">
        <ele>207</ele>
        <time>2017-06-18T09:39:53Z</time>
      </trkpt>
      <trkpt lat="45.97173" lon="4.79302">
        <ele>207</ele>
        <time>2017-06-18T09:39:54Z</time>
      </trkpt>
      <trkpt lat="45.9717" lon="4.79293">
        <ele>207</ele>
        <time>2017-06-18T09:39:55Z</time>
      </trkpt>
      <trkpt lat="45.97166" lon="4.79285">
        <ele>204</ele>
        <time>2017-06-18T09:39:56Z</time>
      </trkpt>
      <trkpt lat="45.97163" lon="4.79277">
        <ele>204</ele>
        <time>2017-06-18T09:39:57Z</time>
      </trkpt>
      <trkpt lat="45.9716" lon="4.79269">
        <ele>204</ele>
        <time>2017-06-18T09:39:58Z</time>
      </trkpt>
      <trkpt lat="45.97158" lon="4.79262">
        <ele>205</ele>
        <time>2017-06-18T09:39:59Z</time>
      </trkpt>
      <trkpt lat="45.97154" lon="4.79255">
        <ele>205</ele>
        <time>2017-06-18T09:40:00Z</time>
      </trkpt>
      <trkpt lat="45.97151" lon="4.79248">
        <ele>205</ele>
        <time>2017-06-18T09:40:01Z</time>
      </trkpt>
      <trkpt lat="45.97148" lon="4.79241">
        <ele>205</ele>
        <time>2017-06-18T09:40:02Z</time>
      </trkpt>
      <trkpt lat="45.97144" lon="4.79234">
        <ele>205</ele>
        <time>2017-06-18T09:40:03Z</time>
      </trkpt>
      <trkpt lat="45.97141" lon="4.79227">
        <ele>205</ele>
        <time>2017-06-18T09:40:04Z</time>
      </trkpt>
      <trkpt lat="45.97138" lon="4.7922">
        <ele>206</ele>
        <time>2017-06-18T09:40:05Z</time>
      </trkpt>
      <trkpt lat="45.97135" lon="4.79212">
        <ele>206</ele>
        <time>2017-06-18T09:40:06Z</time>
      </trkpt>
      <trkpt lat="45.97132" lon="4.79205">
        <ele>206</ele>
        <time>2017-06-18T09:40:07Z</time>
      </trkpt>
      <trkpt lat="45.97129" lon="4.79197">
        <ele>206</ele>
        <time>2017-06-18T09:40:08Z</time>
      </trkpt>
      <trkpt lat="45.97126" lon="4.79189">
        <ele>206</ele>
        <time>2017-06-18T09:40:09Z</time>
      </trkpt>
      <trkpt lat="45.97123" lon="4.79181">
        <ele>206</ele>
        <time>2017-06-18T09:40:10Z</time>
      </trkpt>
      <trkpt lat="45.97119" lon="4.79173">
        <ele>206</ele>
        <time>2017-06-18T09:40:11Z</time>
      </trkpt>
      <trkpt lat="45.97116" lon="4.79166">
        <ele>207</ele>
        <time>2017-06-18T09:40:12Z</time>
      </trkpt>
      <trkpt lat="45.97112" lon="4.79159">
        <ele>206</ele>
        <time>2017-06-18T09:40:13Z</time>
      </trkpt>
      <trkpt lat="45.97108" lon="4.79152">
        <ele>206</ele>
        <time>2017-06-18T09:40:14Z</time>
      </trkpt>
      <trkpt lat="45.97104" lon="4.79145">
        <ele>206</ele>
        <time>2017-06-18T09:40:15Z</time>
      </trkpt>
      <trkpt lat="45.97101" lon="4.79139">
        <ele>206</ele>
        <time>2017-06-18T09:40:16Z</time>
      </trkpt>
      <trkpt lat="45.97097" lon="4.79133">
        <ele>206</ele>
        <time>2017-06-18T09:40:17Z</time>
      </trkpt>
      <trkpt lat="45.97094" lon="4.79127">
        <ele>206</ele>
        <time>2017-06-18T09:40:18Z</time>
      </trkpt>
      <trkpt lat="45.97092" lon="4.79121">
        <ele>206</ele>
        <time>2017-06-18T09:40:19Z</time>
      </trkpt>
      <trkpt lat="45.97089" lon="4.79115">
        <ele>206</ele>
        <time>2017-06-18T09:40:20Z</time>
      </trkpt>
      <trkpt lat="45.97087" lon="4.79108">
        <ele>206</ele>
        <time>2017-06-18T09:40:21Z</time>
      </trkpt>
      <trkpt lat="45.97085" lon="4.791">
        <ele>205</ele>
        <time>2017-06-18T09:40:22Z</time>
      </trkpt>
      <trkpt lat="45.97083" lon="4.79092">
        <ele>204</ele>
        <time>2017-06-18T09:40:23Z</time>
      </trkpt>
      <trkpt lat="45.97081" lon="4.79083">
        <ele>204</ele>
        <time>2017-06-18T09:40:24Z</time>
      </trkpt>
      <trkpt lat="45.97079" lon="4.79075">
        <ele>204</ele>
        <time>2017-06-18T09:40:25Z</time>
      </trkpt>
      <trkpt lat="45.97077" lon="4.79067">
        <ele>204</ele>
        <time>2017-06-18T09:40:26Z</time>
      </trkpt>
      <trkpt lat="45.97075" lon="4.79058">
        <ele>203</ele>
        <time>2017-06-18T09:40:27Z</time>
      </trkpt>
      <trkpt lat="45.97072" lon="4.79049">
        <ele>203</ele>
        <time>2017-06-18T09:40:28Z</time>
      </trkpt>
      <trkpt lat="45.9707" lon="4.79041">
        <ele>203</ele>
        <time>2017-06-18T09:40:29Z</time>
      </trkpt>
      <trkpt lat="45.97068" lon="4.79032">
        <ele>204</ele>
        <time>2017-06-18T09:40:30Z</time>
      </trkpt>
      <trkpt lat="45.97065" lon="4.79023">
        <ele>204</ele>
        <time>2017-06-18T09:40:31Z</time>
      </trkpt>
      <trkpt lat="45.97063" lon="4.79015">
        <ele>204</ele>
        <time>2017-06-18T09:40:32Z</time>
      </trkpt>
      <trkpt lat="45.97061" lon="4.79008">
        <ele>204</ele>
        <time>2017-06-18T09:40:33Z</time>
      </trkpt>
      <trkpt lat="45.97058" lon="4.79">
        <ele>204</ele>
        <time>2017-06-18T09:40:34Z</time>
      </trkpt>
      <trkpt lat="45.97057" lon="4.78993">
        <ele>205</ele>
        <time>2017-06-18T09:40:35Z</time>
      </trkpt>
      <trkpt lat="45.97054" lon="4.78987">
        <ele>205</ele>
        <time>2017-06-18T09:40:36Z</time>
      </trkpt>
      <trkpt lat="45.97052" lon="4.7898">
        <ele>205</ele>
        <time>2017-06-18T09:40:37Z</time>
      </trkpt>
      <trkpt lat="45.97049" lon="4.78973">
        <ele>205</ele>
        <time>2017-06-18T09:40:38Z</time>
      </trkpt>
      <trkpt lat="45.97046" lon="4.78966">
        <ele>205</ele>
        <time>2017-06-18T09:40:39Z</time>
      </trkpt>
      <trkpt lat="45.97042" lon="4.7896">
        <ele>205</ele>
        <time>2017-06-18T09:40:40Z</time>
      </trkpt>
      <trkpt lat="45.97039" lon="4.78954">
        <ele>205</ele>
        <time>2017-06-18T09:40:41Z</time>
      </trkpt>
      <trkpt lat="45.97036" lon="4.78948">
        <ele>205</ele>
        <time>2017-06-18T09:40:42Z</time>
      </trkpt>
      <trkpt lat="45.97033" lon="4.78942">
        <ele>205</ele>
        <time>2017-06-18T09:40:43Z</time>
      </trkpt>
      <trkpt lat="45.97029" lon="4.78936">
        <ele>205</ele>
        <time>2017-06-18T09:40:44Z</time>
      </trkpt>
      <trkpt lat="45.97024" lon="4.7893">
        <ele>205</ele>
        <time>2017-06-18T09:40:45Z</time>
      </trkpt>
      <trkpt lat="45.97019" lon="4.78923">
        <ele>205</ele>
        <time>2017-06-18T09:40:46Z</time>
      </trkpt>
      <trkpt lat="45.97014" lon="4.78916">
        <ele>206</ele>
        <time>2017-06-18T09:40:47Z</time>
      </trkpt>
      <trkpt lat="45.97008" lon="4.78908">
        <ele>206</ele>
        <time>2017-06-18T09:40:48Z</time>
      </trkpt>
      <trkpt lat="45.97003" lon="4.78901">
        <ele>206</ele>
        <time>2017-06-18T09:40:49Z</time>
      </trkpt>
      <trkpt lat="45.96997" lon="4.78894">
        <ele>203</ele>
        <time>2017-06-18T09:40:50Z</time>
      </trkpt>
      <trkpt lat="45.96991" lon="4.78887">
        <ele>203</ele>
        <time>2017-06-18T09:40:51Z</time>
      </trkpt>
      <trkpt lat="45.96986" lon="4.78881">
        <ele>203</ele>
        <time>2017-06-18T09:40:52Z</time>
      </trkpt>
      <trkpt lat="45.9698" lon="4.78874">
        <ele>203</ele>
        <time>2017-06-18T09:40:53Z</time>
      </trkpt>
      <trkpt lat="45.96975" lon="4.78867">
        <ele>203</ele>
        <time>2017-06-18T09:40:54Z</time>
      </trkpt>
      <trkpt lat="45.96969" lon="4.7886">
        <ele>203</ele>
        <time>2017-06-18T09:40:55Z</time>
      </trkpt>
      <trkpt lat="45.96963" lon="4.78853">
        <ele>203</ele>
        <time>2017-06-18T09:40:56Z</time>
      </trkpt>
      <trkpt lat="45.96958" lon="4.78847">
        <ele>203</ele>
        <time>2017-06-18T09:40:57Z</time>
      </trkpt>
      <trkpt lat="45.96952" lon="4.78841">
        <ele>203</ele>
        <time>2017-06-18T09:40:58Z</time>
      </trkpt>
      <trkpt lat="45.96947" lon="4.78835">
        <ele>202</ele>
        <time>2017-06-18T09:40:59Z</time>
      </trkpt>
      <trkpt lat="45.96942" lon="4.78828">
        <ele>203</ele>
        <time>2017-06-18T09:41:00Z</time>
      </trkpt>
      <trkpt lat="45.96937" lon="4.78822">
        <ele>203</ele>
        <time>2017-06-18T09:41:01Z</time>
      </trkpt>
      <trkpt lat="45.96933" lon="4.78815">
        <ele>203</ele>
        <time>2017-06-18T09:41:02Z</time>
      </trkpt>
      <trkpt lat="45.96928" lon="4.78808">
        <ele>203</ele>
        <time>2017-06-18T09:41:03Z</time>
      </trkpt>
      <trkpt lat="45.96924" lon="4.78801">
        <ele>203</ele>
        <time>2017-06-18T09:41:04Z</time>
      </trkpt>
      <trkpt lat="45.9692" lon="4.78794">
        <ele>203</ele>
        <time>2017-06-18T09:41:05Z</time>
      </trkpt>
      <trkpt lat="45.96916" lon="4.78787">
        <ele>201</ele>
        <time>2017-06-18T09:41:06Z</time>
      </trkpt>
      <trkpt lat="45.96913" lon="4.78779">
        <ele>201</ele>
        <time>2017-06-18T09:41:07Z</time>
      </trkpt>
      <trkpt lat="45.96908" lon="4.78771">
        <ele>201</ele>
        <time>2017-06-18T09:41:08Z</time>
      </trkpt>
      <trkpt lat="45.96904" lon="4.78763">
        <ele>202</ele>
        <time>2017-06-18T09:41:09Z</time>
      </trkpt>
      <trkpt lat="45.969" lon="4.78755">
        <ele>202</ele>
        <time>2017-06-18T09:41:10Z</time>
      </trkpt>
      <trkpt lat="45.96897" lon="4.78747">
        <ele>202</ele>
        <time>2017-06-18T09:41:11Z</time>
      </trkpt>
      <trkpt lat="45.96893" lon="4.78739">
        <ele>202</ele>
        <time>2017-06-18T09:41:12Z</time>
      </trkpt>
      <trkpt lat="45.96889" lon="4.7873">
        <ele>202</ele>
        <time>2017-06-18T09:41:13Z</time>
      </trkpt>
      <trkpt lat="45.96887" lon="4.78722">
        <ele>202</ele>
        <time>2017-06-18T09:41:14Z</time>
      </trkpt>
      <trkpt lat="45.96884" lon="4.78714">
        <ele>202</ele>
        <time>2017-06-18T09:41:15Z</time>
      </trkpt>
      <trkpt lat="45.9688" lon="4.78707">
        <ele>202</ele>
        <time>2017-06-18T09:41:16Z</time>
      </trkpt>
      <trkpt lat="45.96876" lon="4.787">
        <ele>202</ele>
        <time>2017-06-18T09:41:17Z</time>
      </trkpt>
      <trkpt lat="45.96872" lon="4.78694">
        <ele>202</ele>
        <time>2017-06-18T09:41:18Z</time>
      </trkpt>
      <trkpt lat="45.96868" lon="4.78687">
        <ele>202</ele>
        <time>2017-06-18T09:41:19Z</time>
      </trkpt>
      <trkpt lat="45.96865" lon="4.7868">
        <ele>202</ele>
        <time>2017-06-18T09:41:20Z</time>
      </trkpt>
      <trkpt lat="45.96861" lon="4.78673">
        <ele>202</ele>
        <time>2017-06-18T09:41:21Z</time>
      </trkpt>
      <trkpt lat="45.96858" lon="4.78666">
        <ele>203</ele>
        <time>2017-06-18T09:41:22Z</time>
      </trkpt>
      <trkpt lat="45.96855" lon="4.78659">
        <ele>203</ele>
        <time>2017-06-18T09:41:23Z</time>
      </trkpt>
      <trkpt lat="45.96851" lon="4.78652">
        <ele>203</ele>
        <time>2017-06-18T09:41:24Z</time>
      </trkpt>
      <trkpt lat="45.96847" lon="4.78644">
        <ele>203</ele>
        <time>2017-06-18T09:41:25Z</time>
      </trkpt>
      <trkpt lat="45.96843" lon="4.78637">
        <ele>203</ele>
        <time>2017-06-18T09:41:26Z</time>
      </trkpt>
      <trkpt lat="45.96839" lon="4.7863">
        <ele>203</ele>
        <time>2017-06-18T09:41:27Z</time>
      </trkpt>
      <trkpt lat="45.96837" lon="4.78621">
        <ele>203</ele>
        <time>2017-06-18T09:41:28Z</time>
      </trkpt>
      <trkpt lat="45.96834" lon="4.78613">
        <ele>203</ele>
        <time>2017-06-18T09:41:29Z</time>
      </trkpt>
      <trkpt lat="45.96831" lon="4.78605">
        <ele>202</ele>
        <time>2017-06-18T09:41:30Z</time>
      </trkpt>
      <trkpt lat="45.96828" lon="4.78596">
        <ele>202</ele>
        <time>2017-06-18T09:41:31Z</time>
      </trkpt>
      <trkpt lat="45.96825" lon="4.78588">
        <ele>202</ele>
        <time>2017-06-18T09:41:32Z</time>
      </trkpt>
      <trkpt lat="45.96821" lon="4.78581">
        <ele>203</ele>
        <time>2017-06-18T09:41:33Z</time>
      </trkpt>
      <trkpt lat="45.96817" lon="4.78574">
        <ele>203</ele>
        <time>2017-06-18T09:41:34Z</time>
      </trkpt>
      <trkpt lat="45.96813" lon="4.78568">
        <ele>203</ele>
        <time>2017-06-18T09:41:35Z</time>
      </trkpt>
      <trkpt lat="45.96809" lon="4.78561">
        <ele>203</ele>
        <time>2017-06-18T09:41:36Z</time>
      </trkpt>
      <trkpt lat="45.96804" lon="4.78554">
        <ele>203</ele>
        <time>2017-06-18T09:41:37Z</time>
      </trkpt>
      <trkpt lat="45.96801" lon="4.78547">
        <ele>203</ele>
        <time>2017-06-18T09:41:38Z</time>
      </trkpt>
      <trkpt lat="45.96796" lon="4.78539">
        <ele>203</ele>
        <time>2017-06-18T09:41:39Z</time>
      </trkpt>
      <trkpt lat="45.96792" lon="4.78532">
        <ele>203</ele>
        <time>2017-06-18T09:41:40Z</time>
      </trkpt>
      <trkpt lat="45.96787" lon="4.78525">
        <ele>203</ele>
        <time>2017-06-18T09:41:41Z</time>
      </trkpt>
      <trkpt lat="45.96783" lon="4.78518">
        <ele>203</ele>
        <time>2017-06-18T09:41:42Z</time>
      </trkpt>
      <trkpt lat="45.96778" lon="4.78512">
        <ele>203</ele>
        <time>2017-06-18T09:41:43Z</time>
      </trkpt>
      <trkpt lat="45.96773" lon="4.78505">
        <ele>203</ele>
        <time>2017-06-18T09:41:44Z</time>
      </trkpt>
      <trkpt lat="45.96768" lon="4.78498">
        <ele>205</ele>
        <time>2017-06-18T09:41:45Z</time>
      </trkpt>
      <trkpt lat="45.96763" lon="4.78492">
        <ele>205</ele>
        <time>2017-06-18T09:41:46Z</time>
      </trkpt>
      <trkpt lat="45.96758" lon="4.78486">
        <ele>205</ele>
        <time>2017-06-18T09:41:47Z</time>
      </trkpt>
      <trkpt lat="45.96754" lon="4.7848">
        <ele>205</ele>
        <time>2017-06-18T09:41:48Z</time>
      </trkpt>
      <trkpt lat="45.9675" lon="4.78475">
        <ele>203</ele>
        <time>2017-06-18T09:41:49Z</time>
      </trkpt>
      <trkpt lat="45.96745" lon="4.78471">
        <ele>203</ele>
        <time>2017-06-18T09:41:50Z</time>
      </trkpt>
      <trkpt lat="45.9674" lon="4.78467">
        <ele>203</ele>
        <time>2017-06-18T09:41:51Z</time>
      </trkpt>
      <trkpt lat="45.96735" lon="4.78463">
        <ele>203</ele>
        <time>2017-06-18T09:41:52Z</time>
      </trkpt>
      <trkpt lat="45.9673" lon="4.78459">
        <ele>203</ele>
        <time>2017-06-18T09:41:53Z</time>
      </trkpt>
      <trkpt lat="45.96725" lon="4.78456">
        <ele>203</ele>
        <time>2017-06-18T09:41:54Z</time>
      </trkpt>
      <trkpt lat="45.96721" lon="4.78451">
        <ele>203</ele>
        <time>2017-06-18T09:41:55Z</time>
      </trkpt>
      <trkpt lat="45.96716" lon="4.78447">
        <ele>203</ele>
        <time>2017-06-18T09:41:56Z</time>
      </trkpt>
      <trkpt lat="45.96712" lon="4.78442">
        <ele>203</ele>
        <time>2017-06-18T09:41:57Z</time>
      </trkpt>
      <trkpt lat="45.96708" lon="4.78437">
        <ele>203</ele>
        <time>2017-06-18T09:41:58Z</time>
      </trkpt>
      <trkpt lat="45.96705" lon="4.78432">
        <ele>203</ele>
        <time>2017-06-18T09:41:59Z</time>
      </trkpt>
      <trkpt lat="45.96701" lon="4.78427">
        <ele>203</ele>
        <time>2017-06-18T09:42:00Z</time>
      </trkpt>
      <trkpt lat="45.96697" lon="4.78423">
        <ele>203</ele>
        <time>2017-06-18T09:42:01Z</time>
      </trkpt>
      <trkpt lat="45.96694" lon="4.78419">
        <ele>202</ele>
        <time>2017-06-18T09:42:02Z</time>
      </trkpt>
      <trkpt lat="45.9669" lon="4.78415">
        <ele>204</ele>
        <time>2017-06-18T09:42:03Z</time>
      </trkpt>
      <trkpt lat="45.96686" lon="4.78411">
        <ele>204</ele>
        <time>2017-06-18T09:42:04Z</time>
      </trkpt>
      <trkpt lat="45.96682" lon="4.78406">
        <ele>204</ele>
        <time>2017-06-18T09:42:05Z</time>
      </trkpt>
      <trkpt lat="45.96677" lon="4.78402">
        <ele>204</ele>
        <time>2017-06-18T09:42:06Z</time>
      </trkpt>
      <trkpt lat="45.96672" lon="4.78397">
        <ele>204</ele>
        <time>2017-06-18T09:42:07Z</time>
      </trkpt>
      <trkpt lat="45.96668" lon="4.78392">
        <ele>204</ele>
        <time>2017-06-18T09:42:08Z</time>
      </trkpt>
      <trkpt lat="45.96663" lon="4.78387">
        <ele>201</ele>
        <time>2017-06-18T09:42:09Z</time>
      </trkpt>
      <trkpt lat="45.96659" lon="4.78382">
        <ele>201</ele>
        <time>2017-06-18T09:42:10Z</time>
      </trkpt>
      <trkpt lat="45.96654" lon="4.78378">
        <ele>201</ele>
        <time>2017-06-18T09:42:11Z</time>
      </trkpt>
      <trkpt lat="45.96648" lon="4.78373">
        <ele>202</ele>
        <time>2017-06-18T09:42:12Z</time>
      </trkpt>
      <trkpt lat="45.96643" lon="4.78368">
        <ele>202</ele>
        <time>2017-06-18T09:42:13Z</time>
      </trkpt>
      <trkpt lat="45.96638" lon="4.78363">
        <ele>201</ele>
        <time>2017-06-18T09:42:14Z</time>
      </trkpt>
      <trkpt lat="45.96634" lon="4.78359">
        <ele>201</ele>
        <time>2017-06-18T09:42:15Z</time>
      </trkpt>
      <trkpt lat="45.96629" lon="4.78354">
        <ele>201</ele>
        <time>2017-06-18T09:42:16Z</time>
      </trkpt>
      <trkpt lat="45.96623" lon="4.78349">
        <ele>201</ele>
        <time>2017-06-18T09:42:17Z</time>
      </trkpt>
      <trkpt lat="45.96619" lon="4.78344">
        <ele>201</ele>
        <time>2017-06-18T09:42:18Z</time>
      </trkpt>
      <trkpt lat="45.96614" lon="4.78339">
        <ele>200</ele>
        <time>2017-06-18T09:42:19Z</time>
      </trkpt>
      <trkpt lat="45.96609" lon="4.78334">
        <ele>200</ele>
        <time>2017-06-18T09:42:20Z</time>
      </trkpt>
      <trkpt lat="45.96605" lon="4.7833">
        <ele>203</ele>
        <time>2017-06-18T09:42:21Z</time>
      </trkpt>
      <trkpt lat="45.966" lon="4.78325">
        <ele>203</ele>
        <time>2017-06-18T09:42:22Z</time>
      </trkpt>
      <trkpt lat="45.96595" lon="4.7832">
        <ele>202</ele>
        <time>2017-06-18T09:42:23Z</time>
      </trkpt>
      <trkpt lat="45.96589" lon="4.78316">
        <ele>203</ele>
        <time>2017-06-18T09:42:24Z</time>
      </trkpt>
      <trkpt lat="45.96585" lon="4.78311">
        <ele>203</ele>
        <time>2017-06-18T09:42:25Z</time>
      </trkpt>
      <trkpt lat="45.9658" lon="4.78307">
        <ele>200</ele>
        <time>2017-06-18T09:42:26Z</time>
      </trkpt>
      <trkpt lat="45.96575" lon="4.78302">
        <ele>200</ele>
        <time>2017-06-18T09:42:27Z</time>
      </trkpt>
      <trkpt lat="45.96571" lon="4.78298">
        <ele>200</ele>
        <time>2017-06-18T09:42:28Z</time>
      </trkpt>
      <trkpt lat="45.96567" lon="4.78293">
        <ele>200</ele>
        <time>2017-06-18T09:42:29Z</time>
      </trkpt>
      <trkpt lat="45.96562" lon="4.78288">
        <ele>200</ele>
        <time>2017-06-18T09:42:30Z</time>
      </trkpt>
      <trkpt lat="45.96558" lon="4.78283">
        <ele>200</ele>
        <time>2017-06-18T09:42:31Z</time>
      </trkpt>
      <trkpt lat="45.96553" lon="4.78277">
        <ele>200</ele>
        <time>2017-06-18T09:42:32Z</time>
      </trkpt>
      <trkpt lat="45.96549" lon="4.7827">
        <ele>200</ele>
        <time>2017-06-18T09:42:33Z</time>
      </trkpt>
      <trkpt lat="45.96544" lon="4.78263">
        <ele>200</ele>
        <time>2017-06-18T09:42:34Z</time>
      </trkpt>
      <trkpt lat="45.96538" lon="4.78256">
        <ele>200</ele>
        <time>2017-06-18T09:42:35Z</time>
      </trkpt>
      <trkpt lat="45.96533" lon="4.78249">
        <ele>204</ele>
        <time>2017-06-18T09:42:36Z</time>
      </trkpt>
      <trkpt lat="45.96529" lon="4.78242">
        <ele>204</ele>
        <time>2017-06-18T09:42:37Z</time>
      </trkpt>
      <trkpt lat="45.96524" lon="4.78235">
        <ele>204</ele>
        <time>2017-06-18T09:42:38Z</time>
      </trkpt>
      <trkpt lat="45.9652" lon="4.78228">
        <ele>204</ele>
        <time>2017-06-18T09:42:39Z</time>
      </trkpt>
      <trkpt lat="45.96516" lon="4.78221">
        <ele>204</ele>
        <time>2017-06-18T09:42:40Z</time>
      </trkpt>
      <trkpt lat="45.96513" lon="4.78213">
        <ele>205</ele>
        <time>2017-06-18T09:42:41Z</time>
      </trkpt>
      <trkpt lat="45.96509" lon="4.78205">
        <ele>205</ele>
        <time>2017-06-18T09:42:42Z</time>
      </trkpt>
      <trkpt lat="45.96504" lon="4.782">
        <ele>205</ele>
        <time>2017-06-18T09:42:43Z</time>
      </trkpt>
      <trkpt lat="45.96499" lon="4.78196">
        <ele>201</ele>
        <time>2017-06-18T09:42:44Z</time>
      </trkpt>
      <trkpt lat="45.96493" lon="4.78192">
        <ele>201</ele>
        <time>2017-06-18T09:42:45Z</time>
      </trkpt>
      <trkpt lat="45.96487" lon="4.78189">
        <ele>201</ele>
        <time>2017-06-18T09:42:46Z</time>
      </trkpt>
      <trkpt lat="45.96481" lon="4.78186">
        <ele>201</ele>
        <time>2017-06-18T09:42:47Z</time>
      </trkpt>
      <trkpt lat="45.96476" lon="4.78183">
        <ele>201</ele>
        <time>2017-06-18T09:42:48Z</time>
      </trkpt>
      <trkpt lat="45.9647" lon="4.7818">
        <ele>200</ele>
        <time>2017-06-18T09:42:49Z</time>
      </trkpt>
      <trkpt lat="45.96465" lon="4.78175">
        <ele>200</ele>
        <time>2017-06-18T09:42:50Z</time>
      </trkpt>
      <trkpt lat="45.9646" lon="4.7817">
        <ele>200</ele>
        <time>2017-06-18T09:42:51Z</time>
      </trkpt>
      <trkpt lat="45.96455" lon="4.78166">
        <ele>204</ele>
        <time>2017-06-18T09:42:52Z</time>
      </trkpt>
      <trkpt lat="45.9645" lon="4.78162">
        <ele>204</ele>
        <time>2017-06-18T09:42:53Z</time>
      </trkpt>
      <trkpt lat="45.96445" lon="4.78157">
        <ele>203</ele>
        <time>2017-06-18T09:42:54Z</time>
      </trkpt>
      <trkpt lat="45.9644" lon="4.78152">
        <ele>203</ele>
        <time>2017-06-18T09:42:55Z</time>
      </trkpt>
      <trkpt lat="45.96435" lon="4.78146">
        <ele>203</ele>
        <time>2017-06-18T09:42:56Z</time>
      </trkpt>
      <trkpt lat="45.9643" lon="4.78141">
        <ele>203</ele>
        <time>2017-06-18T09:42:57Z</time>
      </trkpt>
      <trkpt lat="45.96424" lon="4.78136">
        <ele>203</ele>
        <time>2017-06-18T09:42:58Z</time>
      </trkpt>
      <trkpt lat="45.96419" lon="4.78131">
        <ele>204</ele>
        <time>2017-06-18T09:42:59Z</time>
      </trkpt>
      <trkpt lat="45.96414" lon="4.78126">
        <ele>200</ele>
        <time>2017-06-18T09:43:00Z</time>
      </trkpt>
      <trkpt lat="45.96409" lon="4.78121">
        <ele>200</ele>
        <time>2017-06-18T09:43:01Z</time>
      </trkpt>
      <trkpt lat="45.96403" lon="4.78117">
        <ele>200</ele>
        <time>2017-06-18T09:43:02Z</time>
      </trkpt>
      <trkpt lat="45.96398" lon="4.78112">
        <ele>200</ele>
        <time>2017-06-18T09:43:03Z</time>
      </trkpt>
      <trkpt lat="45.96394" lon="4.78107">
        <ele>200</ele>
        <time>2017-06-18T09:43:04Z</time>
      </trkpt>
      <trkpt lat="45.96389" lon="4.78103">
        <ele>200</ele>
        <time>2017-06-18T09:43:05Z</time>
      </trkpt>
      <trkpt lat="45.96384" lon="4.78099">
        <ele>200</ele>
        <time>2017-06-18T09:43:06Z</time>
      </trkpt>
      <trkpt lat="45.96379" lon="4.78095">
        <ele>200</ele>
        <time>2017-06-18T09:43:07Z</time>
      </trkpt>
      <trkpt lat="45.96375" lon="4.78091">
        <ele>200</ele>
        <time>2017-06-18T09:43:08Z</time>
      </trkpt>
      <trkpt lat="45.9637" lon="4.78086">
        <ele>200</ele>
        <time>2017-06-18T09:43:09Z</time>
      </trkpt>
      <trkpt lat="45.96366" lon="4.78082">
        <ele>202</ele>
        <time>2017-06-18T09:43:10Z</time>
      </trkpt>
      <trkpt lat="45.96361" lon="4.78077">
        <ele>202</ele>
        <time>2017-06-18T09:43:11Z</time>
      </trkpt>
      <trkpt lat="45.96356" lon="4.78072">
        <ele>202</ele>
        <time>2017-06-18T09:43:12Z</time>
      </trkpt>
      <trkpt lat="45.96352" lon="4.78067">
        <ele>202</ele>
        <time>2017-06-18T09:43:13Z</time>
      </trkpt>
      <trkpt lat="45.96347" lon="4.78061">
        <ele>202</ele>
        <time>2017-06-18T09:43:14Z</time>
      </trkpt>
      <trkpt lat="45.96342" lon="4.78056">
        <ele>202</ele>
        <time>2017-06-18T09:43:15Z</time>
      </trkpt>
      <trkpt lat="45.96338" lon="4.7805">
        <ele>203</ele>
        <time>2017-06-18T09:43:16Z</time>
      </trkpt>
      <trkpt lat="45.96333" lon="4.78045">
        <ele>199</ele>
        <time>2017-06-18T09:43:17Z</time>
      </trkpt>
      <trkpt lat="45.96329" lon="4.7804">
        <ele>200</ele>
        <time>2017-06-18T09:43:18Z</time>
      </trkpt>
      <trkpt lat="45.96324" lon="4.78035">
        <ele>200</ele>
        <time>2017-06-18T09:43:19Z</time>
      </trkpt>
      <trkpt lat="45.9632" lon="4.7803">
        <ele>200</ele>
        <time>2017-06-18T09:43:20Z</time>
      </trkpt>
      <trkpt lat="45.96316" lon="4.78024">
        <ele>200</ele>
        <time>2017-06-18T09:43:21Z</time>
      </trkpt>
      <trkpt lat="45.96312" lon="4.78018">
        <ele>200</ele>
        <time>2017-06-18T09:43:22Z</time>
      </trkpt>
      <trkpt lat="45.96308" lon="4.78013">
        <ele>200</ele>
        <time>2017-06-18T09:43:23Z</time>
      </trkpt>
      <trkpt lat="45.96304" lon="4.78008">
        <ele>200</ele>
        <time>2017-06-18T09:43:24Z</time>
      </trkpt>
      <trkpt lat="45.96299" lon="4.78004">
        <ele>200</ele>
        <time>2017-06-18T09:43:25Z</time>
      </trkpt>
      <trkpt lat="45.96295" lon="4.77999">
        <ele>204</ele>
        <time>2017-06-18T09:43:26Z</time>
      </trkpt>
      <trkpt lat="45.96292" lon="4.77996">
        <ele>204</ele>
        <time>2017-06-18T09:43:27Z</time>
      </trkpt>
      <trkpt lat="45.96285" lon="4.77988">
        <ele>204</ele>
        <time>2017-06-18T09:43:29Z</time>
      </trkpt>
      <trkpt lat="45.96281" lon="4.77985">
        <ele>204</ele>
        <time>2017-06-18T09:43:30Z</time>
      </trkpt>
      <trkpt lat="45.96274" lon="4.77978">
        <ele>204</ele>
        <time>2017-06-18T09:43:32Z</time>
      </trkpt>
      <trkpt lat="45.96272" lon="4.77975">
        <ele>204</ele>
        <time>2017-06-18T09:43:33Z</time>
      </trkpt>
      <trkpt lat="45.96266" lon="4.77967">
        <ele>204</ele>
        <time>2017-06-18T09:43:35Z</time>
      </trkpt>
      <trkpt lat="45.96263" lon="4.77963">
        <ele>205</ele>
        <time>2017-06-18T09:43:36Z</time>
      </trkpt>
      <trkpt lat="45.96259" lon="4.77959">
        <ele>205</ele>
        <time>2017-06-18T09:43:37Z</time>
      </trkpt>
      <trkpt lat="45.96255" lon="4.77954">
        <ele>205</ele>
        <time>2017-06-18T09:43:38Z</time>
      </trkpt>
      <trkpt lat="45.96252" lon="4.77949">
        <ele>206</ele>
        <time>2017-06-18T09:43:39Z</time>
      </trkpt>
      <trkpt lat="45.96248" lon="4.77943">
        <ele>201</ele>
        <time>2017-06-18T09:43:40Z</time>
      </trkpt>
      <trkpt lat="45.96244" lon="4.77938">
        <ele>202</ele>
        <time>2017-06-18T09:43:41Z</time>
      </trkpt>
      <trkpt lat="45.96239" lon="4.77931">
        <ele>202</ele>
        <time>2017-06-18T09:43:42Z</time>
      </trkpt>
      <trkpt lat="45.96233" lon="4.77924">
        <ele>202</ele>
        <time>2017-06-18T09:43:43Z</time>
      </trkpt>
      <trkpt lat="45.96228" lon="4.77916">
        <ele>205</ele>
        <time>2017-06-18T09:43:44Z</time>
      </trkpt>
      <trkpt lat="45.96223" lon="4.7791">
        <ele>204</ele>
        <time>2017-06-18T09:43:45Z</time>
      </trkpt>
      <trkpt lat="45.96219" lon="4.77904">
        <ele>204</ele>
        <time>2017-06-18T09:43:46Z</time>
      </trkpt>
      <trkpt lat="45.96211" lon="4.77896">
        <ele>203</ele>
        <time>2017-06-18T09:43:47Z</time>
      </trkpt>
      <trkpt lat="45.96207" lon="4.7789">
        <ele>203</ele>
        <time>2017-06-18T09:43:48Z</time>
      </trkpt>
      <trkpt lat="45.96203" lon="4.77884">
        <ele>202</ele>
        <time>2017-06-18T09:43:49Z</time>
      </trkpt>
      <trkpt lat="45.96199" lon="4.77878">
        <ele>202</ele>
        <time>2017-06-18T09:43:50Z</time>
      </trkpt>
      <trkpt lat="45.96195" lon="4.77873">
        <ele>202</ele>
        <time>2017-06-18T09:43:51Z</time>
      </trkpt>
      <trkpt lat="45.96191" lon="4.77867">
        <ele>202</ele>
        <time>2017-06-18T09:43:52Z</time>
      </trkpt>
      <trkpt lat="45.96187" lon="4.77861">
        <ele>202</ele>
        <time>2017-06-18T09:43:53Z</time>
      </trkpt>
      <trkpt lat="45.96184" lon="4.77855">
        <ele>201</ele>
        <time>2017-06-18T09:43:54Z</time>
      </trkpt>
      <trkpt lat="45.96179" lon="4.77849">
        <ele>201</ele>
        <time>2017-06-18T09:43:55Z</time>
      </trkpt>
      <trkpt lat="45.96176" lon="4.77843">
        <ele>201</ele>
        <time>2017-06-18T09:43:56Z</time>
      </trkpt>
      <trkpt lat="45.96172" lon="4.77838">
        <ele>200</ele>
        <time>2017-06-18T09:43:57Z</time>
      </trkpt>
      <trkpt lat="45.96169" lon="4.77832">
        <ele>200</ele>
        <time>2017-06-18T09:43:58Z</time>
      </trkpt>
      <trkpt lat="45.96166" lon="4.77827">
        <ele>199</ele>
        <time>2017-06-18T09:43:59Z</time>
      </trkpt>
      <trkpt lat="45.96162" lon="4.77822">
        <ele>198</ele>
        <time>2017-06-18T09:44:00Z</time>
      </trkpt>
      <trkpt lat="45.96159" lon="4.77817">
        <ele>198</ele>
        <time>2017-06-18T09:44:01Z</time>
      </trkpt>
      <trkpt lat="45.96156" lon="4.77812">
        <ele>198</ele>
        <time>2017-06-18T09:44:02Z</time>
      </trkpt>
      <trkpt lat="45.96153" lon="4.77807">
        <ele>198</ele>
        <time>2017-06-18T09:44:03Z</time>
      </trkpt>
      <trkpt lat="45.96149" lon="4.77801">
        <ele>198</ele>
        <time>2017-06-18T09:44:04Z</time>
      </trkpt>
      <trkpt lat="45.96146" lon="4.77795">
        <ele>198</ele>
        <time>2017-06-18T09:44:05Z</time>
      </trkpt>
      <trkpt lat="45.96143" lon="4.77788">
        <ele>198</ele>
        <time>2017-06-18T09:44:06Z</time>
      </trkpt>
      <trkpt lat="45.96139" lon="4.77781">
        <ele>198</ele>
        <time>2017-06-18T09:44:07Z</time>
      </trkpt>
      <trkpt lat="45.96135" lon="4.77774">
        <ele>198</ele>
        <time>2017-06-18T09:44:08Z</time>
      </trkpt>
      <trkpt lat="45.96131" lon="4.77767">
        <ele>198</ele>
        <time>2017-06-18T09:44:09Z</time>
      </trkpt>
      <trkpt lat="45.96128" lon="4.7776">
        <ele>198</ele>
        <time>2017-06-18T09:44:10Z</time>
      </trkpt>
      <trkpt lat="45.96124" lon="4.77754">
        <ele>198</ele>
        <time>2017-06-18T09:44:11Z</time>
      </trkpt>
      <trkpt lat="45.96119" lon="4.77747">
        <ele>200</ele>
        <time>2017-06-18T09:44:12Z</time>
      </trkpt>
      <trkpt lat="45.96114" lon="4.7774">
        <ele>199</ele>
        <time>2017-06-18T09:44:13Z</time>
      </trkpt>
      <trkpt lat="45.96109" lon="4.77733">
        <ele>199</ele>
        <time>2017-06-18T09:44:14Z</time>
      </trkpt>
      <trkpt lat="45.96106" lon="4.77726">
        <ele>199</ele>
        <time>2017-06-18T09:44:15Z</time>
      </trkpt>
      <trkpt lat="45.96102" lon="4.7772">
        <ele>200</ele>
        <time>2017-06-18T09:44:16Z</time>
      </trkpt>
      <trkpt lat="45.96098" lon="4.77713">
        <ele>200</ele>
        <time>2017-06-18T09:44:17Z</time>
      </trkpt>
      <trkpt lat="45.96093" lon="4.77706">
        <ele>200</ele>
        <time>2017-06-18T09:44:18Z</time>
      </trkpt>
      <trkpt lat="45.96089" lon="4.777">
        <ele>200</ele>
        <time>2017-06-18T09:44:19Z</time>
      </trkpt>
      <trkpt lat="45.96083" lon="4.77694">
        <ele>197</ele>
        <time>2017-06-18T09:44:20Z</time>
      </trkpt>
      <trkpt lat="45.96078" lon="4.77689">
        <ele>198</ele>
        <time>2017-06-18T09:44:21Z</time>
      </trkpt>
      <trkpt lat="45.96074" lon="4.77683">
        <ele>198</ele>
        <time>2017-06-18T09:44:22Z</time>
      </trkpt>
      <trkpt lat="45.9607" lon="4.77677">
        <ele>198</ele>
        <time>2017-06-18T09:44:23Z</time>
      </trkpt>
      <trkpt lat="45.96066" lon="4.77672">
        <ele>198</ele>
        <time>2017-06-18T09:44:24Z</time>
      </trkpt>
      <trkpt lat="45.96062" lon="4.77666">
        <ele>200</ele>
        <time>2017-06-18T09:44:25Z</time>
      </trkpt>
      <trkpt lat="45.96057" lon="4.7766">
        <ele>200</ele>
        <time>2017-06-18T09:44:26Z</time>
      </trkpt>
      <trkpt lat="45.96053" lon="4.77655">
        <ele>200</ele>
        <time>2017-06-18T09:44:27Z</time>
      </trkpt>
      <trkpt lat="45.96049" lon="4.7765">
        <ele>200</ele>
        <time>2017-06-18T09:44:28Z</time>
      </trkpt>
      <trkpt lat="45.96044" lon="4.77645">
        <ele>199</ele>
        <time>2017-06-18T09:44:29Z</time>
      </trkpt>
      <trkpt lat="45.9604" lon="4.7764">
        <ele>199</ele>
        <time>2017-06-18T09:44:30Z</time>
      </trkpt>
      <trkpt lat="45.96035" lon="4.77635">
        <ele>199</ele>
        <time>2017-06-18T09:44:31Z</time>
      </trkpt>
      <trkpt lat="45.9603" lon="4.7763">
        <ele>199</ele>
        <time>2017-06-18T09:44:32Z</time>
      </trkpt>
      <trkpt lat="45.96026" lon="4.77625">
        <ele>199</ele>
        <time>2017-06-18T09:44:33Z</time>
      </trkpt>
      <trkpt lat="45.96022" lon="4.7762">
        <ele>199</ele>
        <time>2017-06-18T09:44:34Z</time>
      </trkpt>
      <trkpt lat="45.96017" lon="4.77614">
        <ele>199</ele>
        <time>2017-06-18T09:44:35Z</time>
      </trkpt>
      <trkpt lat="45.96012" lon="4.77609">
        <ele>199</ele>
        <time>2017-06-18T09:44:36Z</time>
      </trkpt>
      <trkpt lat="45.96008" lon="4.77604">
        <ele>198</ele>
        <time>2017-06-18T09:44:37Z</time>
      </trkpt>
      <trkpt lat="45.96004" lon="4.776">
        <ele>198</ele>
        <time>2017-06-18T09:44:38Z</time>
      </trkpt>
      <trkpt lat="45.95999" lon="4.77595">
        <ele>196</ele>
        <time>2017-06-18T09:44:39Z</time>
      </trkpt>
      <trkpt lat="45.95995" lon="4.77589">
        <ele>196</ele>
        <time>2017-06-18T09:44:40Z</time>
      </trkpt>
      <trkpt lat="45.95992" lon="4.77583">
        <ele>196</ele>
        <time>2017-06-18T09:44:41Z</time>
      </trkpt>
      <trkpt lat="45.9599" lon="4.77577">
        <ele>196</ele>
        <time>2017-06-18T09:44:42Z</time>
      </trkpt>
      <trkpt lat="45.95987" lon="4.77571">
        <ele>196</ele>
        <time>2017-06-18T09:44:43Z</time>
      </trkpt>
      <trkpt lat="45.95984" lon="4.77565">
        <ele>196</ele>
        <time>2017-06-18T09:44:44Z</time>
      </trkpt>
      <trkpt lat="45.95982" lon="4.77558">
        <ele>196</ele>
        <time>2017-06-18T09:44:45Z</time>
      </trkpt>
      <trkpt lat="45.95981" lon="4.7755">
        <ele>196</ele>
        <time>2017-06-18T09:44:46Z</time>
      </trkpt>
      <trkpt lat="45.95979" lon="4.77542">
        <ele>196</ele>
        <time>2017-06-18T09:44:47Z</time>
      </trkpt>
      <trkpt lat="45.95976" lon="4.77536">
        <ele>196</ele>
        <time>2017-06-18T09:44:48Z</time>
      </trkpt>
      <trkpt lat="45.95973" lon="4.77528">
        <ele>196</ele>
        <time>2017-06-18T09:44:49Z</time>
      </trkpt>
      <trkpt lat="45.95969" lon="4.77521">
        <ele>196</ele>
        <time>2017-06-18T09:44:50Z</time>
      </trkpt>
      <trkpt lat="45.95966" lon="4.77512">
        <ele>196</ele>
        <time>2017-06-18T09:44:51Z</time>
      </trkpt>
      <trkpt lat="45.95963" lon="4.77504">
        <ele>195</ele>
        <time>2017-06-18T09:44:52Z</time>
      </trkpt>
      <trkpt lat="45.9596" lon="4.77495">
        <ele>196</ele>
        <time>2017-06-18T09:44:53Z</time>
      </trkpt>
      <trkpt lat="45.95957" lon="4.77486">
        <ele>196</ele>
        <time>2017-06-18T09:44:54Z</time>
      </trkpt>
      <trkpt lat="45.95954" lon="4.77477">
        <ele>196</ele>
        <time>2017-06-18T09:44:55Z</time>
      </trkpt>
      <trkpt lat="45.95951" lon="4.77469">
        <ele>196</ele>
        <time>2017-06-18T09:44:56Z</time>
      </trkpt>
      <trkpt lat="45.95948" lon="4.7746">
        <ele>196</ele>
        <time>2017-06-18T09:44:57Z</time>
      </trkpt>
      <trkpt lat="45.95945" lon="4.77451">
        <ele>196</ele>
        <time>2017-06-18T09:44:58Z</time>
      </trkpt>
      <trkpt lat="45.95942" lon="4.77442">
        <ele>196</ele>
        <time>2017-06-18T09:44:59Z</time>
      </trkpt>
      <trkpt lat="45.95939" lon="4.77433">
        <ele>196</ele>
        <time>2017-06-18T09:45:00Z</time>
      </trkpt>
      <trkpt lat="45.95935" lon="4.77423">
        <ele>195</ele>
        <time>2017-06-18T09:45:01Z</time>
      </trkpt>
      <trkpt lat="45.95932" lon="4.77414">
        <ele>196</ele>
        <time>2017-06-18T09:45:02Z</time>
      </trkpt>
      <trkpt lat="45.95929" lon="4.77404">
        <ele>196</ele>
        <time>2017-06-18T09:45:03Z</time>
      </trkpt>
      <trkpt lat="45.95926" lon="4.77396">
        <ele>196</ele>
        <time>2017-06-18T09:45:04Z</time>
      </trkpt>
      <trkpt lat="45.95922" lon="4.77387">
        <ele>196</ele>
        <time>2017-06-18T09:45:05Z</time>
      </trkpt>
      <trkpt lat="45.95919" lon="4.77377">
        <ele>196</ele>
        <time>2017-06-18T09:45:06Z</time>
      </trkpt>
      <trkpt lat="45.95916" lon="4.77369">
        <ele>193</ele>
        <time>2017-06-18T09:45:07Z</time>
      </trkpt>
      <trkpt lat="45.95913" lon="4.77361">
        <ele>193</ele>
        <time>2017-06-18T09:45:08Z</time>
      </trkpt>
      <trkpt lat="45.9591" lon="4.77352">
        <ele>193</ele>
        <time>2017-06-18T09:45:09Z</time>
      </trkpt>
      <trkpt lat="45.95907" lon="4.77344">
        <ele>194</ele>
        <time>2017-06-18T09:45:10Z</time>
      </trkpt>
      <trkpt lat="45.95904" lon="4.77336">
        <ele>194</ele>
        <time>2017-06-18T09:45:11Z</time>
      </trkpt>
      <trkpt lat="45.95901" lon="4.77328">
        <ele>194</ele>
        <time>2017-06-18T09:45:12Z</time>
      </trkpt>
      <trkpt lat="45.95899" lon="4.77319">
        <ele>193</ele>
        <time>2017-06-18T09:45:13Z</time>
      </trkpt>
      <trkpt lat="45.95896" lon="4.77311">
        <ele>193</ele>
        <time>2017-06-18T09:45:14Z</time>
      </trkpt>
      <trkpt lat="45.95894" lon="4.77302">
        <ele>193</ele>
        <time>2017-06-18T09:45:15Z</time>
      </trkpt>
      <trkpt lat="45.95891" lon="4.77295">
        <ele>193</ele>
        <time>2017-06-18T09:45:16Z</time>
      </trkpt>
      <trkpt lat="45.95889" lon="4.77287">
        <ele>193</ele>
        <time>2017-06-18T09:45:17Z</time>
      </trkpt>
      <trkpt lat="45.95886" lon="4.77279">
        <ele>193</ele>
        <time>2017-06-18T09:45:18Z</time>
      </trkpt>
      <trkpt lat="45.95884" lon="4.7727">
        <ele>193</ele>
        <time>2017-06-18T09:45:19Z</time>
      </trkpt>
      <trkpt lat="45.95881" lon="4.7726">
        <ele>193</ele>
        <time>2017-06-18T09:45:20Z</time>
      </trkpt>
      <trkpt lat="45.95879" lon="4.77251">
        <ele>193</ele>
        <time>2017-06-18T09:45:21Z</time>
      </trkpt>
      <trkpt lat="45.95879" lon="4.77241">
        <ele>193</ele>
        <time>2017-06-18T09:45:22Z</time>
      </trkpt>
      <trkpt lat="45.95878" lon="4.77232">
        <ele>193</ele>
        <time>2017-06-18T09:45:23Z</time>
      </trkpt>
      <trkpt lat="45.95876" lon="4.77222">
        <ele>193</ele>
        <time>2017-06-18T09:45:24Z</time>
      </trkpt>
      <trkpt lat="45.95873" lon="4.77212">
        <ele>193</ele>
        <time>2017-06-18T09:45:25Z</time>
      </trkpt>
      <trkpt lat="45.9587" lon="4.77203">
        <ele>193</ele>
        <time>2017-06-18T09:45:26Z</time>
      </trkpt>
      <trkpt lat="45.95868" lon="4.77195">
        <ele>193</ele>
        <time>2017-06-18T09:45:27Z</time>
      </trkpt>
      <trkpt lat="45.95866" lon="4.77187">
        <ele>193</ele>
        <time>2017-06-18T09:45:28Z</time>
      </trkpt>
      <trkpt lat="45.95864" lon="4.77179">
        <ele>192</ele>
        <time>2017-06-18T09:45:29Z</time>
      </trkpt>
      <trkpt lat="45.95863" lon="4.77171">
        <ele>192</ele>
        <time>2017-06-18T09:45:30Z</time>
      </trkpt>
      <trkpt lat="45.95861" lon="4.77163">
        <ele>193</ele>
        <time>2017-06-18T09:45:31Z</time>
      </trkpt>
      <trkpt lat="45.95858" lon="4.77154">
        <ele>193</ele>
        <time>2017-06-18T09:45:32Z</time>
      </trkpt>
      <trkpt lat="45.95855" lon="4.77146">
        <ele>193</ele>
        <time>2017-06-18T09:45:33Z</time>
      </trkpt>
      <trkpt lat="45.95853" lon="4.77137">
        <ele>193</ele>
        <time>2017-06-18T09:45:34Z</time>
      </trkpt>
      <trkpt lat="45.9585" lon="4.77128">
        <ele>193</ele>
        <time>2017-06-18T09:45:35Z</time>
      </trkpt>
      <trkpt lat="45.95848" lon="4.77119">
        <ele>193</ele>
        <time>2017-06-18T09:45:36Z</time>
      </trkpt>
      <trkpt lat="45.95845" lon="4.7711">
        <ele>193</ele>
        <time>2017-06-18T09:45:37Z</time>
      </trkpt>
      <trkpt lat="45.95842" lon="4.77101">
        <ele>193</ele>
        <time>2017-06-18T09:45:38Z</time>
      </trkpt>
      <trkpt lat="45.95839" lon="4.77093">
        <ele>193</ele>
        <time>2017-06-18T09:45:39Z</time>
      </trkpt>
      <trkpt lat="45.95837" lon="4.77084">
        <ele>192</ele>
        <time>2017-06-18T09:45:40Z</time>
      </trkpt>
      <trkpt lat="45.95833" lon="4.77076">
        <ele>191</ele>
        <time>2017-06-18T09:45:41Z</time>
      </trkpt>
      <trkpt lat="45.9583" lon="4.77069">
        <ele>191</ele>
        <time>2017-06-18T09:45:42Z</time>
      </trkpt>
      <trkpt lat="45.95827" lon="4.77061">
        <ele>191</ele>
        <time>2017-06-18T09:45:43Z</time>
      </trkpt>
      <trkpt lat="45.95824" lon="4.77053">
        <ele>190</ele>
        <time>2017-06-18T09:45:44Z</time>
      </trkpt>
      <trkpt lat="45.95821" lon="4.77046">
        <ele>190</ele>
        <time>2017-06-18T09:45:45Z</time>
      </trkpt>
      <trkpt lat="45.95818" lon="4.77039">
        <ele>190</ele>
        <time>2017-06-18T09:45:46Z</time>
      </trkpt>
      <trkpt lat="45.95816" lon="4.77031">
        <ele>190</ele>
        <time>2017-06-18T09:45:47Z</time>
      </trkpt>
      <trkpt lat="45.95813" lon="4.77022">
        <ele>190</ele>
        <time>2017-06-18T09:45:48Z</time>
      </trkpt>
      <trkpt lat="45.95811" lon="4.77014">
        <ele>190</ele>
        <time>2017-06-18T09:45:49Z</time>
      </trkpt>
      <trkpt lat="45.9581" lon="4.77006">
        <ele>190</ele>
        <time>2017-06-18T09:45:50Z</time>
      </trkpt>
      <trkpt lat="45.95809" lon="4.76999">
        <ele>190</ele>
        <time>2017-06-18T09:45:51Z</time>
      </trkpt>
      <trkpt lat="45.95808" lon="4.76992">
        <ele>190</ele>
        <time>2017-06-18T09:45:52Z</time>
      </trkpt>
      <trkpt lat="45.95807" lon="4.76983">
        <ele>189</ele>
        <time>2017-06-18T09:45:53Z</time>
      </trkpt>
      <trkpt lat="45.95806" lon="4.76974">
        <ele>189</ele>
        <time>2017-06-18T09:45:54Z</time>
      </trkpt>
      <trkpt lat="45.95806" lon="4.76966">
        <ele>189</ele>
        <time>2017-06-18T09:45:55Z</time>
      </trkpt>
      <trkpt lat="45.95807" lon="4.76958">
        <ele>189</ele>
        <time>2017-06-18T09:45:56Z</time>
      </trkpt>
      <trkpt lat="45.95808" lon="4.76949">
        <ele>189</ele>
        <time>2017-06-18T09:45:57Z</time>
      </trkpt>
      <trkpt lat="45.9581" lon="4.76941">
        <ele>189</ele>
        <time>2017-06-18T09:45:58Z</time>
      </trkpt>
      <trkpt lat="45.95811" lon="4.76932">
        <ele>189</ele>
        <time>2017-06-18T09:45:59Z</time>
      </trkpt>
      <trkpt lat="45.95813" lon="4.76923">
        <ele>189</ele>
        <time>2017-06-18T09:46:00Z</time>
      </trkpt>
      <trkpt lat="45.95814" lon="4.76914">
        <ele>189</ele>
        <time>2017-06-18T09:46:01Z</time>
      </trkpt>
      <trkpt lat="45.95816" lon="4.76906">
        <ele>189</ele>
        <time>2017-06-18T09:46:02Z</time>
      </trkpt>
      <trkpt lat="45.95818" lon="4.76898">
        <ele>189</ele>
        <time>2017-06-18T09:46:03Z</time>
      </trkpt>
      <trkpt lat="45.95819" lon="4.7689">
        <ele>189</ele>
        <time>2017-06-18T09:46:04Z</time>
      </trkpt>
      <trkpt lat="45.9582" lon="4.76882">
        <ele>189</ele>
        <time>2017-06-18T09:46:05Z</time>
      </trkpt>
      <trkpt lat="45.95822" lon="4.76874">
        <ele>189</ele>
        <time>2017-06-18T09:46:06Z</time>
      </trkpt>
      <trkpt lat="45.95823" lon="4.76866">
        <ele>189</ele>
        <time>2017-06-18T09:46:07Z</time>
      </trkpt>
      <trkpt lat="45.95824" lon="4.76858">
        <ele>189</ele>
        <time>2017-06-18T09:46:08Z</time>
      </trkpt>
      <trkpt lat="45.95825" lon="4.76851">
        <ele>190</ele>
        <time>2017-06-18T09:46:09Z</time>
      </trkpt>
      <trkpt lat="45.95826" lon="4.76844">
        <ele>190</ele>
        <time>2017-06-18T09:46:10Z</time>
      </trkpt>
      <trkpt lat="45.95828" lon="4.76837">
        <ele>190</ele>
        <time>2017-06-18T09:46:11Z</time>
      </trkpt>
      <trkpt lat="45.95829" lon="4.7683">
        <ele>190</ele>
        <time>2017-06-18T09:46:12Z</time>
      </trkpt>
      <trkpt lat="45.9583" lon="4.76823">
        <ele>190</ele>
        <time>2017-06-18T09:46:13Z</time>
      </trkpt>
      <trkpt lat="45.95832" lon="4.7681">
        <ele>190</ele>
        <time>2017-06-18T09:46:15Z</time>
      </trkpt>
      <trkpt lat="45.95834" lon="4.76806">
        <ele>191</ele>
        <time>2017-06-18T09:46:16Z</time>
      </trkpt>
      <trkpt lat="45.95833" lon="4.76794">
        <ele>190</ele>
        <time>2017-06-18T09:46:20Z</time>
      </trkpt>
      <trkpt lat="45.95833" lon="4.7679">
        <ele>190</ele>
        <time>2017-06-18T09:46:21Z</time>
      </trkpt>
      <trkpt lat="45.95832" lon="4.76781">
        <ele>190</ele>
        <time>2017-06-18T09:46:23Z</time>
      </trkpt>
      <trkpt lat="45.95831" lon="4.76776">
        <ele>190</ele>
        <time>2017-06-18T09:46:24Z</time>
      </trkpt>
      <trkpt lat="45.95829" lon="4.7677">
        <ele>190</ele>
        <time>2017-06-18T09:46:25Z</time>
      </trkpt>
      <trkpt lat="45.95828" lon="4.76762">
        <ele>190</ele>
        <time>2017-06-18T09:46:26Z</time>
      </trkpt>
      <trkpt lat="45.95826" lon="4.76754">
        <ele>191</ele>
        <time>2017-06-18T09:46:27Z</time>
      </trkpt>
      <trkpt lat="45.95825" lon="4.76746">
        <ele>190</ele>
        <time>2017-06-18T09:46:28Z</time>
      </trkpt>
      <trkpt lat="45.95824" lon="4.76739">
        <ele>190</ele>
        <time>2017-06-18T09:46:29Z</time>
      </trkpt>
      <trkpt lat="45.95823" lon="4.76731">
        <ele>190</ele>
        <time>2017-06-18T09:46:30Z</time>
      </trkpt>
      <trkpt lat="45.95822" lon="4.76724">
        <ele>190</ele>
        <time>2017-06-18T09:46:31Z</time>
      </trkpt>
      <trkpt lat="45.95821" lon="4.76716">
        <ele>189</ele>
        <time>2017-06-18T09:46:32Z</time>
      </trkpt>
      <trkpt lat="45.9582" lon="4.76708">
        <ele>189</ele>
        <time>2017-06-18T09:46:33Z</time>
      </trkpt>
      <trkpt lat="45.95819" lon="4.767">
        <ele>189</ele>
        <time>2017-06-18T09:46:34Z</time>
      </trkpt>
      <trkpt lat="45.95818" lon="4.76693">
        <ele>189</ele>
        <time>2017-06-18T09:46:35Z</time>
      </trkpt>
      <trkpt lat="45.95817" lon="4.76686">
        <ele>189</ele>
        <time>2017-06-18T09:46:36Z</time>
      </trkpt>
      <trkpt lat="45.95816" lon="4.76679">
        <ele>189</ele>
        <time>2017-06-18T09:46:37Z</time>
      </trkpt>
      <trkpt lat="45.95815" lon="4.76672">
        <ele>189</ele>
        <time>2017-06-18T09:46:38Z</time>
      </trkpt>
      <trkpt lat="45.95814" lon="4.76664">
        <ele>188</ele>
        <time>2017-06-18T09:46:39Z</time>
      </trkpt>
      <trkpt lat="45.95813" lon="4.76656">
        <ele>188</ele>
        <time>2017-06-18T09:46:40Z</time>
      </trkpt>
      <trkpt lat="45.95812" lon="4.76648">
        <ele>188</ele>
        <time>2017-06-18T09:46:41Z</time>
      </trkpt>
      <trkpt lat="45.95811" lon="4.7664">
        <ele>188</ele>
        <time>2017-06-18T09:46:42Z</time>
      </trkpt>
      <trkpt lat="45.9581" lon="4.76631">
        <ele>188</ele>
        <time>2017-06-18T09:46:43Z</time>
      </trkpt>
      <trkpt lat="45.95809" lon="4.76623">
        <ele>188</ele>
        <time>2017-06-18T09:46:44Z</time>
      </trkpt>
      <trkpt lat="45.95808" lon="4.76615">
        <ele>188</ele>
        <time>2017-06-18T09:46:45Z</time>
      </trkpt>
      <trkpt lat="45.95807" lon="4.76607">
        <ele>188</ele>
        <time>2017-06-18T09:46:46Z</time>
      </trkpt>
      <trkpt lat="45.95806" lon="4.766">
        <ele>188</ele>
        <time>2017-06-18T09:46:47Z</time>
      </trkpt>
      <trkpt lat="45.95805" lon="4.76592">
        <ele>188</ele>
        <time>2017-06-18T09:46:48Z</time>
      </trkpt>
      <trkpt lat="45.95802" lon="4.76584">
        <ele>187</ele>
        <time>2017-06-18T09:46:49Z</time>
      </trkpt>
      <trkpt lat="45.95801" lon="4.76576">
        <ele>187</ele>
        <time>2017-06-18T09:46:50Z</time>
      </trkpt>
      <trkpt lat="45.95799" lon="4.76568">
        <ele>187</ele>
        <time>2017-06-18T09:46:51Z</time>
      </trkpt>
      <trkpt lat="45.95798" lon="4.7656">
        <ele>187</ele>
        <time>2017-06-18T09:46:52Z</time>
      </trkpt>
      <trkpt lat="45.95797" lon="4.76552">
        <ele>187</ele>
        <time>2017-06-18T09:46:53Z</time>
      </trkpt>
      <trkpt lat="45.95796" lon="4.76544">
        <ele>187</ele>
        <time>2017-06-18T09:46:54Z</time>
      </trkpt>
      <trkpt lat="45.95795" lon="4.76537">
        <ele>187</ele>
        <time>2017-06-18T09:46:55Z</time>
      </trkpt>
      <trkpt lat="45.95793" lon="4.7653">
        <ele>187</ele>
        <time>2017-06-18T09:46:56Z</time>
      </trkpt>
      <trkpt lat="45.95792" lon="4.76523">
        <ele>187</ele>
        <time>2017-06-18T09:46:57Z</time>
      </trkpt>
      <trkpt lat="45.95791" lon="4.76517">
        <ele>187</ele>
        <time>2017-06-18T09:46:58Z</time>
      </trkpt>
      <trkpt lat="45.9579" lon="4.7651">
        <ele>187</ele>
        <time>2017-06-18T09:46:59Z</time>
      </trkpt>
      <trkpt lat="45.95789" lon="4.76504">
        <ele>187</ele>
        <time>2017-06-18T09:47:00Z</time>
      </trkpt>
      <trkpt lat="45.95788" lon="4.76497">
        <ele>186</ele>
        <time>2017-06-18T09:47:01Z</time>
      </trkpt>
      <trkpt lat="45.95787" lon="4.7649">
        <ele>186</ele>
        <time>2017-06-18T09:47:02Z</time>
      </trkpt>
      <trkpt lat="45.95786" lon="4.76483">
        <ele>186</ele>
        <time>2017-06-18T09:47:03Z</time>
      </trkpt>
      <trkpt lat="45.95785" lon="4.76476">
        <ele>186</ele>
        <time>2017-06-18T09:47:04Z</time>
      </trkpt>
      <trkpt lat="45.95784" lon="4.76469">
        <ele>186</ele>
        <time>2017-06-18T09:47:05Z</time>
      </trkpt>
      <trkpt lat="45.95783" lon="4.76462">
        <ele>186</ele>
        <time>2017-06-18T09:47:06Z</time>
      </trkpt>
      <trkpt lat="45.95782" lon="4.76455">
        <ele>186</ele>
        <time>2017-06-18T09:47:07Z</time>
      </trkpt>
      <trkpt lat="45.95781" lon="4.76448">
        <ele>186</ele>
        <time>2017-06-18T09:47:08Z</time>
      </trkpt>
      <trkpt lat="45.9578" lon="4.7644">
        <ele>186</ele>
        <time>2017-06-18T09:47:09Z</time>
      </trkpt>
      <trkpt lat="45.95779" lon="4.76433">
        <ele>186</ele>
        <time>2017-06-18T09:47:10Z</time>
      </trkpt>
      <trkpt lat="45.95778" lon="4.76425">
        <ele>186</ele>
        <time>2017-06-18T09:47:11Z</time>
      </trkpt>
      <trkpt lat="45.95777" lon="4.76417">
        <ele>186</ele>
        <time>2017-06-18T09:47:12Z</time>
      </trkpt>
      <trkpt lat="45.95777" lon="4.7641">
        <ele>186</ele>
        <time>2017-06-18T09:47:13Z</time>
      </trkpt>
      <trkpt lat="45.95776" lon="4.76402">
        <ele>186</ele>
        <time>2017-06-18T09:47:14Z</time>
      </trkpt>
      <trkpt lat="45.95774" lon="4.76395">
        <ele>186</ele>
        <time>2017-06-18T09:47:15Z</time>
      </trkpt>
      <trkpt lat="45.95773" lon="4.76387">
        <ele>186</ele>
        <time>2017-06-18T09:47:16Z</time>
      </trkpt>
      <trkpt lat="45.95772" lon="4.7638">
        <ele>186</ele>
        <time>2017-06-18T09:47:17Z</time>
      </trkpt>
      <trkpt lat="45.95772" lon="4.76372">
        <ele>186</ele>
        <time>2017-06-18T09:47:18Z</time>
      </trkpt>
      <trkpt lat="45.95771" lon="4.76364">
        <ele>186</ele>
        <time>2017-06-18T09:47:19Z</time>
      </trkpt>
      <trkpt lat="45.95771" lon="4.76356">
        <ele>186</ele>
        <time>2017-06-18T09:47:20Z</time>
      </trkpt>
      <trkpt lat="45.95771" lon="4.76348">
        <ele>186</ele>
        <time>2017-06-18T09:47:21Z</time>
      </trkpt>
      <trkpt lat="45.9577" lon="4.7634">
        <ele>186</ele>
        <time>2017-06-18T09:47:22Z</time>
      </trkpt>
      <trkpt lat="45.9577" lon="4.76332">
        <ele>185</ele>
        <time>2017-06-18T09:47:23Z</time>
      </trkpt>
      <trkpt lat="45.9577" lon="4.76323">
        <ele>185</ele>
        <time>2017-06-18T09:47:24Z</time>
      </trkpt>
      <trkpt lat="45.95769" lon="4.76315">
        <ele>185</ele>
        <time>2017-06-18T09:47:25Z</time>
      </trkpt>
      <trkpt lat="45.95769" lon="4.76307">
        <ele>186</ele>
        <time>2017-06-18T09:47:26Z</time>
      </trkpt>
      <trkpt lat="45.95769" lon="4.76299">
        <ele>186</ele>
        <time>2017-06-18T09:47:27Z</time>
      </trkpt>
      <trkpt lat="45.95768" lon="4.76292">
        <ele>186</ele>
        <time>2017-06-18T09:47:28Z</time>
      </trkpt>
      <trkpt lat="45.95768" lon="4.76284">
        <ele>186</ele>
        <time>2017-06-18T09:47:29Z</time>
      </trkpt>
      <trkpt lat="45.95767" lon="4.76277">
        <ele>186</ele>
        <time>2017-06-18T09:47:30Z</time>
      </trkpt>
      <trkpt lat="45.95767" lon="4.76269">
        <ele>185</ele>
        <time>2017-06-18T09:47:31Z</time>
      </trkpt>
      <trkpt lat="45.95766" lon="4.76262">
        <ele>185</ele>
        <time>2017-06-18T09:47:32Z</time>
      </trkpt>
      <trkpt lat="45.95765" lon="4.76254">
        <ele>185</ele>
        <time>2017-06-18T09:47:33Z</time>
      </trkpt>
      <trkpt lat="45.95765" lon="4.76247">
        <ele>185</ele>
        <time>2017-06-18T09:47:34Z</time>
      </trkpt>
      <trkpt lat="45.95765" lon="4.76239">
        <ele>186</ele>
        <time>2017-06-18T09:47:35Z</time>
      </trkpt>
      <trkpt lat="45.95764" lon="4.76232">
        <ele>186</ele>
        <time>2017-06-18T09:47:36Z</time>
      </trkpt>
      <trkpt lat="45.95764" lon="4.76224">
        <ele>186</ele>
        <time>2017-06-18T09:47:37Z</time>
      </trkpt>
      <trkpt lat="45.95763" lon="4.76216">
        <ele>186</ele>
        <time>2017-06-18T09:47:38Z</time>
      </trkpt>
      <trkpt lat="45.95763" lon="4.76208">
        <ele>186</ele>
        <time>2017-06-18T09:47:39Z</time>
      </trkpt>
      <trkpt lat="45.95763" lon="4.762">
        <ele>186</ele>
        <time>2017-06-18T09:47:40Z</time>
      </trkpt>
      <trkpt lat="45.95763" lon="4.76192">
        <ele>186</ele>
        <time>2017-06-18T09:47:41Z</time>
      </trkpt>
      <trkpt lat="45.95762" lon="4.76184">
        <ele>186</ele>
        <time>2017-06-18T09:47:42Z</time>
      </trkpt>
      <trkpt lat="45.95762" lon="4.76177">
        <ele>185</ele>
        <time>2017-06-18T09:47:43Z</time>
      </trkpt>
      <trkpt lat="45.95761" lon="4.7617">
        <ele>185</ele>
        <time>2017-06-18T09:47:44Z</time>
      </trkpt>
      <trkpt lat="45.95761" lon="4.76163">
        <ele>186</ele>
        <time>2017-06-18T09:47:45Z</time>
      </trkpt>
      <trkpt lat="45.95761" lon="4.76156">
        <ele>186</ele>
        <time>2017-06-18T09:47:46Z</time>
      </trkpt>
      <trkpt lat="45.9576" lon="4.76149">
        <ele>186</ele>
        <time>2017-06-18T09:47:47Z</time>
      </trkpt>
      <trkpt lat="45.9576" lon="4.76141">
        <ele>186</ele>
        <time>2017-06-18T09:47:48Z</time>
      </trkpt>
      <trkpt lat="45.95759" lon="4.76134">
        <ele>186</ele>
        <time>2017-06-18T09:47:49Z</time>
      </trkpt>
      <trkpt lat="45.95758" lon="4.76126">
        <ele>186</ele>
        <time>2017-06-18T09:47:50Z</time>
      </trkpt>
      <trkpt lat="45.95759" lon="4.76119">
        <ele>186</ele>
        <time>2017-06-18T09:47:51Z</time>
      </trkpt>
      <trkpt lat="45.95758" lon="4.76111">
        <ele>186</ele>
        <time>2017-06-18T09:47:52Z</time>
      </trkpt>
      <trkpt lat="45.95757" lon="4.76103">
        <ele>186</ele>
        <time>2017-06-18T09:47:53Z</time>
      </trkpt>
      <trkpt lat="45.95755" lon="4.76095">
        <ele>186</ele>
        <time>2017-06-18T09:47:54Z</time>
      </trkpt>
      <trkpt lat="45.95752" lon="4.76087">
        <ele>185</ele>
        <time>2017-06-18T09:47:55Z</time>
      </trkpt>
      <trkpt lat="45.95749" lon="4.76078">
        <ele>185</ele>
        <time>2017-06-18T09:47:56Z</time>
      </trkpt>
      <trkpt lat="45.95746" lon="4.76069">
        <ele>185</ele>
        <time>2017-06-18T09:47:57Z</time>
      </trkpt>
      <trkpt lat="45.95743" lon="4.76061">
        <ele>184</ele>
        <time>2017-06-18T09:47:58Z</time>
      </trkpt>
      <trkpt lat="45.95739" lon="4.76053">
        <ele>184</ele>
        <time>2017-06-18T09:47:59Z</time>
      </trkpt>
      <trkpt lat="45.95736" lon="4.76045">
        <ele>184</ele>
        <time>2017-06-18T09:48:00Z</time>
      </trkpt>
      <trkpt lat="45.95733" lon="4.76037">
        <ele>184</ele>
        <time>2017-06-18T09:48:01Z</time>
      </trkpt>
      <trkpt lat="45.95729" lon="4.76029">
        <ele>184</ele>
        <time>2017-06-18T09:48:02Z</time>
      </trkpt>
      <trkpt lat="45.95726" lon="4.76022">
        <ele>185</ele>
        <time>2017-06-18T09:48:03Z</time>
      </trkpt>
      <trkpt lat="45.95722" lon="4.76014">
        <ele>185</ele>
        <time>2017-06-18T09:48:04Z</time>
      </trkpt>
      <trkpt lat="45.95719" lon="4.76007">
        <ele>184</ele>
        <time>2017-06-18T09:48:05Z</time>
      </trkpt>
      <trkpt lat="45.95716" lon="4.76">
        <ele>185</ele>
        <time>2017-06-18T09:48:06Z</time>
      </trkpt>
      <trkpt lat="45.95712" lon="4.75993">
        <ele>185</ele>
        <time>2017-06-18T09:48:07Z</time>
      </trkpt>
      <trkpt lat="45.95709" lon="4.75986">
        <ele>185</ele>
        <time>2017-06-18T09:48:08Z</time>
      </trkpt>
      <trkpt lat="45.95706" lon="4.75978">
        <ele>185</ele>
        <time>2017-06-18T09:48:09Z</time>
      </trkpt>
      <trkpt lat="45.95703" lon="4.75972">
        <ele>185</ele>
        <time>2017-06-18T09:48:10Z</time>
      </trkpt>
      <trkpt lat="45.957" lon="4.75965">
        <ele>185</ele>
        <time>2017-06-18T09:48:11Z</time>
      </trkpt>
      <trkpt lat="45.95697" lon="4.75959">
        <ele>185</ele>
        <time>2017-06-18T09:48:12Z</time>
      </trkpt>
      <trkpt lat="45.95694" lon="4.75952">
        <ele>185</ele>
        <time>2017-06-18T09:48:13Z</time>
      </trkpt>
      <trkpt lat="45.95691" lon="4.75944">
        <ele>185</ele>
        <time>2017-06-18T09:48:14Z</time>
      </trkpt>
      <trkpt lat="45.95687" lon="4.75937">
        <ele>185</ele>
        <time>2017-06-18T09:48:15Z</time>
      </trkpt>
      <trkpt lat="45.95683" lon="4.75928">
        <ele>185</ele>
        <time>2017-06-18T09:48:16Z</time>
      </trkpt>
      <trkpt lat="45.95679" lon="4.75919">
        <ele>185</ele>
        <time>2017-06-18T09:48:17Z</time>
      </trkpt>
      <trkpt lat="45.95676" lon="4.7591">
        <ele>185</ele>
        <time>2017-06-18T09:48:18Z</time>
      </trkpt>
      <trkpt lat="45.95673" lon="4.75902">
        <ele>185</ele>
        <time>2017-06-18T09:48:19Z</time>
      </trkpt>
      <trkpt lat="45.95669" lon="4.75893">
        <ele>186</ele>
        <time>2017-06-18T09:48:20Z</time>
      </trkpt>
      <trkpt lat="45.95666" lon="4.75885">
        <ele>184</ele>
        <time>2017-06-18T09:48:21Z</time>
      </trkpt>
      <trkpt lat="45.95664" lon="4.75877">
        <ele>184</ele>
        <time>2017-06-18T09:48:22Z</time>
      </trkpt>
      <trkpt lat="45.95661" lon="4.75869">
        <ele>184</ele>
        <time>2017-06-18T09:48:23Z</time>
      </trkpt>
      <trkpt lat="45.95659" lon="4.75861">
        <ele>184</ele>
        <time>2017-06-18T09:48:24Z</time>
      </trkpt>
      <trkpt lat="45.95657" lon="4.75854">
        <ele>184</ele>
        <time>2017-06-18T09:48:25Z</time>
      </trkpt>
      <trkpt lat="45.95654" lon="4.75846">
        <ele>185</ele>
        <time>2017-06-18T09:48:26Z</time>
      </trkpt>
      <trkpt lat="45.95652" lon="4.75838">
        <ele>185</ele>
        <time>2017-06-18T09:48:27Z</time>
      </trkpt>
      <trkpt lat="45.95651" lon="4.75831">
        <ele>185</ele>
        <time>2017-06-18T09:48:28Z</time>
      </trkpt>
      <trkpt lat="45.95649" lon="4.75823">
        <ele>185</ele>
        <time>2017-06-18T09:48:29Z</time>
      </trkpt>
      <trkpt lat="45.95648" lon="4.75816">
        <ele>185</ele>
        <time>2017-06-18T09:48:30Z</time>
      </trkpt>
      <trkpt lat="45.95646" lon="4.75808">
        <ele>185</ele>
        <time>2017-06-18T09:48:31Z</time>
      </trkpt>
      <trkpt lat="45.95644" lon="4.758">
        <ele>185</ele>
        <time>2017-06-18T09:48:32Z</time>
      </trkpt>
      <trkpt lat="45.95643" lon="4.75792">
        <ele>185</ele>
        <time>2017-06-18T09:48:33Z</time>
      </trkpt>
      <trkpt lat="45.95642" lon="4.75784">
        <ele>186</ele>
        <time>2017-06-18T09:48:34Z</time>
      </trkpt>
      <trkpt lat="45.95641" lon="4.75777">
        <ele>186</ele>
        <time>2017-06-18T09:48:35Z</time>
      </trkpt>
      <trkpt lat="45.95639" lon="4.7577">
        <ele>186</ele>
        <time>2017-06-18T09:48:36Z</time>
      </trkpt>
      <trkpt lat="45.95638" lon="4.75762">
        <ele>186</ele>
        <time>2017-06-18T09:48:37Z</time>
      </trkpt>
      <trkpt lat="45.95637" lon="4.75755">
        <ele>186</ele>
        <time>2017-06-18T09:48:38Z</time>
      </trkpt>
      <trkpt lat="45.95637" lon="4.75747">
        <ele>187</ele>
        <time>2017-06-18T09:48:39Z</time>
      </trkpt>
      <trkpt lat="45.95636" lon="4.75739">
        <ele>187</ele>
        <time>2017-06-18T09:48:40Z</time>
      </trkpt>
      <trkpt lat="45.95634" lon="4.75732">
        <ele>187</ele>
        <time>2017-06-18T09:48:41Z</time>
      </trkpt>
      <trkpt lat="45.95633" lon="4.75724">
        <ele>187</ele>
        <time>2017-06-18T09:48:42Z</time>
      </trkpt>
      <trkpt lat="45.95632" lon="4.75717">
        <ele>187</ele>
        <time>2017-06-18T09:48:43Z</time>
      </trkpt>
      <trkpt lat="45.95631" lon="4.7571">
        <ele>187</ele>
        <time>2017-06-18T09:48:44Z</time>
      </trkpt>
      <trkpt lat="45.9563" lon="4.75703">
        <ele>187</ele>
        <time>2017-06-18T09:48:45Z</time>
      </trkpt>
      <trkpt lat="45.95628" lon="4.75696">
        <ele>187</ele>
        <time>2017-06-18T09:48:46Z</time>
      </trkpt>
      <trkpt lat="45.95627" lon="4.75689">
        <ele>187</ele>
        <time>2017-06-18T09:48:47Z</time>
      </trkpt>
      <trkpt lat="45.95626" lon="4.75681">
        <ele>187</ele>
        <time>2017-06-18T09:48:48Z</time>
      </trkpt>
      <trkpt lat="45.95624" lon="4.75673">
        <ele>187</ele>
        <time>2017-06-18T09:48:49Z</time>
      </trkpt>
      <trkpt lat="45.95622" lon="4.75666">
        <ele>188</ele>
        <time>2017-06-18T09:48:50Z</time>
      </trkpt>
      <trkpt lat="45.95621" lon="4.75659">
        <ele>188</ele>
        <time>2017-06-18T09:48:51Z</time>
      </trkpt>
      <trkpt lat="45.95619" lon="4.75652">
        <ele>188</ele>
        <time>2017-06-18T09:48:52Z</time>
      </trkpt>
      <trkpt lat="45.95618" lon="4.75645">
        <ele>188</ele>
        <time>2017-06-18T09:48:53Z</time>
      </trkpt>
      <trkpt lat="45.95617" lon="4.75638">
        <ele>188</ele>
        <time>2017-06-18T09:48:54Z</time>
      </trkpt>
      <trkpt lat="45.95616" lon="4.75632">
        <ele>188</ele>
        <time>2017-06-18T09:48:55Z</time>
      </trkpt>
      <trkpt lat="45.95614" lon="4.75625">
        <ele>188</ele>
        <time>2017-06-18T09:48:56Z</time>
      </trkpt>
      <trkpt lat="45.95611" lon="4.75619">
        <ele>188</ele>
        <time>2017-06-18T09:48:57Z</time>
      </trkpt>
      <trkpt lat="45.95609" lon="4.75613">
        <ele>188</ele>
        <time>2017-06-18T09:48:58Z</time>
      </trkpt>
      <trkpt lat="45.95608" lon="4.75606">
        <ele>188</ele>
        <time>2017-06-18T09:48:59Z</time>
      </trkpt>
      <trkpt lat="45.95605" lon="4.756">
        <ele>187</ele>
        <time>2017-06-18T09:49:00Z</time>
      </trkpt>
      <trkpt lat="45.95603" lon="4.75594">
        <ele>187</ele>
        <time>2017-06-18T09:49:01Z</time>
      </trkpt>
      <trkpt lat="45.956" lon="4.75587">
        <ele>187</ele>
        <time>2017-06-18T09:49:02Z</time>
      </trkpt>
      <trkpt lat="45.95597" lon="4.75581">
        <ele>187</ele>
        <time>2017-06-18T09:49:03Z</time>
      </trkpt>
      <trkpt lat="45.95595" lon="4.75574">
        <ele>188</ele>
        <time>2017-06-18T09:49:04Z</time>
      </trkpt>
      <trkpt lat="45.95591" lon="4.75568">
        <ele>188</ele>
        <time>2017-06-18T09:49:05Z</time>
      </trkpt>
      <trkpt lat="45.95588" lon="4.75562">
        <ele>188</ele>
        <time>2017-06-18T09:49:06Z</time>
      </trkpt>
      <trkpt lat="45.95584" lon="4.75556">
        <ele>188</ele>
        <time>2017-06-18T09:49:07Z</time>
      </trkpt>
      <trkpt lat="45.9558" lon="4.75551">
        <ele>186</ele>
        <time>2017-06-18T09:49:08Z</time>
      </trkpt>
      <trkpt lat="45.95576" lon="4.75545">
        <ele>186</ele>
        <time>2017-06-18T09:49:09Z</time>
      </trkpt>
      <trkpt lat="45.95571" lon="4.7554">
        <ele>186</ele>
        <time>2017-06-18T09:49:10Z</time>
      </trkpt>
      <trkpt lat="45.95566" lon="4.75535">
        <ele>186</ele>
        <time>2017-06-18T09:49:11Z</time>
      </trkpt>
      <trkpt lat="45.95562" lon="4.7553">
        <ele>186</ele>
        <time>2017-06-18T09:49:12Z</time>
      </trkpt>
      <trkpt lat="45.95557" lon="4.75525">
        <ele>186</ele>
        <time>2017-06-18T09:49:13Z</time>
      </trkpt>
      <trkpt lat="45.95553" lon="4.7552">
        <ele>186</ele>
        <time>2017-06-18T09:49:14Z</time>
      </trkpt>
      <trkpt lat="45.95549" lon="4.75514">
        <ele>186</ele>
        <time>2017-06-18T09:49:15Z</time>
      </trkpt>
      <trkpt lat="45.95545" lon="4.75508">
        <ele>186</ele>
        <time>2017-06-18T09:49:16Z</time>
      </trkpt>
      <trkpt lat="45.95542" lon="4.75502">
        <ele>186</ele>
        <time>2017-06-18T09:49:17Z</time>
      </trkpt>
      <trkpt lat="45.9554" lon="4.75496">
        <ele>187</ele>
        <time>2017-06-18T09:49:18Z</time>
      </trkpt>
      <trkpt lat="45.9554" lon="4.75489">
        <ele>187</ele>
        <time>2017-06-18T09:49:19Z</time>
      </trkpt>
      <trkpt lat="45.9554" lon="4.75482">
        <ele>187</ele>
        <time>2017-06-18T09:49:20Z</time>
      </trkpt>
      <trkpt lat="45.95539" lon="4.75475">
        <ele>187</ele>
        <time>2017-06-18T09:49:21Z</time>
      </trkpt>
      <trkpt lat="45.95538" lon="4.75467">
        <ele>187</ele>
        <time>2017-06-18T09:49:22Z</time>
      </trkpt>
      <trkpt lat="45.95535" lon="4.7546">
        <ele>187</ele>
        <time>2017-06-18T09:49:23Z</time>
      </trkpt>
      <trkpt lat="45.95531" lon="4.75454">
        <ele>187</ele>
        <time>2017-06-18T09:49:24Z</time>
      </trkpt>
      <trkpt lat="45.95527" lon="4.75448">
        <ele>187</ele>
        <time>2017-06-18T09:49:25Z</time>
      </trkpt>
      <trkpt lat="45.95522" lon="4.75441">
        <ele>187</ele>
        <time>2017-06-18T09:49:26Z</time>
      </trkpt>
      <trkpt lat="45.95517" lon="4.75433">
        <ele>187</ele>
        <time>2017-06-18T09:49:27Z</time>
      </trkpt>
      <trkpt lat="45.95515" lon="4.75426">
        <ele>186</ele>
        <time>2017-06-18T09:49:28Z</time>
      </trkpt>
      <trkpt lat="45.95512" lon="4.75418">
        <ele>186</ele>
        <time>2017-06-18T09:49:29Z</time>
      </trkpt>
      <trkpt lat="45.95509" lon="4.7541">
        <ele>187</ele>
        <time>2017-06-18T09:49:30Z</time>
      </trkpt>
      <trkpt lat="45.95506" lon="4.75403">
        <ele>187</ele>
        <time>2017-06-18T09:49:31Z</time>
      </trkpt>
      <trkpt lat="45.95503" lon="4.75395">
        <ele>188</ele>
        <time>2017-06-18T09:49:32Z</time>
      </trkpt>
      <trkpt lat="45.955" lon="4.75388">
        <ele>188</ele>
        <time>2017-06-18T09:49:33Z</time>
      </trkpt>
      <trkpt lat="45.95497" lon="4.75381">
        <ele>185</ele>
        <time>2017-06-18T09:49:34Z</time>
      </trkpt>
      <trkpt lat="45.95494" lon="4.75374">
        <ele>185</ele>
        <time>2017-06-18T09:49:35Z</time>
      </trkpt>
      <trkpt lat="45.95491" lon="4.75368">
        <ele>186</ele>
        <time>2017-06-18T09:49:36Z</time>
      </trkpt>
      <trkpt lat="45.95487" lon="4.75361">
        <ele>186</ele>
        <time>2017-06-18T09:49:37Z</time>
      </trkpt>
      <trkpt lat="45.95484" lon="4.75354">
        <ele>186</ele>
        <time>2017-06-18T09:49:38Z</time>
      </trkpt>
      <trkpt lat="45.95481" lon="4.75348">
        <ele>186</ele>
        <time>2017-06-18T09:49:39Z</time>
      </trkpt>
      <trkpt lat="45.95478" lon="4.75341">
        <ele>186</ele>
        <time>2017-06-18T09:49:40Z</time>
      </trkpt>
      <trkpt lat="45.95474" lon="4.75335">
        <ele>186</ele>
        <time>2017-06-18T09:49:41Z</time>
      </trkpt>
      <trkpt lat="45.95471" lon="4.75328">
        <ele>188</ele>
        <time>2017-06-18T09:49:42Z</time>
      </trkpt>
      <trkpt lat="45.95467" lon="4.75322">
        <ele>188</ele>
        <time>2017-06-18T09:49:43Z</time>
      </trkpt>
      <trkpt lat="45.95464" lon="4.75316">
        <ele>188</ele>
        <time>2017-06-18T09:49:44Z</time>
      </trkpt>
      <trkpt lat="45.95461" lon="4.75309">
        <ele>188</ele>
        <time>2017-06-18T09:49:45Z</time>
      </trkpt>
      <trkpt lat="45.95457" lon="4.75303">
        <ele>188</ele>
        <time>2017-06-18T09:49:46Z</time>
      </trkpt>
      <trkpt lat="45.95454" lon="4.75296">
        <ele>188</ele>
        <time>2017-06-18T09:49:47Z</time>
      </trkpt>
      <trkpt lat="45.95451" lon="4.7529">
        <ele>188</ele>
        <time>2017-06-18T09:49:48Z</time>
      </trkpt>
      <trkpt lat="45.95447" lon="4.75284">
        <ele>188</ele>
        <time>2017-06-18T09:49:49Z</time>
      </trkpt>
      <trkpt lat="45.95444" lon="4.75278">
        <ele>189</ele>
        <time>2017-06-18T09:49:50Z</time>
      </trkpt>
      <trkpt lat="45.95441" lon="4.75271">
        <ele>189</ele>
        <time>2017-06-18T09:49:51Z</time>
      </trkpt>
      <trkpt lat="45.95438" lon="4.75264">
        <ele>189</ele>
        <time>2017-06-18T09:49:52Z</time>
      </trkpt>
      <trkpt lat="45.95434" lon="4.75258">
        <ele>189</ele>
        <time>2017-06-18T09:49:53Z</time>
      </trkpt>
      <trkpt lat="45.95431" lon="4.75252">
        <ele>189</ele>
        <time>2017-06-18T09:49:54Z</time>
      </trkpt>
      <trkpt lat="45.95427" lon="4.75245">
        <ele>190</ele>
        <time>2017-06-18T09:49:55Z</time>
      </trkpt>
      <trkpt lat="45.95423" lon="4.75239">
        <ele>190</ele>
        <time>2017-06-18T09:49:56Z</time>
      </trkpt>
      <trkpt lat="45.9542" lon="4.75232">
        <ele>190</ele>
        <time>2017-06-18T09:49:57Z</time>
      </trkpt>
      <trkpt lat="45.95416" lon="4.75226">
        <ele>189</ele>
        <time>2017-06-18T09:49:58Z</time>
      </trkpt>
      <trkpt lat="45.95413" lon="4.75219">
        <ele>189</ele>
        <time>2017-06-18T09:49:59Z</time>
      </trkpt>
      <trkpt lat="45.9541" lon="4.75213">
        <ele>189</ele>
        <time>2017-06-18T09:50:00Z</time>
      </trkpt>
      <trkpt lat="45.95407" lon="4.75206">
        <ele>189</ele>
        <time>2017-06-18T09:50:01Z</time>
      </trkpt>
      <trkpt lat="45.95404" lon="4.75199">
        <ele>189</ele>
        <time>2017-06-18T09:50:02Z</time>
      </trkpt>
      <trkpt lat="45.954" lon="4.75193">
        <ele>189</ele>
        <time>2017-06-18T09:50:03Z</time>
      </trkpt>
      <trkpt lat="45.95397" lon="4.75187">
        <ele>189</ele>
        <time>2017-06-18T09:50:04Z</time>
      </trkpt>
      <trkpt lat="45.95393" lon="4.7518">
        <ele>189</ele>
        <time>2017-06-18T09:50:05Z</time>
      </trkpt>
      <trkpt lat="45.9539" lon="4.75174">
        <ele>189</ele>
        <time>2017-06-18T09:50:06Z</time>
      </trkpt>
      <trkpt lat="45.95386" lon="4.75168">
        <ele>189</ele>
        <time>2017-06-18T09:50:07Z</time>
      </trkpt>
      <trkpt lat="45.95382" lon="4.75161">
        <ele>191</ele>
        <time>2017-06-18T09:50:08Z</time>
      </trkpt>
      <trkpt lat="45.95378" lon="4.75155">
        <ele>191</ele>
        <time>2017-06-18T09:50:09Z</time>
      </trkpt>
      <trkpt lat="45.95375" lon="4.75149">
        <ele>191</ele>
        <time>2017-06-18T09:50:10Z</time>
      </trkpt>
      <trkpt lat="45.95371" lon="4.75143">
        <ele>191</ele>
        <time>2017-06-18T09:50:11Z</time>
      </trkpt>
      <trkpt lat="45.95367" lon="4.75138">
        <ele>191</ele>
        <time>2017-06-18T09:50:12Z</time>
      </trkpt>
      <trkpt lat="45.95364" lon="4.75132">
        <ele>191</ele>
        <time>2017-06-18T09:50:13Z</time>
      </trkpt>
      <trkpt lat="45.9536" lon="4.75126">
        <ele>191</ele>
        <time>2017-06-18T09:50:14Z</time>
      </trkpt>
      <trkpt lat="45.95357" lon="4.7512">
        <ele>191</ele>
        <time>2017-06-18T09:50:15Z</time>
      </trkpt>
      <trkpt lat="45.95353" lon="4.75115">
        <ele>192</ele>
        <time>2017-06-18T09:50:16Z</time>
      </trkpt>
      <trkpt lat="45.95349" lon="4.75109">
        <ele>192</ele>
        <time>2017-06-18T09:50:17Z</time>
      </trkpt>
      <trkpt lat="45.95346" lon="4.75104">
        <ele>192</ele>
        <time>2017-06-18T09:50:18Z</time>
      </trkpt>
      <trkpt lat="45.95342" lon="4.75098">
        <ele>192</ele>
        <time>2017-06-18T09:50:19Z</time>
      </trkpt>
      <trkpt lat="45.95339" lon="4.75093">
        <ele>192</ele>
        <time>2017-06-18T09:50:20Z</time>
      </trkpt>
      <trkpt lat="45.95335" lon="4.75088">
        <ele>193</ele>
        <time>2017-06-18T09:50:21Z</time>
      </trkpt>
      <trkpt lat="45.95331" lon="4.75082">
        <ele>193</ele>
        <time>2017-06-18T09:50:22Z</time>
      </trkpt>
      <trkpt lat="45.95327" lon="4.75077">
        <ele>192</ele>
        <time>2017-06-18T09:50:23Z</time>
      </trkpt>
      <trkpt lat="45.95324" lon="4.75072">
        <ele>192</ele>
        <time>2017-06-18T09:50:24Z</time>
      </trkpt>
      <trkpt lat="45.95321" lon="4.75067">
        <ele>192</ele>
        <time>2017-06-18T09:50:25Z</time>
      </trkpt>
      <trkpt lat="45.95318" lon="4.75062">
        <ele>192</ele>
        <time>2017-06-18T09:50:26Z</time>
      </trkpt>
      <trkpt lat="45.95315" lon="4.75056">
        <ele>192</ele>
        <time>2017-06-18T09:50:27Z</time>
      </trkpt>
      <trkpt lat="45.95311" lon="4.7505">
        <ele>192</ele>
        <time>2017-06-18T09:50:28Z</time>
      </trkpt>
      <trkpt lat="45.95308" lon="4.75045">
        <ele>192</ele>
        <time>2017-06-18T09:50:29Z</time>
      </trkpt>
      <trkpt lat="45.95305" lon="4.7504">
        <ele>192</ele>
        <time>2017-06-18T09:50:30Z</time>
      </trkpt>
      <trkpt lat="45.95299" lon="4.75031">
        <ele>191</ele>
        <time>2017-06-18T09:50:32Z</time>
      </trkpt>
      <trkpt lat="45.95296" lon="4.75026">
        <ele>191</ele>
        <time>2017-06-18T09:50:33Z</time>
      </trkpt>
      <trkpt lat="45.95293" lon="4.75021">
        <ele>191</ele>
        <time>2017-06-18T09:50:34Z</time>
      </trkpt>
      <trkpt lat="45.9529" lon="4.75016">
        <ele>191</ele>
        <time>2017-06-18T09:50:35Z</time>
      </trkpt>
      <trkpt lat="45.95287" lon="4.75011">
        <ele>191</ele>
        <time>2017-06-18T09:50:36Z</time>
      </trkpt>
      <trkpt lat="45.95284" lon="4.75006">
        <ele>191</ele>
        <time>2017-06-18T09:50:37Z</time>
      </trkpt>
      <trkpt lat="45.95281" lon="4.75">
        <ele>191</ele>
        <time>2017-06-18T09:50:38Z</time>
      </trkpt>
      <trkpt lat="45.95277" lon="4.74995">
        <ele>192</ele>
        <time>2017-06-18T09:50:39Z</time>
      </trkpt>
      <trkpt lat="45.95273" lon="4.74989">
        <ele>192</ele>
        <time>2017-06-18T09:50:40Z</time>
      </trkpt>
      <trkpt lat="45.95269" lon="4.74983">
        <ele>192</ele>
        <time>2017-06-18T09:50:41Z</time>
      </trkpt>
      <trkpt lat="45.95265" lon="4.74978">
        <ele>192</ele>
        <time>2017-06-18T09:50:42Z</time>
      </trkpt>
      <trkpt lat="45.95262" lon="4.74972">
        <ele>192</ele>
        <time>2017-06-18T09:50:43Z</time>
      </trkpt>
      <trkpt lat="45.95258" lon="4.74967">
        <ele>192</ele>
        <time>2017-06-18T09:50:44Z</time>
      </trkpt>
      <trkpt lat="45.95255" lon="4.74962">
        <ele>192</ele>
        <time>2017-06-18T09:50:45Z</time>
      </trkpt>
      <trkpt lat="45.95252" lon="4.74957">
        <ele>192</ele>
        <time>2017-06-18T09:50:46Z</time>
      </trkpt>
      <trkpt lat="45.95249" lon="4.74952">
        <ele>192</ele>
        <time>2017-06-18T09:50:47Z</time>
      </trkpt>
      <trkpt lat="45.95244" lon="4.74942">
        <ele>192</ele>
        <time>2017-06-18T09:50:49Z</time>
      </trkpt>
      <trkpt lat="45.95241" lon="4.74938">
        <ele>192</ele>
        <time>2017-06-18T09:50:50Z</time>
      </trkpt>
      <trkpt lat="45.95235" lon="4.74929">
        <ele>192</ele>
        <time>2017-06-18T09:50:52Z</time>
      </trkpt>
      <trkpt lat="45.95232" lon="4.74923">
        <ele>192</ele>
        <time>2017-06-18T09:50:53Z</time>
      </trkpt>
      <trkpt lat="45.95228" lon="4.74918">
        <ele>192</ele>
        <time>2017-06-18T09:50:54Z</time>
      </trkpt>
      <trkpt lat="45.95225" lon="4.74912">
        <ele>193</ele>
        <time>2017-06-18T09:50:55Z</time>
      </trkpt>
      <trkpt lat="45.95222" lon="4.74906">
        <ele>193</ele>
        <time>2017-06-18T09:50:56Z</time>
      </trkpt>
      <trkpt lat="45.95218" lon="4.74901">
        <ele>193</ele>
        <time>2017-06-18T09:50:57Z</time>
      </trkpt>
      <trkpt lat="45.95214" lon="4.74894">
        <ele>193</ele>
        <time>2017-06-18T09:50:58Z</time>
      </trkpt>
      <trkpt lat="45.95209" lon="4.74888">
        <ele>193</ele>
        <time>2017-06-18T09:50:59Z</time>
      </trkpt>
      <trkpt lat="45.95205" lon="4.74883">
        <ele>194</ele>
        <time>2017-06-18T09:51:00Z</time>
      </trkpt>
      <trkpt lat="45.95202" lon="4.74878">
        <ele>194</ele>
        <time>2017-06-18T09:51:01Z</time>
      </trkpt>
      <trkpt lat="45.95198" lon="4.74872">
        <ele>194</ele>
        <time>2017-06-18T09:51:02Z</time>
      </trkpt>
      <trkpt lat="45.95194" lon="4.74867">
        <ele>194</ele>
        <time>2017-06-18T09:51:03Z</time>
      </trkpt>
      <trkpt lat="45.9519" lon="4.74862">
        <ele>194</ele>
        <time>2017-06-18T09:51:04Z</time>
      </trkpt>
      <trkpt lat="45.95187" lon="4.74856">
        <ele>194</ele>
        <time>2017-06-18T09:51:05Z</time>
      </trkpt>
      <trkpt lat="45.95183" lon="4.74851">
        <ele>194</ele>
        <time>2017-06-18T09:51:06Z</time>
      </trkpt>
      <trkpt lat="45.9518" lon="4.74846">
        <ele>194</ele>
        <time>2017-06-18T09:51:07Z</time>
      </trkpt>
      <trkpt lat="45.95177" lon="4.7484">
        <ele>194</ele>
        <time>2017-06-18T09:51:08Z</time>
      </trkpt>
      <trkpt lat="45.95175" lon="4.74834">
        <ele>194</ele>
        <time>2017-06-18T09:51:09Z</time>
      </trkpt>
      <trkpt lat="45.95171" lon="4.74829">
        <ele>194</ele>
        <time>2017-06-18T09:51:10Z</time>
      </trkpt>
      <trkpt lat="45.95168" lon="4.74824">
        <ele>194</ele>
        <time>2017-06-18T09:51:11Z</time>
      </trkpt>
      <trkpt lat="45.95165" lon="4.74818">
        <ele>194</ele>
        <time>2017-06-18T09:51:12Z</time>
      </trkpt>
      <trkpt lat="45.95162" lon="4.74813">
        <ele>194</ele>
        <time>2017-06-18T09:51:13Z</time>
      </trkpt>
      <trkpt lat="45.9516" lon="4.74808">
        <ele>194</ele>
        <time>2017-06-18T09:51:14Z</time>
      </trkpt>
      <trkpt lat="45.95157" lon="4.74803">
        <ele>194</ele>
        <time>2017-06-18T09:51:15Z</time>
      </trkpt>
      <trkpt lat="45.95152" lon="4.74793">
        <ele>194</ele>
        <time>2017-06-18T09:51:17Z</time>
      </trkpt>
      <trkpt lat="45.9515" lon="4.74788">
        <ele>194</ele>
        <time>2017-06-18T09:51:18Z</time>
      </trkpt>
      <trkpt lat="45.95148" lon="4.74782">
        <ele>194</ele>
        <time>2017-06-18T09:51:19Z</time>
      </trkpt>
      <trkpt lat="45.95145" lon="4.74777">
        <ele>194</ele>
        <time>2017-06-18T09:51:20Z</time>
      </trkpt>
      <trkpt lat="45.95142" lon="4.74771">
        <ele>194</ele>
        <time>2017-06-18T09:51:21Z</time>
      </trkpt>
      <trkpt lat="45.95138" lon="4.74766">
        <ele>194</ele>
        <time>2017-06-18T09:51:22Z</time>
      </trkpt>
      <trkpt lat="45.95135" lon="4.7476">
        <ele>194</ele>
        <time>2017-06-18T09:51:23Z</time>
      </trkpt>
      <trkpt lat="45.95132" lon="4.74754">
        <ele>194</ele>
        <time>2017-06-18T09:51:24Z</time>
      </trkpt>
      <trkpt lat="45.95129" lon="4.74748">
        <ele>194</ele>
        <time>2017-06-18T09:51:25Z</time>
      </trkpt>
      <trkpt lat="45.95126" lon="4.74742">
        <ele>194</ele>
        <time>2017-06-18T09:51:26Z</time>
      </trkpt>
      <trkpt lat="45.95123" lon="4.74737">
        <ele>194</ele>
        <time>2017-06-18T09:51:27Z</time>
      </trkpt>
      <trkpt lat="45.95119" lon="4.7473">
        <ele>194</ele>
        <time>2017-06-18T09:51:28Z</time>
      </trkpt>
      <trkpt lat="45.95115" lon="4.74725">
        <ele>194</ele>
        <time>2017-06-18T09:51:29Z</time>
      </trkpt>
      <trkpt lat="45.95112" lon="4.74719">
        <ele>194</ele>
        <time>2017-06-18T09:51:30Z</time>
      </trkpt>
      <trkpt lat="45.95109" lon="4.74713">
        <ele>194</ele>
        <time>2017-06-18T09:51:31Z</time>
      </trkpt>
      <trkpt lat="45.95105" lon="4.74708">
        <ele>194</ele>
        <time>2017-06-18T09:51:32Z</time>
      </trkpt>
      <trkpt lat="45.95101" lon="4.74703">
        <ele>194</ele>
        <time>2017-06-18T09:51:33Z</time>
      </trkpt>
      <trkpt lat="45.95098" lon="4.74697">
        <ele>194</ele>
        <time>2017-06-18T09:51:34Z</time>
      </trkpt>
      <trkpt lat="45.95094" lon="4.74693">
        <ele>194</ele>
        <time>2017-06-18T09:51:35Z</time>
      </trkpt>
      <trkpt lat="45.9509" lon="4.74688">
        <ele>195</ele>
        <time>2017-06-18T09:51:36Z</time>
      </trkpt>
      <trkpt lat="45.95087" lon="4.74683">
        <ele>195</ele>
        <time>2017-06-18T09:51:37Z</time>
      </trkpt>
      <trkpt lat="45.95084" lon="4.74677">
        <ele>195</ele>
        <time>2017-06-18T09:51:38Z</time>
      </trkpt>
      <trkpt lat="45.9508" lon="4.74672">
        <ele>195</ele>
        <time>2017-06-18T09:51:39Z</time>
      </trkpt>
      <trkpt lat="45.95076" lon="4.74666">
        <ele>195</ele>
        <time>2017-06-18T09:51:40Z</time>
      </trkpt>
      <trkpt lat="45.95073" lon="4.74661">
        <ele>195</ele>
        <time>2017-06-18T09:51:41Z</time>
      </trkpt>
      <trkpt lat="45.95069" lon="4.74655">
        <ele>195</ele>
        <time>2017-06-18T09:51:42Z</time>
      </trkpt>
      <trkpt lat="45.95065" lon="4.74649">
        <ele>195</ele>
        <time>2017-06-18T09:51:43Z</time>
      </trkpt>
      <trkpt lat="45.95062" lon="4.74643">
        <ele>194</ele>
        <time>2017-06-18T09:51:44Z</time>
      </trkpt>
      <trkpt lat="45.95058" lon="4.74636">
        <ele>194</ele>
        <time>2017-06-18T09:51:45Z</time>
      </trkpt>
      <trkpt lat="45.95054" lon="4.7463">
        <ele>194</ele>
        <time>2017-06-18T09:51:46Z</time>
      </trkpt>
      <trkpt lat="45.9505" lon="4.74623">
        <ele>194</ele>
        <time>2017-06-18T09:51:47Z</time>
      </trkpt>
      <trkpt lat="45.95046" lon="4.74616">
        <ele>194</ele>
        <time>2017-06-18T09:51:48Z</time>
      </trkpt>
      <trkpt lat="45.95042" lon="4.74609">
        <ele>194</ele>
        <time>2017-06-18T09:51:49Z</time>
      </trkpt>
      <trkpt lat="45.95038" lon="4.74603">
        <ele>194</ele>
        <time>2017-06-18T09:51:50Z</time>
      </trkpt>
      <trkpt lat="45.95034" lon="4.74596">
        <ele>194</ele>
        <time>2017-06-18T09:51:51Z</time>
      </trkpt>
      <trkpt lat="45.95031" lon="4.74589">
        <ele>194</ele>
        <time>2017-06-18T09:51:52Z</time>
      </trkpt>
      <trkpt lat="45.95027" lon="4.74582">
        <ele>194</ele>
        <time>2017-06-18T09:51:53Z</time>
      </trkpt>
      <trkpt lat="45.95023" lon="4.74575">
        <ele>194</ele>
        <time>2017-06-18T09:51:54Z</time>
      </trkpt>
      <trkpt lat="45.95019" lon="4.74568">
        <ele>194</ele>
        <time>2017-06-18T09:51:55Z</time>
      </trkpt>
      <trkpt lat="45.95016" lon="4.74562">
        <ele>194</ele>
        <time>2017-06-18T09:51:56Z</time>
      </trkpt>
      <trkpt lat="45.95012" lon="4.74555">
        <ele>194</ele>
        <time>2017-06-18T09:51:57Z</time>
      </trkpt>
      <trkpt lat="45.95009" lon="4.74548">
        <ele>194</ele>
        <time>2017-06-18T09:51:58Z</time>
      </trkpt>
      <trkpt lat="45.95007" lon="4.74541">
        <ele>194</ele>
        <time>2017-06-18T09:51:59Z</time>
      </trkpt>
      <trkpt lat="45.95004" lon="4.74535">
        <ele>194</ele>
        <time>2017-06-18T09:52:00Z</time>
      </trkpt>
      <trkpt lat="45.94999" lon="4.74528">
        <ele>193</ele>
        <time>2017-06-18T09:52:01Z</time>
      </trkpt>
      <trkpt lat="45.94995" lon="4.74521">
        <ele>193</ele>
        <time>2017-06-18T09:52:02Z</time>
      </trkpt>
      <trkpt lat="45.94991" lon="4.74514">
        <ele>193</ele>
        <time>2017-06-18T09:52:03Z</time>
      </trkpt>
      <trkpt lat="45.94987" lon="4.74507">
        <ele>193</ele>
        <time>2017-06-18T09:52:04Z</time>
      </trkpt>
      <trkpt lat="45.94984" lon="4.74501">
        <ele>193</ele>
        <time>2017-06-18T09:52:05Z</time>
      </trkpt>
      <trkpt lat="45.94981" lon="4.74494">
        <ele>193</ele>
        <time>2017-06-18T09:52:06Z</time>
      </trkpt>
      <trkpt lat="45.94977" lon="4.74486">
        <ele>193</ele>
        <time>2017-06-18T09:52:07Z</time>
      </trkpt>
      <trkpt lat="45.94973" lon="4.74478">
        <ele>193</ele>
        <time>2017-06-18T09:52:08Z</time>
      </trkpt>
      <trkpt lat="45.94969" lon="4.7447">
        <ele>193</ele>
        <time>2017-06-18T09:52:09Z</time>
      </trkpt>
      <trkpt lat="45.94965" lon="4.74462">
        <ele>193</ele>
        <time>2017-06-18T09:52:10Z</time>
      </trkpt>
      <trkpt lat="45.9496" lon="4.74454">
        <ele>192</ele>
        <time>2017-06-18T09:52:11Z</time>
      </trkpt>
      <trkpt lat="45.94956" lon="4.74447">
        <ele>192</ele>
        <time>2017-06-18T09:52:12Z</time>
      </trkpt>
      <trkpt lat="45.94952" lon="4.74439">
        <ele>192</ele>
        <time>2017-06-18T09:52:13Z</time>
      </trkpt>
      <trkpt lat="45.94948" lon="4.74431">
        <ele>192</ele>
        <time>2017-06-18T09:52:14Z</time>
      </trkpt>
      <trkpt lat="45.94944" lon="4.74423">
        <ele>192</ele>
        <time>2017-06-18T09:52:15Z</time>
      </trkpt>
      <trkpt lat="45.9494" lon="4.74416">
        <ele>192</ele>
        <time>2017-06-18T09:52:16Z</time>
      </trkpt>
      <trkpt lat="45.94936" lon="4.74408">
        <ele>192</ele>
        <time>2017-06-18T09:52:17Z</time>
      </trkpt>
      <trkpt lat="45.94933" lon="4.744">
        <ele>192</ele>
        <time>2017-06-18T09:52:18Z</time>
      </trkpt>
      <trkpt lat="45.94929" lon="4.74393">
        <ele>192</ele>
        <time>2017-06-18T09:52:19Z</time>
      </trkpt>
      <trkpt lat="45.94925" lon="4.74385">
        <ele>192</ele>
        <time>2017-06-18T09:52:20Z</time>
      </trkpt>
      <trkpt lat="45.94921" lon="4.74377">
        <ele>192</ele>
        <time>2017-06-18T09:52:21Z</time>
      </trkpt>
      <trkpt lat="45.94918" lon="4.74369">
        <ele>192</ele>
        <time>2017-06-18T09:52:22Z</time>
      </trkpt>
      <trkpt lat="45.94914" lon="4.74362">
        <ele>191</ele>
        <time>2017-06-18T09:52:23Z</time>
      </trkpt>
      <trkpt lat="45.9491" lon="4.74354">
        <ele>191</ele>
        <time>2017-06-18T09:52:24Z</time>
      </trkpt>
      <trkpt lat="45.94906" lon="4.74347">
        <ele>191</ele>
        <time>2017-06-18T09:52:25Z</time>
      </trkpt>
      <trkpt lat="45.94902" lon="4.7434">
        <ele>191</ele>
        <time>2017-06-18T09:52:26Z</time>
      </trkpt>
      <trkpt lat="45.94898" lon="4.74333">
        <ele>191</ele>
        <time>2017-06-18T09:52:27Z</time>
      </trkpt>
      <trkpt lat="45.94894" lon="4.74325">
        <ele>191</ele>
        <time>2017-06-18T09:52:28Z</time>
      </trkpt>
      <trkpt lat="45.94891" lon="4.74318">
        <ele>191</ele>
        <time>2017-06-18T09:52:29Z</time>
      </trkpt>
      <trkpt lat="45.94887" lon="4.74311">
        <ele>191</ele>
        <time>2017-06-18T09:52:30Z</time>
      </trkpt>
      <trkpt lat="45.94883" lon="4.74303">
        <ele>191</ele>
        <time>2017-06-18T09:52:31Z</time>
      </trkpt>
      <trkpt lat="45.94879" lon="4.74295">
        <ele>191</ele>
        <time>2017-06-18T09:52:32Z</time>
      </trkpt>
      <trkpt lat="45.94875" lon="4.74288">
        <ele>191</ele>
        <time>2017-06-18T09:52:33Z</time>
      </trkpt>
      <trkpt lat="45.94871" lon="4.74281">
        <ele>191</ele>
        <time>2017-06-18T09:52:34Z</time>
      </trkpt>
      <trkpt lat="45.94867" lon="4.74273">
        <ele>191</ele>
        <time>2017-06-18T09:52:35Z</time>
      </trkpt>
      <trkpt lat="45.94863" lon="4.74266">
        <ele>190</ele>
        <time>2017-06-18T09:52:36Z</time>
      </trkpt>
      <trkpt lat="45.94859" lon="4.74258">
        <ele>190</ele>
        <time>2017-06-18T09:52:37Z</time>
      </trkpt>
      <trkpt lat="45.94855" lon="4.7425">
        <ele>190</ele>
        <time>2017-06-18T09:52:38Z</time>
      </trkpt>
      <trkpt lat="45.94851" lon="4.74241">
        <ele>190</ele>
        <time>2017-06-18T09:52:39Z</time>
      </trkpt>
      <trkpt lat="45.94846" lon="4.74232">
        <ele>190</ele>
        <time>2017-06-18T09:52:40Z</time>
      </trkpt>
      <trkpt lat="45.94841" lon="4.74223">
        <ele>190</ele>
        <time>2017-06-18T09:52:41Z</time>
      </trkpt>
      <trkpt lat="45.94836" lon="4.74215">
        <ele>190</ele>
        <time>2017-06-18T09:52:42Z</time>
      </trkpt>
      <trkpt lat="45.94832" lon="4.74207">
        <ele>189</ele>
        <time>2017-06-18T09:52:43Z</time>
      </trkpt>
      <trkpt lat="45.94827" lon="4.74199">
        <ele>189</ele>
        <time>2017-06-18T09:52:44Z</time>
      </trkpt>
      <trkpt lat="45.94823" lon="4.74191">
        <ele>189</ele>
        <time>2017-06-18T09:52:45Z</time>
      </trkpt>
      <trkpt lat="45.94818" lon="4.74184">
        <ele>189</ele>
        <time>2017-06-18T09:52:46Z</time>
      </trkpt>
      <trkpt lat="45.94814" lon="4.74177">
        <ele>189</ele>
        <time>2017-06-18T09:52:47Z</time>
      </trkpt>
      <trkpt lat="45.9481" lon="4.74169">
        <ele>189</ele>
        <time>2017-06-18T09:52:48Z</time>
      </trkpt>
      <trkpt lat="45.94806" lon="4.74162">
        <ele>189</ele>
        <time>2017-06-18T09:52:49Z</time>
      </trkpt>
      <trkpt lat="45.94802" lon="4.74155">
        <ele>189</ele>
        <time>2017-06-18T09:52:50Z</time>
      </trkpt>
      <trkpt lat="45.94797" lon="4.74148">
        <ele>189</ele>
        <time>2017-06-18T09:52:51Z</time>
      </trkpt>
      <trkpt lat="45.94794" lon="4.74141">
        <ele>189</ele>
        <time>2017-06-18T09:52:52Z</time>
      </trkpt>
      <trkpt lat="45.9479" lon="4.74135">
        <ele>189</ele>
        <time>2017-06-18T09:52:53Z</time>
      </trkpt>
      <trkpt lat="45.94786" lon="4.74129">
        <ele>189</ele>
        <time>2017-06-18T09:52:54Z</time>
      </trkpt>
      <trkpt lat="45.94782" lon="4.74123">
        <ele>189</ele>
        <time>2017-06-18T09:52:55Z</time>
      </trkpt>
      <trkpt lat="45.94778" lon="4.74117">
        <ele>189</ele>
        <time>2017-06-18T09:52:56Z</time>
      </trkpt>
      <trkpt lat="45.94774" lon="4.7411">
        <ele>189</ele>
        <time>2017-06-18T09:52:57Z</time>
      </trkpt>
      <trkpt lat="45.94769" lon="4.74104">
        <ele>189</ele>
        <time>2017-06-18T09:52:58Z</time>
      </trkpt>
      <trkpt lat="45.94765" lon="4.74098">
        <ele>189</ele>
        <time>2017-06-18T09:52:59Z</time>
      </trkpt>
      <trkpt lat="45.9476" lon="4.74092">
        <ele>189</ele>
        <time>2017-06-18T09:53:00Z</time>
      </trkpt>
      <trkpt lat="45.94755" lon="4.74085">
        <ele>189</ele>
        <time>2017-06-18T09:53:01Z</time>
      </trkpt>
      <trkpt lat="45.94751" lon="4.7408">
        <ele>189</ele>
        <time>2017-06-18T09:53:02Z</time>
      </trkpt>
      <trkpt lat="45.94746" lon="4.74074">
        <ele>188</ele>
        <time>2017-06-18T09:53:03Z</time>
      </trkpt>
      <trkpt lat="45.94742" lon="4.74069">
        <ele>188</ele>
        <time>2017-06-18T09:53:04Z</time>
      </trkpt>
      <trkpt lat="45.94737" lon="4.74063">
        <ele>188</ele>
        <time>2017-06-18T09:53:05Z</time>
      </trkpt>
      <trkpt lat="45.94733" lon="4.74057">
        <ele>188</ele>
        <time>2017-06-18T09:53:06Z</time>
      </trkpt>
      <trkpt lat="45.94728" lon="4.74051">
        <ele>188</ele>
        <time>2017-06-18T09:53:07Z</time>
      </trkpt>
      <trkpt lat="45.94724" lon="4.74045">
        <ele>187</ele>
        <time>2017-06-18T09:53:08Z</time>
      </trkpt>
      <trkpt lat="45.94719" lon="4.7404">
        <ele>187</ele>
        <time>2017-06-18T09:53:09Z</time>
      </trkpt>
      <trkpt lat="45.94715" lon="4.74034">
        <ele>187</ele>
        <time>2017-06-18T09:53:10Z</time>
      </trkpt>
      <trkpt lat="45.94711" lon="4.74028">
        <ele>187</ele>
        <time>2017-06-18T09:53:11Z</time>
      </trkpt>
      <trkpt lat="45.94707" lon="4.74022">
        <ele>187</ele>
        <time>2017-06-18T09:53:12Z</time>
      </trkpt>
      <trkpt lat="45.94703" lon="4.74016">
        <ele>187</ele>
        <time>2017-06-18T09:53:13Z</time>
      </trkpt>
      <trkpt lat="45.94699" lon="4.7401">
        <ele>187</ele>
        <time>2017-06-18T09:53:14Z</time>
      </trkpt>
      <trkpt lat="45.94696" lon="4.74005">
        <ele>187</ele>
        <time>2017-06-18T09:53:15Z</time>
      </trkpt>
      <trkpt lat="45.94692" lon="4.74">
        <ele>187</ele>
        <time>2017-06-18T09:53:16Z</time>
      </trkpt>
      <trkpt lat="45.94688" lon="4.73994">
        <ele>187</ele>
        <time>2017-06-18T09:53:17Z</time>
      </trkpt>
      <trkpt lat="45.94683" lon="4.73989">
        <ele>187</ele>
        <time>2017-06-18T09:53:18Z</time>
      </trkpt>
      <trkpt lat="45.94679" lon="4.73983">
        <ele>187</ele>
        <time>2017-06-18T09:53:19Z</time>
      </trkpt>
      <trkpt lat="45.94674" lon="4.73976">
        <ele>187</ele>
        <time>2017-06-18T09:53:20Z</time>
      </trkpt>
      <trkpt lat="45.94669" lon="4.7397">
        <ele>187</ele>
        <time>2017-06-18T09:53:21Z</time>
      </trkpt>
      <trkpt lat="45.94663" lon="4.73964">
        <ele>187</ele>
        <time>2017-06-18T09:53:22Z</time>
      </trkpt>
      <trkpt lat="45.94658" lon="4.73957">
        <ele>187</ele>
        <time>2017-06-18T09:53:23Z</time>
      </trkpt>
      <trkpt lat="45.94653" lon="4.7395">
        <ele>187</ele>
        <time>2017-06-18T09:53:24Z</time>
      </trkpt>
      <trkpt lat="45.94647" lon="4.73943">
        <ele>187</ele>
        <time>2017-06-18T09:53:25Z</time>
      </trkpt>
      <trkpt lat="45.94642" lon="4.73937">
        <ele>187</ele>
        <time>2017-06-18T09:53:26Z</time>
      </trkpt>
      <trkpt lat="45.94637" lon="4.73931">
        <ele>187</ele>
        <time>2017-06-18T09:53:27Z</time>
      </trkpt>
      <trkpt lat="45.94632" lon="4.73924">
        <ele>187</ele>
        <time>2017-06-18T09:53:28Z</time>
      </trkpt>
      <trkpt lat="45.94627" lon="4.73917">
        <ele>187</ele>
        <time>2017-06-18T09:53:29Z</time>
      </trkpt>
      <trkpt lat="45.94622" lon="4.73911">
        <ele>187</ele>
        <time>2017-06-18T09:53:30Z</time>
      </trkpt>
      <trkpt lat="45.94617" lon="4.73905">
        <ele>187</ele>
        <time>2017-06-18T09:53:31Z</time>
      </trkpt>
      <trkpt lat="45.94611" lon="4.73899">
        <ele>187</ele>
        <time>2017-06-18T09:53:32Z</time>
      </trkpt>
      <trkpt lat="45.94606" lon="4.73893">
        <ele>187</ele>
        <time>2017-06-18T09:53:33Z</time>
      </trkpt>
      <trkpt lat="45.94601" lon="4.73887">
        <ele>187</ele>
        <time>2017-06-18T09:53:34Z</time>
      </trkpt>
      <trkpt lat="45.94596" lon="4.73882">
        <ele>187</ele>
        <time>2017-06-18T09:53:35Z</time>
      </trkpt>
      <trkpt lat="45.94591" lon="4.73876">
        <ele>187</ele>
        <time>2017-06-18T09:53:36Z</time>
      </trkpt>
      <trkpt lat="45.94586" lon="4.7387">
        <ele>187</ele>
        <time>2017-06-18T09:53:37Z</time>
      </trkpt>
      <trkpt lat="45.94581" lon="4.73864">
        <ele>186</ele>
        <time>2017-06-18T09:53:38Z</time>
      </trkpt>
      <trkpt lat="45.94576" lon="4.73858">
        <ele>186</ele>
        <time>2017-06-18T09:53:39Z</time>
      </trkpt>
      <trkpt lat="45.94571" lon="4.73853">
        <ele>186</ele>
        <time>2017-06-18T09:53:40Z</time>
      </trkpt>
      <trkpt lat="45.94566" lon="4.73847">
        <ele>186</ele>
        <time>2017-06-18T09:53:41Z</time>
      </trkpt>
      <trkpt lat="45.9456" lon="4.73841">
        <ele>186</ele>
        <time>2017-06-18T09:53:42Z</time>
      </trkpt>
      <trkpt lat="45.94555" lon="4.73835">
        <ele>186</ele>
        <time>2017-06-18T09:53:43Z</time>
      </trkpt>
      <trkpt lat="45.9455" lon="4.7383">
        <ele>186</ele>
        <time>2017-06-18T09:53:44Z</time>
      </trkpt>
      <trkpt lat="45.94545" lon="4.73824">
        <ele>186</ele>
        <time>2017-06-18T09:53:45Z</time>
      </trkpt>
      <trkpt lat="45.94539" lon="4.73819">
        <ele>186</ele>
        <time>2017-06-18T09:53:46Z</time>
      </trkpt>
      <trkpt lat="45.94534" lon="4.73814">
        <ele>186</ele>
        <time>2017-06-18T09:53:47Z</time>
      </trkpt>
      <trkpt lat="45.94529" lon="4.73808">
        <ele>186</ele>
        <time>2017-06-18T09:53:48Z</time>
      </trkpt>
      <trkpt lat="45.94524" lon="4.73803">
        <ele>186</ele>
        <time>2017-06-18T09:53:49Z</time>
      </trkpt>
      <trkpt lat="45.94518" lon="4.73798">
        <ele>186</ele>
        <time>2017-06-18T09:53:50Z</time>
      </trkpt>
      <trkpt lat="45.94513" lon="4.73792">
        <ele>186</ele>
        <time>2017-06-18T09:53:51Z</time>
      </trkpt>
      <trkpt lat="45.94508" lon="4.73786">
        <ele>186</ele>
        <time>2017-06-18T09:53:52Z</time>
      </trkpt>
      <trkpt lat="45.94504" lon="4.73781">
        <ele>186</ele>
        <time>2017-06-18T09:53:53Z</time>
      </trkpt>
      <trkpt lat="45.94499" lon="4.73775">
        <ele>186</ele>
        <time>2017-06-18T09:53:54Z</time>
      </trkpt>
      <trkpt lat="45.94495" lon="4.73769">
        <ele>186</ele>
        <time>2017-06-18T09:53:55Z</time>
      </trkpt>
      <trkpt lat="45.94492" lon="4.73763">
        <ele>186</ele>
        <time>2017-06-18T09:53:56Z</time>
      </trkpt>
      <trkpt lat="45.94489" lon="4.73756">
        <ele>186</ele>
        <time>2017-06-18T09:53:57Z</time>
      </trkpt>
      <trkpt lat="45.94487" lon="4.73748">
        <ele>186</ele>
        <time>2017-06-18T09:53:58Z</time>
      </trkpt>
      <trkpt lat="45.94487" lon="4.7374">
        <ele>186</ele>
        <time>2017-06-18T09:53:59Z</time>
      </trkpt>
      <trkpt lat="45.94488" lon="4.73732">
        <ele>186</ele>
        <time>2017-06-18T09:54:00Z</time>
      </trkpt>
      <trkpt lat="45.94489" lon="4.73724">
        <ele>186</ele>
        <time>2017-06-18T09:54:01Z</time>
      </trkpt>
      <trkpt lat="45.9449" lon="4.73716">
        <ele>186</ele>
        <time>2017-06-18T09:54:02Z</time>
      </trkpt>
      <trkpt lat="45.94491" lon="4.73708">
        <ele>186</ele>
        <time>2017-06-18T09:54:03Z</time>
      </trkpt>
      <trkpt lat="45.94492" lon="4.737">
        <ele>186</ele>
        <time>2017-06-18T09:54:04Z</time>
      </trkpt>
      <trkpt lat="45.94494" lon="4.73692">
        <ele>186</ele>
        <time>2017-06-18T09:54:05Z</time>
      </trkpt>
      <trkpt lat="45.94495" lon="4.73685">
        <ele>186</ele>
        <time>2017-06-18T09:54:06Z</time>
      </trkpt>
      <trkpt lat="45.94496" lon="4.73677">
        <ele>185</ele>
        <time>2017-06-18T09:54:07Z</time>
      </trkpt>
      <trkpt lat="45.94497" lon="4.73668">
        <ele>185</ele>
        <time>2017-06-18T09:54:08Z</time>
      </trkpt>
      <trkpt lat="45.94497" lon="4.7366">
        <ele>185</ele>
        <time>2017-06-18T09:54:09Z</time>
      </trkpt>
      <trkpt lat="45.94498" lon="4.73653">
        <ele>185</ele>
        <time>2017-06-18T09:54:10Z</time>
      </trkpt>
      <trkpt lat="45.94499" lon="4.73645">
        <ele>186</ele>
        <time>2017-06-18T09:54:11Z</time>
      </trkpt>
      <trkpt lat="45.945" lon="4.73637">
        <ele>186</ele>
        <time>2017-06-18T09:54:12Z</time>
      </trkpt>
      <trkpt lat="45.945" lon="4.7363">
        <ele>184</ele>
        <time>2017-06-18T09:54:13Z</time>
      </trkpt>
      <trkpt lat="45.94501" lon="4.73623">
        <ele>184</ele>
        <time>2017-06-18T09:54:14Z</time>
      </trkpt>
      <trkpt lat="45.94502" lon="4.73616">
        <ele>184</ele>
        <time>2017-06-18T09:54:15Z</time>
      </trkpt>
      <trkpt lat="45.94502" lon="4.73608">
        <ele>184</ele>
        <time>2017-06-18T09:54:16Z</time>
      </trkpt>
      <trkpt lat="45.94503" lon="4.736">
        <ele>184</ele>
        <time>2017-06-18T09:54:17Z</time>
      </trkpt>
      <trkpt lat="45.94503" lon="4.73593">
        <ele>185</ele>
        <time>2017-06-18T09:54:18Z</time>
      </trkpt>
      <trkpt lat="45.94504" lon="4.73586">
        <ele>185</ele>
        <time>2017-06-18T09:54:19Z</time>
      </trkpt>
      <trkpt lat="45.94504" lon="4.73578">
        <ele>184</ele>
        <time>2017-06-18T09:54:20Z</time>
      </trkpt>
      <trkpt lat="45.94504" lon="4.7357">
        <ele>184</ele>
        <time>2017-06-18T09:54:21Z</time>
      </trkpt>
      <trkpt lat="45.94505" lon="4.73561">
        <ele>184</ele>
        <time>2017-06-18T09:54:22Z</time>
      </trkpt>
      <trkpt lat="45.94506" lon="4.73553">
        <ele>183</ele>
        <time>2017-06-18T09:54:23Z</time>
      </trkpt>
      <trkpt lat="45.94507" lon="4.73545">
        <ele>183</ele>
        <time>2017-06-18T09:54:24Z</time>
      </trkpt>
      <trkpt lat="45.94507" lon="4.73537">
        <ele>183</ele>
        <time>2017-06-18T09:54:25Z</time>
      </trkpt>
      <trkpt lat="45.94508" lon="4.73528">
        <ele>183</ele>
        <time>2017-06-18T09:54:26Z</time>
      </trkpt>
      <trkpt lat="45.94508" lon="4.73519">
        <ele>183</ele>
        <time>2017-06-18T09:54:27Z</time>
      </trkpt>
      <trkpt lat="45.94508" lon="4.7351">
        <ele>183</ele>
        <time>2017-06-18T09:54:28Z</time>
      </trkpt>
      <trkpt lat="45.94509" lon="4.73499">
        <ele>182</ele>
        <time>2017-06-18T09:54:29Z</time>
      </trkpt>
      <trkpt lat="45.94509" lon="4.73489">
        <ele>182</ele>
        <time>2017-06-18T09:54:30Z</time>
      </trkpt>
      <trkpt lat="45.9451" lon="4.73479">
        <ele>182</ele>
        <time>2017-06-18T09:54:31Z</time>
      </trkpt>
      <trkpt lat="45.9451" lon="4.73469">
        <ele>181</ele>
        <time>2017-06-18T09:54:32Z</time>
      </trkpt>
      <trkpt lat="45.9451" lon="4.7346">
        <ele>181</ele>
        <time>2017-06-18T09:54:33Z</time>
      </trkpt>
      <trkpt lat="45.9451" lon="4.73449">
        <ele>181</ele>
        <time>2017-06-18T09:54:34Z</time>
      </trkpt>
      <trkpt lat="45.94508" lon="4.73438">
        <ele>181</ele>
        <time>2017-06-18T09:54:35Z</time>
      </trkpt>
      <trkpt lat="45.94508" lon="4.73426">
        <ele>180</ele>
        <time>2017-06-18T09:54:36Z</time>
      </trkpt>
      <trkpt lat="45.94507" lon="4.73415">
        <ele>180</ele>
        <time>2017-06-18T09:54:37Z</time>
      </trkpt>
      <trkpt lat="45.94507" lon="4.73404">
        <ele>179</ele>
        <time>2017-06-18T09:54:38Z</time>
      </trkpt>
      <trkpt lat="45.94506" lon="4.73392">
        <ele>179</ele>
        <time>2017-06-18T09:54:39Z</time>
      </trkpt>
      <trkpt lat="45.94505" lon="4.7338">
        <ele>178</ele>
        <time>2017-06-18T09:54:40Z</time>
      </trkpt>
      <trkpt lat="45.94503" lon="4.73369">
        <ele>178</ele>
        <time>2017-06-18T09:54:41Z</time>
      </trkpt>
      <trkpt lat="45.94502" lon="4.73357">
        <ele>178</ele>
        <time>2017-06-18T09:54:42Z</time>
      </trkpt>
      <trkpt lat="45.945" lon="4.73346">
        <ele>178</ele>
        <time>2017-06-18T09:54:43Z</time>
      </trkpt>
      <trkpt lat="45.94499" lon="4.73335">
        <ele>177</ele>
        <time>2017-06-18T09:54:44Z</time>
      </trkpt>
      <trkpt lat="45.94497" lon="4.73323">
        <ele>177</ele>
        <time>2017-06-18T09:54:45Z</time>
      </trkpt>
      <trkpt lat="45.94496" lon="4.73311">
        <ele>177</ele>
        <time>2017-06-18T09:54:46Z</time>
      </trkpt>
      <trkpt lat="45.94495" lon="4.733">
        <ele>177</ele>
        <time>2017-06-18T09:54:47Z</time>
      </trkpt>
      <trkpt lat="45.94493" lon="4.73288">
        <ele>177</ele>
        <time>2017-06-18T09:54:48Z</time>
      </trkpt>
      <trkpt lat="45.94491" lon="4.73276">
        <ele>177</ele>
        <time>2017-06-18T09:54:49Z</time>
      </trkpt>
      <trkpt lat="45.94489" lon="4.73265">
        <ele>176</ele>
        <time>2017-06-18T09:54:50Z</time>
      </trkpt>
      <trkpt lat="45.94487" lon="4.73254">
        <ele>176</ele>
        <time>2017-06-18T09:54:51Z</time>
      </trkpt>
      <trkpt lat="45.94486" lon="4.73243">
        <ele>175</ele>
        <time>2017-06-18T09:54:52Z</time>
      </trkpt>
      <trkpt lat="45.94485" lon="4.73231">
        <ele>175</ele>
        <time>2017-06-18T09:54:53Z</time>
      </trkpt>
      <trkpt lat="45.94484" lon="4.73219">
        <ele>175</ele>
        <time>2017-06-18T09:54:54Z</time>
      </trkpt>
      <trkpt lat="45.94482" lon="4.73208">
        <ele>175</ele>
        <time>2017-06-18T09:54:55Z</time>
      </trkpt>
      <trkpt lat="45.9448" lon="4.73196">
        <ele>174</ele>
        <time>2017-06-18T09:54:56Z</time>
      </trkpt>
      <trkpt lat="45.94478" lon="4.73183">
        <ele>174</ele>
        <time>2017-06-18T09:54:57Z</time>
      </trkpt>
      <trkpt lat="45.94477" lon="4.73172">
        <ele>174</ele>
        <time>2017-06-18T09:54:58Z</time>
      </trkpt>
      <trkpt lat="45.94475" lon="4.7316">
        <ele>173</ele>
        <time>2017-06-18T09:54:59Z</time>
      </trkpt>
      <trkpt lat="45.94474" lon="4.73149">
        <ele>172</ele>
        <time>2017-06-18T09:55:00Z</time>
      </trkpt>
      <trkpt lat="45.94473" lon="4.73138">
        <ele>172</ele>
        <time>2017-06-18T09:55:01Z</time>
      </trkpt>
      <trkpt lat="45.94472" lon="4.73127">
        <ele>172</ele>
        <time>2017-06-18T09:55:02Z</time>
      </trkpt>
      <trkpt lat="45.9447" lon="4.73117">
        <ele>172</ele>
        <time>2017-06-18T09:55:03Z</time>
      </trkpt>
      <trkpt lat="45.94469" lon="4.73107">
        <ele>172</ele>
        <time>2017-06-18T09:55:04Z</time>
      </trkpt>
      <trkpt lat="45.94467" lon="4.73096">
        <ele>172</ele>
        <time>2017-06-18T09:55:05Z</time>
      </trkpt>
      <trkpt lat="45.94466" lon="4.73086">
        <ele>171</ele>
        <time>2017-06-18T09:55:06Z</time>
      </trkpt>
      <trkpt lat="45.94464" lon="4.73077">
        <ele>170</ele>
        <time>2017-06-18T09:55:07Z</time>
      </trkpt>
      <trkpt lat="45.94462" lon="4.73067">
        <ele>170</ele>
        <time>2017-06-18T09:55:08Z</time>
      </trkpt>
      <trkpt lat="45.94461" lon="4.73058">
        <ele>170</ele>
        <time>2017-06-18T09:55:09Z</time>
      </trkpt>
      <trkpt lat="45.9446" lon="4.7305">
        <ele>170</ele>
        <time>2017-06-18T09:55:10Z</time>
      </trkpt>
      <trkpt lat="45.94458" lon="4.73042">
        <ele>169</ele>
        <time>2017-06-18T09:55:11Z</time>
      </trkpt>
      <trkpt lat="45.94457" lon="4.73033">
        <ele>169</ele>
        <time>2017-06-18T09:55:12Z</time>
      </trkpt>
      <trkpt lat="45.94456" lon="4.73024">
        <ele>169</ele>
        <time>2017-06-18T09:55:13Z</time>
      </trkpt>
      <trkpt lat="45.94454" lon="4.73016">
        <ele>169</ele>
        <time>2017-06-18T09:55:14Z</time>
      </trkpt>
      <trkpt lat="45.94453" lon="4.73007">
        <ele>169</ele>
        <time>2017-06-18T09:55:15Z</time>
      </trkpt>
      <trkpt lat="45.94452" lon="4.72999">
        <ele>167</ele>
        <time>2017-06-18T09:55:16Z</time>
      </trkpt>
      <trkpt lat="45.94451" lon="4.7299">
        <ele>167</ele>
        <time>2017-06-18T09:55:17Z</time>
      </trkpt>
      <trkpt lat="45.9445" lon="4.72982">
        <ele>167</ele>
        <time>2017-06-18T09:55:18Z</time>
      </trkpt>
      <trkpt lat="45.94449" lon="4.72973">
        <ele>167</ele>
        <time>2017-06-18T09:55:19Z</time>
      </trkpt>
      <trkpt lat="45.94448" lon="4.72965">
        <ele>167</ele>
        <time>2017-06-18T09:55:20Z</time>
      </trkpt>
      <trkpt lat="45.94447" lon="4.72956">
        <ele>167</ele>
        <time>2017-06-18T09:55:21Z</time>
      </trkpt>
      <trkpt lat="45.94445" lon="4.72948">
        <ele>167</ele>
        <time>2017-06-18T09:55:22Z</time>
      </trkpt>
      <trkpt lat="45.94444" lon="4.72939">
        <ele>167</ele>
        <time>2017-06-18T09:55:23Z</time>
      </trkpt>
      <trkpt lat="45.94442" lon="4.7293">
        <ele>167</ele>
        <time>2017-06-18T09:55:24Z</time>
      </trkpt>
      <trkpt lat="45.94441" lon="4.72922">
        <ele>167</ele>
        <time>2017-06-18T09:55:25Z</time>
      </trkpt>
      <trkpt lat="45.9444" lon="4.72913">
        <ele>166</ele>
        <time>2017-06-18T09:55:26Z</time>
      </trkpt>
      <trkpt lat="45.94439" lon="4.72905">
        <ele>166</ele>
        <time>2017-06-18T09:55:27Z</time>
      </trkpt>
      <trkpt lat="45.94438" lon="4.72897">
        <ele>166</ele>
        <time>2017-06-18T09:55:28Z</time>
      </trkpt>
      <trkpt lat="45.94437" lon="4.72889">
        <ele>166</ele>
        <time>2017-06-18T09:55:29Z</time>
      </trkpt>
      <trkpt lat="45.94436" lon="4.72881">
        <ele>166</ele>
        <time>2017-06-18T09:55:30Z</time>
      </trkpt>
      <trkpt lat="45.94435" lon="4.72873">
        <ele>166</ele>
        <time>2017-06-18T09:55:31Z</time>
      </trkpt>
      <trkpt lat="45.94434" lon="4.72865">
        <ele>166</ele>
        <time>2017-06-18T09:55:32Z</time>
      </trkpt>
      <trkpt lat="45.94433" lon="4.72856">
        <ele>166</ele>
        <time>2017-06-18T09:55:33Z</time>
      </trkpt>
      <trkpt lat="45.94432" lon="4.72848">
        <ele>166</ele>
        <time>2017-06-18T09:55:34Z</time>
      </trkpt>
      <trkpt lat="45.94431" lon="4.72839">
        <ele>166</ele>
        <time>2017-06-18T09:55:35Z</time>
      </trkpt>
      <trkpt lat="45.94431" lon="4.7283">
        <ele>167</ele>
        <time>2017-06-18T09:55:36Z</time>
      </trkpt>
      <trkpt lat="45.94429" lon="4.72822">
        <ele>167</ele>
        <time>2017-06-18T09:55:37Z</time>
      </trkpt>
      <trkpt lat="45.94428" lon="4.72812">
        <ele>167</ele>
        <time>2017-06-18T09:55:38Z</time>
      </trkpt>
      <trkpt lat="45.94427" lon="4.72803">
        <ele>167</ele>
        <time>2017-06-18T09:55:39Z</time>
      </trkpt>
      <trkpt lat="45.94426" lon="4.72793">
        <ele>168</ele>
        <time>2017-06-18T09:55:40Z</time>
      </trkpt>
      <trkpt lat="45.94424" lon="4.72783">
        <ele>168</ele>
        <time>2017-06-18T09:55:41Z</time>
      </trkpt>
      <trkpt lat="45.94423" lon="4.72773">
        <ele>169</ele>
        <time>2017-06-18T09:55:42Z</time>
      </trkpt>
      <trkpt lat="45.94422" lon="4.72763">
        <ele>169</ele>
        <time>2017-06-18T09:55:43Z</time>
      </trkpt>
      <trkpt lat="45.94421" lon="4.72752">
        <ele>170</ele>
        <time>2017-06-18T09:55:44Z</time>
      </trkpt>
      <trkpt lat="45.94419" lon="4.72742">
        <ele>171</ele>
        <time>2017-06-18T09:55:45Z</time>
      </trkpt>
      <trkpt lat="45.94418" lon="4.72731">
        <ele>171</ele>
        <time>2017-06-18T09:55:46Z</time>
      </trkpt>
      <trkpt lat="45.94416" lon="4.72721">
        <ele>172</ele>
        <time>2017-06-18T09:55:47Z</time>
      </trkpt>
      <trkpt lat="45.94415" lon="4.7271">
        <ele>172</ele>
        <time>2017-06-18T09:55:48Z</time>
      </trkpt>
      <trkpt lat="45.94414" lon="4.727">
        <ele>172</ele>
        <time>2017-06-18T09:55:49Z</time>
      </trkpt>
      <trkpt lat="45.94413" lon="4.7269">
        <ele>173</ele>
        <time>2017-06-18T09:55:50Z</time>
      </trkpt>
      <trkpt lat="45.94411" lon="4.7268">
        <ele>173</ele>
        <time>2017-06-18T09:55:51Z</time>
      </trkpt>
      <trkpt lat="45.9441" lon="4.7267">
        <ele>173</ele>
        <time>2017-06-18T09:55:52Z</time>
      </trkpt>
      <trkpt lat="45.94409" lon="4.7266">
        <ele>174</ele>
        <time>2017-06-18T09:55:53Z</time>
      </trkpt>
      <trkpt lat="45.94409" lon="4.72651">
        <ele>174</ele>
        <time>2017-06-18T09:55:54Z</time>
      </trkpt>
      <trkpt lat="45.94408" lon="4.72641">
        <ele>174</ele>
        <time>2017-06-18T09:55:55Z</time>
      </trkpt>
      <trkpt lat="45.94407" lon="4.72632">
        <ele>174</ele>
        <time>2017-06-18T09:55:56Z</time>
      </trkpt>
      <trkpt lat="45.94406" lon="4.72622">
        <ele>173</ele>
        <time>2017-06-18T09:55:57Z</time>
      </trkpt>
      <trkpt lat="45.94404" lon="4.72613">
        <ele>173</ele>
        <time>2017-06-18T09:55:58Z</time>
      </trkpt>
      <trkpt lat="45.94403" lon="4.72604">
        <ele>173</ele>
        <time>2017-06-18T09:55:59Z</time>
      </trkpt>
      <trkpt lat="45.94402" lon="4.72595">
        <ele>173</ele>
        <time>2017-06-18T09:56:00Z</time>
      </trkpt>
      <trkpt lat="45.944" lon="4.72586">
        <ele>173</ele>
        <time>2017-06-18T09:56:01Z</time>
      </trkpt>
      <trkpt lat="45.94398" lon="4.72577">
        <ele>173</ele>
        <time>2017-06-18T09:56:02Z</time>
      </trkpt>
      <trkpt lat="45.94396" lon="4.72569">
        <ele>173</ele>
        <time>2017-06-18T09:56:03Z</time>
      </trkpt>
      <trkpt lat="45.94395" lon="4.72561">
        <ele>173</ele>
        <time>2017-06-18T09:56:04Z</time>
      </trkpt>
      <trkpt lat="45.94393" lon="4.72553">
        <ele>173</ele>
        <time>2017-06-18T09:56:05Z</time>
      </trkpt>
      <trkpt lat="45.94391" lon="4.72545">
        <ele>173</ele>
        <time>2017-06-18T09:56:06Z</time>
      </trkpt>
      <trkpt lat="45.94389" lon="4.72537">
        <ele>174</ele>
        <time>2017-06-18T09:56:07Z</time>
      </trkpt>
      <trkpt lat="45.94387" lon="4.72531">
        <ele>174</ele>
        <time>2017-06-18T09:56:08Z</time>
      </trkpt>
      <trkpt lat="45.94386" lon="4.72524">
        <ele>174</ele>
        <time>2017-06-18T09:56:09Z</time>
      </trkpt>
      <trkpt lat="45.94384" lon="4.72517">
        <ele>174</ele>
        <time>2017-06-18T09:56:10Z</time>
      </trkpt>
      <trkpt lat="45.94382" lon="4.72511">
        <ele>174</ele>
        <time>2017-06-18T09:56:11Z</time>
      </trkpt>
      <trkpt lat="45.94381" lon="4.72504">
        <ele>174</ele>
        <time>2017-06-18T09:56:12Z</time>
      </trkpt>
      <trkpt lat="45.94379" lon="4.72498">
        <ele>173</ele>
        <time>2017-06-18T09:56:13Z</time>
      </trkpt>
      <trkpt lat="45.94378" lon="4.72491">
        <ele>173</ele>
        <time>2017-06-18T09:56:14Z</time>
      </trkpt>
      <trkpt lat="45.94375" lon="4.72485">
        <ele>173</ele>
        <time>2017-06-18T09:56:15Z</time>
      </trkpt>
      <trkpt lat="45.94372" lon="4.72479">
        <ele>173</ele>
        <time>2017-06-18T09:56:16Z</time>
      </trkpt>
      <trkpt lat="45.9437" lon="4.72473">
        <ele>173</ele>
        <time>2017-06-18T09:56:17Z</time>
      </trkpt>
      <trkpt lat="45.94368" lon="4.72467">
        <ele>173</ele>
        <time>2017-06-18T09:56:18Z</time>
      </trkpt>
      <trkpt lat="45.94366" lon="4.7246">
        <ele>173</ele>
        <time>2017-06-18T09:56:19Z</time>
      </trkpt>
      <trkpt lat="45.94363" lon="4.72454">
        <ele>173</ele>
        <time>2017-06-18T09:56:20Z</time>
      </trkpt>
      <trkpt lat="45.9436" lon="4.72447">
        <ele>173</ele>
        <time>2017-06-18T09:56:21Z</time>
      </trkpt>
      <trkpt lat="45.94357" lon="4.72441">
        <ele>173</ele>
        <time>2017-06-18T09:56:22Z</time>
      </trkpt>
      <trkpt lat="45.94353" lon="4.72434">
        <ele>173</ele>
        <time>2017-06-18T09:56:23Z</time>
      </trkpt>
      <trkpt lat="45.9435" lon="4.72427">
        <ele>173</ele>
        <time>2017-06-18T09:56:24Z</time>
      </trkpt>
      <trkpt lat="45.94347" lon="4.7242">
        <ele>173</ele>
        <time>2017-06-18T09:56:25Z</time>
      </trkpt>
      <trkpt lat="45.94343" lon="4.72413">
        <ele>173</ele>
        <time>2017-06-18T09:56:26Z</time>
      </trkpt>
      <trkpt lat="45.9434" lon="4.72407">
        <ele>173</ele>
        <time>2017-06-18T09:56:27Z</time>
      </trkpt>
      <trkpt lat="45.94338" lon="4.72401">
        <ele>173</ele>
        <time>2017-06-18T09:56:28Z</time>
      </trkpt>
      <trkpt lat="45.94335" lon="4.72395">
        <ele>172</ele>
        <time>2017-06-18T09:56:29Z</time>
      </trkpt>
      <trkpt lat="45.94332" lon="4.72389">
        <ele>172</ele>
        <time>2017-06-18T09:56:30Z</time>
      </trkpt>
      <trkpt lat="45.94329" lon="4.72383">
        <ele>172</ele>
        <time>2017-06-18T09:56:31Z</time>
      </trkpt>
      <trkpt lat="45.94327" lon="4.72377">
        <ele>172</ele>
        <time>2017-06-18T09:56:32Z</time>
      </trkpt>
      <trkpt lat="45.94324" lon="4.72371">
        <ele>172</ele>
        <time>2017-06-18T09:56:33Z</time>
      </trkpt>
      <trkpt lat="45.9432" lon="4.72365">
        <ele>172</ele>
        <time>2017-06-18T09:56:34Z</time>
      </trkpt>
      <trkpt lat="45.94318" lon="4.72358">
        <ele>172</ele>
        <time>2017-06-18T09:56:35Z</time>
      </trkpt>
      <trkpt lat="45.94314" lon="4.72352">
        <ele>172</ele>
        <time>2017-06-18T09:56:36Z</time>
      </trkpt>
      <trkpt lat="45.94311" lon="4.72346">
        <ele>172</ele>
        <time>2017-06-18T09:56:37Z</time>
      </trkpt>
      <trkpt lat="45.94308" lon="4.72339">
        <ele>172</ele>
        <time>2017-06-18T09:56:38Z</time>
      </trkpt>
      <trkpt lat="45.94305" lon="4.72331">
        <ele>171</ele>
        <time>2017-06-18T09:56:39Z</time>
      </trkpt>
      <trkpt lat="45.94302" lon="4.72324">
        <ele>171</ele>
        <time>2017-06-18T09:56:40Z</time>
      </trkpt>
      <trkpt lat="45.943" lon="4.72316">
        <ele>171</ele>
        <time>2017-06-18T09:56:41Z</time>
      </trkpt>
      <trkpt lat="45.94297" lon="4.72308">
        <ele>171</ele>
        <time>2017-06-18T09:56:42Z</time>
      </trkpt>
      <trkpt lat="45.94294" lon="4.72301">
        <ele>171</ele>
        <time>2017-06-18T09:56:43Z</time>
      </trkpt>
      <trkpt lat="45.94291" lon="4.72295">
        <ele>171</ele>
        <time>2017-06-18T09:56:44Z</time>
      </trkpt>
      <trkpt lat="45.94287" lon="4.72289">
        <ele>171</ele>
        <time>2017-06-18T09:56:45Z</time>
      </trkpt>
      <trkpt lat="45.94284" lon="4.72283">
        <ele>171</ele>
        <time>2017-06-18T09:56:46Z</time>
      </trkpt>
      <trkpt lat="45.94278" lon="4.72275">
        <ele>171</ele>
        <time>2017-06-18T09:56:48Z</time>
      </trkpt>
      <trkpt lat="45.94273" lon="4.72274">
        <ele>171</ele>
        <time>2017-06-18T09:56:49Z</time>
      </trkpt>
      <trkpt lat="45.94268" lon="4.72274">
        <ele>171</ele>
        <time>2017-06-18T09:56:50Z</time>
      </trkpt>
      <trkpt lat="45.94263" lon="4.72275">
        <ele>171</ele>
        <time>2017-06-18T09:56:51Z</time>
      </trkpt>
      <trkpt lat="45.94257" lon="4.72277">
        <ele>171</ele>
        <time>2017-06-18T09:56:52Z</time>
      </trkpt>
      <trkpt lat="45.94251" lon="4.72279">
        <ele>171</ele>
        <time>2017-06-18T09:56:53Z</time>
      </trkpt>
      <trkpt lat="45.94246" lon="4.7228">
        <ele>171</ele>
        <time>2017-06-18T09:56:54Z</time>
      </trkpt>
      <trkpt lat="45.94239" lon="4.72281">
        <ele>171</ele>
        <time>2017-06-18T09:56:55Z</time>
      </trkpt>
      <trkpt lat="45.94233" lon="4.72283">
        <ele>171</ele>
        <time>2017-06-18T09:56:56Z</time>
      </trkpt>
      <trkpt lat="45.94227" lon="4.72284">
        <ele>171</ele>
        <time>2017-06-18T09:56:57Z</time>
      </trkpt>
      <trkpt lat="45.94221" lon="4.72285">
        <ele>171</ele>
        <time>2017-06-18T09:56:58Z</time>
      </trkpt>
      <trkpt lat="45.94215" lon="4.72286">
        <ele>171</ele>
        <time>2017-06-18T09:56:59Z</time>
      </trkpt>
      <trkpt lat="45.94209" lon="4.72286">
        <ele>171</ele>
        <time>2017-06-18T09:57:00Z</time>
      </trkpt>
      <trkpt lat="45.94203" lon="4.72286">
        <ele>171</ele>
        <time>2017-06-18T09:57:01Z</time>
      </trkpt>
      <trkpt lat="45.94198" lon="4.72286">
        <ele>171</ele>
        <time>2017-06-18T09:57:02Z</time>
      </trkpt>
      <trkpt lat="45.94192" lon="4.72285">
        <ele>171</ele>
        <time>2017-06-18T09:57:03Z</time>
      </trkpt>
      <trkpt lat="45.94187" lon="4.72284">
        <ele>171</ele>
        <time>2017-06-18T09:57:04Z</time>
      </trkpt>
      <trkpt lat="45.94181" lon="4.72284">
        <ele>171</ele>
        <time>2017-06-18T09:57:05Z</time>
      </trkpt>
      <trkpt lat="45.94175" lon="4.72283">
        <ele>171</ele>
        <time>2017-06-18T09:57:06Z</time>
      </trkpt>
      <trkpt lat="45.94169" lon="4.72282">
        <ele>171</ele>
        <time>2017-06-18T09:57:07Z</time>
      </trkpt>
      <trkpt lat="45.94163" lon="4.72282">
        <ele>171</ele>
        <time>2017-06-18T09:57:08Z</time>
      </trkpt>
      <trkpt lat="45.94158" lon="4.72281">
        <ele>171</ele>
        <time>2017-06-18T09:57:09Z</time>
      </trkpt>
      <trkpt lat="45.94152" lon="4.72279">
        <ele>171</ele>
        <time>2017-06-18T09:57:10Z</time>
      </trkpt>
      <trkpt lat="45.94147" lon="4.72277">
        <ele>171</ele>
        <time>2017-06-18T09:57:11Z</time>
      </trkpt>
      <trkpt lat="45.94142" lon="4.72274">
        <ele>171</ele>
        <time>2017-06-18T09:57:12Z</time>
      </trkpt>
      <trkpt lat="45.94138" lon="4.72272">
        <ele>171</ele>
        <time>2017-06-18T09:57:13Z</time>
      </trkpt>
      <trkpt lat="45.94134" lon="4.7227">
        <ele>171</ele>
        <time>2017-06-18T09:57:14Z</time>
      </trkpt>
      <trkpt lat="45.94129" lon="4.72268">
        <ele>171</ele>
        <time>2017-06-18T09:57:15Z</time>
      </trkpt>
      <trkpt lat="45.94125" lon="4.72265">
        <ele>171</ele>
        <time>2017-06-18T09:57:16Z</time>
      </trkpt>
      <trkpt lat="45.9412" lon="4.72262">
        <ele>171</ele>
        <time>2017-06-18T09:57:17Z</time>
      </trkpt>
      <trkpt lat="45.94116" lon="4.7226">
        <ele>171</ele>
        <time>2017-06-18T09:57:18Z</time>
      </trkpt>
      <trkpt lat="45.9411" lon="4.72258">
        <ele>171</ele>
        <time>2017-06-18T09:57:19Z</time>
      </trkpt>
      <trkpt lat="45.94105" lon="4.72257">
        <ele>171</ele>
        <time>2017-06-18T09:57:20Z</time>
      </trkpt>
      <trkpt lat="45.94099" lon="4.72257">
        <ele>171</ele>
        <time>2017-06-18T09:57:21Z</time>
      </trkpt>
      <trkpt lat="45.94093" lon="4.72258">
        <ele>171</ele>
        <time>2017-06-18T09:57:22Z</time>
      </trkpt>
      <trkpt lat="45.94087" lon="4.72259">
        <ele>171</ele>
        <time>2017-06-18T09:57:23Z</time>
      </trkpt>
      <trkpt lat="45.94082" lon="4.72261">
        <ele>171</ele>
        <time>2017-06-18T09:57:24Z</time>
      </trkpt>
      <trkpt lat="45.94077" lon="4.72264">
        <ele>171</ele>
        <time>2017-06-18T09:57:25Z</time>
      </trkpt>
      <trkpt lat="45.94072" lon="4.72269">
        <ele>171</ele>
        <time>2017-06-18T09:57:26Z</time>
      </trkpt>
      <trkpt lat="45.94067" lon="4.72273">
        <ele>171</ele>
        <time>2017-06-18T09:57:27Z</time>
      </trkpt>
      <trkpt lat="45.94063" lon="4.72277">
        <ele>171</ele>
        <time>2017-06-18T09:57:28Z</time>
      </trkpt>
      <trkpt lat="45.94059" lon="4.72282">
        <ele>171</ele>
        <time>2017-06-18T09:57:29Z</time>
      </trkpt>
      <trkpt lat="45.94055" lon="4.72287">
        <ele>171</ele>
        <time>2017-06-18T09:57:30Z</time>
      </trkpt>
      <trkpt lat="45.9405" lon="4.72292">
        <ele>171</ele>
        <time>2017-06-18T09:57:31Z</time>
      </trkpt>
      <trkpt lat="45.94046" lon="4.72297">
        <ele>171</ele>
        <time>2017-06-18T09:57:32Z</time>
      </trkpt>
      <trkpt lat="45.94043" lon="4.72302">
        <ele>171</ele>
        <time>2017-06-18T09:57:33Z</time>
      </trkpt>
      <trkpt lat="45.94039" lon="4.72307">
        <ele>171</ele>
        <time>2017-06-18T09:57:34Z</time>
      </trkpt>
      <trkpt lat="45.94035" lon="4.72313">
        <ele>171</ele>
        <time>2017-06-18T09:57:35Z</time>
      </trkpt>
      <trkpt lat="45.9403" lon="4.72318">
        <ele>171</ele>
        <time>2017-06-18T09:57:36Z</time>
      </trkpt>
      <trkpt lat="45.94025" lon="4.72324">
        <ele>171</ele>
        <time>2017-06-18T09:57:37Z</time>
      </trkpt>
      <trkpt lat="45.94021" lon="4.72331">
        <ele>171</ele>
        <time>2017-06-18T09:57:38Z</time>
      </trkpt>
      <trkpt lat="45.94015" lon="4.72337">
        <ele>171</ele>
        <time>2017-06-18T09:57:39Z</time>
      </trkpt>
      <trkpt lat="45.9401" lon="4.72345">
        <ele>171</ele>
        <time>2017-06-18T09:57:40Z</time>
      </trkpt>
      <trkpt lat="45.94005" lon="4.72351">
        <ele>171</ele>
        <time>2017-06-18T09:57:41Z</time>
      </trkpt>
      <trkpt lat="45.94" lon="4.72358">
        <ele>171</ele>
        <time>2017-06-18T09:57:42Z</time>
      </trkpt>
      <trkpt lat="45.93995" lon="4.72364">
        <ele>171</ele>
        <time>2017-06-18T09:57:43Z</time>
      </trkpt>
      <trkpt lat="45.9399" lon="4.72369">
        <ele>171</ele>
        <time>2017-06-18T09:57:44Z</time>
      </trkpt>
      <trkpt lat="45.93985" lon="4.72375">
        <ele>171</ele>
        <time>2017-06-18T09:57:45Z</time>
      </trkpt>
      <trkpt lat="45.93981" lon="4.7238">
        <ele>171</ele>
        <time>2017-06-18T09:57:46Z</time>
      </trkpt>
      <trkpt lat="45.93976" lon="4.72385">
        <ele>171</ele>
        <time>2017-06-18T09:57:47Z</time>
      </trkpt>
      <trkpt lat="45.93972" lon="4.7239">
        <ele>171</ele>
        <time>2017-06-18T09:57:48Z</time>
      </trkpt>
      <trkpt lat="45.93968" lon="4.72395">
        <ele>171</ele>
        <time>2017-06-18T09:57:49Z</time>
      </trkpt>
      <trkpt lat="45.93964" lon="4.72399">
        <ele>171</ele>
        <time>2017-06-18T09:57:50Z</time>
      </trkpt>
      <trkpt lat="45.9396" lon="4.72403">
        <ele>171</ele>
        <time>2017-06-18T09:57:51Z</time>
      </trkpt>
      <trkpt lat="45.93956" lon="4.72407">
        <ele>171</ele>
        <time>2017-06-18T09:57:52Z</time>
      </trkpt>
      <trkpt lat="45.93953" lon="4.72411">
        <ele>171</ele>
        <time>2017-06-18T09:57:53Z</time>
      </trkpt>
      <trkpt lat="45.93949" lon="4.72416">
        <ele>171</ele>
        <time>2017-06-18T09:57:54Z</time>
      </trkpt>
      <trkpt lat="45.93945" lon="4.72421">
        <ele>171</ele>
        <time>2017-06-18T09:57:55Z</time>
      </trkpt>
      <trkpt lat="45.9394" lon="4.72426">
        <ele>171</ele>
        <time>2017-06-18T09:57:56Z</time>
      </trkpt>
      <trkpt lat="45.93936" lon="4.72431">
        <ele>172</ele>
        <time>2017-06-18T09:57:57Z</time>
      </trkpt>
      <trkpt lat="45.93931" lon="4.72437">
        <ele>172</ele>
        <time>2017-06-18T09:57:58Z</time>
      </trkpt>
      <trkpt lat="45.93926" lon="4.72443">
        <ele>171</ele>
        <time>2017-06-18T09:57:59Z</time>
      </trkpt>
      <trkpt lat="45.93922" lon="4.72449">
        <ele>171</ele>
        <time>2017-06-18T09:58:00Z</time>
      </trkpt>
      <trkpt lat="45.93917" lon="4.72455">
        <ele>171</ele>
        <time>2017-06-18T09:58:01Z</time>
      </trkpt>
      <trkpt lat="45.93913" lon="4.7246">
        <ele>172</ele>
        <time>2017-06-18T09:58:02Z</time>
      </trkpt>
      <trkpt lat="45.93909" lon="4.72465">
        <ele>172</ele>
        <time>2017-06-18T09:58:03Z</time>
      </trkpt>
      <trkpt lat="45.93906" lon="4.7247">
        <ele>172</ele>
        <time>2017-06-18T09:58:04Z</time>
      </trkpt>
      <trkpt lat="45.93902" lon="4.72475">
        <ele>172</ele>
        <time>2017-06-18T09:58:05Z</time>
      </trkpt>
      <trkpt lat="45.93899" lon="4.7248">
        <ele>172</ele>
        <time>2017-06-18T09:58:06Z</time>
      </trkpt>
      <trkpt lat="45.93895" lon="4.72484">
        <ele>172</ele>
        <time>2017-06-18T09:58:07Z</time>
      </trkpt>
      <trkpt lat="45.93892" lon="4.72488">
        <ele>172</ele>
        <time>2017-06-18T09:58:08Z</time>
      </trkpt>
      <trkpt lat="45.93888" lon="4.72493">
        <ele>172</ele>
        <time>2017-06-18T09:58:09Z</time>
      </trkpt>
      <trkpt lat="45.93884" lon="4.72497">
        <ele>172</ele>
        <time>2017-06-18T09:58:10Z</time>
      </trkpt>
      <trkpt lat="45.93881" lon="4.72502">
        <ele>173</ele>
        <time>2017-06-18T09:58:11Z</time>
      </trkpt>
      <trkpt lat="45.93877" lon="4.72506">
        <ele>173</ele>
        <time>2017-06-18T09:58:12Z</time>
      </trkpt>
      <trkpt lat="45.93872" lon="4.72509">
        <ele>173</ele>
        <time>2017-06-18T09:58:13Z</time>
      </trkpt>
      <trkpt lat="45.93868" lon="4.72511">
        <ele>173</ele>
        <time>2017-06-18T09:58:14Z</time>
      </trkpt>
      <trkpt lat="45.93863" lon="4.72511">
        <ele>173</ele>
        <time>2017-06-18T09:58:15Z</time>
      </trkpt>
      <trkpt lat="45.93855" lon="4.72507">
        <ele>173</ele>
        <time>2017-06-18T09:58:17Z</time>
      </trkpt>
      <trkpt lat="45.93851" lon="4.72504">
        <ele>174</ele>
        <time>2017-06-18T09:58:18Z</time>
      </trkpt>
      <trkpt lat="45.93846" lon="4.72501">
        <ele>174</ele>
        <time>2017-06-18T09:58:19Z</time>
      </trkpt>
      <trkpt lat="45.93842" lon="4.72499">
        <ele>173</ele>
        <time>2017-06-18T09:58:20Z</time>
      </trkpt>
      <trkpt lat="45.93835" lon="4.72492">
        <ele>173</ele>
        <time>2017-06-18T09:58:22Z</time>
      </trkpt>
      <trkpt lat="45.93831" lon="4.72488">
        <ele>173</ele>
        <time>2017-06-18T09:58:23Z</time>
      </trkpt>
      <trkpt lat="45.93827" lon="4.72479">
        <ele>173</ele>
        <time>2017-06-18T09:58:24Z</time>
      </trkpt>
      <trkpt lat="45.93824" lon="4.72474">
        <ele>172</ele>
        <time>2017-06-18T09:58:25Z</time>
      </trkpt>
      <trkpt lat="45.9382" lon="4.72469">
        <ele>172</ele>
        <time>2017-06-18T09:58:26Z</time>
      </trkpt>
      <trkpt lat="45.93817" lon="4.72466">
        <ele>172</ele>
        <time>2017-06-18T09:58:27Z</time>
      </trkpt>
      <trkpt lat="45.93813" lon="4.72462">
        <ele>172</ele>
        <time>2017-06-18T09:58:28Z</time>
      </trkpt>
      <trkpt lat="45.93809" lon="4.72459">
        <ele>172</ele>
        <time>2017-06-18T09:58:29Z</time>
      </trkpt>
      <trkpt lat="45.93803" lon="4.7245">
        <ele>172</ele>
        <time>2017-06-18T09:58:31Z</time>
      </trkpt>
      <trkpt lat="45.93798" lon="4.72446">
        <ele>172</ele>
        <time>2017-06-18T09:58:32Z</time>
      </trkpt>
      <trkpt lat="45.93795" lon="4.72442">
        <ele>172</ele>
        <time>2017-06-18T09:58:33Z</time>
      </trkpt>
      <trkpt lat="45.93791" lon="4.72437">
        <ele>172</ele>
        <time>2017-06-18T09:58:34Z</time>
      </trkpt>
      <trkpt lat="45.93785" lon="4.72432">
        <ele>172</ele>
        <time>2017-06-18T09:58:35Z</time>
      </trkpt>
      <trkpt lat="45.9378" lon="4.72428">
        <ele>172</ele>
        <time>2017-06-18T09:58:36Z</time>
      </trkpt>
      <trkpt lat="45.93775" lon="4.72424">
        <ele>171</ele>
        <time>2017-06-18T09:58:37Z</time>
      </trkpt>
      <trkpt lat="45.93771" lon="4.72419">
        <ele>171</ele>
        <time>2017-06-18T09:58:38Z</time>
      </trkpt>
      <trkpt lat="45.93767" lon="4.72415">
        <ele>171</ele>
        <time>2017-06-18T09:58:39Z</time>
      </trkpt>
      <trkpt lat="45.93763" lon="4.7241">
        <ele>171</ele>
        <time>2017-06-18T09:58:40Z</time>
      </trkpt>
      <trkpt lat="45.93759" lon="4.72406">
        <ele>171</ele>
        <time>2017-06-18T09:58:41Z</time>
      </trkpt>
      <trkpt lat="45.93754" lon="4.724">
        <ele>171</ele>
        <time>2017-06-18T09:58:42Z</time>
      </trkpt>
      <trkpt lat="45.9375" lon="4.72396">
        <ele>171</ele>
        <time>2017-06-18T09:58:43Z</time>
      </trkpt>
      <trkpt lat="45.93746" lon="4.72393">
        <ele>171</ele>
        <time>2017-06-18T09:58:44Z</time>
      </trkpt>
      <trkpt lat="45.93742" lon="4.72389">
        <ele>171</ele>
        <time>2017-06-18T09:58:45Z</time>
      </trkpt>
      <trkpt lat="45.93738" lon="4.72386">
        <ele>171</ele>
        <time>2017-06-18T09:58:46Z</time>
      </trkpt>
      <trkpt lat="45.93733" lon="4.72382">
        <ele>171</ele>
        <time>2017-06-18T09:58:47Z</time>
      </trkpt>
      <trkpt lat="45.93729" lon="4.72378">
        <ele>171</ele>
        <time>2017-06-18T09:58:48Z</time>
      </trkpt>
      <trkpt lat="45.93725" lon="4.72373">
        <ele>172</ele>
        <time>2017-06-18T09:58:49Z</time>
      </trkpt>
      <trkpt lat="45.93722" lon="4.72369">
        <ele>172</ele>
        <time>2017-06-18T09:58:50Z</time>
      </trkpt>
      <trkpt lat="45.93717" lon="4.72365">
        <ele>172</ele>
        <time>2017-06-18T09:58:51Z</time>
      </trkpt>
      <trkpt lat="45.93713" lon="4.72363">
        <ele>172</ele>
        <time>2017-06-18T09:58:52Z</time>
      </trkpt>
      <trkpt lat="45.93709" lon="4.7236">
        <ele>172</ele>
        <time>2017-06-18T09:58:53Z</time>
      </trkpt>
      <trkpt lat="45.93704" lon="4.72356">
        <ele>171</ele>
        <time>2017-06-18T09:58:54Z</time>
      </trkpt>
      <trkpt lat="45.937" lon="4.72352">
        <ele>171</ele>
        <time>2017-06-18T09:58:55Z</time>
      </trkpt>
      <trkpt lat="45.93697" lon="4.72348">
        <ele>171</ele>
        <time>2017-06-18T09:58:56Z</time>
      </trkpt>
      <trkpt lat="45.93689" lon="4.72343">
        <ele>171</ele>
        <time>2017-06-18T09:58:58Z</time>
      </trkpt>
      <trkpt lat="45.93686" lon="4.72339">
        <ele>171</ele>
        <time>2017-06-18T09:58:59Z</time>
      </trkpt>
      <trkpt lat="45.93682" lon="4.72335">
        <ele>171</ele>
        <time>2017-06-18T09:59:00Z</time>
      </trkpt>
      <trkpt lat="45.93678" lon="4.72332">
        <ele>171</ele>
        <time>2017-06-18T09:59:01Z</time>
      </trkpt>
      <trkpt lat="45.93674" lon="4.72329">
        <ele>171</ele>
        <time>2017-06-18T09:59:02Z</time>
      </trkpt>
      <trkpt lat="45.93671" lon="4.72324">
        <ele>171</ele>
        <time>2017-06-18T09:59:03Z</time>
      </trkpt>
      <trkpt lat="45.93667" lon="4.7232">
        <ele>171</ele>
        <time>2017-06-18T09:59:04Z</time>
      </trkpt>
      <trkpt lat="45.93664" lon="4.72316">
        <ele>172</ele>
        <time>2017-06-18T09:59:05Z</time>
      </trkpt>
      <trkpt lat="45.93657" lon="4.72308">
        <ele>172</ele>
        <time>2017-06-18T09:59:07Z</time>
      </trkpt>
      <trkpt lat="45.93653" lon="4.72303">
        <ele>172</ele>
        <time>2017-06-18T09:59:08Z</time>
      </trkpt>
      <trkpt lat="45.9365" lon="4.72299">
        <ele>172</ele>
        <time>2017-06-18T09:59:09Z</time>
      </trkpt>
      <trkpt lat="45.93646" lon="4.72295">
        <ele>172</ele>
        <time>2017-06-18T09:59:10Z</time>
      </trkpt>
      <trkpt lat="45.93641" lon="4.72291">
        <ele>172</ele>
        <time>2017-06-18T09:59:11Z</time>
      </trkpt>
      <trkpt lat="45.93636" lon="4.72288">
        <ele>172</ele>
        <time>2017-06-18T09:59:12Z</time>
      </trkpt>
      <trkpt lat="45.93632" lon="4.72284">
        <ele>172</ele>
        <time>2017-06-18T09:59:13Z</time>
      </trkpt>
      <trkpt lat="45.93625" lon="4.72282">
        <ele>172</ele>
        <time>2017-06-18T09:59:14Z</time>
      </trkpt>
      <trkpt lat="45.93618" lon="4.72275">
        <ele>172</ele>
        <time>2017-06-18T09:59:16Z</time>
      </trkpt>
      <trkpt lat="45.93614" lon="4.72272">
        <ele>172</ele>
        <time>2017-06-18T09:59:17Z</time>
      </trkpt>
      <trkpt lat="45.9361" lon="4.72269">
        <ele>172</ele>
        <time>2017-06-18T09:59:18Z</time>
      </trkpt>
      <trkpt lat="45.93606" lon="4.72265">
        <ele>173</ele>
        <time>2017-06-18T09:59:19Z</time>
      </trkpt>
      <trkpt lat="45.93598" lon="4.72259">
        <ele>173</ele>
        <time>2017-06-18T09:59:21Z</time>
      </trkpt>
      <trkpt lat="45.93595" lon="4.72255">
        <ele>173</ele>
        <time>2017-06-18T09:59:22Z</time>
      </trkpt>
      <trkpt lat="45.93588" lon="4.72249">
        <ele>173</ele>
        <time>2017-06-18T09:59:24Z</time>
      </trkpt>
      <trkpt lat="45.93586" lon="4.72241">
        <ele>173</ele>
        <time>2017-06-18T09:59:25Z</time>
      </trkpt>
      <trkpt lat="45.93584" lon="4.72235">
        <ele>173</ele>
        <time>2017-06-18T09:59:26Z</time>
      </trkpt>
      <trkpt lat="45.93581" lon="4.7223">
        <ele>173</ele>
        <time>2017-06-18T09:59:27Z</time>
      </trkpt>
      <trkpt lat="45.93575" lon="4.72223">
        <ele>173</ele>
        <time>2017-06-18T09:59:30Z</time>
      </trkpt>
      <trkpt lat="45.93573" lon="4.72222">
        <ele>173</ele>
        <time>2017-06-18T09:59:31Z</time>
      </trkpt>
      <trkpt lat="45.93565" lon="4.72216">
        <ele>173</ele>
        <time>2017-06-18T09:59:59Z</time>
      </trkpt>
      <trkpt lat="45.93563" lon="4.72216">
        <ele>173</ele>
        <time>2017-06-18T10:00:00Z</time>
      </trkpt>
      <trkpt lat="45.93555" lon="4.72222">
        <ele>173</ele>
        <time>2017-06-18T10:00:02Z</time>
      </trkpt>
      <trkpt lat="45.93552" lon="4.72225">
        <ele>173</ele>
        <time>2017-06-18T10:00:03Z</time>
      </trkpt>
      <trkpt lat="45.93546" lon="4.72232">
        <ele>172</ele>
        <time>2017-06-18T10:00:06Z</time>
      </trkpt>
      <trkpt lat="45.93544" lon="4.72235">
        <ele>172</ele>
        <time>2017-06-18T10:00:07Z</time>
      </trkpt>
      <trkpt lat="45.9354" lon="4.72243">
        <ele>172</ele>
        <time>2017-06-18T10:00:09Z</time>
      </trkpt>
      <trkpt lat="45.93538" lon="4.72248">
        <ele>172</ele>
        <time>2017-06-18T10:00:10Z</time>
      </trkpt>
      <trkpt lat="45.93534" lon="4.72259">
        <ele>172</ele>
        <time>2017-06-18T10:00:12Z</time>
      </trkpt>
      <trkpt lat="45.93531" lon="4.72265">
        <ele>172</ele>
        <time>2017-06-18T10:00:13Z</time>
      </trkpt>
      <trkpt lat="45.93529" lon="4.72271">
        <ele>172</ele>
        <time>2017-06-18T10:00:14Z</time>
      </trkpt>
      <trkpt lat="45.93526" lon="4.72277">
        <ele>172</ele>
        <time>2017-06-18T10:00:15Z</time>
      </trkpt>
      <trkpt lat="45.93524" lon="4.72283">
        <ele>172</ele>
        <time>2017-06-18T10:00:16Z</time>
      </trkpt>
      <trkpt lat="45.93521" lon="4.72289">
        <ele>172</ele>
        <time>2017-06-18T10:00:17Z</time>
      </trkpt>
      <trkpt lat="45.93518" lon="4.72295">
        <ele>172</ele>
        <time>2017-06-18T10:00:18Z</time>
      </trkpt>
      <trkpt lat="45.93515" lon="4.723">
        <ele>172</ele>
        <time>2017-06-18T10:00:19Z</time>
      </trkpt>
      <trkpt lat="45.93511" lon="4.72306">
        <ele>173</ele>
        <time>2017-06-18T10:00:20Z</time>
      </trkpt>
      <trkpt lat="45.93507" lon="4.72311">
        <ele>173</ele>
        <time>2017-06-18T10:00:21Z</time>
      </trkpt>
      <trkpt lat="45.93503" lon="4.72317">
        <ele>173</ele>
        <time>2017-06-18T10:00:22Z</time>
      </trkpt>
      <trkpt lat="45.93498" lon="4.72322">
        <ele>173</ele>
        <time>2017-06-18T10:00:23Z</time>
      </trkpt>
      <trkpt lat="45.93494" lon="4.72327">
        <ele>173</ele>
        <time>2017-06-18T10:00:24Z</time>
      </trkpt>
      <trkpt lat="45.9349" lon="4.72333">
        <ele>173</ele>
        <time>2017-06-18T10:00:25Z</time>
      </trkpt>
      <trkpt lat="45.93486" lon="4.72339">
        <ele>173</ele>
        <time>2017-06-18T10:00:26Z</time>
      </trkpt>
      <trkpt lat="45.93481" lon="4.72345">
        <ele>173</ele>
        <time>2017-06-18T10:00:27Z</time>
      </trkpt>
      <trkpt lat="45.93477" lon="4.7235">
        <ele>173</ele>
        <time>2017-06-18T10:00:28Z</time>
      </trkpt>
      <trkpt lat="45.93472" lon="4.72355">
        <ele>173</ele>
        <time>2017-06-18T10:00:29Z</time>
      </trkpt>
      <trkpt lat="45.93467" lon="4.7236">
        <ele>173</ele>
        <time>2017-06-18T10:00:30Z</time>
      </trkpt>
      <trkpt lat="45.93463" lon="4.72365">
        <ele>173</ele>
        <time>2017-06-18T10:00:31Z</time>
      </trkpt>
      <trkpt lat="45.93459" lon="4.72369">
        <ele>173</ele>
        <time>2017-06-18T10:00:32Z</time>
      </trkpt>
      <trkpt lat="45.93455" lon="4.72374">
        <ele>173</ele>
        <time>2017-06-18T10:00:33Z</time>
      </trkpt>
      <trkpt lat="45.93451" lon="4.72379">
        <ele>173</ele>
        <time>2017-06-18T10:00:34Z</time>
      </trkpt>
      <trkpt lat="45.93446" lon="4.72383">
        <ele>173</ele>
        <time>2017-06-18T10:00:35Z</time>
      </trkpt>
      <trkpt lat="45.93441" lon="4.72387">
        <ele>173</ele>
        <time>2017-06-18T10:00:36Z</time>
      </trkpt>
      <trkpt lat="45.93435" lon="4.7239">
        <ele>173</ele>
        <time>2017-06-18T10:00:37Z</time>
      </trkpt>
      <trkpt lat="45.93429" lon="4.72394">
        <ele>173</ele>
        <time>2017-06-18T10:00:38Z</time>
      </trkpt>
      <trkpt lat="45.93424" lon="4.72396">
        <ele>174</ele>
        <time>2017-06-18T10:00:39Z</time>
      </trkpt>
      <trkpt lat="45.93418" lon="4.72398">
        <ele>174</ele>
        <time>2017-06-18T10:00:40Z</time>
      </trkpt>
      <trkpt lat="45.93413" lon="4.72401">
        <ele>174</ele>
        <time>2017-06-18T10:00:41Z</time>
      </trkpt>
      <trkpt lat="45.93409" lon="4.72403">
        <ele>174</ele>
        <time>2017-06-18T10:00:42Z</time>
      </trkpt>
      <trkpt lat="45.93404" lon="4.72404">
        <ele>174</ele>
        <time>2017-06-18T10:00:43Z</time>
      </trkpt>
      <trkpt lat="45.93399" lon="4.72403">
        <ele>174</ele>
        <time>2017-06-18T10:00:44Z</time>
      </trkpt>
      <trkpt lat="45.93394" lon="4.72401">
        <ele>174</ele>
        <time>2017-06-18T10:00:45Z</time>
      </trkpt>
      <trkpt lat="45.9339" lon="4.72401">
        <ele>174</ele>
        <time>2017-06-18T10:00:46Z</time>
      </trkpt>
      <trkpt lat="45.93386" lon="4.72405">
        <ele>174</ele>
        <time>2017-06-18T10:00:47Z</time>
      </trkpt>
      <trkpt lat="45.93382" lon="4.72411">
        <ele>174</ele>
        <time>2017-06-18T10:00:48Z</time>
      </trkpt>
      <trkpt lat="45.93381" lon="4.72418">
        <ele>173</ele>
        <time>2017-06-18T10:00:49Z</time>
      </trkpt>
      <trkpt lat="45.93383" lon="4.72426">
        <ele>173</ele>
        <time>2017-06-18T10:00:50Z</time>
      </trkpt>
      <trkpt lat="45.93385" lon="4.72433">
        <ele>173</ele>
        <time>2017-06-18T10:00:51Z</time>
      </trkpt>
      <trkpt lat="45.93388" lon="4.7244">
        <ele>173</ele>
        <time>2017-06-18T10:00:52Z</time>
      </trkpt>
      <trkpt lat="45.9339" lon="4.72447">
        <ele>173</ele>
        <time>2017-06-18T10:00:53Z</time>
      </trkpt>
      <trkpt lat="45.93389" lon="4.72454">
        <ele>173</ele>
        <time>2017-06-18T10:00:54Z</time>
      </trkpt>
      <trkpt lat="45.93388" lon="4.7246">
        <ele>173</ele>
        <time>2017-06-18T10:00:55Z</time>
      </trkpt>
      <trkpt lat="45.93385" lon="4.72466">
        <ele>173</ele>
        <time>2017-06-18T10:00:56Z</time>
      </trkpt>
      <trkpt lat="45.93381" lon="4.72471">
        <ele>173</ele>
        <time>2017-06-18T10:00:57Z</time>
      </trkpt>
      <trkpt lat="45.93377" lon="4.72475">
        <ele>173</ele>
        <time>2017-06-18T10:00:58Z</time>
      </trkpt>
      <trkpt lat="45.93372" lon="4.72481">
        <ele>173</ele>
        <time>2017-06-18T10:00:59Z</time>
      </trkpt>
      <trkpt lat="45.93367" lon="4.72486">
        <ele>173</ele>
        <time>2017-06-18T10:01:00Z</time>
      </trkpt>
      <trkpt lat="45.93362" lon="4.72492">
        <ele>173</ele>
        <time>2017-06-18T10:01:01Z</time>
      </trkpt>
      <trkpt lat="45.93358" lon="4.72497">
        <ele>173</ele>
        <time>2017-06-18T10:01:02Z</time>
      </trkpt>
      <trkpt lat="45.93354" lon="4.72504">
        <ele>172</ele>
        <time>2017-06-18T10:01:03Z</time>
      </trkpt>
      <trkpt lat="45.9335" lon="4.72509">
        <ele>172</ele>
        <time>2017-06-18T10:01:04Z</time>
      </trkpt>
      <trkpt lat="45.93344" lon="4.72514">
        <ele>172</ele>
        <time>2017-06-18T10:01:05Z</time>
      </trkpt>
      <trkpt lat="45.9334" lon="4.72519">
        <ele>172</ele>
        <time>2017-06-18T10:01:06Z</time>
      </trkpt>
      <trkpt lat="45.93335" lon="4.72524">
        <ele>172</ele>
        <time>2017-06-18T10:01:07Z</time>
      </trkpt>
      <trkpt lat="45.93331" lon="4.72529">
        <ele>172</ele>
        <time>2017-06-18T10:01:08Z</time>
      </trkpt>
      <trkpt lat="45.93326" lon="4.72534">
        <ele>172</ele>
        <time>2017-06-18T10:01:09Z</time>
      </trkpt>
      <trkpt lat="45.93322" lon="4.72538">
        <ele>172</ele>
        <time>2017-06-18T10:01:10Z</time>
      </trkpt>
      <trkpt lat="45.93318" lon="4.72543">
        <ele>172</ele>
        <time>2017-06-18T10:01:11Z</time>
      </trkpt>
      <trkpt lat="45.93314" lon="4.72548">
        <ele>172</ele>
        <time>2017-06-18T10:01:12Z</time>
      </trkpt>
      <trkpt lat="45.93309" lon="4.72553">
        <ele>172</ele>
        <time>2017-06-18T10:01:13Z</time>
      </trkpt>
      <trkpt lat="45.93305" lon="4.72557">
        <ele>172</ele>
        <time>2017-06-18T10:01:14Z</time>
      </trkpt>
      <trkpt lat="45.93301" lon="4.72562">
        <ele>172</ele>
        <time>2017-06-18T10:01:15Z</time>
      </trkpt>
      <trkpt lat="45.93297" lon="4.72567">
        <ele>172</ele>
        <time>2017-06-18T10:01:16Z</time>
      </trkpt>
      <trkpt lat="45.93293" lon="4.72572">
        <ele>172</ele>
        <time>2017-06-18T10:01:17Z</time>
      </trkpt>
      <trkpt lat="45.93289" lon="4.72576">
        <ele>172</ele>
        <time>2017-06-18T10:01:18Z</time>
      </trkpt>
      <trkpt lat="45.93285" lon="4.7258">
        <ele>171</ele>
        <time>2017-06-18T10:01:19Z</time>
      </trkpt>
      <trkpt lat="45.93281" lon="4.72586">
        <ele>170</ele>
        <time>2017-06-18T10:01:20Z</time>
      </trkpt>
      <trkpt lat="45.93277" lon="4.7259">
        <ele>170</ele>
        <time>2017-06-18T10:01:21Z</time>
      </trkpt>
      <trkpt lat="45.93273" lon="4.72595">
        <ele>170</ele>
        <time>2017-06-18T10:01:22Z</time>
      </trkpt>
      <trkpt lat="45.93269" lon="4.726">
        <ele>170</ele>
        <time>2017-06-18T10:01:23Z</time>
      </trkpt>
      <trkpt lat="45.93264" lon="4.72605">
        <ele>170</ele>
        <time>2017-06-18T10:01:24Z</time>
      </trkpt>
      <trkpt lat="45.9326" lon="4.7261">
        <ele>170</ele>
        <time>2017-06-18T10:01:25Z</time>
      </trkpt>
      <trkpt lat="45.93256" lon="4.72614">
        <ele>170</ele>
        <time>2017-06-18T10:01:26Z</time>
      </trkpt>
      <trkpt lat="45.93251" lon="4.72619">
        <ele>170</ele>
        <time>2017-06-18T10:01:27Z</time>
      </trkpt>
      <trkpt lat="45.93246" lon="4.72624">
        <ele>170</ele>
        <time>2017-06-18T10:01:28Z</time>
      </trkpt>
      <trkpt lat="45.93241" lon="4.72629">
        <ele>170</ele>
        <time>2017-06-18T10:01:29Z</time>
      </trkpt>
      <trkpt lat="45.93237" lon="4.72635">
        <ele>170</ele>
        <time>2017-06-18T10:01:30Z</time>
      </trkpt>
      <trkpt lat="45.93232" lon="4.72641">
        <ele>170</ele>
        <time>2017-06-18T10:01:31Z</time>
      </trkpt>
      <trkpt lat="45.93227" lon="4.72646">
        <ele>170</ele>
        <time>2017-06-18T10:01:32Z</time>
      </trkpt>
      <trkpt lat="45.93222" lon="4.72652">
        <ele>170</ele>
        <time>2017-06-18T10:01:33Z</time>
      </trkpt>
      <trkpt lat="45.93218" lon="4.72659">
        <ele>170</ele>
        <time>2017-06-18T10:01:34Z</time>
      </trkpt>
      <trkpt lat="45.93214" lon="4.72664">
        <ele>170</ele>
        <time>2017-06-18T10:01:35Z</time>
      </trkpt>
      <trkpt lat="45.9321" lon="4.72669">
        <ele>169</ele>
        <time>2017-06-18T10:01:36Z</time>
      </trkpt>
      <trkpt lat="45.93206" lon="4.72674">
        <ele>169</ele>
        <time>2017-06-18T10:01:37Z</time>
      </trkpt>
      <trkpt lat="45.93202" lon="4.7268">
        <ele>169</ele>
        <time>2017-06-18T10:01:38Z</time>
      </trkpt>
      <trkpt lat="45.93198" lon="4.72685">
        <ele>169</ele>
        <time>2017-06-18T10:01:39Z</time>
      </trkpt>
      <trkpt lat="45.93194" lon="4.7269">
        <ele>169</ele>
        <time>2017-06-18T10:01:40Z</time>
      </trkpt>
      <trkpt lat="45.93191" lon="4.72695">
        <ele>169</ele>
        <time>2017-06-18T10:01:41Z</time>
      </trkpt>
      <trkpt lat="45.93187" lon="4.72699">
        <ele>169</ele>
        <time>2017-06-18T10:01:42Z</time>
      </trkpt>
      <trkpt lat="45.93183" lon="4.72704">
        <ele>169</ele>
        <time>2017-06-18T10:01:43Z</time>
      </trkpt>
      <trkpt lat="45.93178" lon="4.72709">
        <ele>169</ele>
        <time>2017-06-18T10:01:44Z</time>
      </trkpt>
      <trkpt lat="45.93174" lon="4.72714">
        <ele>170</ele>
        <time>2017-06-18T10:01:45Z</time>
      </trkpt>
      <trkpt lat="45.9317" lon="4.72719">
        <ele>170</ele>
        <time>2017-06-18T10:01:46Z</time>
      </trkpt>
      <trkpt lat="45.93165" lon="4.72724">
        <ele>170</ele>
        <time>2017-06-18T10:01:47Z</time>
      </trkpt>
      <trkpt lat="45.9316" lon="4.72729">
        <ele>170</ele>
        <time>2017-06-18T10:01:48Z</time>
      </trkpt>
      <trkpt lat="45.93156" lon="4.72734">
        <ele>170</ele>
        <time>2017-06-18T10:01:49Z</time>
      </trkpt>
      <trkpt lat="45.93151" lon="4.72739">
        <ele>170</ele>
        <time>2017-06-18T10:01:50Z</time>
      </trkpt>
      <trkpt lat="45.93146" lon="4.72744">
        <ele>170</ele>
        <time>2017-06-18T10:01:51Z</time>
      </trkpt>
      <trkpt lat="45.93142" lon="4.7275">
        <ele>170</ele>
        <time>2017-06-18T10:01:52Z</time>
      </trkpt>
      <trkpt lat="45.93137" lon="4.72755">
        <ele>171</ele>
        <time>2017-06-18T10:01:53Z</time>
      </trkpt>
      <trkpt lat="45.93133" lon="4.7276">
        <ele>171</ele>
        <time>2017-06-18T10:01:54Z</time>
      </trkpt>
      <trkpt lat="45.93129" lon="4.72764">
        <ele>171</ele>
        <time>2017-06-18T10:01:55Z</time>
      </trkpt>
      <trkpt lat="45.93125" lon="4.72769">
        <ele>171</ele>
        <time>2017-06-18T10:01:56Z</time>
      </trkpt>
      <trkpt lat="45.93121" lon="4.72775">
        <ele>171</ele>
        <time>2017-06-18T10:01:57Z</time>
      </trkpt>
      <trkpt lat="45.93117" lon="4.7278">
        <ele>171</ele>
        <time>2017-06-18T10:01:58Z</time>
      </trkpt>
      <trkpt lat="45.93113" lon="4.72785">
        <ele>171</ele>
        <time>2017-06-18T10:01:59Z</time>
      </trkpt>
      <trkpt lat="45.93109" lon="4.7279">
        <ele>171</ele>
        <time>2017-06-18T10:02:00Z</time>
      </trkpt>
      <trkpt lat="45.93104" lon="4.72796">
        <ele>171</ele>
        <time>2017-06-18T10:02:01Z</time>
      </trkpt>
      <trkpt lat="45.931" lon="4.72801">
        <ele>171</ele>
        <time>2017-06-18T10:02:02Z</time>
      </trkpt>
      <trkpt lat="45.93095" lon="4.72806">
        <ele>171</ele>
        <time>2017-06-18T10:02:03Z</time>
      </trkpt>
      <trkpt lat="45.93091" lon="4.7281">
        <ele>172</ele>
        <time>2017-06-18T10:02:04Z</time>
      </trkpt>
      <trkpt lat="45.93086" lon="4.72814">
        <ele>172</ele>
        <time>2017-06-18T10:02:05Z</time>
      </trkpt>
      <trkpt lat="45.93082" lon="4.72819">
        <ele>173</ele>
        <time>2017-06-18T10:02:06Z</time>
      </trkpt>
      <trkpt lat="45.93078" lon="4.72822">
        <ele>173</ele>
        <time>2017-06-18T10:02:07Z</time>
      </trkpt>
      <trkpt lat="45.93074" lon="4.72826">
        <ele>173</ele>
        <time>2017-06-18T10:02:08Z</time>
      </trkpt>
      <trkpt lat="45.9307" lon="4.72829">
        <ele>173</ele>
        <time>2017-06-18T10:02:09Z</time>
      </trkpt>
      <trkpt lat="45.93066" lon="4.72832">
        <ele>173</ele>
        <time>2017-06-18T10:02:10Z</time>
      </trkpt>
      <trkpt lat="45.93061" lon="4.72834">
        <ele>173</ele>
        <time>2017-06-18T10:02:11Z</time>
      </trkpt>
      <trkpt lat="45.93056" lon="4.72839">
        <ele>172</ele>
        <time>2017-06-18T10:02:12Z</time>
      </trkpt>
      <trkpt lat="45.93052" lon="4.72848">
        <ele>172</ele>
        <time>2017-06-18T10:02:13Z</time>
      </trkpt>
      <trkpt lat="45.93048" lon="4.72854">
        <ele>172</ele>
        <time>2017-06-18T10:02:14Z</time>
      </trkpt>
      <trkpt lat="45.93044" lon="4.72858">
        <ele>172</ele>
        <time>2017-06-18T10:02:15Z</time>
      </trkpt>
      <trkpt lat="45.93039" lon="4.72863">
        <ele>172</ele>
        <time>2017-06-18T10:02:16Z</time>
      </trkpt>
      <trkpt lat="45.93035" lon="4.72869">
        <ele>172</ele>
        <time>2017-06-18T10:02:17Z</time>
      </trkpt>
      <trkpt lat="45.93031" lon="4.72875">
        <ele>172</ele>
        <time>2017-06-18T10:02:18Z</time>
      </trkpt>
      <trkpt lat="45.93027" lon="4.72881">
        <ele>172</ele>
        <time>2017-06-18T10:02:19Z</time>
      </trkpt>
      <trkpt lat="45.93023" lon="4.72886">
        <ele>172</ele>
        <time>2017-06-18T10:02:20Z</time>
      </trkpt>
      <trkpt lat="45.93019" lon="4.72891">
        <ele>172</ele>
        <time>2017-06-18T10:02:21Z</time>
      </trkpt>
      <trkpt lat="45.93015" lon="4.72897">
        <ele>172</ele>
        <time>2017-06-18T10:02:22Z</time>
      </trkpt>
      <trkpt lat="45.93011" lon="4.72902">
        <ele>172</ele>
        <time>2017-06-18T10:02:23Z</time>
      </trkpt>
      <trkpt lat="45.93007" lon="4.72907">
        <ele>171</ele>
        <time>2017-06-18T10:02:24Z</time>
      </trkpt>
      <trkpt lat="45.93003" lon="4.72912">
        <ele>171</ele>
        <time>2017-06-18T10:02:25Z</time>
      </trkpt>
      <trkpt lat="45.92999" lon="4.72918">
        <ele>171</ele>
        <time>2017-06-18T10:02:26Z</time>
      </trkpt>
      <trkpt lat="45.92995" lon="4.72923">
        <ele>171</ele>
        <time>2017-06-18T10:02:27Z</time>
      </trkpt>
      <trkpt lat="45.92991" lon="4.72927">
        <ele>171</ele>
        <time>2017-06-18T10:02:28Z</time>
      </trkpt>
      <trkpt lat="45.92987" lon="4.72932">
        <ele>171</ele>
        <time>2017-06-18T10:02:29Z</time>
      </trkpt>
      <trkpt lat="45.92982" lon="4.72936">
        <ele>171</ele>
        <time>2017-06-18T10:02:30Z</time>
      </trkpt>
      <trkpt lat="45.92978" lon="4.72941">
        <ele>171</ele>
        <time>2017-06-18T10:02:31Z</time>
      </trkpt>
      <trkpt lat="45.92974" lon="4.72946">
        <ele>171</ele>
        <time>2017-06-18T10:02:32Z</time>
      </trkpt>
      <trkpt lat="45.9297" lon="4.72952">
        <ele>171</ele>
        <time>2017-06-18T10:02:33Z</time>
      </trkpt>
      <trkpt lat="45.92966" lon="4.72957">
        <ele>171</ele>
        <time>2017-06-18T10:02:34Z</time>
      </trkpt>
      <trkpt lat="45.92962" lon="4.72962">
        <ele>171</ele>
        <time>2017-06-18T10:02:35Z</time>
      </trkpt>
      <trkpt lat="45.92958" lon="4.72967">
        <ele>171</ele>
        <time>2017-06-18T10:02:36Z</time>
      </trkpt>
      <trkpt lat="45.92954" lon="4.72972">
        <ele>171</ele>
        <time>2017-06-18T10:02:37Z</time>
      </trkpt>
      <trkpt lat="45.92951" lon="4.72977">
        <ele>171</ele>
        <time>2017-06-18T10:02:38Z</time>
      </trkpt>
      <trkpt lat="45.92946" lon="4.72982">
        <ele>171</ele>
        <time>2017-06-18T10:02:39Z</time>
      </trkpt>
      <trkpt lat="45.92943" lon="4.72987">
        <ele>171</ele>
        <time>2017-06-18T10:02:40Z</time>
      </trkpt>
      <trkpt lat="45.92939" lon="4.72992">
        <ele>171</ele>
        <time>2017-06-18T10:02:41Z</time>
      </trkpt>
      <trkpt lat="45.92935" lon="4.72997">
        <ele>172</ele>
        <time>2017-06-18T10:02:42Z</time>
      </trkpt>
      <trkpt lat="45.9293" lon="4.73002">
        <ele>172</ele>
        <time>2017-06-18T10:02:43Z</time>
      </trkpt>
      <trkpt lat="45.92926" lon="4.73007">
        <ele>172</ele>
        <time>2017-06-18T10:02:44Z</time>
      </trkpt>
      <trkpt lat="45.92921" lon="4.73012">
        <ele>172</ele>
        <time>2017-06-18T10:02:45Z</time>
      </trkpt>
      <trkpt lat="45.92916" lon="4.73018">
        <ele>172</ele>
        <time>2017-06-18T10:02:46Z</time>
      </trkpt>
      <trkpt lat="45.92912" lon="4.73023">
        <ele>172</ele>
        <time>2017-06-18T10:02:47Z</time>
      </trkpt>
      <trkpt lat="45.92907" lon="4.73029">
        <ele>172</ele>
        <time>2017-06-18T10:02:48Z</time>
      </trkpt>
      <trkpt lat="45.92903" lon="4.73036">
        <ele>172</ele>
        <time>2017-06-18T10:02:49Z</time>
      </trkpt>
      <trkpt lat="45.92899" lon="4.73042">
        <ele>172</ele>
        <time>2017-06-18T10:02:50Z</time>
      </trkpt>
      <trkpt lat="45.92895" lon="4.73048">
        <ele>172</ele>
        <time>2017-06-18T10:02:51Z</time>
      </trkpt>
      <trkpt lat="45.92892" lon="4.73054">
        <ele>172</ele>
        <time>2017-06-18T10:02:52Z</time>
      </trkpt>
      <trkpt lat="45.92888" lon="4.7306">
        <ele>172</ele>
        <time>2017-06-18T10:02:53Z</time>
      </trkpt>
      <trkpt lat="45.92885" lon="4.73066">
        <ele>172</ele>
        <time>2017-06-18T10:02:54Z</time>
      </trkpt>
      <trkpt lat="45.92882" lon="4.73072">
        <ele>172</ele>
        <time>2017-06-18T10:02:55Z</time>
      </trkpt>
      <trkpt lat="45.92879" lon="4.73078">
        <ele>172</ele>
        <time>2017-06-18T10:02:56Z</time>
      </trkpt>
      <trkpt lat="45.92876" lon="4.73085">
        <ele>172</ele>
        <time>2017-06-18T10:02:57Z</time>
      </trkpt>
      <trkpt lat="45.92874" lon="4.73092">
        <ele>172</ele>
        <time>2017-06-18T10:02:58Z</time>
      </trkpt>
      <trkpt lat="45.92871" lon="4.73098">
        <ele>172</ele>
        <time>2017-06-18T10:02:59Z</time>
      </trkpt>
      <trkpt lat="45.92869" lon="4.73105">
        <ele>172</ele>
        <time>2017-06-18T10:03:00Z</time>
      </trkpt>
      <trkpt lat="45.92868" lon="4.73112">
        <ele>171</ele>
        <time>2017-06-18T10:03:01Z</time>
      </trkpt>
      <trkpt lat="45.92866" lon="4.73118">
        <ele>171</ele>
        <time>2017-06-18T10:03:02Z</time>
      </trkpt>
      <trkpt lat="45.92864" lon="4.73125">
        <ele>171</ele>
        <time>2017-06-18T10:03:03Z</time>
      </trkpt>
      <trkpt lat="45.92863" lon="4.73132">
        <ele>171</ele>
        <time>2017-06-18T10:03:04Z</time>
      </trkpt>
      <trkpt lat="45.92862" lon="4.73138">
        <ele>171</ele>
        <time>2017-06-18T10:03:05Z</time>
      </trkpt>
      <trkpt lat="45.92861" lon="4.73145">
        <ele>171</ele>
        <time>2017-06-18T10:03:06Z</time>
      </trkpt>
      <trkpt lat="45.9286" lon="4.73151">
        <ele>171</ele>
        <time>2017-06-18T10:03:07Z</time>
      </trkpt>
      <trkpt lat="45.92859" lon="4.73158">
        <ele>171</ele>
        <time>2017-06-18T10:03:08Z</time>
      </trkpt>
      <trkpt lat="45.92858" lon="4.73165">
        <ele>171</ele>
        <time>2017-06-18T10:03:09Z</time>
      </trkpt>
      <trkpt lat="45.92858" lon="4.73173">
        <ele>171</ele>
        <time>2017-06-18T10:03:10Z</time>
      </trkpt>
      <trkpt lat="45.92858" lon="4.7318">
        <ele>171</ele>
        <time>2017-06-18T10:03:11Z</time>
      </trkpt>
      <trkpt lat="45.92857" lon="4.73188">
        <ele>171</ele>
        <time>2017-06-18T10:03:12Z</time>
      </trkpt>
      <trkpt lat="45.92857" lon="4.73195">
        <ele>171</ele>
        <time>2017-06-18T10:03:13Z</time>
      </trkpt>
      <trkpt lat="45.92856" lon="4.73203">
        <ele>171</ele>
        <time>2017-06-18T10:03:14Z</time>
      </trkpt>
      <trkpt lat="45.92856" lon="4.7321">
        <ele>171</ele>
        <time>2017-06-18T10:03:15Z</time>
      </trkpt>
      <trkpt lat="45.92855" lon="4.73217">
        <ele>171</ele>
        <time>2017-06-18T10:03:16Z</time>
      </trkpt>
      <trkpt lat="45.92855" lon="4.73225">
        <ele>171</ele>
        <time>2017-06-18T10:03:17Z</time>
      </trkpt>
      <trkpt lat="45.92854" lon="4.73233">
        <ele>171</ele>
        <time>2017-06-18T10:03:18Z</time>
      </trkpt>
      <trkpt lat="45.92853" lon="4.7324">
        <ele>171</ele>
        <time>2017-06-18T10:03:19Z</time>
      </trkpt>
      <trkpt lat="45.92852" lon="4.73248">
        <ele>171</ele>
        <time>2017-06-18T10:03:20Z</time>
      </trkpt>
      <trkpt lat="45.92851" lon="4.73255">
        <ele>171</ele>
        <time>2017-06-18T10:03:21Z</time>
      </trkpt>
      <trkpt lat="45.9285" lon="4.73263">
        <ele>171</ele>
        <time>2017-06-18T10:03:22Z</time>
      </trkpt>
      <trkpt lat="45.92849" lon="4.73271">
        <ele>171</ele>
        <time>2017-06-18T10:03:23Z</time>
      </trkpt>
      <trkpt lat="45.92848" lon="4.7328">
        <ele>171</ele>
        <time>2017-06-18T10:03:24Z</time>
      </trkpt>
      <trkpt lat="45.92847" lon="4.73288">
        <ele>171</ele>
        <time>2017-06-18T10:03:25Z</time>
      </trkpt>
      <trkpt lat="45.92846" lon="4.73296">
        <ele>171</ele>
        <time>2017-06-18T10:03:26Z</time>
      </trkpt>
      <trkpt lat="45.92845" lon="4.73304">
        <ele>171</ele>
        <time>2017-06-18T10:03:27Z</time>
      </trkpt>
      <trkpt lat="45.92845" lon="4.73311">
        <ele>171</ele>
        <time>2017-06-18T10:03:28Z</time>
      </trkpt>
      <trkpt lat="45.92844" lon="4.73318">
        <ele>171</ele>
        <time>2017-06-18T10:03:29Z</time>
      </trkpt>
      <trkpt lat="45.92843" lon="4.73326">
        <ele>171</ele>
        <time>2017-06-18T10:03:30Z</time>
      </trkpt>
      <trkpt lat="45.92842" lon="4.73333">
        <ele>171</ele>
        <time>2017-06-18T10:03:31Z</time>
      </trkpt>
      <trkpt lat="45.92841" lon="4.7334">
        <ele>171</ele>
        <time>2017-06-18T10:03:32Z</time>
      </trkpt>
      <trkpt lat="45.9284" lon="4.73348">
        <ele>171</ele>
        <time>2017-06-18T10:03:33Z</time>
      </trkpt>
      <trkpt lat="45.92839" lon="4.73356">
        <ele>171</ele>
        <time>2017-06-18T10:03:34Z</time>
      </trkpt>
      <trkpt lat="45.92838" lon="4.73364">
        <ele>171</ele>
        <time>2017-06-18T10:03:35Z</time>
      </trkpt>
      <trkpt lat="45.92838" lon="4.73371">
        <ele>171</ele>
        <time>2017-06-18T10:03:36Z</time>
      </trkpt>
      <trkpt lat="45.92837" lon="4.73379">
        <ele>172</ele>
        <time>2017-06-18T10:03:37Z</time>
      </trkpt>
      <trkpt lat="45.92836" lon="4.73385">
        <ele>172</ele>
        <time>2017-06-18T10:03:38Z</time>
      </trkpt>
      <trkpt lat="45.92835" lon="4.73392">
        <ele>172</ele>
        <time>2017-06-18T10:03:39Z</time>
      </trkpt>
      <trkpt lat="45.92834" lon="4.73399">
        <ele>172</ele>
        <time>2017-06-18T10:03:40Z</time>
      </trkpt>
      <trkpt lat="45.92833" lon="4.73406">
        <ele>172</ele>
        <time>2017-06-18T10:03:41Z</time>
      </trkpt>
      <trkpt lat="45.92833" lon="4.73413">
        <ele>172</ele>
        <time>2017-06-18T10:03:42Z</time>
      </trkpt>
      <trkpt lat="45.92832" lon="4.73421">
        <ele>172</ele>
        <time>2017-06-18T10:03:43Z</time>
      </trkpt>
      <trkpt lat="45.92831" lon="4.73429">
        <ele>172</ele>
        <time>2017-06-18T10:03:44Z</time>
      </trkpt>
      <trkpt lat="45.92831" lon="4.73437">
        <ele>172</ele>
        <time>2017-06-18T10:03:45Z</time>
      </trkpt>
      <trkpt lat="45.9283" lon="4.73446">
        <ele>172</ele>
        <time>2017-06-18T10:03:46Z</time>
      </trkpt>
      <trkpt lat="45.92828" lon="4.73455">
        <ele>172</ele>
        <time>2017-06-18T10:03:47Z</time>
      </trkpt>
      <trkpt lat="45.92827" lon="4.73463">
        <ele>172</ele>
        <time>2017-06-18T10:03:48Z</time>
      </trkpt>
      <trkpt lat="45.92826" lon="4.73471">
        <ele>172</ele>
        <time>2017-06-18T10:03:49Z</time>
      </trkpt>
      <trkpt lat="45.92825" lon="4.7348">
        <ele>172</ele>
        <time>2017-06-18T10:03:50Z</time>
      </trkpt>
      <trkpt lat="45.92824" lon="4.73488">
        <ele>172</ele>
        <time>2017-06-18T10:03:51Z</time>
      </trkpt>
      <trkpt lat="45.92823" lon="4.73495">
        <ele>172</ele>
        <time>2017-06-18T10:03:52Z</time>
      </trkpt>
      <trkpt lat="45.92822" lon="4.73502">
        <ele>172</ele>
        <time>2017-06-18T10:03:53Z</time>
      </trkpt>
      <trkpt lat="45.92821" lon="4.73509">
        <ele>172</ele>
        <time>2017-06-18T10:03:54Z</time>
      </trkpt>
      <trkpt lat="45.9282" lon="4.73516">
        <ele>172</ele>
        <time>2017-06-18T10:03:55Z</time>
      </trkpt>
      <trkpt lat="45.92819" lon="4.73524">
        <ele>172</ele>
        <time>2017-06-18T10:03:56Z</time>
      </trkpt>
      <trkpt lat="45.92819" lon="4.73531">
        <ele>172</ele>
        <time>2017-06-18T10:03:57Z</time>
      </trkpt>
      <trkpt lat="45.92818" lon="4.73537">
        <ele>172</ele>
        <time>2017-06-18T10:03:58Z</time>
      </trkpt>
      <trkpt lat="45.92817" lon="4.73544">
        <ele>171</ele>
        <time>2017-06-18T10:03:59Z</time>
      </trkpt>
      <trkpt lat="45.92817" lon="4.73552">
        <ele>171</ele>
        <time>2017-06-18T10:04:00Z</time>
      </trkpt>
      <trkpt lat="45.92817" lon="4.73559">
        <ele>171</ele>
        <time>2017-06-18T10:04:01Z</time>
      </trkpt>
      <trkpt lat="45.92816" lon="4.73567">
        <ele>171</ele>
        <time>2017-06-18T10:04:02Z</time>
      </trkpt>
      <trkpt lat="45.92816" lon="4.73575">
        <ele>171</ele>
        <time>2017-06-18T10:04:03Z</time>
      </trkpt>
      <trkpt lat="45.92815" lon="4.73583">
        <ele>171</ele>
        <time>2017-06-18T10:04:04Z</time>
      </trkpt>
      <trkpt lat="45.92815" lon="4.73591">
        <ele>171</ele>
        <time>2017-06-18T10:04:05Z</time>
      </trkpt>
      <trkpt lat="45.92815" lon="4.73598">
        <ele>171</ele>
        <time>2017-06-18T10:04:06Z</time>
      </trkpt>
      <trkpt lat="45.92815" lon="4.73606">
        <ele>172</ele>
        <time>2017-06-18T10:04:07Z</time>
      </trkpt>
      <trkpt lat="45.92815" lon="4.73613">
        <ele>172</ele>
        <time>2017-06-18T10:04:08Z</time>
      </trkpt>
      <trkpt lat="45.92813" lon="4.7362">
        <ele>172</ele>
        <time>2017-06-18T10:04:09Z</time>
      </trkpt>
      <trkpt lat="45.9281" lon="4.73626">
        <ele>172</ele>
        <time>2017-06-18T10:04:10Z</time>
      </trkpt>
      <trkpt lat="45.92807" lon="4.73631">
        <ele>172</ele>
        <time>2017-06-18T10:04:11Z</time>
      </trkpt>
      <trkpt lat="45.92803" lon="4.73635">
        <ele>172</ele>
        <time>2017-06-18T10:04:12Z</time>
      </trkpt>
      <trkpt lat="45.928" lon="4.73641">
        <ele>172</ele>
        <time>2017-06-18T10:04:13Z</time>
      </trkpt>
      <trkpt lat="45.92798" lon="4.73647">
        <ele>172</ele>
        <time>2017-06-18T10:04:14Z</time>
      </trkpt>
      <trkpt lat="45.92796" lon="4.73654">
        <ele>172</ele>
        <time>2017-06-18T10:04:15Z</time>
      </trkpt>
      <trkpt lat="45.92795" lon="4.7366">
        <ele>172</ele>
        <time>2017-06-18T10:04:16Z</time>
      </trkpt>
      <trkpt lat="45.92793" lon="4.73667">
        <ele>172</ele>
        <time>2017-06-18T10:04:17Z</time>
      </trkpt>
      <trkpt lat="45.9279" lon="4.73678">
        <ele>172</ele>
        <time>2017-06-18T10:04:19Z</time>
      </trkpt>
      <trkpt lat="45.92789" lon="4.73684">
        <ele>172</ele>
        <time>2017-06-18T10:04:20Z</time>
      </trkpt>
      <trkpt lat="45.92787" lon="4.73697">
        <ele>172</ele>
        <time>2017-06-18T10:04:22Z</time>
      </trkpt>
      <trkpt lat="45.92785" lon="4.73703">
        <ele>172</ele>
        <time>2017-06-18T10:04:23Z</time>
      </trkpt>
      <trkpt lat="45.92784" lon="4.73715">
        <ele>172</ele>
        <time>2017-06-18T10:04:25Z</time>
      </trkpt>
      <trkpt lat="45.92783" lon="4.7372">
        <ele>172</ele>
        <time>2017-06-18T10:04:26Z</time>
      </trkpt>
      <trkpt lat="45.92778" lon="4.73728">
        <ele>172</ele>
        <time>2017-06-18T10:04:28Z</time>
      </trkpt>
      <trkpt lat="45.92774" lon="4.73728">
        <ele>172</ele>
        <time>2017-06-18T10:04:29Z</time>
      </trkpt>
      <trkpt lat="45.92767" lon="4.73724">
        <ele>172</ele>
        <time>2017-06-18T10:04:31Z</time>
      </trkpt>
      <trkpt lat="45.92763" lon="4.73722">
        <ele>172</ele>
        <time>2017-06-18T10:04:32Z</time>
      </trkpt>
      <trkpt lat="45.92758" lon="4.7372">
        <ele>172</ele>
        <time>2017-06-18T10:04:33Z</time>
      </trkpt>
      <trkpt lat="45.92754" lon="4.73719">
        <ele>172</ele>
        <time>2017-06-18T10:04:34Z</time>
      </trkpt>
      <trkpt lat="45.92748" lon="4.73717">
        <ele>173</ele>
        <time>2017-06-18T10:04:35Z</time>
      </trkpt>
      <trkpt lat="45.92743" lon="4.73716">
        <ele>173</ele>
        <time>2017-06-18T10:04:36Z</time>
      </trkpt>
      <trkpt lat="45.92736" lon="4.73715">
        <ele>173</ele>
        <time>2017-06-18T10:04:37Z</time>
      </trkpt>
      <trkpt lat="45.92731" lon="4.73714">
        <ele>173</ele>
        <time>2017-06-18T10:04:38Z</time>
      </trkpt>
      <trkpt lat="45.92726" lon="4.73713">
        <ele>173</ele>
        <time>2017-06-18T10:04:39Z</time>
      </trkpt>
      <trkpt lat="45.92719" lon="4.73713">
        <ele>173</ele>
        <time>2017-06-18T10:04:40Z</time>
      </trkpt>
      <trkpt lat="45.92713" lon="4.73712">
        <ele>173</ele>
        <time>2017-06-18T10:04:41Z</time>
      </trkpt>
      <trkpt lat="45.92708" lon="4.7371">
        <ele>173</ele>
        <time>2017-06-18T10:04:42Z</time>
      </trkpt>
      <trkpt lat="45.92702" lon="4.73709">
        <ele>173</ele>
        <time>2017-06-18T10:04:43Z</time>
      </trkpt>
      <trkpt lat="45.92697" lon="4.73708">
        <ele>173</ele>
        <time>2017-06-18T10:04:44Z</time>
      </trkpt>
      <trkpt lat="45.92692" lon="4.73707">
        <ele>173</ele>
        <time>2017-06-18T10:04:45Z</time>
      </trkpt>
      <trkpt lat="45.92686" lon="4.73705">
        <ele>173</ele>
        <time>2017-06-18T10:04:46Z</time>
      </trkpt>
      <trkpt lat="45.9268" lon="4.73704">
        <ele>173</ele>
        <time>2017-06-18T10:04:47Z</time>
      </trkpt>
      <trkpt lat="45.92674" lon="4.73702">
        <ele>174</ele>
        <time>2017-06-18T10:04:48Z</time>
      </trkpt>
      <trkpt lat="45.92668" lon="4.73699">
        <ele>174</ele>
        <time>2017-06-18T10:04:49Z</time>
      </trkpt>
      <trkpt lat="45.92662" lon="4.73696">
        <ele>173</ele>
        <time>2017-06-18T10:04:50Z</time>
      </trkpt>
      <trkpt lat="45.92657" lon="4.73692">
        <ele>173</ele>
        <time>2017-06-18T10:04:51Z</time>
      </trkpt>
      <trkpt lat="45.92652" lon="4.73688">
        <ele>173</ele>
        <time>2017-06-18T10:04:52Z</time>
      </trkpt>
      <trkpt lat="45.92648" lon="4.73684">
        <ele>173</ele>
        <time>2017-06-18T10:04:53Z</time>
      </trkpt>
      <trkpt lat="45.92644" lon="4.73679">
        <ele>173</ele>
        <time>2017-06-18T10:04:54Z</time>
      </trkpt>
      <trkpt lat="45.92641" lon="4.73674">
        <ele>173</ele>
        <time>2017-06-18T10:04:55Z</time>
      </trkpt>
      <trkpt lat="45.92638" lon="4.73668">
        <ele>173</ele>
        <time>2017-06-18T10:04:56Z</time>
      </trkpt>
      <trkpt lat="45.92635" lon="4.73663">
        <ele>173</ele>
        <time>2017-06-18T10:04:57Z</time>
      </trkpt>
      <trkpt lat="45.92634" lon="4.73657">
        <ele>173</ele>
        <time>2017-06-18T10:04:58Z</time>
      </trkpt>
      <trkpt lat="45.9263" lon="4.73645">
        <ele>173</ele>
        <time>2017-06-18T10:05:00Z</time>
      </trkpt>
      <trkpt lat="45.92627" lon="4.7364">
        <ele>173</ele>
        <time>2017-06-18T10:05:01Z</time>
      </trkpt>
      <trkpt lat="45.92621" lon="4.7363">
        <ele>173</ele>
        <time>2017-06-18T10:05:03Z</time>
      </trkpt>
      <trkpt lat="45.92617" lon="4.73626">
        <ele>173</ele>
        <time>2017-06-18T10:05:04Z</time>
      </trkpt>
      <trkpt lat="45.92612" lon="4.73624">
        <ele>173</ele>
        <time>2017-06-18T10:05:05Z</time>
      </trkpt>
      <trkpt lat="45.92607" lon="4.73623">
        <ele>173</ele>
        <time>2017-06-18T10:05:06Z</time>
      </trkpt>
      <trkpt lat="45.92602" lon="4.73622">
        <ele>173</ele>
        <time>2017-06-18T10:05:07Z</time>
      </trkpt>
      <trkpt lat="45.92597" lon="4.73621">
        <ele>173</ele>
        <time>2017-06-18T10:05:08Z</time>
      </trkpt>
      <trkpt lat="45.92588" lon="4.73621">
        <ele>173</ele>
        <time>2017-06-18T10:05:10Z</time>
      </trkpt>
      <trkpt lat="45.92583" lon="4.73622">
        <ele>173</ele>
        <time>2017-06-18T10:05:11Z</time>
      </trkpt>
      <trkpt lat="45.92574" lon="4.73624">
        <ele>173</ele>
        <time>2017-06-18T10:05:13Z</time>
      </trkpt>
      <trkpt lat="45.92571" lon="4.73625">
        <ele>173</ele>
        <time>2017-06-18T10:05:14Z</time>
      </trkpt>
      <trkpt lat="45.92562" lon="4.73626">
        <ele>173</ele>
        <time>2017-06-18T10:05:16Z</time>
      </trkpt>
      <trkpt lat="45.92558" lon="4.73628">
        <ele>173</ele>
        <time>2017-06-18T10:05:17Z</time>
      </trkpt>
      <trkpt lat="45.92552" lon="4.7363">
        <ele>173</ele>
        <time>2017-06-18T10:05:18Z</time>
      </trkpt>
      <trkpt lat="45.92547" lon="4.73631">
        <ele>173</ele>
        <time>2017-06-18T10:05:19Z</time>
      </trkpt>
      <trkpt lat="45.92542" lon="4.73632">
        <ele>173</ele>
        <time>2017-06-18T10:05:20Z</time>
      </trkpt>
      <trkpt lat="45.92536" lon="4.73633">
        <ele>173</ele>
        <time>2017-06-18T10:05:21Z</time>
      </trkpt>
      <trkpt lat="45.92531" lon="4.73634">
        <ele>173</ele>
        <time>2017-06-18T10:05:22Z</time>
      </trkpt>
      <trkpt lat="45.92527" lon="4.73634">
        <ele>173</ele>
        <time>2017-06-18T10:05:23Z</time>
      </trkpt>
      <trkpt lat="45.92519" lon="4.73635">
        <ele>173</ele>
        <time>2017-06-18T10:05:25Z</time>
      </trkpt>
      <trkpt lat="45.92514" lon="4.73635">
        <ele>173</ele>
        <time>2017-06-18T10:05:26Z</time>
      </trkpt>
      <trkpt lat="45.92507" lon="4.73636">
        <ele>174</ele>
        <time>2017-06-18T10:05:28Z</time>
      </trkpt>
      <trkpt lat="45.92504" lon="4.73636">
        <ele>174</ele>
        <time>2017-06-18T10:05:29Z</time>
      </trkpt>
      <trkpt lat="45.92497" lon="4.73637">
        <ele>174</ele>
        <time>2017-06-18T10:05:31Z</time>
      </trkpt>
      <trkpt lat="45.92493" lon="4.73637">
        <ele>174</ele>
        <time>2017-06-18T10:05:32Z</time>
      </trkpt>
      <trkpt lat="45.92485" lon="4.73637">
        <ele>174</ele>
        <time>2017-06-18T10:05:34Z</time>
      </trkpt>
      <trkpt lat="45.92481" lon="4.73638">
        <ele>174</ele>
        <time>2017-06-18T10:05:35Z</time>
      </trkpt>
      <trkpt lat="45.92475" lon="4.73644">
        <ele>174</ele>
        <time>2017-06-18T10:05:37Z</time>
      </trkpt>
      <trkpt lat="45.92472" lon="4.73648">
        <ele>174</ele>
        <time>2017-06-18T10:05:38Z</time>
      </trkpt>
      <trkpt lat="45.92471" lon="4.7366">
        <ele>174</ele>
        <time>2017-06-18T10:05:40Z</time>
      </trkpt>
      <trkpt lat="45.9247" lon="4.73664">
        <ele>174</ele>
        <time>2017-06-18T10:05:41Z</time>
      </trkpt>
      <trkpt lat="45.92468" lon="4.73675">
        <ele>174</ele>
        <time>2017-06-18T10:05:43Z</time>
      </trkpt>
      <trkpt lat="45.92468" lon="4.7368">
        <ele>174</ele>
        <time>2017-06-18T10:05:44Z</time>
      </trkpt>
      <trkpt lat="45.92466" lon="4.7369">
        <ele>174</ele>
        <time>2017-06-18T10:05:46Z</time>
      </trkpt>
      <trkpt lat="45.92465" lon="4.73695">
        <ele>174</ele>
        <time>2017-06-18T10:05:47Z</time>
      </trkpt>
      <trkpt lat="45.92463" lon="4.73706">
        <ele>174</ele>
        <time>2017-06-18T10:06:17.27Z</time>
      </trkpt>
    </trkseg>
  </trk>
</gpx>